<?xml version="1.0" encoding="UTF-8" standalone="no" ?>
<gpx xmlns="http://www.topografix.com/GPX/1/1" xmlns:xsi="http://www.w3.org/2001/XMLSchema-instance" xsi:schemaLocation="http://www.topografix.com/GPX/1/1 http://www.topografix.com/GPX/1/1/gpx.xsd" version="1.1" creator="VisuGPX - https://www.visugpx.com">
  <metadata>
    <name>Stevenson // GTMC Cévennes</name>
  </metadata>
  <trk>
    <name><![CDATA[Chemin de Stevenson : l'intégrale - 33191 - UtagawaVTT.com]]></name>
    <extensions>
      <line xmlns="http://www.topografix.com/GPX/gpx_style/0/2">
        <color>880000</color>
        <width>4</width>
      </line>
    </extensions>
    <trkseg>
      <trkpt lat="45.0386" lon="3.89757">
        <ele>701.092</ele>
        <time>2016-05-02T09:00:29Z</time>
      </trkpt>
      <trkpt lat="45.03863" lon="3.89705">
        <ele>699.029</ele>
        <time>2016-05-02T09:01:44Z</time>
      </trkpt>
      <trkpt lat="45.03758" lon="3.89701">
        <ele>708.716</ele>
        <time>2016-05-02T09:03:26Z</time>
      </trkpt>
      <trkpt lat="45.03724" lon="3.89764">
        <ele>716.926</ele>
        <time>2016-05-02T09:03:58Z</time>
      </trkpt>
      <trkpt lat="45.03593" lon="3.89885">
        <ele>748.58</ele>
        <time>2016-05-02T09:07:20Z</time>
      </trkpt>
      <trkpt lat="45.0356" lon="3.89923">
        <ele>756.944</ele>
        <time>2016-05-02T09:08:06Z</time>
      </trkpt>
      <trkpt lat="45.03491" lon="3.89909">
        <ele>773.302</ele>
        <time>2016-05-02T09:09:51Z</time>
      </trkpt>
      <trkpt lat="45.03441" lon="3.8989">
        <ele>780.74</ele>
        <time>2016-05-02T09:11:06Z</time>
      </trkpt>
      <trkpt lat="45.03176" lon="3.89831">
        <ele>786.537</ele>
        <time>2016-05-02T09:13:07Z</time>
      </trkpt>
      <trkpt lat="45.03165" lon="3.89777">
        <ele>788.233</ele>
        <time>2016-05-02T09:13:19Z</time>
      </trkpt>
      <trkpt lat="45.03162" lon="3.89601">
        <ele>788.598</ele>
        <time>2016-05-02T09:13:52Z</time>
      </trkpt>
      <trkpt lat="45.03146" lon="3.89524">
        <ele>788.595</ele>
        <time>2016-05-02T09:14:09Z</time>
      </trkpt>
      <trkpt lat="45.03135" lon="3.89442">
        <ele>782.12</ele>
        <time>2016-05-02T09:14:23Z</time>
      </trkpt>
      <trkpt lat="45.03158" lon="3.89401">
        <ele>775.007</ele>
        <time>2016-05-02T09:14:31Z</time>
      </trkpt>
      <trkpt lat="45.03187" lon="3.89375">
        <ele>771.129</ele>
        <time>2016-05-02T09:14:39Z</time>
      </trkpt>
      <trkpt lat="45.03188" lon="3.89358">
        <ele>769.23</ele>
        <time>2016-05-02T09:14:43Z</time>
      </trkpt>
      <trkpt lat="45.03159" lon="3.89306">
        <ele>763.657</ele>
        <time>2016-05-02T09:15:28Z</time>
      </trkpt>
      <trkpt lat="45.03121" lon="3.893">
        <ele>767.164</ele>
        <time>2016-05-02T09:15:56Z</time>
      </trkpt>
      <trkpt lat="45.03011" lon="3.8936">
        <ele>789.107</ele>
        <time>2016-05-02T09:18:23Z</time>
      </trkpt>
      <trkpt lat="45.02987" lon="3.89371">
        <ele>791.946</ele>
        <time>2016-05-02T09:18:57Z</time>
      </trkpt>
      <trkpt lat="45.02945" lon="3.89411">
        <ele>793.506</ele>
        <time>2016-05-02T09:19:19Z</time>
      </trkpt>
      <trkpt lat="45.02895" lon="3.8945">
        <ele>792.754</ele>
        <time>2016-05-02T09:19:39Z</time>
      </trkpt>
      <trkpt lat="45.02839" lon="3.89488">
        <ele>793.102</ele>
        <time>2016-05-02T09:19:58Z</time>
      </trkpt>
      <trkpt lat="45.02738" lon="3.89584">
        <ele>794.559</ele>
        <time>2016-05-02T09:20:33Z</time>
      </trkpt>
      <trkpt lat="45.0249" lon="3.89665">
        <ele>796.125</ele>
        <time>2016-05-02T09:21:34Z</time>
      </trkpt>
      <trkpt lat="45.02328" lon="3.8966">
        <ele>796.295</ele>
        <time>2016-05-02T09:22:11Z</time>
      </trkpt>
      <trkpt lat="45.02202" lon="3.89685">
        <ele>801.044</ele>
        <time>2016-05-02T09:22:39Z</time>
      </trkpt>
      <trkpt lat="45.02037" lon="3.89765">
        <ele>807.943</ele>
        <time>2016-05-02T09:23:21Z</time>
      </trkpt>
      <trkpt lat="45.02032" lon="3.89766">
        <ele>808.065</ele>
        <time>2016-05-02T09:23:24Z</time>
      </trkpt>
      <trkpt lat="45.02003" lon="3.89832">
        <ele>809.976</ele>
        <time>2016-05-02T09:23:46Z</time>
      </trkpt>
      <trkpt lat="45.01964" lon="3.89862">
        <ele>811.164</ele>
        <time>2016-05-02T09:24:01Z</time>
      </trkpt>
      <trkpt lat="45.01815" lon="3.89958">
        <ele>811.117</ele>
        <time>2016-05-02T09:24:50Z</time>
      </trkpt>
      <trkpt lat="45.01657" lon="3.90111">
        <ele>812.17</ele>
        <time>2016-05-02T09:25:43Z</time>
      </trkpt>
      <trkpt lat="45.01576" lon="3.90196">
        <ele>812.661</ele>
        <time>2016-05-02T09:26:12Z</time>
      </trkpt>
      <trkpt lat="45.01615" lon="3.9044">
        <ele>814.142</ele>
        <time>2016-05-02T09:27:02Z</time>
      </trkpt>
      <trkpt lat="45.01608" lon="3.90454">
        <ele>813.962</ele>
        <time>2016-05-02T09:27:06Z</time>
      </trkpt>
      <trkpt lat="45.01528" lon="3.90466">
        <ele>813.117</ele>
        <time>2016-05-02T09:27:24Z</time>
      </trkpt>
      <trkpt lat="45.01491" lon="3.90451">
        <ele>813.347</ele>
        <time>2016-05-02T09:27:32Z</time>
      </trkpt>
      <trkpt lat="45.01473" lon="3.90442">
        <ele>813.434</ele>
        <time>2016-05-02T09:27:41Z</time>
      </trkpt>
      <trkpt lat="45.01433" lon="3.90495">
        <ele>811.69</ele>
        <time>2016-05-02T09:27:55Z</time>
      </trkpt>
      <trkpt lat="45.01373" lon="3.90507">
        <ele>811.16</ele>
        <time>2016-05-02T09:28:09Z</time>
      </trkpt>
      <trkpt lat="45.01361" lon="3.90517">
        <ele>810.726</ele>
        <time>2016-05-02T09:28:12Z</time>
      </trkpt>
      <trkpt lat="45.01258" lon="3.90652">
        <ele>809.843</ele>
        <time>2016-05-02T09:28:42Z</time>
      </trkpt>
      <trkpt lat="45.01157" lon="3.90762">
        <ele>810.522</ele>
        <time>2016-05-02T09:29:07Z</time>
      </trkpt>
      <trkpt lat="45.01069" lon="3.90962">
        <ele>805.059</ele>
        <time>2016-05-02T09:29:40Z</time>
      </trkpt>
      <trkpt lat="45.01048" lon="3.91012">
        <ele>799.441</ele>
        <time>2016-05-02T09:30:22Z</time>
      </trkpt>
      <trkpt lat="45.01021" lon="3.91071">
        <ele>792.298</ele>
        <time>2016-05-02T09:30:29Z</time>
      </trkpt>
      <trkpt lat="45.00983" lon="3.91109">
        <ele>785.737</ele>
        <time>2016-05-02T09:30:36Z</time>
      </trkpt>
      <trkpt lat="45.00874" lon="3.91069">
        <ele>783.013</ele>
        <time>2016-05-02T09:30:50Z</time>
      </trkpt>
      <trkpt lat="45.00769" lon="3.91067">
        <ele>769.492</ele>
        <time>2016-05-02T09:31:06Z</time>
      </trkpt>
      <trkpt lat="45.0071" lon="3.91092">
        <ele>760.805</ele>
        <time>2016-05-02T09:31:15Z</time>
      </trkpt>
      <trkpt lat="45.00609" lon="3.91195">
        <ele>749.484</ele>
        <time>2016-05-02T09:31:31Z</time>
      </trkpt>
      <trkpt lat="45.00608" lon="3.91222">
        <ele>746.347</ele>
        <time>2016-05-02T09:31:35Z</time>
      </trkpt>
      <trkpt lat="45.00603" lon="3.91231">
        <ele>744.923</ele>
        <time>2016-05-02T09:31:37Z</time>
      </trkpt>
      <trkpt lat="45.00534" lon="3.9125">
        <ele>738.966</ele>
        <time>2016-05-02T09:31:51Z</time>
      </trkpt>
      <trkpt lat="45.00428" lon="3.91346">
        <ele>723.781</ele>
        <time>2016-05-02T09:32:17Z</time>
      </trkpt>
      <trkpt lat="45.00394" lon="3.91327">
        <ele>721.259</ele>
        <time>2016-05-02T09:35:56Z</time>
      </trkpt>
      <trkpt lat="45.00346" lon="3.91302">
        <ele>714.846</ele>
        <time>2016-05-02T09:36:11Z</time>
      </trkpt>
      <trkpt lat="45.00311" lon="3.91301">
        <ele>709.47</ele>
        <time>2016-05-02T09:36:23Z</time>
      </trkpt>
      <trkpt lat="45.00308" lon="3.91425">
        <ele>703.776</ele>
        <time>2016-05-02T09:36:39Z</time>
      </trkpt>
      <trkpt lat="45.00295" lon="3.91444">
        <ele>700.983</ele>
        <time>2016-05-02T09:36:41Z</time>
      </trkpt>
      <trkpt lat="45.00277" lon="3.91459">
        <ele>697.556</ele>
        <time>2016-05-02T09:36:43Z</time>
      </trkpt>
      <trkpt lat="45.00089" lon="3.91571">
        <ele>679.321</ele>
        <time>2016-05-02T09:37:05Z</time>
      </trkpt>
      <trkpt lat="45.00076" lon="3.91576">
        <ele>678.36</ele>
        <time>2016-05-02T09:37:08Z</time>
      </trkpt>
      <trkpt lat="45.00109" lon="3.9165">
        <ele>672.769</ele>
        <time>2016-05-02T09:37:17Z</time>
      </trkpt>
      <trkpt lat="45.00103" lon="3.91693">
        <ele>667.771</ele>
        <time>2016-05-02T09:37:22Z</time>
      </trkpt>
      <trkpt lat="45.00103" lon="3.91705">
        <ele>666.43</ele>
        <time>2016-05-02T09:37:29Z</time>
      </trkpt>
      <trkpt lat="44.99934" lon="3.91703">
        <ele>646.79</ele>
        <time>2016-05-02T09:38:31Z</time>
      </trkpt>
      <trkpt lat="44.99889" lon="3.91745">
        <ele>634.193</ele>
        <time>2016-05-02T09:38:46Z</time>
      </trkpt>
      <trkpt lat="44.99871" lon="3.91697">
        <ele>633.285</ele>
        <time>2016-05-02T09:39:09Z</time>
      </trkpt>
      <trkpt lat="44.99805" lon="3.91713">
        <ele>629.227</ele>
        <time>2016-05-02T09:40:22Z</time>
      </trkpt>
      <trkpt lat="44.99742" lon="3.9174">
        <ele>631.12</ele>
        <time>2016-05-02T09:41:05Z</time>
      </trkpt>
      <trkpt lat="44.99716" lon="3.91801">
        <ele>632.212</ele>
        <time>2016-05-02T09:41:14Z</time>
      </trkpt>
      <trkpt lat="44.99687" lon="3.91826">
        <ele>633.364</ele>
        <time>2016-05-02T09:41:21Z</time>
      </trkpt>
      <trkpt lat="44.99634" lon="3.91839">
        <ele>635.173</ele>
        <time>2016-05-02T09:41:34Z</time>
      </trkpt>
      <trkpt lat="44.99468" lon="3.91783">
        <ele>652.749</ele>
        <time>2016-05-02T09:43:02Z</time>
      </trkpt>
      <trkpt lat="44.99422" lon="3.91839">
        <ele>658.033</ele>
        <time>2016-05-02T09:43:45Z</time>
      </trkpt>
      <trkpt lat="44.9937" lon="3.91891">
        <ele>666.079</ele>
        <time>2016-05-02T09:44:30Z</time>
      </trkpt>
      <trkpt lat="44.99306" lon="3.92027">
        <ele>677.05</ele>
        <time>2016-05-02T09:46:00Z</time>
      </trkpt>
      <trkpt lat="44.99269" lon="3.9207">
        <ele>682.895</ele>
        <time>2016-05-02T09:46:31Z</time>
      </trkpt>
      <trkpt lat="44.99167" lon="3.92042">
        <ele>695.681</ele>
        <time>2016-05-02T09:47:41Z</time>
      </trkpt>
      <trkpt lat="44.99137" lon="3.91962">
        <ele>702.98</ele>
        <time>2016-05-02T09:48:38Z</time>
      </trkpt>
      <trkpt lat="44.99107" lon="3.91925">
        <ele>709.287</ele>
        <time>2016-05-02T09:49:32Z</time>
      </trkpt>
      <trkpt lat="44.99072" lon="3.9188">
        <ele>716.698</ele>
        <time>2016-05-02T09:50:25Z</time>
      </trkpt>
      <trkpt lat="44.99055" lon="3.91833">
        <ele>722.688</ele>
        <time>2016-05-02T09:56:06Z</time>
      </trkpt>
      <trkpt lat="44.99071" lon="3.9175">
        <ele>727.07</ele>
        <time>2016-05-02T09:56:45Z</time>
      </trkpt>
      <trkpt lat="44.99079" lon="3.91702">
        <ele>730.207</ele>
        <time>2016-05-02T09:57:09Z</time>
      </trkpt>
      <trkpt lat="44.99033" lon="3.91673">
        <ele>739.407</ele>
        <time>2016-05-02T09:57:48Z</time>
      </trkpt>
      <trkpt lat="44.99044" lon="3.91643">
        <ele>741.419</ele>
        <time>2016-05-02T09:58:09Z</time>
      </trkpt>
      <trkpt lat="44.99094" lon="3.91571">
        <ele>742.711</ele>
        <time>2016-05-02T09:59:03Z</time>
      </trkpt>
      <trkpt lat="44.98989" lon="3.91533">
        <ele>761.85</ele>
        <time>2016-05-02T10:00:33Z</time>
      </trkpt>
      <trkpt lat="44.98944" lon="3.91459">
        <ele>773.789</ele>
        <time>2016-05-02T10:01:29Z</time>
      </trkpt>
      <trkpt lat="44.98929" lon="3.91432">
        <ele>776.446</ele>
        <time>2016-05-02T10:01:47Z</time>
      </trkpt>
      <trkpt lat="44.98912" lon="3.91411">
        <ele>779.912</ele>
        <time>2016-05-02T10:02:00Z</time>
      </trkpt>
      <trkpt lat="44.98872" lon="3.91355">
        <ele>783.015</ele>
        <time>2016-05-02T10:02:25Z</time>
      </trkpt>
      <trkpt lat="44.98827" lon="3.91345">
        <ele>788.102</ele>
        <time>2016-05-02T10:02:41Z</time>
      </trkpt>
      <trkpt lat="44.98715" lon="3.91379">
        <ele>794.724</ele>
        <time>2016-05-02T10:03:32Z</time>
      </trkpt>
      <trkpt lat="44.98694" lon="3.91384">
        <ele>795.469</ele>
        <time>2016-05-02T10:03:43Z</time>
      </trkpt>
      <trkpt lat="44.98597" lon="3.9139">
        <ele>800.327</ele>
        <time>2016-05-02T10:05:00Z</time>
      </trkpt>
      <trkpt lat="44.98526" lon="3.91444">
        <ele>805.231</ele>
        <time>2016-05-02T10:06:09Z</time>
      </trkpt>
      <trkpt lat="44.98504" lon="3.91432">
        <ele>806.352</ele>
        <time>2016-05-02T10:06:28Z</time>
      </trkpt>
      <trkpt lat="44.98443" lon="3.91363">
        <ele>808.378</ele>
        <time>2016-05-02T10:06:53Z</time>
      </trkpt>
      <trkpt lat="44.98415" lon="3.91358">
        <ele>808.051</ele>
        <time>2016-05-02T10:09:42Z</time>
      </trkpt>
      <trkpt lat="44.98415" lon="3.91357">
        <ele>808.025</ele>
        <time>2016-05-02T10:10:08Z</time>
      </trkpt>
      <trkpt lat="44.98405" lon="3.91429">
        <ele>810.788</ele>
        <time>2016-05-02T10:12:57Z</time>
      </trkpt>
      <trkpt lat="44.98407" lon="3.91496">
        <ele>812.65</ele>
        <time>2016-05-02T10:13:13Z</time>
      </trkpt>
      <trkpt lat="44.98371" lon="3.91573">
        <ele>817.213</ele>
        <time>2016-05-02T10:13:37Z</time>
      </trkpt>
      <trkpt lat="44.98331" lon="3.9162">
        <ele>821.93</ele>
        <time>2016-05-02T10:13:55Z</time>
      </trkpt>
      <trkpt lat="44.98254" lon="3.91703">
        <ele>832.588</ele>
        <time>2016-05-02T10:14:29Z</time>
      </trkpt>
      <trkpt lat="44.98178" lon="3.91695">
        <ele>837.524</ele>
        <time>2016-05-02T10:15:26Z</time>
      </trkpt>
      <trkpt lat="44.98169" lon="3.91701">
        <ele>838.113</ele>
        <time>2016-05-02T10:15:33Z</time>
      </trkpt>
      <trkpt lat="44.98145" lon="3.91756">
        <ele>841.432</ele>
        <time>2016-05-02T10:16:05Z</time>
      </trkpt>
      <trkpt lat="44.98146" lon="3.91822">
        <ele>843.72</ele>
        <time>2016-05-02T10:16:34Z</time>
      </trkpt>
      <trkpt lat="44.98131" lon="3.91877">
        <ele>845.296</ele>
        <time>2016-05-02T10:16:51Z</time>
      </trkpt>
      <trkpt lat="44.98054" lon="3.91999">
        <ele>851.838</ele>
        <time>2016-05-02T10:17:38Z</time>
      </trkpt>
      <trkpt lat="44.98034" lon="3.92027">
        <ele>853.925</ele>
        <time>2016-05-02T10:17:53Z</time>
      </trkpt>
      <trkpt lat="44.97948" lon="3.92161">
        <ele>865.688</ele>
        <time>2016-05-02T10:19:08Z</time>
      </trkpt>
      <trkpt lat="44.97867" lon="3.92332">
        <ele>875.122</ele>
        <time>2016-05-02T10:20:49Z</time>
      </trkpt>
      <trkpt lat="44.97767" lon="3.92501">
        <ele>885.553</ele>
        <time>2016-05-02T10:22:17Z</time>
      </trkpt>
      <trkpt lat="44.97729" lon="3.92538">
        <ele>889.862</ele>
        <time>2016-05-02T10:22:43Z</time>
      </trkpt>
      <trkpt lat="44.97637" lon="3.92678">
        <ele>893.933</ele>
        <time>2016-05-02T10:25:29Z</time>
      </trkpt>
      <trkpt lat="44.97625" lon="3.92694">
        <ele>893.569</ele>
        <time>2016-05-02T10:26:14Z</time>
      </trkpt>
      <trkpt lat="44.97579" lon="3.9275">
        <ele>890.168</ele>
        <time>2016-05-02T10:26:27Z</time>
      </trkpt>
      <trkpt lat="44.97566" lon="3.92758">
        <ele>889.721</ele>
        <time>2016-05-02T10:26:29Z</time>
      </trkpt>
      <trkpt lat="44.97517" lon="3.92785">
        <ele>888.074</ele>
        <time>2016-05-02T10:26:36Z</time>
      </trkpt>
      <trkpt lat="44.97404" lon="3.92836">
        <ele>887.956</ele>
        <time>2016-05-02T10:26:55Z</time>
      </trkpt>
      <trkpt lat="44.97348" lon="3.92913">
        <ele>886.504</ele>
        <time>2016-05-02T10:27:08Z</time>
      </trkpt>
      <trkpt lat="44.97129" lon="3.93465">
        <ele>889.478</ele>
        <time>2016-05-02T10:29:39Z</time>
      </trkpt>
      <trkpt lat="44.97075" lon="3.93538">
        <ele>891.062</ele>
        <time>2016-05-02T10:30:05Z</time>
      </trkpt>
      <trkpt lat="44.97043" lon="3.93612">
        <ele>895.159</ele>
        <time>2016-05-02T10:30:21Z</time>
      </trkpt>
      <trkpt lat="44.97006" lon="3.93681">
        <ele>896.156</ele>
        <time>2016-05-02T10:30:36Z</time>
      </trkpt>
      <trkpt lat="44.96999" lon="3.93692">
        <ele>895.774</ele>
        <time>2016-05-02T10:30:38Z</time>
      </trkpt>
      <trkpt lat="44.96967" lon="3.93748">
        <ele>892.918</ele>
        <time>2016-05-02T10:30:46Z</time>
      </trkpt>
      <trkpt lat="44.96905" lon="3.93897">
        <ele>887.847</ele>
        <time>2016-05-02T10:31:03Z</time>
      </trkpt>
      <trkpt lat="44.96807" lon="3.94023">
        <ele>893.49</ele>
        <time>2016-05-02T10:31:34Z</time>
      </trkpt>
      <trkpt lat="44.96699" lon="3.94128">
        <ele>896.428</ele>
        <time>2016-05-02T10:32:10Z</time>
      </trkpt>
      <trkpt lat="44.96608" lon="3.94231">
        <ele>896.244</ele>
        <time>2016-05-02T10:32:39Z</time>
      </trkpt>
      <trkpt lat="44.96554" lon="3.94283">
        <ele>896.493</ele>
        <time>2016-05-02T10:32:53Z</time>
      </trkpt>
      <trkpt lat="44.96395" lon="3.94551">
        <ele>895.403</ele>
        <time>2016-05-02T10:33:47Z</time>
      </trkpt>
      <trkpt lat="44.96264" lon="3.94729">
        <ele>896.496</ele>
        <time>2016-05-02T10:34:32Z</time>
      </trkpt>
      <trkpt lat="44.96256" lon="3.94737">
        <ele>896.523</ele>
        <time>2016-05-02T10:34:55Z</time>
      </trkpt>
      <trkpt lat="44.96207" lon="3.94817">
        <ele>898.255</ele>
        <time>2016-05-02T10:35:37Z</time>
      </trkpt>
      <trkpt lat="44.96185" lon="3.94929">
        <ele>903.255</ele>
        <time>2016-05-02T10:36:06Z</time>
      </trkpt>
      <trkpt lat="44.96201" lon="3.95151">
        <ele>909.254</ele>
        <time>2016-05-02T10:37:16Z</time>
      </trkpt>
      <trkpt lat="44.96239" lon="3.95655">
        <ele>904.201</ele>
        <time>2016-05-02T10:38:51Z</time>
      </trkpt>
      <trkpt lat="44.96245" lon="3.95703">
        <ele>905.012</ele>
        <time>2016-05-02T10:38:58Z</time>
      </trkpt>
      <trkpt lat="44.96248" lon="3.95758">
        <ele>904.568</ele>
        <time>2016-05-02T10:39:05Z</time>
      </trkpt>
      <trkpt lat="44.96256" lon="3.95852">
        <ele>898.27</ele>
        <time>2016-05-02T10:39:17Z</time>
      </trkpt>
      <trkpt lat="44.96214" lon="3.95944">
        <ele>894.885</ele>
        <time>2016-05-02T10:39:32Z</time>
      </trkpt>
      <trkpt lat="44.96171" lon="3.96028">
        <ele>892.698</ele>
        <time>2016-05-02T10:39:44Z</time>
      </trkpt>
      <trkpt lat="44.96159" lon="3.96069">
        <ele>890.602</ele>
        <time>2016-05-02T10:39:48Z</time>
      </trkpt>
      <trkpt lat="44.96132" lon="3.96143">
        <ele>887.543</ele>
        <time>2016-05-02T10:40:01Z</time>
      </trkpt>
      <trkpt lat="44.96082" lon="3.9619">
        <ele>886.64</ele>
        <time>2016-05-02T10:40:23Z</time>
      </trkpt>
      <trkpt lat="44.96054" lon="3.96186">
        <ele>890.151</ele>
        <time>2016-05-02T10:51:51Z</time>
      </trkpt>
      <trkpt lat="44.96009" lon="3.96217">
        <ele>891.699</ele>
        <time>2016-05-02T10:52:13Z</time>
      </trkpt>
      <trkpt lat="44.95967" lon="3.96303">
        <ele>889.021</ele>
        <time>2016-05-02T10:52:50Z</time>
      </trkpt>
      <trkpt lat="44.95915" lon="3.96369">
        <ele>898.739</ele>
        <time>2016-05-02T10:53:24Z</time>
      </trkpt>
      <trkpt lat="44.95891" lon="3.96454">
        <ele>896.878</ele>
        <time>2016-05-02T10:53:53Z</time>
      </trkpt>
      <trkpt lat="44.95809" lon="3.96605">
        <ele>892.561</ele>
        <time>2016-05-02T10:54:33Z</time>
      </trkpt>
      <trkpt lat="44.95711" lon="3.96695">
        <ele>891.458</ele>
        <time>2016-05-02T10:55:01Z</time>
      </trkpt>
      <trkpt lat="44.95627" lon="3.9682">
        <ele>892.889</ele>
        <time>2016-05-02T10:55:29Z</time>
      </trkpt>
      <trkpt lat="44.95561" lon="3.96929">
        <ele>894.705</ele>
        <time>2016-05-02T10:55:54Z</time>
      </trkpt>
      <trkpt lat="44.95533" lon="3.97058">
        <ele>892.758</ele>
        <time>2016-05-02T10:56:19Z</time>
      </trkpt>
      <trkpt lat="44.95493" lon="3.97055">
        <ele>898.12</ele>
        <time>2016-05-02T10:56:31Z</time>
      </trkpt>
      <trkpt lat="44.95459" lon="3.97085">
        <ele>901.664</ele>
        <time>2016-05-02T11:05:07Z</time>
      </trkpt>
      <trkpt lat="44.95448" lon="3.97101">
        <ele>902.55</ele>
        <time>2016-05-02T11:05:24Z</time>
      </trkpt>
      <trkpt lat="44.95347" lon="3.97121">
        <ele>916.757</ele>
        <time>2016-05-02T11:07:31Z</time>
      </trkpt>
      <trkpt lat="44.95334" lon="3.97096">
        <ele>920.569</ele>
        <time>2016-05-02T11:08:39Z</time>
      </trkpt>
      <trkpt lat="44.95283" lon="3.9708">
        <ele>932.214</ele>
        <time>2016-05-02T11:11:00Z</time>
      </trkpt>
      <trkpt lat="44.95248" lon="3.97058">
        <ele>942.483</ele>
        <time>2016-05-02T11:12:32Z</time>
      </trkpt>
      <trkpt lat="44.95233" lon="3.9705">
        <ele>946.716</ele>
        <time>2016-05-02T11:13:16Z</time>
      </trkpt>
      <trkpt lat="44.95115" lon="3.97027">
        <ele>967.536</ele>
        <time>2016-05-02T11:17:37Z</time>
      </trkpt>
      <trkpt lat="44.95103" lon="3.97034">
        <ele>968.384</ele>
        <time>2016-05-02T11:17:55Z</time>
      </trkpt>
      <trkpt lat="44.95081" lon="3.97037">
        <ele>969.971</ele>
        <time>2016-05-02T11:18:23Z</time>
      </trkpt>
      <trkpt lat="44.94852" lon="3.9701">
        <ele>973.909</ele>
        <time>2016-05-02T11:19:52Z</time>
      </trkpt>
      <trkpt lat="44.94782" lon="3.97073">
        <ele>978.155</ele>
        <time>2016-05-02T11:20:18Z</time>
      </trkpt>
      <trkpt lat="44.94782" lon="3.97131">
        <ele>980.736</ele>
        <time>2016-05-02T11:20:32Z</time>
      </trkpt>
      <trkpt lat="44.94767" lon="3.97153">
        <ele>981.415</ele>
        <time>2016-05-02T11:20:39Z</time>
      </trkpt>
      <trkpt lat="44.94743" lon="3.97166">
        <ele>982.982</ele>
        <time>2016-05-02T11:20:47Z</time>
      </trkpt>
      <trkpt lat="44.94723" lon="3.97169">
        <ele>984.28</ele>
        <time>2016-05-02T11:20:54Z</time>
      </trkpt>
      <trkpt lat="44.94617" lon="3.97219">
        <ele>983.252</ele>
        <time>2016-05-02T11:22:08Z</time>
      </trkpt>
      <trkpt lat="44.94588" lon="3.97346">
        <ele>981.825</ele>
        <time>2016-05-02T11:24:50Z</time>
      </trkpt>
      <trkpt lat="44.94595" lon="3.97378">
        <ele>983.7</ele>
        <time>2016-05-02T11:25:04Z</time>
      </trkpt>
      <trkpt lat="44.94627" lon="3.97693">
        <ele>983.392</ele>
        <time>2016-05-02T11:26:47Z</time>
      </trkpt>
      <trkpt lat="44.94615" lon="3.98123">
        <ele>983.513</ele>
        <time>2016-05-02T11:31:34Z</time>
      </trkpt>
      <trkpt lat="44.94621" lon="3.98181">
        <ele>984.151</ele>
        <time>2016-05-02T11:33:10Z</time>
      </trkpt>
      <trkpt lat="44.94641" lon="3.98253">
        <ele>981.372</ele>
        <time>2016-05-02T11:33:37Z</time>
      </trkpt>
      <trkpt lat="44.94664" lon="3.98285">
        <ele>976.777</ele>
        <time>2016-05-02T11:34:44Z</time>
      </trkpt>
      <trkpt lat="44.94666" lon="3.98295">
        <ele>975.393</ele>
        <time>2016-05-02T11:34:46Z</time>
      </trkpt>
      <trkpt lat="44.94666" lon="3.98415">
        <ele>958.149</ele>
        <time>2016-05-02T11:35:54Z</time>
      </trkpt>
      <trkpt lat="44.94686" lon="3.98467">
        <ele>951.565</ele>
        <time>2016-05-02T11:36:06Z</time>
      </trkpt>
      <trkpt lat="44.9467" lon="3.98545">
        <ele>941.958</ele>
        <time>2016-05-02T11:36:19Z</time>
      </trkpt>
      <trkpt lat="44.94669" lon="3.98583">
        <ele>938.347</ele>
        <time>2016-05-02T11:36:23Z</time>
      </trkpt>
      <trkpt lat="44.9469" lon="3.98737">
        <ele>930.52</ele>
        <time>2016-05-02T11:36:40Z</time>
      </trkpt>
      <trkpt lat="44.9467" lon="3.98911">
        <ele>931.203</ele>
        <time>2016-05-02T11:37:15Z</time>
      </trkpt>
      <trkpt lat="44.94665" lon="3.98922">
        <ele>931.564</ele>
        <time>2016-05-02T11:37:18Z</time>
      </trkpt>
      <trkpt lat="44.94409" lon="3.991">
        <ele>936.595</ele>
        <time>2016-05-02T11:38:32Z</time>
      </trkpt>
      <trkpt lat="44.94289" lon="3.99231">
        <ele>931.801</ele>
        <time>2016-05-02T11:39:00Z</time>
      </trkpt>
      <trkpt lat="44.94054" lon="3.99365">
        <ele>929.526</ele>
        <time>2016-05-02T11:39:48Z</time>
      </trkpt>
      <trkpt lat="44.94014" lon="3.99401">
        <ele>930.74</ele>
        <time>2016-05-02T11:39:56Z</time>
      </trkpt>
      <trkpt lat="44.93945" lon="3.99421">
        <ele>927.379</ele>
        <time>2016-05-02T11:40:13Z</time>
      </trkpt>
      <trkpt lat="44.93924" lon="3.99447">
        <ele>928.533</ele>
        <time>2016-05-02T12:22:34Z</time>
      </trkpt>
      <trkpt lat="44.93908" lon="3.99488">
        <ele>931.997</ele>
        <time>2016-05-02T12:22:57Z</time>
      </trkpt>
      <trkpt lat="44.93895" lon="3.99521">
        <ele>934.828</ele>
        <time>2016-05-02T12:23:13Z</time>
      </trkpt>
      <trkpt lat="44.93883" lon="3.9953">
        <ele>935.107</ele>
        <time>2016-05-02T12:23:23Z</time>
      </trkpt>
      <trkpt lat="44.93757" lon="3.99557">
        <ele>934.643</ele>
        <time>2016-05-02T12:24:10Z</time>
      </trkpt>
      <trkpt lat="44.93689" lon="3.99576">
        <ele>934.125</ele>
        <time>2016-05-02T12:24:25Z</time>
      </trkpt>
      <trkpt lat="44.93545" lon="3.99636">
        <ele>929.866</ele>
        <time>2016-05-02T12:26:58Z</time>
      </trkpt>
      <trkpt lat="44.93527" lon="3.99585">
        <ele>922.269</ele>
        <time>2016-05-02T12:27:08Z</time>
      </trkpt>
      <trkpt lat="44.9354" lon="3.99536">
        <ele>918.14</ele>
        <time>2016-05-02T12:27:14Z</time>
      </trkpt>
      <trkpt lat="44.93572" lon="3.99472">
        <ele>913.172</ele>
        <time>2016-05-02T12:27:20Z</time>
      </trkpt>
      <trkpt lat="44.93628" lon="3.9928">
        <ele>893.661</ele>
        <time>2016-05-02T12:27:33Z</time>
      </trkpt>
      <trkpt lat="44.93645" lon="3.99053">
        <ele>870.469</ele>
        <time>2016-05-02T12:27:48Z</time>
      </trkpt>
      <trkpt lat="44.93655" lon="3.98993">
        <ele>864.85</ele>
        <time>2016-05-02T12:27:53Z</time>
      </trkpt>
      <trkpt lat="44.93688" lon="3.98884">
        <ele>854.227</ele>
        <time>2016-05-02T12:28:03Z</time>
      </trkpt>
      <trkpt lat="44.9369" lon="3.9881">
        <ele>847.27</ele>
        <time>2016-05-02T12:28:08Z</time>
      </trkpt>
      <trkpt lat="44.93722" lon="3.98727">
        <ele>840.7</ele>
        <time>2016-05-02T12:28:15Z</time>
      </trkpt>
      <trkpt lat="44.93692" lon="3.9857">
        <ele>828.351</ele>
        <time>2016-05-02T12:28:25Z</time>
      </trkpt>
      <trkpt lat="44.93651" lon="3.98434">
        <ele>818.927</ele>
        <time>2016-05-02T12:28:35Z</time>
      </trkpt>
      <trkpt lat="44.9364" lon="3.9842">
        <ele>818.362</ele>
        <time>2016-05-02T12:28:37Z</time>
      </trkpt>
      <trkpt lat="44.93407" lon="3.98294">
        <ele>831.806</ele>
        <time>2016-05-02T12:30:40Z</time>
      </trkpt>
      <trkpt lat="44.93414" lon="3.98273">
        <ele>833.588</ele>
        <time>2016-05-02T12:30:59Z</time>
      </trkpt>
      <trkpt lat="44.9342" lon="3.98253">
        <ele>835.445</ele>
        <time>2016-05-02T12:31:16Z</time>
      </trkpt>
      <trkpt lat="44.93424" lon="3.98245">
        <ele>835.894</ele>
        <time>2016-05-02T12:31:22Z</time>
      </trkpt>
      <trkpt lat="44.93425" lon="3.98235">
        <ele>836.828</ele>
        <time>2016-05-02T12:31:28Z</time>
      </trkpt>
      <trkpt lat="44.93423" lon="3.98166">
        <ele>842.478</ele>
        <time>2016-05-02T12:32:31Z</time>
      </trkpt>
      <trkpt lat="44.9341" lon="3.98107">
        <ele>851.726</ele>
        <time>2016-05-02T12:33:26Z</time>
      </trkpt>
      <trkpt lat="44.9339" lon="3.98064">
        <ele>857.092</ele>
        <time>2016-05-02T12:34:46Z</time>
      </trkpt>
      <trkpt lat="44.93352" lon="3.98041">
        <ele>862.376</ele>
        <time>2016-05-02T12:36:20Z</time>
      </trkpt>
      <trkpt lat="44.93334" lon="3.97971">
        <ele>868.322</ele>
        <time>2016-05-02T12:37:48Z</time>
      </trkpt>
      <trkpt lat="44.93345" lon="3.97933">
        <ele>867.732</ele>
        <time>2016-05-02T12:38:01Z</time>
      </trkpt>
      <trkpt lat="44.93351" lon="3.97872">
        <ele>868.285</ele>
        <time>2016-05-02T12:38:27Z</time>
      </trkpt>
      <trkpt lat="44.93366" lon="3.97831">
        <ele>865.927</ele>
        <time>2016-05-02T12:38:42Z</time>
      </trkpt>
      <trkpt lat="44.93373" lon="3.97807">
        <ele>864.18</ele>
        <time>2016-05-02T12:38:47Z</time>
      </trkpt>
      <trkpt lat="44.93371" lon="3.97784">
        <ele>863.957</ele>
        <time>2016-05-02T12:38:50Z</time>
      </trkpt>
      <trkpt lat="44.9332" lon="3.97635">
        <ele>876.83</ele>
        <time>2016-05-02T12:41:03Z</time>
      </trkpt>
      <trkpt lat="44.93377" lon="3.97451">
        <ele>880.476</ele>
        <time>2016-05-02T12:43:30Z</time>
      </trkpt>
      <trkpt lat="44.93357" lon="3.9734">
        <ele>895.929</ele>
        <time>2016-05-02T12:44:57Z</time>
      </trkpt>
      <trkpt lat="44.93357" lon="3.97331">
        <ele>896.741</ele>
        <time>2016-05-02T12:45:08Z</time>
      </trkpt>
      <trkpt lat="44.93361" lon="3.973">
        <ele>896.798</ele>
        <time>2016-05-02T12:47:38Z</time>
      </trkpt>
      <trkpt lat="44.93367" lon="3.97263">
        <ele>896.754</ele>
        <time>2016-05-02T12:48:12Z</time>
      </trkpt>
      <trkpt lat="44.9337" lon="3.97134">
        <ele>908.285</ele>
        <time>2016-05-02T12:50:31Z</time>
      </trkpt>
      <trkpt lat="44.93354" lon="3.9711">
        <ele>909.574</ele>
        <time>2016-05-02T12:50:58Z</time>
      </trkpt>
      <trkpt lat="44.93334" lon="3.97112">
        <ele>915.739</ele>
        <time>2016-05-02T12:51:27Z</time>
      </trkpt>
      <trkpt lat="44.93292" lon="3.97098">
        <ele>923.302</ele>
        <time>2016-05-02T12:52:12Z</time>
      </trkpt>
      <trkpt lat="44.9326" lon="3.97049">
        <ele>932.745</ele>
        <time>2016-05-02T12:52:41Z</time>
      </trkpt>
      <trkpt lat="44.93256" lon="3.96994">
        <ele>938.157</ele>
        <time>2016-05-02T12:53:15Z</time>
      </trkpt>
      <trkpt lat="44.93264" lon="3.96874">
        <ele>943.568</ele>
        <time>2016-05-02T12:54:02Z</time>
      </trkpt>
      <trkpt lat="44.93253" lon="3.96829">
        <ele>945.48</ele>
        <time>2016-05-02T12:54:20Z</time>
      </trkpt>
      <trkpt lat="44.93209" lon="3.96735">
        <ele>947.985</ele>
        <time>2016-05-02T12:55:19Z</time>
      </trkpt>
      <trkpt lat="44.9316" lon="3.96663">
        <ele>951.528</ele>
        <time>2016-05-02T12:56:08Z</time>
      </trkpt>
      <trkpt lat="44.93116" lon="3.96633">
        <ele>954.307</ele>
        <time>2016-05-02T12:56:45Z</time>
      </trkpt>
      <trkpt lat="44.9303" lon="3.96578">
        <ele>953.103</ele>
        <time>2016-05-02T12:59:39Z</time>
      </trkpt>
      <trkpt lat="44.92983" lon="3.96561">
        <ele>951.162</ele>
        <time>2016-05-02T12:59:53Z</time>
      </trkpt>
      <trkpt lat="44.92941" lon="3.96531">
        <ele>945.864</ele>
        <time>2016-05-02T13:00:04Z</time>
      </trkpt>
      <trkpt lat="44.92886" lon="3.96535">
        <ele>945.808</ele>
        <time>2016-05-02T13:00:17Z</time>
      </trkpt>
      <trkpt lat="44.92874" lon="3.96527">
        <ele>944.881</ele>
        <time>2016-05-02T13:00:19Z</time>
      </trkpt>
      <trkpt lat="44.92808" lon="3.96395">
        <ele>931.353</ele>
        <time>2016-05-02T13:01:05Z</time>
      </trkpt>
      <trkpt lat="44.92739" lon="3.96308">
        <ele>936.725</ele>
        <time>2016-05-02T13:01:44Z</time>
      </trkpt>
      <trkpt lat="44.92692" lon="3.96282">
        <ele>943.01</ele>
        <time>2016-05-02T13:02:23Z</time>
      </trkpt>
      <trkpt lat="44.92662" lon="3.96224">
        <ele>949.208</ele>
        <time>2016-05-02T13:03:20Z</time>
      </trkpt>
      <trkpt lat="44.92619" lon="3.96202">
        <ele>955.006</ele>
        <time>2016-05-02T13:04:22Z</time>
      </trkpt>
      <trkpt lat="44.92591" lon="3.96071">
        <ele>963.147</ele>
        <time>2016-05-02T13:06:15Z</time>
      </trkpt>
      <trkpt lat="44.92588" lon="3.96065">
        <ele>963.396</ele>
        <time>2016-05-02T13:06:23Z</time>
      </trkpt>
      <trkpt lat="44.92566" lon="3.96029">
        <ele>962.532</ele>
        <time>2016-05-02T13:06:36Z</time>
      </trkpt>
      <trkpt lat="44.92526" lon="3.95933">
        <ele>956.806</ele>
        <time>2016-05-02T13:06:58Z</time>
      </trkpt>
      <trkpt lat="44.92532" lon="3.95855">
        <ele>956.591</ele>
        <time>2016-05-02T13:07:22Z</time>
      </trkpt>
      <trkpt lat="44.92515" lon="3.95822">
        <ele>960.796</ele>
        <time>2016-05-02T13:07:44Z</time>
      </trkpt>
      <trkpt lat="44.92472" lon="3.95712">
        <ele>968.519</ele>
        <time>2016-05-02T13:08:37Z</time>
      </trkpt>
      <trkpt lat="44.92452" lon="3.95654">
        <ele>970.519</ele>
        <time>2016-05-02T13:09:04Z</time>
      </trkpt>
      <trkpt lat="44.92398" lon="3.95616">
        <ele>974.515</ele>
        <time>2016-05-02T13:09:44Z</time>
      </trkpt>
      <trkpt lat="44.92396" lon="3.95593">
        <ele>974.709</ele>
        <time>2016-05-02T13:09:56Z</time>
      </trkpt>
      <trkpt lat="44.92396" lon="3.95585">
        <ele>974.586</ele>
        <time>2016-05-02T13:10:00Z</time>
      </trkpt>
      <trkpt lat="44.92407" lon="3.95419">
        <ele>969.296</ele>
        <time>2016-05-02T13:10:39Z</time>
      </trkpt>
      <trkpt lat="44.92427" lon="3.95388">
        <ele>966.57</ele>
        <time>2016-05-02T13:10:46Z</time>
      </trkpt>
      <trkpt lat="44.92413" lon="3.95278">
        <ele>964.657</ele>
        <time>2016-05-02T13:11:01Z</time>
      </trkpt>
      <trkpt lat="44.92364" lon="3.94962">
        <ele>964.13</ele>
        <time>2016-05-02T13:11:43Z</time>
      </trkpt>
      <trkpt lat="44.92286" lon="3.94809">
        <ele>961.978</ele>
        <time>2016-05-02T13:12:11Z</time>
      </trkpt>
      <trkpt lat="44.92192" lon="3.94727">
        <ele>952.25</ele>
        <time>2016-05-02T13:12:31Z</time>
      </trkpt>
      <trkpt lat="44.92164" lon="3.94711">
        <ele>948.117</ele>
        <time>2016-05-02T13:12:38Z</time>
      </trkpt>
      <trkpt lat="44.92099" lon="3.94664">
        <ele>936.231</ele>
        <time>2016-05-02T13:12:58Z</time>
      </trkpt>
      <trkpt lat="44.92075" lon="3.94675">
        <ele>932.914</ele>
        <time>2016-05-02T13:13:03Z</time>
      </trkpt>
      <trkpt lat="44.92022" lon="3.94708">
        <ele>927.419</ele>
        <time>2016-05-02T13:13:15Z</time>
      </trkpt>
      <trkpt lat="44.92008" lon="3.94678">
        <ele>923.947</ele>
        <time>2016-05-02T13:13:20Z</time>
      </trkpt>
      <trkpt lat="44.92014" lon="3.94513">
        <ele>929.493</ele>
        <time>2016-05-02T13:15:15Z</time>
      </trkpt>
      <trkpt lat="44.92001" lon="3.94463">
        <ele>933.458</ele>
        <time>2016-05-02T13:15:58Z</time>
      </trkpt>
      <trkpt lat="44.91982" lon="3.944">
        <ele>935.351</ele>
        <time>2016-05-02T13:16:31Z</time>
      </trkpt>
      <trkpt lat="44.91957" lon="3.94338">
        <ele>935.677</ele>
        <time>2016-05-02T13:16:49Z</time>
      </trkpt>
      <trkpt lat="44.91895" lon="3.94252">
        <ele>937.938</ele>
        <time>2016-05-02T13:17:21Z</time>
      </trkpt>
      <trkpt lat="44.91885" lon="3.94248">
        <ele>938.723</ele>
        <time>2016-05-02T13:17:26Z</time>
      </trkpt>
      <trkpt lat="44.91866" lon="3.94229">
        <ele>939.023</ele>
        <time>2016-05-02T13:17:35Z</time>
      </trkpt>
      <trkpt lat="44.91864" lon="3.94216">
        <ele>938.73</ele>
        <time>2016-05-02T13:17:37Z</time>
      </trkpt>
      <trkpt lat="44.91863" lon="3.94202">
        <ele>938.335</ele>
        <time>2016-05-02T13:17:39Z</time>
      </trkpt>
      <trkpt lat="44.91847" lon="3.94118">
        <ele>942.07</ele>
        <time>2016-05-02T13:22:09Z</time>
      </trkpt>
      <trkpt lat="44.91826" lon="3.94092">
        <ele>943.943</ele>
        <time>2016-05-02T13:22:49Z</time>
      </trkpt>
      <trkpt lat="44.91854" lon="3.9402">
        <ele>944.279</ele>
        <time>2016-05-02T13:23:30Z</time>
      </trkpt>
      <trkpt lat="44.9186" lon="3.93988">
        <ele>944.28</ele>
        <time>2016-05-02T13:23:37Z</time>
      </trkpt>
      <trkpt lat="44.91848" lon="3.93969">
        <ele>944.79</ele>
        <time>2016-05-02T13:23:42Z</time>
      </trkpt>
      <trkpt lat="44.91781" lon="3.93941">
        <ele>946.865</ele>
        <time>2016-05-02T13:24:06Z</time>
      </trkpt>
      <trkpt lat="44.9174" lon="3.9387">
        <ele>947.316</ele>
        <time>2016-05-02T13:24:25Z</time>
      </trkpt>
      <trkpt lat="44.9172" lon="3.93854">
        <ele>947.328</ele>
        <time>2016-05-02T13:24:32Z</time>
      </trkpt>
      <trkpt lat="44.91551" lon="3.93877">
        <ele>950.363</ele>
        <time>2016-05-02T13:25:28Z</time>
      </trkpt>
      <trkpt lat="44.9128" lon="3.93764">
        <ele>962.654</ele>
        <time>2016-05-02T13:27:43Z</time>
      </trkpt>
      <trkpt lat="44.91175" lon="3.93757">
        <ele>971.615</ele>
        <time>2016-05-02T13:28:55Z</time>
      </trkpt>
      <trkpt lat="44.91108" lon="3.93694">
        <ele>975.744</ele>
        <time>2016-05-02T13:31:16Z</time>
      </trkpt>
      <trkpt lat="44.91047" lon="3.93678">
        <ele>979.475</ele>
        <time>2016-05-02T13:33:57Z</time>
      </trkpt>
      <trkpt lat="44.90973" lon="3.93624">
        <ele>983.367</ele>
        <time>2016-05-02T13:35:19Z</time>
      </trkpt>
      <trkpt lat="44.90969" lon="3.93623">
        <ele>983.792</ele>
        <time>2016-05-02T13:35:38Z</time>
      </trkpt>
      <trkpt lat="44.90914" lon="3.93597">
        <ele>990.56</ele>
        <time>2016-05-02T13:36:23Z</time>
      </trkpt>
      <trkpt lat="44.9087" lon="3.93599">
        <ele>997.146</ele>
        <time>2016-05-02T13:37:02Z</time>
      </trkpt>
      <trkpt lat="44.90806" lon="3.93568">
        <ele>1001.523</ele>
        <time>2016-05-02T13:37:46Z</time>
      </trkpt>
      <trkpt lat="44.90724" lon="3.93581">
        <ele>1008.302</ele>
        <time>2016-05-02T13:38:43Z</time>
      </trkpt>
      <trkpt lat="44.90697" lon="3.9359">
        <ele>1010.489</ele>
        <time>2016-05-02T13:39:24Z</time>
      </trkpt>
      <trkpt lat="44.90689" lon="3.9359">
        <ele>1010.884</ele>
        <time>2016-05-02T13:39:34Z</time>
      </trkpt>
      <trkpt lat="44.90586" lon="3.93576">
        <ele>1010.958</ele>
        <time>2016-05-02T13:40:14Z</time>
      </trkpt>
      <trkpt lat="44.90557" lon="3.93477">
        <ele>1000.695</ele>
        <time>2016-05-02T13:40:40Z</time>
      </trkpt>
      <trkpt lat="44.90556" lon="3.9346">
        <ele>999.039</ele>
        <time>2016-05-02T13:40:44Z</time>
      </trkpt>
      <trkpt lat="44.90545" lon="3.93454">
        <ele>997.724</ele>
        <time>2016-05-02T13:40:47Z</time>
      </trkpt>
      <trkpt lat="44.90535" lon="3.93453">
        <ele>997.188</ele>
        <time>2016-05-02T13:40:49Z</time>
      </trkpt>
      <trkpt lat="44.90523" lon="3.93448">
        <ele>996.173</ele>
        <time>2016-05-02T13:40:51Z</time>
      </trkpt>
      <trkpt lat="44.90485" lon="3.93405">
        <ele>992.592</ele>
        <time>2016-05-02T13:41:02Z</time>
      </trkpt>
      <trkpt lat="44.90467" lon="3.93349">
        <ele>989.872</ele>
        <time>2016-05-02T13:41:11Z</time>
      </trkpt>
      <trkpt lat="44.90462" lon="3.93337">
        <ele>989.506</ele>
        <time>2016-05-02T13:41:14Z</time>
      </trkpt>
      <trkpt lat="44.90376" lon="3.93273">
        <ele>1000.299</ele>
        <time>2016-05-02T13:41:55Z</time>
      </trkpt>
      <trkpt lat="44.9034" lon="3.93214">
        <ele>1000.083</ele>
        <time>2016-05-02T13:42:13Z</time>
      </trkpt>
      <trkpt lat="44.90282" lon="3.93161">
        <ele>1001.489</ele>
        <time>2016-05-02T13:42:35Z</time>
      </trkpt>
      <trkpt lat="44.90262" lon="3.93146">
        <ele>1001.105</ele>
        <time>2016-05-02T13:42:43Z</time>
      </trkpt>
      <trkpt lat="44.90246" lon="3.93148">
        <ele>1002.655</ele>
        <time>2016-05-02T13:42:52Z</time>
      </trkpt>
      <trkpt lat="44.90226" lon="3.93156">
        <ele>1004.917</ele>
        <time>2016-05-02T13:43:04Z</time>
      </trkpt>
      <trkpt lat="44.90185" lon="3.9315">
        <ele>1005.683</ele>
        <time>2016-05-02T13:43:22Z</time>
      </trkpt>
      <trkpt lat="44.90082" lon="3.93096">
        <ele>1003.929</ele>
        <time>2016-05-02T13:43:50Z</time>
      </trkpt>
      <trkpt lat="44.89999" lon="3.93097">
        <ele>1005.903</ele>
        <time>2016-05-02T13:44:14Z</time>
      </trkpt>
      <trkpt lat="44.89901" lon="3.9312">
        <ele>1007.393</ele>
        <time>2016-05-02T13:44:39Z</time>
      </trkpt>
      <trkpt lat="44.89855" lon="3.93114">
        <ele>1005.472</ele>
        <time>2016-05-02T13:44:47Z</time>
      </trkpt>
      <trkpt lat="44.8979" lon="3.93117">
        <ele>999.901</ele>
        <time>2016-05-02T13:44:55Z</time>
      </trkpt>
      <trkpt lat="44.89712" lon="3.93134">
        <ele>989.843</ele>
        <time>2016-05-02T13:45:03Z</time>
      </trkpt>
      <trkpt lat="44.89516" lon="3.93149">
        <ele>982.167</ele>
        <time>2016-05-02T13:46:02Z</time>
      </trkpt>
      <trkpt lat="44.89463" lon="3.93098">
        <ele>979.874</ele>
        <time>2016-05-02T13:46:10Z</time>
      </trkpt>
      <trkpt lat="44.89432" lon="3.93074">
        <ele>977.525</ele>
        <time>2016-05-02T13:46:14Z</time>
      </trkpt>
      <trkpt lat="44.8941" lon="3.93027">
        <ele>973.163</ele>
        <time>2016-05-02T13:46:20Z</time>
      </trkpt>
      <trkpt lat="44.89411" lon="3.93009">
        <ele>971.541</ele>
        <time>2016-05-02T13:46:22Z</time>
      </trkpt>
      <trkpt lat="44.89426" lon="3.92976">
        <ele>967.906</ele>
        <time>2016-05-02T13:46:28Z</time>
      </trkpt>
      <trkpt lat="44.89428" lon="3.92967">
        <ele>966.451</ele>
        <time>2016-05-02T13:46:30Z</time>
      </trkpt>
      <trkpt lat="44.89363" lon="3.92908">
        <ele>956.322</ele>
        <time>2016-05-02T13:46:44Z</time>
      </trkpt>
      <trkpt lat="44.89359" lon="3.92911">
        <ele>956.826</ele>
        <time>2016-05-02T13:46:46Z</time>
      </trkpt>
      <trkpt lat="44.89344" lon="3.92796">
        <ele>937.022</ele>
        <time>2016-05-02T13:47:07Z</time>
      </trkpt>
      <trkpt lat="44.89365" lon="3.92717">
        <ele>927.845</ele>
        <time>2016-05-02T13:47:47Z</time>
      </trkpt>
      <trkpt lat="44.89348" lon="3.92642">
        <ele>917.965</ele>
        <time>2016-05-02T13:52:03Z</time>
      </trkpt>
      <trkpt lat="44.89355" lon="3.92587">
        <ele>906.848</ele>
        <time>2016-05-02T13:54:54Z</time>
      </trkpt>
      <trkpt lat="44.89333" lon="3.92501">
        <ele>888.721</ele>
        <time>2016-05-02T13:56:51Z</time>
      </trkpt>
      <trkpt lat="44.89335" lon="3.92486">
        <ele>886.802</ele>
        <time>2016-05-02T13:57:06Z</time>
      </trkpt>
      <trkpt lat="44.89348" lon="3.9238">
        <ele>871.68</ele>
        <time>2016-05-02T14:02:04Z</time>
      </trkpt>
      <trkpt lat="44.89349" lon="3.92311">
        <ele>857.115</ele>
        <time>2016-05-02T14:03:43Z</time>
      </trkpt>
      <trkpt lat="44.89371" lon="3.92303">
        <ele>854.326</ele>
        <time>2016-05-02T14:04:18Z</time>
      </trkpt>
      <trkpt lat="44.89339" lon="3.92272">
        <ele>847.344</ele>
        <time>2016-05-02T14:05:08Z</time>
      </trkpt>
      <trkpt lat="44.89328" lon="3.92266">
        <ele>843.606</ele>
        <time>2016-05-02T14:05:29Z</time>
      </trkpt>
      <trkpt lat="44.89337" lon="3.92259">
        <ele>843.986</ele>
        <time>2016-05-02T14:05:45Z</time>
      </trkpt>
      <trkpt lat="44.89342" lon="3.9225">
        <ele>843.113</ele>
        <time>2016-05-02T14:05:54Z</time>
      </trkpt>
      <trkpt lat="44.8931" lon="3.92248">
        <ele>835.165</ele>
        <time>2016-05-02T14:06:55Z</time>
      </trkpt>
      <trkpt lat="44.8927" lon="3.92293">
        <ele>828.507</ele>
        <time>2016-05-02T14:07:13Z</time>
      </trkpt>
      <trkpt lat="44.89153" lon="3.92442">
        <ele>807.669</ele>
        <time>2016-05-02T14:08:36Z</time>
      </trkpt>
      <trkpt lat="44.89118" lon="3.92501">
        <ele>800.545</ele>
        <time>2016-05-02T14:09:13Z</time>
      </trkpt>
      <trkpt lat="44.89102" lon="3.92503">
        <ele>797.275</ele>
        <time>2016-05-02T14:09:38Z</time>
      </trkpt>
      <trkpt lat="44.89093" lon="3.92491">
        <ele>794.01</ele>
        <time>2016-05-02T14:09:41Z</time>
      </trkpt>
      <trkpt lat="44.89064" lon="3.92475">
        <ele>786.177</ele>
        <time>2016-05-02T14:09:47Z</time>
      </trkpt>
      <trkpt lat="44.89015" lon="3.92453">
        <ele>777.577</ele>
        <time>2016-05-02T14:09:57Z</time>
      </trkpt>
      <trkpt lat="44.88977" lon="3.92471">
        <ele>775.008</ele>
        <time>2016-05-02T14:10:11Z</time>
      </trkpt>
      <trkpt lat="44.88915" lon="3.92454">
        <ele>771.107</ele>
        <time>2016-05-02T14:11:20Z</time>
      </trkpt>
      <trkpt lat="44.88933" lon="3.92307">
        <ele>768.714</ele>
        <time>2016-05-02T14:12:13Z</time>
      </trkpt>
      <trkpt lat="44.88891" lon="3.92253">
        <ele>774.312</ele>
        <time>2016-05-02T14:12:50Z</time>
      </trkpt>
      <trkpt lat="44.88877" lon="3.92252">
        <ele>774.74</ele>
        <time>2016-05-02T14:13:58Z</time>
      </trkpt>
      <trkpt lat="44.8897" lon="3.92176">
        <ele>776.065</ele>
        <time>2016-05-02T14:18:51Z</time>
      </trkpt>
      <trkpt lat="44.89032" lon="3.91797">
        <ele>793.826</ele>
        <time>2016-05-02T14:22:00Z</time>
      </trkpt>
      <trkpt lat="44.89044" lon="3.9165">
        <ele>803.626</ele>
        <time>2016-05-02T14:22:51Z</time>
      </trkpt>
      <trkpt lat="44.89038" lon="3.91641">
        <ele>804.747</ele>
        <time>2016-05-02T14:22:54Z</time>
      </trkpt>
      <trkpt lat="44.89027" lon="3.91603">
        <ele>801.878</ele>
        <time>2016-05-02T14:23:02Z</time>
      </trkpt>
      <trkpt lat="44.89024" lon="3.91562">
        <ele>798.96</ele>
        <time>2016-05-02T14:23:07Z</time>
      </trkpt>
      <trkpt lat="44.89024" lon="3.91417">
        <ele>801.792</ele>
        <time>2016-05-02T14:23:37Z</time>
      </trkpt>
      <trkpt lat="44.88985" lon="3.91416">
        <ele>809.884</ele>
        <time>2016-05-02T14:25:00Z</time>
      </trkpt>
      <trkpt lat="44.88968" lon="3.91381">
        <ele>822.63</ele>
        <time>2016-05-02T14:27:46Z</time>
      </trkpt>
      <trkpt lat="44.8896" lon="3.91384">
        <ele>823.953</ele>
        <time>2016-05-02T14:28:29Z</time>
      </trkpt>
      <trkpt lat="44.88953" lon="3.91388">
        <ele>824.477</ele>
        <time>2016-05-02T14:28:45Z</time>
      </trkpt>
      <trkpt lat="44.88927" lon="3.91376">
        <ele>833.195</ele>
        <time>2016-05-02T14:30:16Z</time>
      </trkpt>
      <trkpt lat="44.88867" lon="3.91357">
        <ele>849.206</ele>
        <time>2016-05-02T14:33:43Z</time>
      </trkpt>
      <trkpt lat="44.88739" lon="3.9133">
        <ele>877.023</ele>
        <time>2016-05-02T14:41:06Z</time>
      </trkpt>
      <trkpt lat="44.88663" lon="3.91382">
        <ele>880.139</ele>
        <time>2016-05-02T14:43:09Z</time>
      </trkpt>
      <trkpt lat="44.88633" lon="3.9139">
        <ele>884.019</ele>
        <time>2016-05-02T14:45:46Z</time>
      </trkpt>
      <trkpt lat="44.88589" lon="3.91395">
        <ele>887.754</ele>
        <time>2016-05-02T14:46:08Z</time>
      </trkpt>
      <trkpt lat="44.88566" lon="3.9136">
        <ele>891.227</ele>
        <time>2016-05-02T14:46:35Z</time>
      </trkpt>
      <trkpt lat="44.88565" lon="3.91356">
        <ele>891.587</ele>
        <time>2016-05-02T14:46:42Z</time>
      </trkpt>
      <trkpt lat="44.88566" lon="3.91341">
        <ele>893.192</ele>
        <time>2016-05-02T14:47:09Z</time>
      </trkpt>
      <trkpt lat="44.88567" lon="3.91327">
        <ele>894.719</ele>
        <time>2016-05-02T14:47:39Z</time>
      </trkpt>
      <trkpt lat="44.88575" lon="3.91297">
        <ele>899.836</ele>
        <time>2016-05-02T14:48:17Z</time>
      </trkpt>
      <trkpt lat="44.88584" lon="3.91207">
        <ele>918.487</ele>
        <time>2016-05-02T14:50:07Z</time>
      </trkpt>
      <trkpt lat="44.88552" lon="3.91158">
        <ele>926.339</ele>
        <time>2016-05-02T14:52:11Z</time>
      </trkpt>
      <trkpt lat="44.88612" lon="3.91146">
        <ele>934.677</ele>
        <time>2016-05-02T14:53:43Z</time>
      </trkpt>
      <trkpt lat="44.88616" lon="3.91068">
        <ele>946.989</ele>
        <time>2016-05-02T14:55:19Z</time>
      </trkpt>
      <trkpt lat="44.88618" lon="3.90924">
        <ele>955.574</ele>
        <time>2016-05-02T14:56:32Z</time>
      </trkpt>
      <trkpt lat="44.88615" lon="3.9083">
        <ele>954.804</ele>
        <time>2016-05-02T14:57:10Z</time>
      </trkpt>
      <trkpt lat="44.88622" lon="3.9077">
        <ele>950.91</ele>
        <time>2016-05-02T14:57:25Z</time>
      </trkpt>
      <trkpt lat="44.88621" lon="3.90686">
        <ele>945.031</ele>
        <time>2016-05-02T14:57:41Z</time>
      </trkpt>
      <trkpt lat="44.88608" lon="3.90646">
        <ele>943.312</ele>
        <time>2016-05-02T14:57:48Z</time>
      </trkpt>
      <trkpt lat="44.88589" lon="3.90609">
        <ele>942.363</ele>
        <time>2016-05-02T14:57:55Z</time>
      </trkpt>
      <trkpt lat="44.88585" lon="3.90593">
        <ele>942.318</ele>
        <time>2016-05-02T14:57:57Z</time>
      </trkpt>
      <trkpt lat="44.8858" lon="3.90482">
        <ele>944.807</ele>
        <time>2016-05-02T14:58:16Z</time>
      </trkpt>
      <trkpt lat="44.88638" lon="3.90281">
        <ele>965.469</ele>
        <time>2016-05-02T15:00:20Z</time>
      </trkpt>
      <trkpt lat="44.88632" lon="3.90193">
        <ele>972.695</ele>
        <time>2016-05-02T15:01:36Z</time>
      </trkpt>
      <trkpt lat="44.88643" lon="3.90126">
        <ele>979.591</ele>
        <time>2016-05-02T15:02:51Z</time>
      </trkpt>
      <trkpt lat="44.88596" lon="3.90057">
        <ele>984.861</ele>
        <time>2016-05-02T15:03:48Z</time>
      </trkpt>
      <trkpt lat="44.88594" lon="3.90035">
        <ele>986.113</ele>
        <time>2016-05-02T15:03:59Z</time>
      </trkpt>
      <trkpt lat="44.88592" lon="3.89987">
        <ele>988.422</ele>
        <time>2016-05-02T15:04:21Z</time>
      </trkpt>
      <trkpt lat="44.88571" lon="3.89851">
        <ele>990.133</ele>
        <time>2016-05-02T15:05:02Z</time>
      </trkpt>
      <trkpt lat="44.8856" lon="3.89794">
        <ele>990.338</ele>
        <time>2016-05-02T15:05:17Z</time>
      </trkpt>
      <trkpt lat="44.88525" lon="3.89628">
        <ele>990.654</ele>
        <time>2016-05-02T15:05:52Z</time>
      </trkpt>
      <trkpt lat="44.88531" lon="3.89531">
        <ele>990.05</ele>
        <time>2016-05-02T15:06:09Z</time>
      </trkpt>
      <trkpt lat="44.88476" lon="3.8935">
        <ele>989.704</ele>
        <time>2016-05-02T15:06:44Z</time>
      </trkpt>
      <trkpt lat="44.8841" lon="3.89252">
        <ele>986.672</ele>
        <time>2016-05-02T15:10:07Z</time>
      </trkpt>
      <trkpt lat="44.88362" lon="3.89202">
        <ele>982.84</ele>
        <time>2016-05-02T15:10:29Z</time>
      </trkpt>
      <trkpt lat="44.88344" lon="3.89152">
        <ele>976.265</ele>
        <time>2016-05-02T15:11:23Z</time>
      </trkpt>
      <trkpt lat="44.88328" lon="3.89139">
        <ele>976.23</ele>
        <time>2016-05-02T15:11:33Z</time>
      </trkpt>
      <trkpt lat="44.88285" lon="3.89095">
        <ele>977.312</ele>
        <time>2016-05-02T15:11:42Z</time>
      </trkpt>
      <trkpt lat="44.88276" lon="3.89076">
        <ele>977.848</ele>
        <time>2016-05-02T15:11:44Z</time>
      </trkpt>
      <trkpt lat="44.88271" lon="3.89053">
        <ele>977.525</ele>
        <time>2016-05-02T15:11:46Z</time>
      </trkpt>
      <trkpt lat="44.88273" lon="3.89027">
        <ele>975.604</ele>
        <time>2016-05-02T15:11:48Z</time>
      </trkpt>
      <trkpt lat="44.88297" lon="3.89002">
        <ele>972.557</ele>
        <time>2016-05-02T15:11:51Z</time>
      </trkpt>
      <trkpt lat="44.88385" lon="3.89002">
        <ele>977.395</ele>
        <time>2016-05-02T15:12:30Z</time>
      </trkpt>
      <trkpt lat="44.88394" lon="3.88999">
        <ele>978.75</ele>
        <time>2016-05-02T15:12:56Z</time>
      </trkpt>
      <trkpt lat="44.88361" lon="3.88962">
        <ele>982.227</ele>
        <time>2016-05-02T15:14:17Z</time>
      </trkpt>
      <trkpt lat="44.88371" lon="3.88933">
        <ele>985.462</ele>
        <time>2016-05-02T15:14:58Z</time>
      </trkpt>
      <trkpt lat="44.8838" lon="3.88925">
        <ele>987.459</ele>
        <time>2016-05-02T15:15:18Z</time>
      </trkpt>
      <trkpt lat="44.88389" lon="3.88903">
        <ele>991.298</ele>
        <time>2016-05-02T15:16:14Z</time>
      </trkpt>
      <trkpt lat="44.88402" lon="3.88842">
        <ele>1000.651</ele>
        <time>2016-05-02T15:17:33Z</time>
      </trkpt>
      <trkpt lat="44.88478" lon="3.88706">
        <ele>1006.565</ele>
        <time>2016-05-02T15:18:51Z</time>
      </trkpt>
      <trkpt lat="44.88507" lon="3.88631">
        <ele>1007.354</ele>
        <time>2016-05-02T15:19:19Z</time>
      </trkpt>
      <trkpt lat="44.88512" lon="3.88578">
        <ele>1008.237</ele>
        <time>2016-05-02T15:19:37Z</time>
      </trkpt>
      <trkpt lat="44.88526" lon="3.88569">
        <ele>1008.519</ele>
        <time>2016-05-02T15:19:44Z</time>
      </trkpt>
      <trkpt lat="44.88547" lon="3.8853">
        <ele>1009.925</ele>
        <time>2016-05-02T15:19:59Z</time>
      </trkpt>
      <trkpt lat="44.88571" lon="3.88402">
        <ele>1014.472</ele>
        <time>2016-05-02T15:20:39Z</time>
      </trkpt>
      <trkpt lat="44.88667" lon="3.88369">
        <ele>1017.117</ele>
        <time>2016-05-02T15:21:22Z</time>
      </trkpt>
      <trkpt lat="44.88668" lon="3.88272">
        <ele>1020.285</ele>
        <time>2016-05-02T15:21:56Z</time>
      </trkpt>
      <trkpt lat="44.88677" lon="3.88251">
        <ele>1021.297</ele>
        <time>2016-05-02T15:22:05Z</time>
      </trkpt>
      <trkpt lat="44.88701" lon="3.88243">
        <ele>1021.852</ele>
        <time>2016-05-02T15:22:19Z</time>
      </trkpt>
      <trkpt lat="44.8874" lon="3.88244">
        <ele>1022.148</ele>
        <time>2016-05-02T15:22:39Z</time>
      </trkpt>
      <trkpt lat="44.88751" lon="3.88239">
        <ele>1022.323</ele>
        <time>2016-05-02T15:22:46Z</time>
      </trkpt>
      <trkpt lat="44.88756" lon="3.88155">
        <ele>1024.968</ele>
        <time>2016-05-02T15:23:21Z</time>
      </trkpt>
      <trkpt lat="44.88759" lon="3.88127">
        <ele>1025.86</ele>
        <time>2016-05-02T15:23:33Z</time>
      </trkpt>
      <trkpt lat="44.88718" lon="3.88076">
        <ele>1027.427</ele>
        <time>2016-05-02T15:24:11Z</time>
      </trkpt>
      <trkpt lat="44.88682" lon="3.88054">
        <ele>1028.1</ele>
        <time>2016-05-02T15:24:27Z</time>
      </trkpt>
      <trkpt lat="44.88586" lon="3.8801">
        <ele>1029.392</ele>
        <time>2016-05-02T15:24:58Z</time>
      </trkpt>
      <trkpt lat="44.8857" lon="3.88001">
        <ele>1029.667</ele>
        <time>2016-05-02T15:25:03Z</time>
      </trkpt>
      <trkpt lat="44.88571" lon="3.87673">
        <ele>1041.057</ele>
        <time>2016-05-02T15:28:23Z</time>
      </trkpt>
      <trkpt lat="44.8855" lon="3.87633">
        <ele>1042.505</ele>
        <time>2016-05-02T15:32:16Z</time>
      </trkpt>
      <trkpt lat="44.88501" lon="3.87568">
        <ele>1045.198</ele>
        <time>2016-05-02T15:32:53Z</time>
      </trkpt>
      <trkpt lat="44.88456" lon="3.87574">
        <ele>1045.392</ele>
        <time>2016-05-02T15:33:10Z</time>
      </trkpt>
      <trkpt lat="44.88445" lon="3.87556">
        <ele>1046.228</ele>
        <time>2016-05-02T15:33:17Z</time>
      </trkpt>
      <trkpt lat="44.88425" lon="3.87437">
        <ele>1050.08</ele>
        <time>2016-05-02T15:33:50Z</time>
      </trkpt>
      <trkpt lat="44.88414" lon="3.87404">
        <ele>1050.535</ele>
        <time>2016-05-02T15:34:00Z</time>
      </trkpt>
      <trkpt lat="44.88428" lon="3.87283">
        <ele>1050.07</ele>
        <time>2016-05-02T15:34:31Z</time>
      </trkpt>
      <trkpt lat="44.88436" lon="3.87199">
        <ele>1048.805</ele>
        <time>2016-05-02T15:34:49Z</time>
      </trkpt>
      <trkpt lat="44.88456" lon="3.87114">
        <ele>1047.955</ele>
        <time>2016-05-02T15:35:08Z</time>
      </trkpt>
      <trkpt lat="44.88393" lon="3.86579">
        <ele>1059.568</ele>
        <time>2016-05-02T15:38:38Z</time>
      </trkpt>
      <trkpt lat="44.88392" lon="3.86576">
        <ele>1059.73</ele>
        <time>2016-05-02T15:38:53Z</time>
      </trkpt>
      <trkpt lat="44.8839" lon="3.86555">
        <ele>1060.462</ele>
        <time>2016-05-02T15:39:00Z</time>
      </trkpt>
      <trkpt lat="44.8838" lon="3.86516">
        <ele>1062.011</ele>
        <time>2016-05-02T15:39:16Z</time>
      </trkpt>
      <trkpt lat="44.88372" lon="3.86415">
        <ele>1065.086</ele>
        <time>2016-05-02T15:39:52Z</time>
      </trkpt>
      <trkpt lat="44.88322" lon="3.86265">
        <ele>1068.986</ele>
        <time>2016-05-02T15:41:58Z</time>
      </trkpt>
      <trkpt lat="44.88278" lon="3.86191">
        <ele>1071.069</ele>
        <time>2016-05-02T15:42:35Z</time>
      </trkpt>
      <trkpt lat="44.88256" lon="3.86148">
        <ele>1073.268</ele>
        <time>2016-05-02T15:42:51Z</time>
      </trkpt>
      <trkpt lat="44.88219" lon="3.86028">
        <ele>1078.011</ele>
        <time>2016-05-02T15:43:34Z</time>
      </trkpt>
      <trkpt lat="44.88139" lon="3.85612">
        <ele>1092.866</ele>
        <time>2016-05-02T15:49:42Z</time>
      </trkpt>
      <trkpt lat="44.88126" lon="3.85563">
        <ele>1093.366</ele>
        <time>2016-05-02T15:50:02Z</time>
      </trkpt>
      <trkpt lat="44.88111" lon="3.85512">
        <ele>1093.42</ele>
        <time>2016-05-02T15:50:16Z</time>
      </trkpt>
      <trkpt lat="44.88083" lon="3.85421">
        <ele>1092.141</ele>
        <time>2016-05-02T15:50:27Z</time>
      </trkpt>
      <trkpt lat="44.88073" lon="3.85229">
        <ele>1087.592</ele>
        <time>2016-05-02T15:50:48Z</time>
      </trkpt>
      <trkpt lat="44.88043" lon="3.85048">
        <ele>1090.628</ele>
        <time>2016-05-02T15:51:52Z</time>
      </trkpt>
      <trkpt lat="44.88015" lon="3.84978">
        <ele>1091.807</ele>
        <time>2016-05-02T15:52:56Z</time>
      </trkpt>
      <trkpt lat="44.88026" lon="3.84956">
        <ele>1091.615</ele>
        <time>2016-05-02T15:53:23Z</time>
      </trkpt>
      <trkpt lat="44.88026" lon="3.84897">
        <ele>1091.221</ele>
        <time>2016-05-02T15:53:39Z</time>
      </trkpt>
      <trkpt lat="44.87998" lon="3.84852">
        <ele>1091.793</ele>
        <time>2016-05-02T15:55:27Z</time>
      </trkpt>
      <trkpt lat="44.87983" lon="3.84765">
        <ele>1091.4</ele>
        <time>2016-05-02T15:55:45Z</time>
      </trkpt>
      <trkpt lat="44.88036" lon="3.84741">
        <ele>1089.377</ele>
        <time>2016-05-02T15:55:56Z</time>
      </trkpt>
      <trkpt lat="44.8805" lon="3.84626">
        <ele>1091.522</ele>
        <time>2016-05-02T15:56:18Z</time>
      </trkpt>
      <trkpt lat="44.88106" lon="3.84604">
        <ele>1093.616</ele>
        <time>2016-05-02T15:56:52Z</time>
      </trkpt>
      <trkpt lat="44.88137" lon="3.84578">
        <ele>1096.06</ele>
        <time>2016-05-02T15:57:16Z</time>
      </trkpt>
      <trkpt lat="44.88165" lon="3.8452">
        <ele>1099.603</ele>
        <time>2016-05-02T15:57:51Z</time>
      </trkpt>
      <trkpt lat="44.88217" lon="3.84405">
        <ele>1106.109</ele>
        <time>2016-05-02T15:59:30Z</time>
      </trkpt>
      <trkpt lat="44.8845" lon="3.84067">
        <ele>1128.214</ele>
        <time>2016-05-02T16:05:11Z</time>
      </trkpt>
      <trkpt lat="44.8846" lon="3.83921">
        <ele>1126.696</ele>
        <time>2016-05-02T16:08:02Z</time>
      </trkpt>
      <trkpt lat="44.8847" lon="3.83867">
        <ele>1124.626</ele>
        <time>2016-05-02T16:08:09Z</time>
      </trkpt>
      <trkpt lat="44.88521" lon="3.83544">
        <ele>1123.353</ele>
        <time>2016-05-02T16:08:56Z</time>
      </trkpt>
      <trkpt lat="44.88571" lon="3.83381">
        <ele>1122.668</ele>
        <time>2016-05-02T16:09:44Z</time>
      </trkpt>
      <trkpt lat="44.88602" lon="3.83123">
        <ele>1128.99</ele>
        <time>2016-05-02T16:12:13Z</time>
      </trkpt>
      <trkpt lat="44.88621" lon="3.82909">
        <ele>1135.76</ele>
        <time>2016-05-02T16:13:26Z</time>
      </trkpt>
      <trkpt lat="44.88615" lon="3.82775">
        <ele>1145.575</ele>
        <time>2016-05-02T16:14:20Z</time>
      </trkpt>
      <trkpt lat="44.88596" lon="3.82676">
        <ele>1150.853</ele>
        <time>2016-05-02T16:16:21Z</time>
      </trkpt>
      <trkpt lat="44.88595" lon="3.82666">
        <ele>1151.267</ele>
        <time>2016-05-02T16:16:29Z</time>
      </trkpt>
      <trkpt lat="44.8863" lon="3.8255">
        <ele>1151.382</ele>
        <time>2016-05-02T16:17:18Z</time>
      </trkpt>
      <trkpt lat="44.8865" lon="3.82502">
        <ele>1148.885</ele>
        <time>2016-05-02T16:17:32Z</time>
      </trkpt>
      <trkpt lat="44.88677" lon="3.82314">
        <ele>1146.158</ele>
        <time>2016-05-02T16:18:06Z</time>
      </trkpt>
      <trkpt lat="44.88709" lon="3.82256">
        <ele>1143.626</ele>
        <time>2016-05-02T16:18:15Z</time>
      </trkpt>
      <trkpt lat="44.88754" lon="3.822">
        <ele>1144.125</ele>
        <time>2016-05-02T16:18:33Z</time>
      </trkpt>
      <trkpt lat="44.88814" lon="3.81995">
        <ele>1151.858</ele>
        <time>2016-05-02T16:20:39Z</time>
      </trkpt>
      <trkpt lat="44.88797" lon="3.81893">
        <ele>1153.58</ele>
        <time>2016-05-02T16:21:36Z</time>
      </trkpt>
      <trkpt lat="44.88813" lon="3.81819">
        <ele>1154.486</ele>
        <time>2016-05-02T16:22:01Z</time>
      </trkpt>
      <trkpt lat="44.88838" lon="3.81739">
        <ele>1155.69</ele>
        <time>2016-05-02T16:23:06Z</time>
      </trkpt>
      <trkpt lat="44.8884" lon="3.81662">
        <ele>1156.741</ele>
        <time>2016-05-02T16:23:24Z</time>
      </trkpt>
      <trkpt lat="44.8884" lon="3.81413">
        <ele>1161.199</ele>
        <time>2016-05-02T16:24:22Z</time>
      </trkpt>
      <trkpt lat="44.88943" lon="3.81221">
        <ele>1170.502</ele>
        <time>2016-05-02T16:26:14Z</time>
      </trkpt>
      <trkpt lat="44.88943" lon="3.8121">
        <ele>1170.748</ele>
        <time>2016-05-02T16:26:35Z</time>
      </trkpt>
      <trkpt lat="44.88939" lon="3.81177">
        <ele>1172.553</ele>
        <time>2016-05-02T16:27:06Z</time>
      </trkpt>
      <trkpt lat="44.88939" lon="3.8115">
        <ele>1174.529</ele>
        <time>2016-05-02T16:27:35Z</time>
      </trkpt>
      <trkpt lat="44.88957" lon="3.80999">
        <ele>1188.59</ele>
        <time>2016-05-02T16:30:18Z</time>
      </trkpt>
      <trkpt lat="44.88982" lon="3.80898">
        <ele>1195.584</ele>
        <time>2016-05-02T16:32:30Z</time>
      </trkpt>
      <trkpt lat="44.88976" lon="3.8071">
        <ele>1206.54</ele>
        <time>2016-05-02T16:35:34Z</time>
      </trkpt>
      <trkpt lat="44.88944" lon="3.80627">
        <ele>1208.15</ele>
        <time>2016-05-02T16:37:37Z</time>
      </trkpt>
      <trkpt lat="44.88927" lon="3.80457">
        <ele>1208.028</ele>
        <time>2016-05-02T16:38:22Z</time>
      </trkpt>
      <trkpt lat="44.88989" lon="3.80274">
        <ele>1206.323</ele>
        <time>2016-05-02T16:39:15Z</time>
      </trkpt>
      <trkpt lat="44.89" lon="3.80186">
        <ele>1207.472</ele>
        <time>2016-05-02T16:39:41Z</time>
      </trkpt>
      <trkpt lat="44.88995" lon="3.80163">
        <ele>1207.739</ele>
        <time>2016-05-02T16:39:49Z</time>
      </trkpt>
      <trkpt lat="44.88978" lon="3.80151">
        <ele>1207.99</ele>
        <time>2016-05-02T16:39:57Z</time>
      </trkpt>
      <trkpt lat="44.88925" lon="3.80113">
        <ele>1209.484</ele>
        <time>2016-05-02T16:40:22Z</time>
      </trkpt>
      <trkpt lat="44.88924" lon="3.80109">
        <ele>1209.556</ele>
        <time>2016-05-02T16:40:23Z</time>
      </trkpt>
      <trkpt lat="44.88973" lon="3.79774">
        <ele>1213.375</ele>
        <time>2016-05-02T16:41:53Z</time>
      </trkpt>
      <trkpt lat="44.88996" lon="3.79621">
        <ele>1212.698</ele>
        <time>2016-05-02T16:42:30Z</time>
      </trkpt>
      <trkpt lat="44.89037" lon="3.7958">
        <ele>1212.434</ele>
        <time>2016-05-02T16:42:47Z</time>
      </trkpt>
      <trkpt lat="44.89054" lon="3.79405">
        <ele>1214.7</ele>
        <time>2016-05-02T16:43:25Z</time>
      </trkpt>
      <trkpt lat="44.88976" lon="3.79107">
        <ele>1217.745</ele>
        <time>2016-05-02T16:44:34Z</time>
      </trkpt>
      <trkpt lat="44.88998" lon="3.78995">
        <ele>1219.974</ele>
        <time>2016-05-02T16:45:17Z</time>
      </trkpt>
      <trkpt lat="44.8904" lon="3.78949">
        <ele>1221.662</ele>
        <time>2016-05-02T16:45:47Z</time>
      </trkpt>
      <trkpt lat="44.89068" lon="3.78936">
        <ele>1222.501</ele>
        <time>2016-05-02T16:46:04Z</time>
      </trkpt>
      <trkpt lat="44.89105" lon="3.78913">
        <ele>1224.157</ele>
        <time>2016-05-02T16:46:21Z</time>
      </trkpt>
      <trkpt lat="44.89121" lon="3.78877">
        <ele>1225.432</ele>
        <time>2016-05-02T16:47:04Z</time>
      </trkpt>
      <trkpt lat="44.89123" lon="3.78866">
        <ele>1225.696</ele>
        <time>2016-05-03T05:52:33Z</time>
      </trkpt>
      <trkpt lat="44.89097" lon="3.78921">
        <ele>1223.69</ele>
        <time>2016-05-03T05:52:49Z</time>
      </trkpt>
      <trkpt lat="44.89043" lon="3.78949">
        <ele>1221.728</ele>
        <time>2016-05-03T05:53:05Z</time>
      </trkpt>
      <trkpt lat="44.8902" lon="3.78978">
        <ele>1220.691</ele>
        <time>2016-05-03T05:53:12Z</time>
      </trkpt>
      <trkpt lat="44.88996" lon="3.79003">
        <ele>1219.787</ele>
        <time>2016-05-03T05:53:20Z</time>
      </trkpt>
      <trkpt lat="44.88994" lon="3.79019">
        <ele>1219.493</ele>
        <time>2016-05-03T05:53:22Z</time>
      </trkpt>
      <trkpt lat="44.88988" lon="3.7909">
        <ele>1218.28</ele>
        <time>2016-05-03T05:53:35Z</time>
      </trkpt>
      <trkpt lat="44.88819" lon="3.79008">
        <ele>1215.167</ele>
        <time>2016-05-03T05:54:33Z</time>
      </trkpt>
      <trkpt lat="44.88497" lon="3.79074">
        <ele>1210.012</ele>
        <time>2016-05-03T05:56:10Z</time>
      </trkpt>
      <trkpt lat="44.88376" lon="3.7911">
        <ele>1212.233</ele>
        <time>2016-05-03T05:58:01Z</time>
      </trkpt>
      <trkpt lat="44.88314" lon="3.79132">
        <ele>1213.841</ele>
        <time>2016-05-03T05:58:10Z</time>
      </trkpt>
      <trkpt lat="44.88166" lon="3.79192">
        <ele>1213.189</ele>
        <time>2016-05-03T05:58:29Z</time>
      </trkpt>
      <trkpt lat="44.88006" lon="3.79286">
        <ele>1203.602</ele>
        <time>2016-05-03T05:58:47Z</time>
      </trkpt>
      <trkpt lat="44.87919" lon="3.79347">
        <ele>1197.767</ele>
        <time>2016-05-03T05:58:57Z</time>
      </trkpt>
      <trkpt lat="44.87611" lon="3.79642">
        <ele>1195.951</ele>
        <time>2016-05-03T05:59:38Z</time>
      </trkpt>
      <trkpt lat="44.87334" lon="3.79795">
        <ele>1194.34</ele>
        <time>2016-05-03T06:00:13Z</time>
      </trkpt>
      <trkpt lat="44.87262" lon="3.79837">
        <ele>1192.865</ele>
        <time>2016-05-03T06:00:22Z</time>
      </trkpt>
      <trkpt lat="44.86892" lon="3.80112">
        <ele>1172.732</ele>
        <time>2016-05-03T06:01:50Z</time>
      </trkpt>
      <trkpt lat="44.86863" lon="3.80132">
        <ele>1171.03</ele>
        <time>2016-05-03T06:01:53Z</time>
      </trkpt>
      <trkpt lat="44.86685" lon="3.80231">
        <ele>1166.409</ele>
        <time>2016-05-03T06:02:11Z</time>
      </trkpt>
      <trkpt lat="44.86478" lon="3.80406">
        <ele>1162.984</ele>
        <time>2016-05-03T06:02:36Z</time>
      </trkpt>
      <trkpt lat="44.86448" lon="3.80469">
        <ele>1161.743</ele>
        <time>2016-05-03T06:02:42Z</time>
      </trkpt>
      <trkpt lat="44.86336" lon="3.80726">
        <ele>1157.206</ele>
        <time>2016-05-03T06:03:07Z</time>
      </trkpt>
      <trkpt lat="44.86228" lon="3.80874">
        <ele>1157</ele>
        <time>2016-05-03T06:03:24Z</time>
      </trkpt>
      <trkpt lat="44.86192" lon="3.80946">
        <ele>1157</ele>
        <time>2016-05-03T06:03:31Z</time>
      </trkpt>
      <trkpt lat="44.8605" lon="3.81052">
        <ele>1156.024</ele>
        <time>2016-05-03T06:03:50Z</time>
      </trkpt>
      <trkpt lat="44.86009" lon="3.811">
        <ele>1155.315</ele>
        <time>2016-05-03T06:03:57Z</time>
      </trkpt>
      <trkpt lat="44.85965" lon="3.81172">
        <ele>1154.35</ele>
        <time>2016-05-03T06:04:06Z</time>
      </trkpt>
      <trkpt lat="44.85751" lon="3.81237">
        <ele>1150.51</ele>
        <time>2016-05-03T06:04:36Z</time>
      </trkpt>
      <trkpt lat="44.85521" lon="3.81371">
        <ele>1148.698</ele>
        <time>2016-05-03T06:05:09Z</time>
      </trkpt>
      <trkpt lat="44.85125" lon="3.81599">
        <ele>1144.274</ele>
        <time>2016-05-03T06:06:05Z</time>
      </trkpt>
      <trkpt lat="44.85103" lon="3.81602">
        <ele>1144.715</ele>
        <time>2016-05-03T06:06:33Z</time>
      </trkpt>
      <trkpt lat="44.84999" lon="3.81789">
        <ele>1142.952</ele>
        <time>2016-05-03T06:07:44Z</time>
      </trkpt>
      <trkpt lat="44.8497" lon="3.81879">
        <ele>1142.14</ele>
        <time>2016-05-03T06:07:57Z</time>
      </trkpt>
      <trkpt lat="44.84909" lon="3.82036">
        <ele>1143.74</ele>
        <time>2016-05-03T06:08:19Z</time>
      </trkpt>
      <trkpt lat="44.84896" lon="3.8211">
        <ele>1143.159</ele>
        <time>2016-05-03T06:08:28Z</time>
      </trkpt>
      <trkpt lat="44.84873" lon="3.82274">
        <ele>1137.195</ele>
        <time>2016-05-03T06:08:46Z</time>
      </trkpt>
      <trkpt lat="44.84862" lon="3.82292">
        <ele>1136.676</ele>
        <time>2016-05-03T06:08:48Z</time>
      </trkpt>
      <trkpt lat="44.84803" lon="3.82377">
        <ele>1133.8</ele>
        <time>2016-05-03T06:08:57Z</time>
      </trkpt>
      <trkpt lat="44.84791" lon="3.82402">
        <ele>1132.69</ele>
        <time>2016-05-03T06:08:59Z</time>
      </trkpt>
      <trkpt lat="44.84683" lon="3.82648">
        <ele>1111.091</ele>
        <time>2016-05-03T06:09:19Z</time>
      </trkpt>
      <trkpt lat="44.84606" lon="3.82763">
        <ele>1105.009</ele>
        <time>2016-05-03T06:09:33Z</time>
      </trkpt>
      <trkpt lat="44.84476" lon="3.82879">
        <ele>1100.564</ele>
        <time>2016-05-03T06:11:07Z</time>
      </trkpt>
      <trkpt lat="44.8441" lon="3.82935">
        <ele>1096.683</ele>
        <time>2016-05-03T06:11:19Z</time>
      </trkpt>
      <trkpt lat="44.8437" lon="3.83">
        <ele>1096.512</ele>
        <time>2016-05-03T06:11:37Z</time>
      </trkpt>
      <trkpt lat="44.84303" lon="3.82987">
        <ele>1097.78</ele>
        <time>2016-05-03T06:12:06Z</time>
      </trkpt>
      <trkpt lat="44.84267" lon="3.83">
        <ele>1100.035</ele>
        <time>2016-05-03T06:12:19Z</time>
      </trkpt>
      <trkpt lat="44.84248" lon="3.83001">
        <ele>1100.552</ele>
        <time>2016-05-03T06:12:25Z</time>
      </trkpt>
      <trkpt lat="44.8424" lon="3.82998">
        <ele>1100.514</ele>
        <time>2016-05-03T06:12:27Z</time>
      </trkpt>
      <trkpt lat="44.84178" lon="3.82981">
        <ele>1099.655</ele>
        <time>2016-05-03T06:12:43Z</time>
      </trkpt>
      <trkpt lat="44.84095" lon="3.83034">
        <ele>1099.791</ele>
        <time>2016-05-03T06:13:08Z</time>
      </trkpt>
      <trkpt lat="44.84068" lon="3.83064">
        <ele>1099.695</ele>
        <time>2016-05-03T06:13:16Z</time>
      </trkpt>
      <trkpt lat="44.84058" lon="3.8307">
        <ele>1099.303</ele>
        <time>2016-05-03T06:13:18Z</time>
      </trkpt>
      <trkpt lat="44.84046" lon="3.83075">
        <ele>1098.741</ele>
        <time>2016-05-03T06:13:20Z</time>
      </trkpt>
      <trkpt lat="44.84003" lon="3.83149">
        <ele>1098.941</ele>
        <time>2016-05-03T06:13:33Z</time>
      </trkpt>
      <trkpt lat="44.83907" lon="3.83261">
        <ele>1100.642</ele>
        <time>2016-05-03T06:14:10Z</time>
      </trkpt>
      <trkpt lat="44.83877" lon="3.83278">
        <ele>1101.136</ele>
        <time>2016-05-03T06:14:23Z</time>
      </trkpt>
      <trkpt lat="44.83518" lon="3.83311">
        <ele>1106.552</ele>
        <time>2016-05-03T06:16:13Z</time>
      </trkpt>
      <trkpt lat="44.83493" lon="3.83318">
        <ele>1107.561</ele>
        <time>2016-05-03T06:16:34Z</time>
      </trkpt>
      <trkpt lat="44.83397" lon="3.83204">
        <ele>1111.451</ele>
        <time>2016-05-03T06:17:25Z</time>
      </trkpt>
      <trkpt lat="44.83248" lon="3.83066">
        <ele>1120.784</ele>
        <time>2016-05-03T06:18:42Z</time>
      </trkpt>
      <trkpt lat="44.83143" lon="3.82937">
        <ele>1112.624</ele>
        <time>2016-05-03T06:19:16Z</time>
      </trkpt>
      <trkpt lat="44.83062" lon="3.8275">
        <ele>1106.565</ele>
        <time>2016-05-03T06:19:46Z</time>
      </trkpt>
      <trkpt lat="44.8304" lon="3.82762">
        <ele>1105.37</ele>
        <time>2016-05-03T06:19:58Z</time>
      </trkpt>
      <trkpt lat="44.83029" lon="3.82622">
        <ele>1107.62</ele>
        <time>2016-05-03T06:20:48Z</time>
      </trkpt>
      <trkpt lat="44.82992" lon="3.825">
        <ele>1116.704</ele>
        <time>2016-05-03T06:21:34Z</time>
      </trkpt>
      <trkpt lat="44.8293" lon="3.82401">
        <ele>1117.544</ele>
        <time>2016-05-03T06:22:13Z</time>
      </trkpt>
      <trkpt lat="44.82879" lon="3.82357">
        <ele>1115.799</ele>
        <time>2016-05-03T06:22:27Z</time>
      </trkpt>
      <trkpt lat="44.82807" lon="3.82322">
        <ele>1111.126</ele>
        <time>2016-05-03T06:22:46Z</time>
      </trkpt>
      <trkpt lat="44.82716" lon="3.82243">
        <ele>1111.96</ele>
        <time>2016-05-03T06:23:08Z</time>
      </trkpt>
      <trkpt lat="44.82582" lon="3.8204">
        <ele>1100.185</ele>
        <time>2016-05-03T06:24:02Z</time>
      </trkpt>
      <trkpt lat="44.82366" lon="3.81835">
        <ele>1083.809</ele>
        <time>2016-05-03T06:24:34Z</time>
      </trkpt>
      <trkpt lat="44.82319" lon="3.81783">
        <ele>1077.48</ele>
        <time>2016-05-03T06:24:40Z</time>
      </trkpt>
      <trkpt lat="44.82213" lon="3.81548">
        <ele>1067.402</ele>
        <time>2016-05-03T06:25:00Z</time>
      </trkpt>
      <trkpt lat="44.82141" lon="3.81272">
        <ele>1053.36</ele>
        <time>2016-05-03T06:25:23Z</time>
      </trkpt>
      <trkpt lat="44.82118" lon="3.81207">
        <ele>1049.921</ele>
        <time>2016-05-03T06:25:31Z</time>
      </trkpt>
      <trkpt lat="44.82113" lon="3.81201">
        <ele>1049.623</ele>
        <time>2016-05-03T06:25:33Z</time>
      </trkpt>
      <trkpt lat="44.82038" lon="3.81209">
        <ele>1049.14</ele>
        <time>2016-05-03T06:25:51Z</time>
      </trkpt>
      <trkpt lat="44.81962" lon="3.81148">
        <ele>1045.894</ele>
        <time>2016-05-03T06:26:07Z</time>
      </trkpt>
      <trkpt lat="44.81933" lon="3.81131">
        <ele>1046.01</ele>
        <time>2016-05-03T06:26:15Z</time>
      </trkpt>
      <trkpt lat="44.8182" lon="3.81201">
        <ele>1041.17</ele>
        <time>2016-05-03T06:28:09Z</time>
      </trkpt>
      <trkpt lat="44.81846" lon="3.81247">
        <ele>1037.656</ele>
        <time>2016-05-03T06:28:50Z</time>
      </trkpt>
      <trkpt lat="44.81861" lon="3.81283">
        <ele>1035.237</ele>
        <time>2016-05-03T06:28:54Z</time>
      </trkpt>
      <trkpt lat="44.81896" lon="3.81411">
        <ele>1030.192</ele>
        <time>2016-05-03T06:29:07Z</time>
      </trkpt>
      <trkpt lat="44.81892" lon="3.81458">
        <ele>1028.765</ele>
        <time>2016-05-03T06:29:14Z</time>
      </trkpt>
      <trkpt lat="44.8187" lon="3.81495">
        <ele>1024.27</ele>
        <time>2016-05-03T06:29:19Z</time>
      </trkpt>
      <trkpt lat="44.81827" lon="3.8157">
        <ele>1022.171</ele>
        <time>2016-05-03T06:29:27Z</time>
      </trkpt>
      <trkpt lat="44.81669" lon="3.81467">
        <ele>1039.827</ele>
        <time>2016-05-03T06:31:16Z</time>
      </trkpt>
      <trkpt lat="44.81647" lon="3.8144">
        <ele>1039.917</ele>
        <time>2016-05-03T06:31:32Z</time>
      </trkpt>
      <trkpt lat="44.81482" lon="3.81459">
        <ele>1042.612</ele>
        <time>2016-05-03T06:32:44Z</time>
      </trkpt>
      <trkpt lat="44.81439" lon="3.81477">
        <ele>1042.454</ele>
        <time>2016-05-03T06:32:59Z</time>
      </trkpt>
      <trkpt lat="44.81413" lon="3.81478">
        <ele>1041.944</ele>
        <time>2016-05-03T06:33:08Z</time>
      </trkpt>
      <trkpt lat="44.81324" lon="3.81616">
        <ele>1045.079</ele>
        <time>2016-05-03T06:33:54Z</time>
      </trkpt>
      <trkpt lat="44.81281" lon="3.81647">
        <ele>1044.649</ele>
        <time>2016-05-03T06:34:11Z</time>
      </trkpt>
      <trkpt lat="44.81268" lon="3.81648">
        <ele>1044.381</ele>
        <time>2016-05-03T06:34:16Z</time>
      </trkpt>
      <trkpt lat="44.81267" lon="3.81648">
        <ele>1044.359</ele>
        <time>2016-05-03T06:34:37Z</time>
      </trkpt>
      <trkpt lat="44.81188" lon="3.81757">
        <ele>1041.67</ele>
        <time>2016-05-03T06:35:04Z</time>
      </trkpt>
      <trkpt lat="44.81141" lon="3.81732">
        <ele>1038.78</ele>
        <time>2016-05-03T06:35:15Z</time>
      </trkpt>
      <trkpt lat="44.81036" lon="3.81958">
        <ele>1037.662</ele>
        <time>2016-05-03T06:35:51Z</time>
      </trkpt>
      <trkpt lat="44.81003" lon="3.82019">
        <ele>1034.56</ele>
        <time>2016-05-03T06:35:59Z</time>
      </trkpt>
      <trkpt lat="44.809" lon="3.82255">
        <ele>1020.153</ele>
        <time>2016-05-03T06:38:04Z</time>
      </trkpt>
      <trkpt lat="44.80899" lon="3.82315">
        <ele>1019.323</ele>
        <time>2016-05-03T06:38:14Z</time>
      </trkpt>
      <trkpt lat="44.80893" lon="3.82325">
        <ele>1019.939</ele>
        <time>2016-05-03T06:38:16Z</time>
      </trkpt>
      <trkpt lat="44.80826" lon="3.82344">
        <ele>1020.226</ele>
        <time>2016-05-03T06:38:30Z</time>
      </trkpt>
      <trkpt lat="44.80758" lon="3.82337">
        <ele>1013.891</ele>
        <time>2016-05-03T06:39:04Z</time>
      </trkpt>
      <trkpt lat="44.80687" lon="3.82386">
        <ele>1006.067</ele>
        <time>2016-05-03T06:40:45Z</time>
      </trkpt>
      <trkpt lat="44.80674" lon="3.8253">
        <ele>1001.748</ele>
        <time>2016-05-03T06:41:05Z</time>
      </trkpt>
      <trkpt lat="44.80673" lon="3.82569">
        <ele>999.475</ele>
        <time>2016-05-03T06:41:09Z</time>
      </trkpt>
      <trkpt lat="44.80681" lon="3.82602">
        <ele>994.398</ele>
        <time>2016-05-03T06:41:50Z</time>
      </trkpt>
      <trkpt lat="44.8072" lon="3.82648">
        <ele>995.312</ele>
        <time>2016-05-03T06:42:01Z</time>
      </trkpt>
      <trkpt lat="44.8073" lon="3.82661">
        <ele>995.026</ele>
        <time>2016-05-03T06:42:03Z</time>
      </trkpt>
      <trkpt lat="44.80738" lon="3.8268">
        <ele>992.928</ele>
        <time>2016-05-03T06:42:05Z</time>
      </trkpt>
      <trkpt lat="44.80743" lon="3.82781">
        <ele>986.607</ele>
        <time>2016-05-03T06:42:17Z</time>
      </trkpt>
      <trkpt lat="44.80739" lon="3.82786">
        <ele>986.347</ele>
        <time>2016-05-03T06:42:18Z</time>
      </trkpt>
      <trkpt lat="44.80574" lon="3.82752">
        <ele>994.76</ele>
        <time>2016-05-03T06:43:25Z</time>
      </trkpt>
      <trkpt lat="44.80525" lon="3.82773">
        <ele>1000.938</ele>
        <time>2016-05-03T06:44:18Z</time>
      </trkpt>
      <trkpt lat="44.80491" lon="3.82781">
        <ele>1003.761</ele>
        <time>2016-05-03T06:44:52Z</time>
      </trkpt>
      <trkpt lat="44.8047" lon="3.82789">
        <ele>1004.417</ele>
        <time>2016-05-03T06:45:20Z</time>
      </trkpt>
      <trkpt lat="44.80433" lon="3.82818">
        <ele>1006.095</ele>
        <time>2016-05-03T06:45:59Z</time>
      </trkpt>
      <trkpt lat="44.80425" lon="3.82843">
        <ele>1008.458</ele>
        <time>2016-05-03T06:46:13Z</time>
      </trkpt>
      <trkpt lat="44.80397" lon="3.82885">
        <ele>1012.741</ele>
        <time>2016-05-03T06:46:36Z</time>
      </trkpt>
      <trkpt lat="44.80333" lon="3.82956">
        <ele>1019.15</ele>
        <time>2016-05-03T06:47:20Z</time>
      </trkpt>
      <trkpt lat="44.80331" lon="3.8302">
        <ele>1025.041</ele>
        <time>2016-05-03T06:47:49Z</time>
      </trkpt>
      <trkpt lat="44.80405" lon="3.83021">
        <ele>1027.887</ele>
        <time>2016-05-03T06:48:32Z</time>
      </trkpt>
      <trkpt lat="44.80406" lon="3.83023">
        <ele>1028.028</ele>
        <time>2016-05-03T06:48:51Z</time>
      </trkpt>
      <trkpt lat="44.8054" lon="3.83058">
        <ele>1034.252</ele>
        <time>2016-05-03T06:51:11Z</time>
      </trkpt>
      <trkpt lat="44.80665" lon="3.83099">
        <ele>1036.65</ele>
        <time>2016-05-03T06:52:09Z</time>
      </trkpt>
      <trkpt lat="44.80649" lon="3.83221">
        <ele>1052.15</ele>
        <time>2016-05-03T06:55:53Z</time>
      </trkpt>
      <trkpt lat="44.8062" lon="3.83331">
        <ele>1067.003</ele>
        <time>2016-05-03T06:58:36Z</time>
      </trkpt>
      <trkpt lat="44.80563" lon="3.83432">
        <ele>1079.657</ele>
        <time>2016-05-03T07:00:15Z</time>
      </trkpt>
      <trkpt lat="44.80445" lon="3.83625">
        <ele>1094.32</ele>
        <time>2016-05-03T07:02:30Z</time>
      </trkpt>
      <trkpt lat="44.8044" lon="3.83637">
        <ele>1095.363</ele>
        <time>2016-05-03T07:02:38Z</time>
      </trkpt>
      <trkpt lat="44.80402" lon="3.83699">
        <ele>1100.553</ele>
        <time>2016-05-03T07:03:14Z</time>
      </trkpt>
      <trkpt lat="44.80356" lon="3.83838">
        <ele>1111.303</ele>
        <time>2016-05-03T07:04:17Z</time>
      </trkpt>
      <trkpt lat="44.80349" lon="3.8385">
        <ele>1112.506</ele>
        <time>2016-05-03T07:04:25Z</time>
      </trkpt>
      <trkpt lat="44.80343" lon="3.83864">
        <ele>1114.048</ele>
        <time>2016-05-03T07:04:34Z</time>
      </trkpt>
      <trkpt lat="44.80332" lon="3.839">
        <ele>1116.167</ele>
        <time>2016-05-03T07:04:57Z</time>
      </trkpt>
      <trkpt lat="44.80297" lon="3.83973">
        <ele>1119.599</ele>
        <time>2016-05-03T07:07:08Z</time>
      </trkpt>
      <trkpt lat="44.80247" lon="3.8409">
        <ele>1127.145</ele>
        <time>2016-05-03T07:08:03Z</time>
      </trkpt>
      <trkpt lat="44.80196" lon="3.84304">
        <ele>1142.272</ele>
        <time>2016-05-03T07:10:27Z</time>
      </trkpt>
      <trkpt lat="44.8012" lon="3.84504">
        <ele>1154.004</ele>
        <time>2016-05-03T07:12:49Z</time>
      </trkpt>
      <trkpt lat="44.80083" lon="3.8466">
        <ele>1154.139</ele>
        <time>2016-05-03T07:13:22Z</time>
      </trkpt>
      <trkpt lat="44.8007" lon="3.84688">
        <ele>1153.416</ele>
        <time>2016-05-03T07:13:26Z</time>
      </trkpt>
      <trkpt lat="44.80066" lon="3.84706">
        <ele>1152.799</ele>
        <time>2016-05-03T07:13:28Z</time>
      </trkpt>
      <trkpt lat="44.80066" lon="3.84726">
        <ele>1152.101</ele>
        <time>2016-05-03T07:13:30Z</time>
      </trkpt>
      <trkpt lat="44.80072" lon="3.84854">
        <ele>1148.308</ele>
        <time>2016-05-03T07:13:42Z</time>
      </trkpt>
      <trkpt lat="44.80081" lon="3.84999">
        <ele>1144.057</ele>
        <time>2016-05-03T07:13:54Z</time>
      </trkpt>
      <trkpt lat="44.80072" lon="3.8507">
        <ele>1142.098</ele>
        <time>2016-05-03T07:14:02Z</time>
      </trkpt>
      <trkpt lat="44.80061" lon="3.85104">
        <ele>1142.881</ele>
        <time>2016-05-03T07:14:10Z</time>
      </trkpt>
      <trkpt lat="44.79997" lon="3.85183">
        <ele>1146.08</ele>
        <time>2016-05-03T07:14:45Z</time>
      </trkpt>
      <trkpt lat="44.79922" lon="3.85293">
        <ele>1149.785</ele>
        <time>2016-05-03T07:15:29Z</time>
      </trkpt>
      <trkpt lat="44.79886" lon="3.85327">
        <ele>1149.949</ele>
        <time>2016-05-03T07:15:46Z</time>
      </trkpt>
      <trkpt lat="44.79741" lon="3.85472">
        <ele>1154.453</ele>
        <time>2016-05-03T07:20:01Z</time>
      </trkpt>
      <trkpt lat="44.79708" lon="3.85523">
        <ele>1158.851</ele>
        <time>2016-05-03T07:20:22Z</time>
      </trkpt>
      <trkpt lat="44.79603" lon="3.85592">
        <ele>1158.112</ele>
        <time>2016-05-03T07:21:04Z</time>
      </trkpt>
      <trkpt lat="44.79548" lon="3.85637">
        <ele>1157.095</ele>
        <time>2016-05-03T07:21:20Z</time>
      </trkpt>
      <trkpt lat="44.79485" lon="3.85699">
        <ele>1155.139</ele>
        <time>2016-05-03T07:21:40Z</time>
      </trkpt>
      <trkpt lat="44.79442" lon="3.85774">
        <ele>1156.021</ele>
        <time>2016-05-03T07:21:58Z</time>
      </trkpt>
      <trkpt lat="44.79369" lon="3.8587">
        <ele>1160.695</ele>
        <time>2016-05-03T07:22:27Z</time>
      </trkpt>
      <trkpt lat="44.79266" lon="3.8589">
        <ele>1165.204</ele>
        <time>2016-05-03T07:23:00Z</time>
      </trkpt>
      <trkpt lat="44.79149" lon="3.85882">
        <ele>1163.862</ele>
        <time>2016-05-03T07:23:34Z</time>
      </trkpt>
      <trkpt lat="44.79049" lon="3.8592">
        <ele>1164.28</ele>
        <time>2016-05-03T07:24:09Z</time>
      </trkpt>
      <trkpt lat="44.79005" lon="3.85941">
        <ele>1162.522</ele>
        <time>2016-05-03T07:24:23Z</time>
      </trkpt>
      <trkpt lat="44.78964" lon="3.85985">
        <ele>1159.995</ele>
        <time>2016-05-03T07:24:38Z</time>
      </trkpt>
      <trkpt lat="44.78964" lon="3.86004">
        <ele>1159.731</ele>
        <time>2016-05-03T07:24:41Z</time>
      </trkpt>
      <trkpt lat="44.78966" lon="3.86017">
        <ele>1159.543</ele>
        <time>2016-05-03T07:24:43Z</time>
      </trkpt>
      <trkpt lat="44.78966" lon="3.86032">
        <ele>1159.046</ele>
        <time>2016-05-03T07:24:45Z</time>
      </trkpt>
      <trkpt lat="44.78943" lon="3.86101">
        <ele>1156.174</ele>
        <time>2016-05-03T07:25:07Z</time>
      </trkpt>
      <trkpt lat="44.78919" lon="3.86088">
        <ele>1154.781</ele>
        <time>2016-05-03T07:25:20Z</time>
      </trkpt>
      <trkpt lat="44.78891" lon="3.86056">
        <ele>1151.251</ele>
        <time>2016-05-03T07:25:36Z</time>
      </trkpt>
      <trkpt lat="44.7887" lon="3.86042">
        <ele>1150.943</ele>
        <time>2016-05-03T07:26:16Z</time>
      </trkpt>
      <trkpt lat="44.7886" lon="3.86052">
        <ele>1154.353</ele>
        <time>2016-05-03T07:29:54Z</time>
      </trkpt>
      <trkpt lat="44.78861" lon="3.8606">
        <ele>1155.541</ele>
        <time>2016-05-03T07:31:39Z</time>
      </trkpt>
      <trkpt lat="44.78852" lon="3.8607">
        <ele>1158.424</ele>
        <time>2016-05-03T07:31:56Z</time>
      </trkpt>
      <trkpt lat="44.78838" lon="3.86085">
        <ele>1162.714</ele>
        <time>2016-05-03T07:32:16Z</time>
      </trkpt>
      <trkpt lat="44.78821" lon="3.86098">
        <ele>1166.899</ele>
        <time>2016-05-03T07:32:42Z</time>
      </trkpt>
      <trkpt lat="44.78811" lon="3.86103">
        <ele>1168.969</ele>
        <time>2016-05-03T07:32:59Z</time>
      </trkpt>
      <trkpt lat="44.78796" lon="3.86115">
        <ele>1172.622</ele>
        <time>2016-05-03T07:33:26Z</time>
      </trkpt>
      <trkpt lat="44.78769" lon="3.86128">
        <ele>1177.04</ele>
        <time>2016-05-03T07:34:30Z</time>
      </trkpt>
      <trkpt lat="44.78739" lon="3.8615">
        <ele>1180.936</ele>
        <time>2016-05-03T07:35:28Z</time>
      </trkpt>
      <trkpt lat="44.78544" lon="3.86563">
        <ele>1210.063</ele>
        <time>2016-05-03T07:39:36Z</time>
      </trkpt>
      <trkpt lat="44.78521" lon="3.86606">
        <ele>1212.35</ele>
        <time>2016-05-03T07:40:00Z</time>
      </trkpt>
      <trkpt lat="44.78492" lon="3.86643">
        <ele>1214.561</ele>
        <time>2016-05-03T07:40:17Z</time>
      </trkpt>
      <trkpt lat="44.78405" lon="3.86751">
        <ele>1218.14</ele>
        <time>2016-05-03T07:41:43Z</time>
      </trkpt>
      <trkpt lat="44.78295" lon="3.86974">
        <ele>1229.274</ele>
        <time>2016-05-03T07:43:58Z</time>
      </trkpt>
      <trkpt lat="44.7827" lon="3.87019">
        <ele>1229.012</ele>
        <time>2016-05-03T07:44:37Z</time>
      </trkpt>
      <trkpt lat="44.78246" lon="3.87125">
        <ele>1225.864</ele>
        <time>2016-05-03T07:45:12Z</time>
      </trkpt>
      <trkpt lat="44.78346" lon="3.87366">
        <ele>1229.023</ele>
        <time>2016-05-03T07:47:13Z</time>
      </trkpt>
      <trkpt lat="44.78359" lon="3.87389">
        <ele>1230.871</ele>
        <time>2016-05-03T07:47:26Z</time>
      </trkpt>
      <trkpt lat="44.78395" lon="3.87416">
        <ele>1235.813</ele>
        <time>2016-05-03T07:47:45Z</time>
      </trkpt>
      <trkpt lat="44.78455" lon="3.87491">
        <ele>1237.598</ele>
        <time>2016-05-03T07:48:20Z</time>
      </trkpt>
      <trkpt lat="44.78487" lon="3.87509">
        <ele>1237.945</ele>
        <time>2016-05-03T07:48:37Z</time>
      </trkpt>
      <trkpt lat="44.78485" lon="3.87524">
        <ele>1236.948</ele>
        <time>2016-05-03T07:49:35Z</time>
      </trkpt>
      <trkpt lat="44.78457" lon="3.87533">
        <ele>1235.893</ele>
        <time>2016-05-03T07:49:42Z</time>
      </trkpt>
      <trkpt lat="44.78421" lon="3.87537">
        <ele>1234.975</ele>
        <time>2016-05-03T07:49:48Z</time>
      </trkpt>
      <trkpt lat="44.78364" lon="3.87558">
        <ele>1232.462</ele>
        <time>2016-05-03T07:49:56Z</time>
      </trkpt>
      <trkpt lat="44.78265" lon="3.87639">
        <ele>1227.078</ele>
        <time>2016-05-03T07:50:10Z</time>
      </trkpt>
      <trkpt lat="44.78202" lon="3.87665">
        <ele>1224.142</ele>
        <time>2016-05-03T07:50:19Z</time>
      </trkpt>
      <trkpt lat="44.78124" lon="3.87688">
        <ele>1217.069</ele>
        <time>2016-05-03T07:50:30Z</time>
      </trkpt>
      <trkpt lat="44.78103" lon="3.8769">
        <ele>1214.124</ele>
        <time>2016-05-03T07:50:34Z</time>
      </trkpt>
      <trkpt lat="44.77976" lon="3.87852">
        <ele>1202.136</ele>
        <time>2016-05-03T07:50:57Z</time>
      </trkpt>
      <trkpt lat="44.77943" lon="3.87862">
        <ele>1196.795</ele>
        <time>2016-05-03T07:51:02Z</time>
      </trkpt>
      <trkpt lat="44.77923" lon="3.8786">
        <ele>1191.191</ele>
        <time>2016-05-03T07:51:06Z</time>
      </trkpt>
      <trkpt lat="44.77905" lon="3.87869">
        <ele>1187.211</ele>
        <time>2016-05-03T07:51:10Z</time>
      </trkpt>
      <trkpt lat="44.77846" lon="3.87974">
        <ele>1180.467</ele>
        <time>2016-05-03T07:51:23Z</time>
      </trkpt>
      <trkpt lat="44.77746" lon="3.88118">
        <ele>1159.137</ele>
        <time>2016-05-03T07:51:42Z</time>
      </trkpt>
      <trkpt lat="44.77734" lon="3.88131">
        <ele>1156.225</ele>
        <time>2016-05-03T07:51:45Z</time>
      </trkpt>
      <trkpt lat="44.77726" lon="3.88145">
        <ele>1154.463</ele>
        <time>2016-05-03T07:51:51Z</time>
      </trkpt>
      <trkpt lat="44.77724" lon="3.88145">
        <ele>1153.7</ele>
        <time>2016-05-03T07:52:17Z</time>
      </trkpt>
      <trkpt lat="44.77664" lon="3.88289">
        <ele>1149.507</ele>
        <time>2016-05-03T07:52:42Z</time>
      </trkpt>
      <trkpt lat="44.77658" lon="3.88302">
        <ele>1149.329</ele>
        <time>2016-05-03T07:52:45Z</time>
      </trkpt>
      <trkpt lat="44.77608" lon="3.88288">
        <ele>1142.517</ele>
        <time>2016-05-03T07:53:00Z</time>
      </trkpt>
      <trkpt lat="44.77574" lon="3.88222">
        <ele>1141.912</ele>
        <time>2016-05-03T07:54:10Z</time>
      </trkpt>
      <trkpt lat="44.77507" lon="3.88172">
        <ele>1140.963</ele>
        <time>2016-05-03T07:54:30Z</time>
      </trkpt>
      <trkpt lat="44.77386" lon="3.88281">
        <ele>1154.645</ele>
        <time>2016-05-03T07:55:56Z</time>
      </trkpt>
      <trkpt lat="44.77284" lon="3.88298">
        <ele>1156.792</ele>
        <time>2016-05-03T07:56:53Z</time>
      </trkpt>
      <trkpt lat="44.77278" lon="3.88317">
        <ele>1160.313</ele>
        <time>2016-05-03T07:57:05Z</time>
      </trkpt>
      <trkpt lat="44.77184" lon="3.88356">
        <ele>1166.205</ele>
        <time>2016-05-03T07:58:06Z</time>
      </trkpt>
      <trkpt lat="44.77174" lon="3.88365">
        <ele>1167.773</ele>
        <time>2016-05-03T07:58:15Z</time>
      </trkpt>
      <trkpt lat="44.77161" lon="3.88391">
        <ele>1172.825</ele>
        <time>2016-05-03T07:58:32Z</time>
      </trkpt>
      <trkpt lat="44.77027" lon="3.88306">
        <ele>1160.316</ele>
        <time>2016-05-03T08:00:06Z</time>
      </trkpt>
      <trkpt lat="44.77003" lon="3.88313">
        <ele>1160.867</ele>
        <time>2016-05-03T08:00:14Z</time>
      </trkpt>
      <trkpt lat="44.76974" lon="3.88307">
        <ele>1157.808</ele>
        <time>2016-05-03T08:01:46Z</time>
      </trkpt>
      <trkpt lat="44.76924" lon="3.8824">
        <ele>1148.933</ele>
        <time>2016-05-03T08:04:32Z</time>
      </trkpt>
      <trkpt lat="44.769" lon="3.88219">
        <ele>1145.59</ele>
        <time>2016-05-03T08:05:21Z</time>
      </trkpt>
      <trkpt lat="44.76794" lon="3.88274">
        <ele>1139.165</ele>
        <time>2016-05-03T08:08:27Z</time>
      </trkpt>
      <trkpt lat="44.76737" lon="3.8832">
        <ele>1132.922</ele>
        <time>2016-05-03T08:08:42Z</time>
      </trkpt>
      <trkpt lat="44.76707" lon="3.88322">
        <ele>1128.317</ele>
        <time>2016-05-03T08:08:51Z</time>
      </trkpt>
      <trkpt lat="44.76654" lon="3.88322">
        <ele>1123.97</ele>
        <time>2016-05-03T08:09:25Z</time>
      </trkpt>
      <trkpt lat="44.76524" lon="3.88235">
        <ele>1118.184</ele>
        <time>2016-05-03T08:10:02Z</time>
      </trkpt>
      <trkpt lat="44.76457" lon="3.88201">
        <ele>1112.545</ele>
        <time>2016-05-03T08:10:12Z</time>
      </trkpt>
      <trkpt lat="44.76332" lon="3.88145">
        <ele>1102.479</ele>
        <time>2016-05-03T08:10:29Z</time>
      </trkpt>
      <trkpt lat="44.76264" lon="3.88083">
        <ele>1096.208</ele>
        <time>2016-05-03T08:10:39Z</time>
      </trkpt>
      <trkpt lat="44.76233" lon="3.8806">
        <ele>1092.688</ele>
        <time>2016-05-03T08:10:43Z</time>
      </trkpt>
      <trkpt lat="44.76171" lon="3.87991">
        <ele>1087.088</ele>
        <time>2016-05-03T08:10:52Z</time>
      </trkpt>
      <trkpt lat="44.76145" lon="3.87919">
        <ele>1081.071</ele>
        <time>2016-05-03T08:11:03Z</time>
      </trkpt>
      <trkpt lat="44.76131" lon="3.87893">
        <ele>1078.285</ele>
        <time>2016-05-03T08:11:09Z</time>
      </trkpt>
      <trkpt lat="44.76109" lon="3.87821">
        <ele>1074.248</ele>
        <time>2016-05-03T08:11:16Z</time>
      </trkpt>
      <trkpt lat="44.76013" lon="3.87615">
        <ele>1065.946</ele>
        <time>2016-05-03T08:11:38Z</time>
      </trkpt>
      <trkpt lat="44.75997" lon="3.87549">
        <ele>1063.657</ele>
        <time>2016-05-03T08:11:46Z</time>
      </trkpt>
      <trkpt lat="44.75983" lon="3.87501">
        <ele>1061.508</ele>
        <time>2016-05-03T08:11:59Z</time>
      </trkpt>
      <trkpt lat="44.75947" lon="3.87454">
        <ele>1057.517</ele>
        <time>2016-05-03T08:12:05Z</time>
      </trkpt>
      <trkpt lat="44.75836" lon="3.8736">
        <ele>1044.499</ele>
        <time>2016-05-03T08:12:16Z</time>
      </trkpt>
      <trkpt lat="44.75645" lon="3.87206">
        <ele>1032.145</ele>
        <time>2016-05-03T08:12:34Z</time>
      </trkpt>
      <trkpt lat="44.75523" lon="3.8704">
        <ele>1024.215</ele>
        <time>2016-05-03T08:12:50Z</time>
      </trkpt>
      <trkpt lat="44.75499" lon="3.86965">
        <ele>1019.757</ele>
        <time>2016-05-03T08:13:03Z</time>
      </trkpt>
      <trkpt lat="44.75439" lon="3.86858">
        <ele>1016.309</ele>
        <time>2016-05-03T08:13:22Z</time>
      </trkpt>
      <trkpt lat="44.75394" lon="3.86797">
        <ele>1015.334</ele>
        <time>2016-05-03T08:13:44Z</time>
      </trkpt>
      <trkpt lat="44.75301" lon="3.8671">
        <ele>1014.004</ele>
        <time>2016-05-03T08:14:09Z</time>
      </trkpt>
      <trkpt lat="44.75223" lon="3.86599">
        <ele>1014.363</ele>
        <time>2016-05-03T08:14:30Z</time>
      </trkpt>
      <trkpt lat="44.7515" lon="3.86467">
        <ele>1018.854</ele>
        <time>2016-05-03T08:15:01Z</time>
      </trkpt>
      <trkpt lat="44.7511" lon="3.86373">
        <ele>1016.757</ele>
        <time>2016-05-03T08:15:20Z</time>
      </trkpt>
      <trkpt lat="44.74963" lon="3.86201">
        <ele>1008.535</ele>
        <time>2016-05-03T08:15:56Z</time>
      </trkpt>
      <trkpt lat="44.74847" lon="3.86159">
        <ele>1003.504</ele>
        <time>2016-05-03T08:16:13Z</time>
      </trkpt>
      <trkpt lat="44.74755" lon="3.86102">
        <ele>996.553</ele>
        <time>2016-05-03T08:16:24Z</time>
      </trkpt>
      <trkpt lat="44.7472" lon="3.86062">
        <ele>990.685</ele>
        <time>2016-05-03T08:16:28Z</time>
      </trkpt>
      <trkpt lat="44.74566" lon="3.85941">
        <ele>976.326</ele>
        <time>2016-05-03T08:18:55Z</time>
      </trkpt>
      <trkpt lat="44.74442" lon="3.86011">
        <ele>970.815</ele>
        <time>2016-05-03T08:19:15Z</time>
      </trkpt>
      <trkpt lat="44.74304" lon="3.85977">
        <ele>975.039</ele>
        <time>2016-05-03T08:20:30Z</time>
      </trkpt>
      <trkpt lat="44.74224" lon="3.85928">
        <ele>966.948</ele>
        <time>2016-05-03T08:21:10Z</time>
      </trkpt>
      <trkpt lat="44.74185" lon="3.85837">
        <ele>963.355</ele>
        <time>2016-05-03T08:21:19Z</time>
      </trkpt>
      <trkpt lat="44.74177" lon="3.85775">
        <ele>964.054</ele>
        <time>2016-05-03T08:21:25Z</time>
      </trkpt>
      <trkpt lat="44.74147" lon="3.85731">
        <ele>959.975</ele>
        <time>2016-05-03T08:21:31Z</time>
      </trkpt>
      <trkpt lat="44.74141" lon="3.85726">
        <ele>959.226</ele>
        <time>2016-05-03T08:21:32Z</time>
      </trkpt>
      <trkpt lat="44.74106" lon="3.85705">
        <ele>953.771</ele>
        <time>2016-05-03T08:21:38Z</time>
      </trkpt>
      <trkpt lat="44.7404" lon="3.85655">
        <ele>947.063</ele>
        <time>2016-05-03T08:22:26Z</time>
      </trkpt>
      <trkpt lat="44.73966" lon="3.8568">
        <ele>939.228</ele>
        <time>2016-05-03T08:23:17Z</time>
      </trkpt>
      <trkpt lat="44.73941" lon="3.85703">
        <ele>935.251</ele>
        <time>2016-05-03T08:24:59Z</time>
      </trkpt>
      <trkpt lat="44.73916" lon="3.85729">
        <ele>930.545</ele>
        <time>2016-05-03T08:25:03Z</time>
      </trkpt>
      <trkpt lat="44.73898" lon="3.85739">
        <ele>926.013</ele>
        <time>2016-05-03T08:25:05Z</time>
      </trkpt>
      <trkpt lat="44.73876" lon="3.85739">
        <ele>921.312</ele>
        <time>2016-05-03T08:25:07Z</time>
      </trkpt>
      <trkpt lat="44.73825" lon="3.85725">
        <ele>913.613</ele>
        <time>2016-05-03T08:25:11Z</time>
      </trkpt>
      <trkpt lat="44.73703" lon="3.85688">
        <ele>905.531</ele>
        <time>2016-05-03T08:25:28Z</time>
      </trkpt>
      <trkpt lat="44.73679" lon="3.85754">
        <ele>914.272</ele>
        <time>2016-05-03T08:25:46Z</time>
      </trkpt>
      <trkpt lat="44.73622" lon="3.85752">
        <ele>909.365</ele>
        <time>2016-05-03T08:27:06Z</time>
      </trkpt>
      <trkpt lat="44.73602" lon="3.85785">
        <ele>911.068</ele>
        <time>2016-05-03T08:28:08Z</time>
      </trkpt>
      <trkpt lat="44.73522" lon="3.85833">
        <ele>908.822</ele>
        <time>2016-05-03T08:28:46Z</time>
      </trkpt>
      <trkpt lat="44.73452" lon="3.85714">
        <ele>903.342</ele>
        <time>2016-05-03T08:30:44Z</time>
      </trkpt>
      <trkpt lat="44.73393" lon="3.85707">
        <ele>907.55</ele>
        <time>2016-05-03T08:31:01Z</time>
      </trkpt>
      <trkpt lat="44.73343" lon="3.8575">
        <ele>908.621</ele>
        <time>2016-05-03T08:31:17Z</time>
      </trkpt>
      <trkpt lat="44.73289" lon="3.85818">
        <ele>910.039</ele>
        <time>2016-05-03T08:31:36Z</time>
      </trkpt>
      <trkpt lat="44.73281" lon="3.85823">
        <ele>910.459</ele>
        <time>2016-05-03T08:31:38Z</time>
      </trkpt>
      <trkpt lat="44.73177" lon="3.8583">
        <ele>918.622</ele>
        <time>2016-05-03T08:32:04Z</time>
      </trkpt>
      <trkpt lat="44.73088" lon="3.85751">
        <ele>919.789</ele>
        <time>2016-05-03T08:32:32Z</time>
      </trkpt>
      <trkpt lat="44.73036" lon="3.85689">
        <ele>919.536</ele>
        <time>2016-05-03T08:32:50Z</time>
      </trkpt>
      <trkpt lat="44.72961" lon="3.85664">
        <ele>918.903</ele>
        <time>2016-05-03T08:33:10Z</time>
      </trkpt>
      <trkpt lat="44.72938" lon="3.85649">
        <ele>918.852</ele>
        <time>2016-05-03T08:33:19Z</time>
      </trkpt>
      <trkpt lat="44.72931" lon="3.85649">
        <ele>918.785</ele>
        <time>2016-05-03T08:33:22Z</time>
      </trkpt>
      <trkpt lat="44.72925" lon="3.85647">
        <ele>918.819</ele>
        <time>2016-05-03T08:33:25Z</time>
      </trkpt>
      <trkpt lat="44.72878" lon="3.85601">
        <ele>919.519</ele>
        <time>2016-05-03T08:33:52Z</time>
      </trkpt>
      <trkpt lat="44.72878" lon="3.85599">
        <ele>919.552</ele>
        <time>2016-05-03T08:33:53Z</time>
      </trkpt>
      <trkpt lat="44.7287" lon="3.85583">
        <ele>919.802</ele>
        <time>2016-05-03T08:34:03Z</time>
      </trkpt>
      <trkpt lat="44.72741" lon="3.85545">
        <ele>920.023</ele>
        <time>2016-05-03T08:35:07Z</time>
      </trkpt>
      <trkpt lat="44.72739" lon="3.85513">
        <ele>920.938</ele>
        <time>2016-05-03T08:35:27Z</time>
      </trkpt>
      <trkpt lat="44.72702" lon="3.85463">
        <ele>922.767</ele>
        <time>2016-05-03T08:35:52Z</time>
      </trkpt>
      <trkpt lat="44.72688" lon="3.8545">
        <ele>923.219</ele>
        <time>2016-05-03T08:35:58Z</time>
      </trkpt>
      <trkpt lat="44.72632" lon="3.8547">
        <ele>920.208</ele>
        <time>2016-05-03T08:38:13Z</time>
      </trkpt>
      <trkpt lat="44.72609" lon="3.85501">
        <ele>918.276</ele>
        <time>2016-05-03T08:38:59Z</time>
      </trkpt>
      <trkpt lat="44.72622" lon="3.85551">
        <ele>917.217</ele>
        <time>2016-05-03T08:39:57Z</time>
      </trkpt>
      <trkpt lat="44.72614" lon="3.85581">
        <ele>917.1</ele>
        <time>2016-05-03T08:40:06Z</time>
      </trkpt>
      <trkpt lat="44.72597" lon="3.85602">
        <ele>917.199</ele>
        <time>2016-05-03T08:40:12Z</time>
      </trkpt>
      <trkpt lat="44.72583" lon="3.85618">
        <ele>917.109</ele>
        <time>2016-05-03T08:40:16Z</time>
      </trkpt>
      <trkpt lat="44.72549" lon="3.85643">
        <ele>917.688</ele>
        <time>2016-05-03T08:40:28Z</time>
      </trkpt>
      <trkpt lat="44.72494" lon="3.85647">
        <ele>918.802</ele>
        <time>2016-05-03T08:40:55Z</time>
      </trkpt>
      <trkpt lat="44.72465" lon="3.85622">
        <ele>918.994</ele>
        <time>2016-05-03T08:41:14Z</time>
      </trkpt>
      <trkpt lat="44.72434" lon="3.8561">
        <ele>919.026</ele>
        <time>2016-05-03T08:41:38Z</time>
      </trkpt>
      <trkpt lat="44.72304" lon="3.8562">
        <ele>923.133</ele>
        <time>2016-05-03T08:43:39Z</time>
      </trkpt>
      <trkpt lat="44.72212" lon="3.85547">
        <ele>930.709</ele>
        <time>2016-05-03T08:44:33Z</time>
      </trkpt>
      <trkpt lat="44.7208" lon="3.85581">
        <ele>945.538</ele>
        <time>2016-05-03T08:46:05Z</time>
      </trkpt>
      <trkpt lat="44.72027" lon="3.85579">
        <ele>947.099</ele>
        <time>2016-05-03T08:46:32Z</time>
      </trkpt>
      <trkpt lat="44.71875" lon="3.8561">
        <ele>953.717</ele>
        <time>2016-05-03T08:48:25Z</time>
      </trkpt>
      <trkpt lat="44.71717" lon="3.85596">
        <ele>960.763</ele>
        <time>2016-05-03T08:50:50Z</time>
      </trkpt>
      <trkpt lat="44.71544" lon="3.85633">
        <ele>965.406</ele>
        <time>2016-05-03T08:56:09Z</time>
      </trkpt>
      <trkpt lat="44.71458" lon="3.85641">
        <ele>964.56</ele>
        <time>2016-05-03T08:57:33Z</time>
      </trkpt>
      <trkpt lat="44.71373" lon="3.85659">
        <ele>964.571</ele>
        <time>2016-05-03T08:57:52Z</time>
      </trkpt>
      <trkpt lat="44.71165" lon="3.85654">
        <ele>972.124</ele>
        <time>2016-05-03T08:59:02Z</time>
      </trkpt>
      <trkpt lat="44.71138" lon="3.85649">
        <ele>973.044</ele>
        <time>2016-05-03T08:59:11Z</time>
      </trkpt>
      <trkpt lat="44.7109" lon="3.85644">
        <ele>973.368</ele>
        <time>2016-05-03T08:59:21Z</time>
      </trkpt>
      <trkpt lat="44.70985" lon="3.85641">
        <ele>974.541</ele>
        <time>2016-05-03T08:59:41Z</time>
      </trkpt>
      <trkpt lat="44.70727" lon="3.85695">
        <ele>981.044</ele>
        <time>2016-05-03T09:00:36Z</time>
      </trkpt>
      <trkpt lat="44.70652" lon="3.85674">
        <ele>979.691</ele>
        <time>2016-05-03T09:00:51Z</time>
      </trkpt>
      <trkpt lat="44.70627" lon="3.85658">
        <ele>979.356</ele>
        <time>2016-05-03T09:00:55Z</time>
      </trkpt>
      <trkpt lat="44.70595" lon="3.85646">
        <ele>978.858</ele>
        <time>2016-05-03T09:01:00Z</time>
      </trkpt>
      <trkpt lat="44.70472" lon="3.85678">
        <ele>979.811</ele>
        <time>2016-05-03T09:01:27Z</time>
      </trkpt>
      <trkpt lat="44.70354" lon="3.85681">
        <ele>984.05</ele>
        <time>2016-05-03T09:02:38Z</time>
      </trkpt>
      <trkpt lat="44.70342" lon="3.85685">
        <ele>984.89</ele>
        <time>2016-05-03T09:02:46Z</time>
      </trkpt>
      <trkpt lat="44.70325" lon="3.85691">
        <ele>986.047</ele>
        <time>2016-05-03T09:02:55Z</time>
      </trkpt>
      <trkpt lat="44.703" lon="3.85697">
        <ele>988.48</ele>
        <time>2016-05-03T09:03:11Z</time>
      </trkpt>
      <trkpt lat="44.70143" lon="3.85762">
        <ele>1001.445</ele>
        <time>2016-05-03T09:05:00Z</time>
      </trkpt>
      <trkpt lat="44.69917" lon="3.85821">
        <ele>1009.248</ele>
        <time>2016-05-03T09:06:36Z</time>
      </trkpt>
      <trkpt lat="44.69917" lon="3.85819">
        <ele>1009.217</ele>
        <time>2016-05-03T09:07:52Z</time>
      </trkpt>
      <trkpt lat="44.69914" lon="3.85809">
        <ele>1009.056</ele>
        <time>2016-05-03T09:08:04Z</time>
      </trkpt>
      <trkpt lat="44.69752" lon="3.85582">
        <ele>1021.614</ele>
        <time>2016-05-03T09:09:53Z</time>
      </trkpt>
      <trkpt lat="44.69704" lon="3.8545">
        <ele>1028.508</ele>
        <time>2016-05-03T09:10:57Z</time>
      </trkpt>
      <trkpt lat="44.69634" lon="3.85331">
        <ele>1035.854</ele>
        <time>2016-05-03T09:11:53Z</time>
      </trkpt>
      <trkpt lat="44.69673" lon="3.85238">
        <ele>1034.567</ele>
        <time>2016-05-03T09:12:19Z</time>
      </trkpt>
      <trkpt lat="44.6968" lon="3.85226">
        <ele>1034.625</ele>
        <time>2016-05-03T09:12:21Z</time>
      </trkpt>
      <trkpt lat="44.69702" lon="3.85201">
        <ele>1034.502</ele>
        <time>2016-05-03T09:12:25Z</time>
      </trkpt>
      <trkpt lat="44.69804" lon="3.85115">
        <ele>1032.128</ele>
        <time>2016-05-03T09:12:41Z</time>
      </trkpt>
      <trkpt lat="44.69859" lon="3.84852">
        <ele>1031.107</ele>
        <time>2016-05-03T09:13:30Z</time>
      </trkpt>
      <trkpt lat="44.6988" lon="3.84737">
        <ele>1025.003</ele>
        <time>2016-05-03T09:13:54Z</time>
      </trkpt>
      <trkpt lat="44.69864" lon="3.84595">
        <ele>1018.311</ele>
        <time>2016-05-03T09:14:10Z</time>
      </trkpt>
      <trkpt lat="44.69864" lon="3.84575">
        <ele>1018.019</ele>
        <time>2016-05-03T09:14:12Z</time>
      </trkpt>
      <trkpt lat="44.69937" lon="3.84352">
        <ele>1015.402</ele>
        <time>2016-05-03T09:14:51Z</time>
      </trkpt>
      <trkpt lat="44.69934" lon="3.84232">
        <ele>1017.605</ele>
        <time>2016-05-03T09:15:17Z</time>
      </trkpt>
      <trkpt lat="44.69962" lon="3.84146">
        <ele>1018.515</ele>
        <time>2016-05-03T09:15:39Z</time>
      </trkpt>
      <trkpt lat="44.69947" lon="3.84107">
        <ele>1018.154</ele>
        <time>2016-05-03T09:16:18Z</time>
      </trkpt>
      <trkpt lat="44.69937" lon="3.84089">
        <ele>1016.66</ele>
        <time>2016-05-03T09:16:21Z</time>
      </trkpt>
      <trkpt lat="44.69924" lon="3.84073">
        <ele>1014.792</ele>
        <time>2016-05-03T09:16:24Z</time>
      </trkpt>
      <trkpt lat="44.69874" lon="3.84062">
        <ele>1011.601</ele>
        <time>2016-05-03T09:16:34Z</time>
      </trkpt>
      <trkpt lat="44.6986" lon="3.84055">
        <ele>1009.838</ele>
        <time>2016-05-03T09:16:36Z</time>
      </trkpt>
      <trkpt lat="44.69816" lon="3.84">
        <ele>1000.746</ele>
        <time>2016-05-03T09:17:42Z</time>
      </trkpt>
      <trkpt lat="44.69721" lon="3.83856">
        <ele>980.496</ele>
        <time>2016-05-03T09:18:12Z</time>
      </trkpt>
      <trkpt lat="44.69711" lon="3.83794">
        <ele>970.143</ele>
        <time>2016-05-03T09:18:29Z</time>
      </trkpt>
      <trkpt lat="44.69672" lon="3.83779">
        <ele>968.696</ele>
        <time>2016-05-03T09:18:40Z</time>
      </trkpt>
      <trkpt lat="44.69653" lon="3.8371">
        <ele>964.227</ele>
        <time>2016-05-03T09:19:41Z</time>
      </trkpt>
      <trkpt lat="44.69687" lon="3.83659">
        <ele>962.62</ele>
        <time>2016-05-03T09:24:29Z</time>
      </trkpt>
      <trkpt lat="44.69648" lon="3.83625">
        <ele>963.628</ele>
        <time>2016-05-03T09:25:03Z</time>
      </trkpt>
      <trkpt lat="44.6964" lon="3.83616">
        <ele>963.529</ele>
        <time>2016-05-03T09:25:05Z</time>
      </trkpt>
      <trkpt lat="44.69632" lon="3.83602">
        <ele>963.261</ele>
        <time>2016-05-03T09:25:07Z</time>
      </trkpt>
      <trkpt lat="44.69589" lon="3.83469">
        <ele>959.491</ele>
        <time>2016-05-03T09:25:23Z</time>
      </trkpt>
      <trkpt lat="44.69603" lon="3.83441">
        <ele>958.689</ele>
        <time>2016-05-03T09:25:32Z</time>
      </trkpt>
      <trkpt lat="44.69661" lon="3.83429">
        <ele>963.084</ele>
        <time>2016-05-03T09:25:47Z</time>
      </trkpt>
      <trkpt lat="44.6978" lon="3.83462">
        <ele>978.627</ele>
        <time>2016-05-03T09:29:53Z</time>
      </trkpt>
      <trkpt lat="44.69757" lon="3.83364">
        <ele>988.922</ele>
        <time>2016-05-03T09:31:09Z</time>
      </trkpt>
      <trkpt lat="44.69756" lon="3.8336">
        <ele>989.184</ele>
        <time>2016-05-03T09:31:11Z</time>
      </trkpt>
      <trkpt lat="44.69741" lon="3.83298">
        <ele>996.944</ele>
        <time>2016-05-03T09:32:12Z</time>
      </trkpt>
      <trkpt lat="44.69666" lon="3.83144">
        <ele>1012.643</ele>
        <time>2016-05-03T09:34:50Z</time>
      </trkpt>
      <trkpt lat="44.69662" lon="3.83138">
        <ele>1013.102</ele>
        <time>2016-05-03T09:34:54Z</time>
      </trkpt>
      <trkpt lat="44.69656" lon="3.83127">
        <ele>1014.295</ele>
        <time>2016-05-03T09:35:01Z</time>
      </trkpt>
      <trkpt lat="44.69618" lon="3.83035">
        <ele>1025.974</ele>
        <time>2016-05-03T09:36:01Z</time>
      </trkpt>
      <trkpt lat="44.69585" lon="3.82741">
        <ele>1045.55</ele>
        <time>2016-05-03T09:38:46Z</time>
      </trkpt>
      <trkpt lat="44.69587" lon="3.82572">
        <ele>1054.24</ele>
        <time>2016-05-03T09:40:09Z</time>
      </trkpt>
      <trkpt lat="44.69388" lon="3.82457">
        <ele>1050.526</ele>
        <time>2016-05-03T10:15:34Z</time>
      </trkpt>
      <trkpt lat="44.69269" lon="3.82264">
        <ele>1051.674</ele>
        <time>2016-05-03T10:16:11Z</time>
      </trkpt>
      <trkpt lat="44.69139" lon="3.82245">
        <ele>1055.759</ele>
        <time>2016-05-03T10:16:49Z</time>
      </trkpt>
      <trkpt lat="44.69101" lon="3.82236">
        <ele>1056.413</ele>
        <time>2016-05-03T10:16:58Z</time>
      </trkpt>
      <trkpt lat="44.69091" lon="3.82238">
        <ele>1056.078</ele>
        <time>2016-05-03T10:17:00Z</time>
      </trkpt>
      <trkpt lat="44.69079" lon="3.82245">
        <ele>1055.476</ele>
        <time>2016-05-03T10:17:02Z</time>
      </trkpt>
      <trkpt lat="44.69069" lon="3.82255">
        <ele>1054.699</ele>
        <time>2016-05-03T10:17:04Z</time>
      </trkpt>
      <trkpt lat="44.68919" lon="3.82486">
        <ele>1071.689</ele>
        <time>2016-05-03T10:19:10Z</time>
      </trkpt>
      <trkpt lat="44.6888" lon="3.82523">
        <ele>1073.991</ele>
        <time>2016-05-03T10:20:06Z</time>
      </trkpt>
      <trkpt lat="44.68734" lon="3.8261">
        <ele>1069.054</ele>
        <time>2016-05-03T10:20:42Z</time>
      </trkpt>
      <trkpt lat="44.6867" lon="3.82636">
        <ele>1063.927</ele>
        <time>2016-05-03T10:20:53Z</time>
      </trkpt>
      <trkpt lat="44.68541" lon="3.82623">
        <ele>1063.818</ele>
        <time>2016-05-03T10:21:17Z</time>
      </trkpt>
      <trkpt lat="44.68522" lon="3.82551">
        <ele>1069.058</ele>
        <time>2016-05-03T10:21:46Z</time>
      </trkpt>
      <trkpt lat="44.68509" lon="3.82526">
        <ele>1070.52</ele>
        <time>2016-05-03T10:21:59Z</time>
      </trkpt>
      <trkpt lat="44.68485" lon="3.8251">
        <ele>1071.413</ele>
        <time>2016-05-03T10:22:16Z</time>
      </trkpt>
      <trkpt lat="44.68476" lon="3.82506">
        <ele>1071.391</ele>
        <time>2016-05-03T10:22:23Z</time>
      </trkpt>
      <trkpt lat="44.68437" lon="3.8247">
        <ele>1073.578</ele>
        <time>2016-05-03T10:22:53Z</time>
      </trkpt>
      <trkpt lat="44.68396" lon="3.82413">
        <ele>1079.529</ele>
        <time>2016-05-03T10:23:51Z</time>
      </trkpt>
      <trkpt lat="44.68362" lon="3.8234">
        <ele>1089.23</ele>
        <time>2016-05-03T10:25:05Z</time>
      </trkpt>
      <trkpt lat="44.68359" lon="3.82301">
        <ele>1096.043</ele>
        <time>2016-05-03T10:25:42Z</time>
      </trkpt>
      <trkpt lat="44.6835" lon="3.82251">
        <ele>1102.58</ele>
        <time>2016-05-03T10:27:37Z</time>
      </trkpt>
      <trkpt lat="44.68347" lon="3.82241">
        <ele>1103.838</ele>
        <time>2016-05-03T10:30:15Z</time>
      </trkpt>
      <trkpt lat="44.68279" lon="3.822">
        <ele>1110.842</ele>
        <time>2016-05-03T10:31:45Z</time>
      </trkpt>
      <trkpt lat="44.6826" lon="3.82193">
        <ele>1113.075</ele>
        <time>2016-05-03T10:32:00Z</time>
      </trkpt>
      <trkpt lat="44.68222" lon="3.82173">
        <ele>1118.729</ele>
        <time>2016-05-03T10:33:40Z</time>
      </trkpt>
      <trkpt lat="44.68201" lon="3.82101">
        <ele>1124.756</ele>
        <time>2016-05-03T10:34:58Z</time>
      </trkpt>
      <trkpt lat="44.68193" lon="3.81932">
        <ele>1134.69</ele>
        <time>2016-05-03T10:36:04Z</time>
      </trkpt>
      <trkpt lat="44.68209" lon="3.81884">
        <ele>1137.513</ele>
        <time>2016-05-03T10:36:25Z</time>
      </trkpt>
      <trkpt lat="44.68214" lon="3.81859">
        <ele>1138.707</ele>
        <time>2016-05-03T10:36:38Z</time>
      </trkpt>
      <trkpt lat="44.6821" lon="3.81849">
        <ele>1139.243</ele>
        <time>2016-05-03T10:36:45Z</time>
      </trkpt>
      <trkpt lat="44.68111" lon="3.81799">
        <ele>1139.906</ele>
        <time>2016-05-03T10:41:08Z</time>
      </trkpt>
      <trkpt lat="44.68092" lon="3.81771">
        <ele>1140.706</ele>
        <time>2016-05-03T10:41:18Z</time>
      </trkpt>
      <trkpt lat="44.6803" lon="3.81548">
        <ele>1139.818</ele>
        <time>2016-05-03T10:43:39Z</time>
      </trkpt>
      <trkpt lat="44.68013" lon="3.81346">
        <ele>1139.092</ele>
        <time>2016-05-03T10:44:17Z</time>
      </trkpt>
      <trkpt lat="44.67974" lon="3.81178">
        <ele>1140.904</ele>
        <time>2016-05-03T10:45:23Z</time>
      </trkpt>
      <trkpt lat="44.67924" lon="3.81027">
        <ele>1141.6</ele>
        <time>2016-05-03T10:45:53Z</time>
      </trkpt>
      <trkpt lat="44.67977" lon="3.80925">
        <ele>1143.555</ele>
        <time>2016-05-03T10:47:50Z</time>
      </trkpt>
      <trkpt lat="44.67848" lon="3.80791">
        <ele>1149.328</ele>
        <time>2016-05-03T10:49:01Z</time>
      </trkpt>
      <trkpt lat="44.67814" lon="3.80676">
        <ele>1155.885</ele>
        <time>2016-05-03T10:49:57Z</time>
      </trkpt>
      <trkpt lat="44.67811" lon="3.80626">
        <ele>1158.985</ele>
        <time>2016-05-03T10:50:18Z</time>
      </trkpt>
      <trkpt lat="44.67776" lon="3.80522">
        <ele>1159.592</ele>
        <time>2016-05-03T10:50:54Z</time>
      </trkpt>
      <trkpt lat="44.6773" lon="3.80457">
        <ele>1160.451</ele>
        <time>2016-05-03T10:51:11Z</time>
      </trkpt>
      <trkpt lat="44.67673" lon="3.80424">
        <ele>1162.119</ele>
        <time>2016-05-03T10:51:30Z</time>
      </trkpt>
      <trkpt lat="44.67672" lon="3.8042">
        <ele>1162.4</ele>
        <time>2016-05-03T10:51:31Z</time>
      </trkpt>
      <trkpt lat="44.67651" lon="3.8038">
        <ele>1165.43</ele>
        <time>2016-05-03T10:51:45Z</time>
      </trkpt>
      <trkpt lat="44.67628" lon="3.80348">
        <ele>1167.385</ele>
        <time>2016-05-03T10:52:00Z</time>
      </trkpt>
      <trkpt lat="44.67613" lon="3.80319">
        <ele>1169.176</ele>
        <time>2016-05-03T10:52:15Z</time>
      </trkpt>
      <trkpt lat="44.67565" lon="3.80205">
        <ele>1174.703</ele>
        <time>2016-05-03T10:53:10Z</time>
      </trkpt>
      <trkpt lat="44.67489" lon="3.80112">
        <ele>1179.213</ele>
        <time>2016-05-03T10:56:44Z</time>
      </trkpt>
      <trkpt lat="44.67471" lon="3.80055">
        <ele>1180.203</ele>
        <time>2016-05-03T10:57:14Z</time>
      </trkpt>
      <trkpt lat="44.67419" lon="3.79967">
        <ele>1178.811</ele>
        <time>2016-05-03T10:57:43Z</time>
      </trkpt>
      <trkpt lat="44.67386" lon="3.7994">
        <ele>1177.888</ele>
        <time>2016-05-03T10:57:57Z</time>
      </trkpt>
      <trkpt lat="44.67371" lon="3.7993">
        <ele>1176.05</ele>
        <time>2016-05-03T10:58:01Z</time>
      </trkpt>
      <trkpt lat="44.67344" lon="3.79925">
        <ele>1173.988</ele>
        <time>2016-05-03T10:58:06Z</time>
      </trkpt>
      <trkpt lat="44.67175" lon="3.7984">
        <ele>1169.477</ele>
        <time>2016-05-03T10:58:42Z</time>
      </trkpt>
      <trkpt lat="44.67074" lon="3.79766">
        <ele>1170.463</ele>
        <time>2016-05-03T11:03:29Z</time>
      </trkpt>
      <trkpt lat="44.66942" lon="3.79616">
        <ele>1173.037</ele>
        <time>2016-05-03T11:04:34Z</time>
      </trkpt>
      <trkpt lat="44.66813" lon="3.79408">
        <ele>1184.834</ele>
        <time>2016-05-03T11:17:30Z</time>
      </trkpt>
      <trkpt lat="44.66729" lon="3.79332">
        <ele>1197.315</ele>
        <time>2016-05-03T11:19:39Z</time>
      </trkpt>
      <trkpt lat="44.66702" lon="3.79312">
        <ele>1199.731</ele>
        <time>2016-05-03T11:20:06Z</time>
      </trkpt>
      <trkpt lat="44.66649" lon="3.79238">
        <ele>1206.348</ele>
        <time>2016-05-03T11:21:37Z</time>
      </trkpt>
      <trkpt lat="44.66606" lon="3.79174">
        <ele>1209.109</ele>
        <time>2016-05-03T11:23:14Z</time>
      </trkpt>
      <trkpt lat="44.66553" lon="3.7907">
        <ele>1212.882</ele>
        <time>2016-05-03T11:24:37Z</time>
      </trkpt>
      <trkpt lat="44.66548" lon="3.79065">
        <ele>1212.762</ele>
        <time>2016-05-03T11:25:22Z</time>
      </trkpt>
      <trkpt lat="44.66473" lon="3.78939">
        <ele>1215.248</ele>
        <time>2016-05-03T11:25:59Z</time>
      </trkpt>
      <trkpt lat="44.66404" lon="3.78859">
        <ele>1217.038</ele>
        <time>2016-05-03T11:26:34Z</time>
      </trkpt>
      <trkpt lat="44.66371" lon="3.78836">
        <ele>1216.385</ele>
        <time>2016-05-03T11:26:46Z</time>
      </trkpt>
      <trkpt lat="44.66344" lon="3.78812">
        <ele>1216.384</ele>
        <time>2016-05-03T11:26:52Z</time>
      </trkpt>
      <trkpt lat="44.66253" lon="3.78609">
        <ele>1217.31</ele>
        <time>2016-05-03T11:27:33Z</time>
      </trkpt>
      <trkpt lat="44.66177" lon="3.78468">
        <ele>1218.195</ele>
        <time>2016-05-03T11:27:57Z</time>
      </trkpt>
      <trkpt lat="44.66094" lon="3.7839">
        <ele>1219.568</ele>
        <time>2016-05-03T11:28:52Z</time>
      </trkpt>
      <trkpt lat="44.66069" lon="3.78318">
        <ele>1220.521</ele>
        <time>2016-05-03T11:29:05Z</time>
      </trkpt>
      <trkpt lat="44.66067" lon="3.78246">
        <ele>1221.78</ele>
        <time>2016-05-03T11:29:17Z</time>
      </trkpt>
      <trkpt lat="44.65993" lon="3.78075">
        <ele>1226.969</ele>
        <time>2016-05-03T11:29:52Z</time>
      </trkpt>
      <trkpt lat="44.65963" lon="3.77984">
        <ele>1229.448</ele>
        <time>2016-05-03T11:30:17Z</time>
      </trkpt>
      <trkpt lat="44.65945" lon="3.77927">
        <ele>1226.958</ele>
        <time>2016-05-03T11:30:34Z</time>
      </trkpt>
      <trkpt lat="44.65863" lon="3.77968">
        <ele>1231.832</ele>
        <time>2016-05-03T11:31:17Z</time>
      </trkpt>
      <trkpt lat="44.65821" lon="3.78018">
        <ele>1231.82</ele>
        <time>2016-05-03T11:31:44Z</time>
      </trkpt>
      <trkpt lat="44.65715" lon="3.78146">
        <ele>1231.264</ele>
        <time>2016-05-03T11:32:23Z</time>
      </trkpt>
      <trkpt lat="44.65665" lon="3.78238">
        <ele>1233.327</ele>
        <time>2016-05-03T11:32:54Z</time>
      </trkpt>
      <trkpt lat="44.65635" lon="3.78291">
        <ele>1235.082</ele>
        <time>2016-05-03T11:33:11Z</time>
      </trkpt>
      <trkpt lat="44.65602" lon="3.78439">
        <ele>1235.187</ele>
        <time>2016-05-03T11:33:44Z</time>
      </trkpt>
      <trkpt lat="44.65598" lon="3.78562">
        <ele>1231.242</ele>
        <time>2016-05-03T11:34:37Z</time>
      </trkpt>
      <trkpt lat="44.65596" lon="3.78628">
        <ele>1227.024</ele>
        <time>2016-05-03T11:34:47Z</time>
      </trkpt>
      <trkpt lat="44.6559" lon="3.78692">
        <ele>1223.725</ele>
        <time>2016-05-03T11:34:55Z</time>
      </trkpt>
      <trkpt lat="44.65561" lon="3.78797">
        <ele>1221.374</ele>
        <time>2016-05-03T11:35:09Z</time>
      </trkpt>
      <trkpt lat="44.65536" lon="3.78949">
        <ele>1217.907</ele>
        <time>2016-05-03T11:35:28Z</time>
      </trkpt>
      <trkpt lat="44.65521" lon="3.79156">
        <ele>1213.532</ele>
        <time>2016-05-03T11:35:59Z</time>
      </trkpt>
      <trkpt lat="44.65514" lon="3.79328">
        <ele>1207.099</ele>
        <time>2016-05-03T11:36:19Z</time>
      </trkpt>
      <trkpt lat="44.65504" lon="3.79379">
        <ele>1205.78</ele>
        <time>2016-05-03T11:36:24Z</time>
      </trkpt>
      <trkpt lat="44.655" lon="3.79413">
        <ele>1205.037</ele>
        <time>2016-05-03T11:36:27Z</time>
      </trkpt>
      <trkpt lat="44.65491" lon="3.79554">
        <ele>1199.865</ele>
        <time>2016-05-03T11:36:44Z</time>
      </trkpt>
      <trkpt lat="44.65636" lon="3.79837">
        <ele>1184.975</ele>
        <time>2016-05-03T11:37:21Z</time>
      </trkpt>
      <trkpt lat="44.65634" lon="3.79841">
        <ele>1184.938</ele>
        <time>2016-05-03T11:37:27Z</time>
      </trkpt>
      <trkpt lat="44.65637" lon="3.79838">
        <ele>1184.995</ele>
        <time>2016-05-03T11:38:49Z</time>
      </trkpt>
      <trkpt lat="44.65451" lon="3.79822">
        <ele>1182.51</ele>
        <time>2016-05-03T11:41:44Z</time>
      </trkpt>
      <trkpt lat="44.65441" lon="3.79824">
        <ele>1182.392</ele>
        <time>2016-05-03T11:41:46Z</time>
      </trkpt>
      <trkpt lat="44.6543" lon="3.7983">
        <ele>1182.016</ele>
        <time>2016-05-03T11:41:48Z</time>
      </trkpt>
      <trkpt lat="44.6542" lon="3.79837">
        <ele>1181.402</ele>
        <time>2016-05-03T11:41:50Z</time>
      </trkpt>
      <trkpt lat="44.65383" lon="3.79874">
        <ele>1176.95</ele>
        <time>2016-05-03T11:42:02Z</time>
      </trkpt>
      <trkpt lat="44.65357" lon="3.79895">
        <ele>1174.082</ele>
        <time>2016-05-03T11:42:07Z</time>
      </trkpt>
      <trkpt lat="44.65313" lon="3.79927">
        <ele>1170.916</ele>
        <time>2016-05-03T11:42:17Z</time>
      </trkpt>
      <trkpt lat="44.6529" lon="3.79993">
        <ele>1163.435</ele>
        <time>2016-05-03T11:42:31Z</time>
      </trkpt>
      <trkpt lat="44.65267" lon="3.80023">
        <ele>1161.446</ele>
        <time>2016-05-03T11:42:36Z</time>
      </trkpt>
      <trkpt lat="44.65239" lon="3.80069">
        <ele>1160.522</ele>
        <time>2016-05-03T11:42:42Z</time>
      </trkpt>
      <trkpt lat="44.65234" lon="3.8009">
        <ele>1159.613</ele>
        <time>2016-05-03T11:42:44Z</time>
      </trkpt>
      <trkpt lat="44.65234" lon="3.80125">
        <ele>1156.543</ele>
        <time>2016-05-03T11:42:47Z</time>
      </trkpt>
      <trkpt lat="44.65227" lon="3.802">
        <ele>1149.18</ele>
        <time>2016-05-03T11:42:54Z</time>
      </trkpt>
      <trkpt lat="44.65208" lon="3.80224">
        <ele>1146.692</ele>
        <time>2016-05-03T11:42:58Z</time>
      </trkpt>
      <trkpt lat="44.65194" lon="3.80236">
        <ele>1145.888</ele>
        <time>2016-05-03T11:43:01Z</time>
      </trkpt>
      <trkpt lat="44.65019" lon="3.80317">
        <ele>1135.833</ele>
        <time>2016-05-03T11:43:25Z</time>
      </trkpt>
      <trkpt lat="44.64916" lon="3.80326">
        <ele>1126.178</ele>
        <time>2016-05-03T11:43:39Z</time>
      </trkpt>
      <trkpt lat="44.64621" lon="3.80325">
        <ele>1126.27</ele>
        <time>2016-05-03T11:48:07Z</time>
      </trkpt>
      <trkpt lat="44.64575" lon="3.80397">
        <ele>1125.803</ele>
        <time>2016-05-03T11:52:57Z</time>
      </trkpt>
      <trkpt lat="44.6458" lon="3.80436">
        <ele>1130.432</ele>
        <time>2016-05-03T11:54:24Z</time>
      </trkpt>
      <trkpt lat="44.64509" lon="3.80548">
        <ele>1135.611</ele>
        <time>2016-05-03T11:55:22Z</time>
      </trkpt>
      <trkpt lat="44.64482" lon="3.80759">
        <ele>1150.883</ele>
        <time>2016-05-03T11:57:20Z</time>
      </trkpt>
      <trkpt lat="44.64459" lon="3.80781">
        <ele>1149.192</ele>
        <time>2016-05-03T11:57:37Z</time>
      </trkpt>
      <trkpt lat="44.64427" lon="3.80869">
        <ele>1154.726</ele>
        <time>2016-05-03T11:58:20Z</time>
      </trkpt>
      <trkpt lat="44.64427" lon="3.80871">
        <ele>1155.006</ele>
        <time>2016-05-03T11:58:42Z</time>
      </trkpt>
      <trkpt lat="44.6439" lon="3.80917">
        <ele>1158.136</ele>
        <time>2016-05-03T11:59:35Z</time>
      </trkpt>
      <trkpt lat="44.64321" lon="3.80965">
        <ele>1156.985</ele>
        <time>2016-05-03T12:00:01Z</time>
      </trkpt>
      <trkpt lat="44.64264" lon="3.80969">
        <ele>1161.887</ele>
        <time>2016-05-03T12:00:14Z</time>
      </trkpt>
      <trkpt lat="44.64042" lon="3.81054">
        <ele>1182.75</ele>
        <time>2016-05-03T12:04:10Z</time>
      </trkpt>
      <trkpt lat="44.63997" lon="3.8107">
        <ele>1189.653</ele>
        <time>2016-05-03T12:04:44Z</time>
      </trkpt>
      <trkpt lat="44.63881" lon="3.81076">
        <ele>1196.738</ele>
        <time>2016-05-03T12:06:56Z</time>
      </trkpt>
      <trkpt lat="44.63834" lon="3.81096">
        <ele>1197.224</ele>
        <time>2016-05-03T12:07:57Z</time>
      </trkpt>
      <trkpt lat="44.63781" lon="3.81197">
        <ele>1202.594</ele>
        <time>2016-05-03T12:10:44Z</time>
      </trkpt>
      <trkpt lat="44.63766" lon="3.81258">
        <ele>1209.85</ele>
        <time>2016-05-03T12:11:56Z</time>
      </trkpt>
      <trkpt lat="44.63692" lon="3.81372">
        <ele>1226.07</ele>
        <time>2016-05-03T12:24:21Z</time>
      </trkpt>
      <trkpt lat="44.63657" lon="3.81486">
        <ele>1233.15</ele>
        <time>2016-05-03T12:26:03Z</time>
      </trkpt>
      <trkpt lat="44.63659" lon="3.81552">
        <ele>1239.15</ele>
        <time>2016-05-03T12:27:00Z</time>
      </trkpt>
      <trkpt lat="44.6367" lon="3.81573">
        <ele>1240.755</ele>
        <time>2016-05-03T12:28:13Z</time>
      </trkpt>
      <trkpt lat="44.63762" lon="3.81551">
        <ele>1238.051</ele>
        <time>2016-05-03T12:28:48Z</time>
      </trkpt>
      <trkpt lat="44.63807" lon="3.81555">
        <ele>1237.17</ele>
        <time>2016-05-03T12:28:52Z</time>
      </trkpt>
      <trkpt lat="44.63933" lon="3.81694">
        <ele>1229.8</ele>
        <time>2016-05-03T12:29:11Z</time>
      </trkpt>
      <trkpt lat="44.64026" lon="3.81808">
        <ele>1219.992</ele>
        <time>2016-05-03T12:29:26Z</time>
      </trkpt>
      <trkpt lat="44.64038" lon="3.81833">
        <ele>1217.885</ele>
        <time>2016-05-03T12:29:30Z</time>
      </trkpt>
      <trkpt lat="44.64052" lon="3.81889">
        <ele>1214.131</ele>
        <time>2016-05-03T12:29:37Z</time>
      </trkpt>
      <trkpt lat="44.63946" lon="3.81878">
        <ele>1204.516</ele>
        <time>2016-05-03T12:29:53Z</time>
      </trkpt>
      <trkpt lat="44.63921" lon="3.81845">
        <ele>1205.355</ele>
        <time>2016-05-03T12:29:59Z</time>
      </trkpt>
      <trkpt lat="44.63815" lon="3.82032">
        <ele>1182.716</ele>
        <time>2016-05-03T12:30:20Z</time>
      </trkpt>
      <trkpt lat="44.63777" lon="3.82114">
        <ele>1174.107</ele>
        <time>2016-05-03T12:30:27Z</time>
      </trkpt>
      <trkpt lat="44.63745" lon="3.82195">
        <ele>1167.748</ele>
        <time>2016-05-03T12:30:37Z</time>
      </trkpt>
      <trkpt lat="44.63735" lon="3.8221">
        <ele>1166.037</ele>
        <time>2016-05-03T12:30:40Z</time>
      </trkpt>
      <trkpt lat="44.63734" lon="3.82222">
        <ele>1164.059</ele>
        <time>2016-05-03T12:30:42Z</time>
      </trkpt>
      <trkpt lat="44.63809" lon="3.8224">
        <ele>1154.048</ele>
        <time>2016-05-03T12:30:55Z</time>
      </trkpt>
      <trkpt lat="44.63821" lon="3.82144">
        <ele>1161.086</ele>
        <time>2016-05-03T12:31:06Z</time>
      </trkpt>
      <trkpt lat="44.63834" lon="3.82127">
        <ele>1160.225</ele>
        <time>2016-05-03T12:31:10Z</time>
      </trkpt>
      <trkpt lat="44.63846" lon="3.82126">
        <ele>1158.045</ele>
        <time>2016-05-03T12:31:13Z</time>
      </trkpt>
      <trkpt lat="44.63962" lon="3.82283">
        <ele>1156.025</ele>
        <time>2016-05-03T12:32:04Z</time>
      </trkpt>
      <trkpt lat="44.63972" lon="3.82338">
        <ele>1151.986</ele>
        <time>2016-05-03T12:32:11Z</time>
      </trkpt>
      <trkpt lat="44.63972" lon="3.82359">
        <ele>1149.718</ele>
        <time>2016-05-03T12:32:13Z</time>
      </trkpt>
      <trkpt lat="44.63984" lon="3.8243">
        <ele>1146.661</ele>
        <time>2016-05-03T12:32:19Z</time>
      </trkpt>
      <trkpt lat="44.64022" lon="3.8258">
        <ele>1145.319</ele>
        <time>2016-05-03T12:32:32Z</time>
      </trkpt>
      <trkpt lat="44.6403" lon="3.82752">
        <ele>1130.82</ele>
        <time>2016-05-03T12:32:48Z</time>
      </trkpt>
      <trkpt lat="44.64033" lon="3.82763">
        <ele>1130.535</ele>
        <time>2016-05-03T12:32:50Z</time>
      </trkpt>
      <trkpt lat="44.6404" lon="3.82799">
        <ele>1128.56</ele>
        <time>2016-05-03T12:32:59Z</time>
      </trkpt>
      <trkpt lat="44.64044" lon="3.82801">
        <ele>1129.469</ele>
        <time>2016-05-03T12:33:20Z</time>
      </trkpt>
      <trkpt lat="44.64064" lon="3.82872">
        <ele>1122.923</ele>
        <time>2016-05-03T12:33:54Z</time>
      </trkpt>
      <trkpt lat="44.64142" lon="3.82899">
        <ele>1119.48</ele>
        <time>2016-05-03T12:34:06Z</time>
      </trkpt>
      <trkpt lat="44.64248" lon="3.82917">
        <ele>1112.686</ele>
        <time>2016-05-03T12:34:17Z</time>
      </trkpt>
      <trkpt lat="44.64308" lon="3.82897">
        <ele>1107.094</ele>
        <time>2016-05-03T12:34:25Z</time>
      </trkpt>
      <trkpt lat="44.64355" lon="3.82841">
        <ele>1100.053</ele>
        <time>2016-05-03T12:34:36Z</time>
      </trkpt>
      <trkpt lat="44.64332" lon="3.8296">
        <ele>1093.913</ele>
        <time>2016-05-03T12:34:54Z</time>
      </trkpt>
      <trkpt lat="44.64311" lon="3.83004">
        <ele>1090.835</ele>
        <time>2016-05-03T12:34:59Z</time>
      </trkpt>
      <trkpt lat="44.6429" lon="3.83015">
        <ele>1091.115</ele>
        <time>2016-05-03T12:35:02Z</time>
      </trkpt>
      <trkpt lat="44.64259" lon="3.83049">
        <ele>1089.128</ele>
        <time>2016-05-03T12:35:07Z</time>
      </trkpt>
      <trkpt lat="44.64266" lon="3.83154">
        <ele>1081.965</ele>
        <time>2016-05-03T12:35:17Z</time>
      </trkpt>
      <trkpt lat="44.64246" lon="3.83227">
        <ele>1083.369</ele>
        <time>2016-05-03T12:35:28Z</time>
      </trkpt>
      <trkpt lat="44.64247" lon="3.83246">
        <ele>1084.248</ele>
        <time>2016-05-03T12:35:35Z</time>
      </trkpt>
      <trkpt lat="44.64248" lon="3.83249">
        <ele>1084.382</ele>
        <time>2016-05-03T12:35:37Z</time>
      </trkpt>
      <trkpt lat="44.64256" lon="3.83265">
        <ele>1085.722</ele>
        <time>2016-05-03T12:35:50Z</time>
      </trkpt>
      <trkpt lat="44.64336" lon="3.83352">
        <ele>1110.792</ele>
        <time>2016-05-03T12:39:52Z</time>
      </trkpt>
      <trkpt lat="44.64374" lon="3.8337">
        <ele>1117.974</ele>
        <time>2016-05-03T12:41:18Z</time>
      </trkpt>
      <trkpt lat="44.64395" lon="3.83387">
        <ele>1122.598</ele>
        <time>2016-05-03T12:42:01Z</time>
      </trkpt>
      <trkpt lat="44.6447" lon="3.83423">
        <ele>1136.208</ele>
        <time>2016-05-03T12:43:54Z</time>
      </trkpt>
      <trkpt lat="44.64589" lon="3.83396">
        <ele>1146.416</ele>
        <time>2016-05-03T12:46:50Z</time>
      </trkpt>
      <trkpt lat="44.64727" lon="3.8334">
        <ele>1158.679</ele>
        <time>2016-05-03T12:49:18Z</time>
      </trkpt>
      <trkpt lat="44.64856" lon="3.8329">
        <ele>1166.101</ele>
        <time>2016-05-03T12:50:45Z</time>
      </trkpt>
      <trkpt lat="44.64905" lon="3.83318">
        <ele>1168.42</ele>
        <time>2016-05-03T12:51:14Z</time>
      </trkpt>
      <trkpt lat="44.6493" lon="3.83356">
        <ele>1167.455</ele>
        <time>2016-05-03T12:51:23Z</time>
      </trkpt>
      <trkpt lat="44.65001" lon="3.83518">
        <ele>1168.795</ele>
        <time>2016-05-03T12:51:52Z</time>
      </trkpt>
      <trkpt lat="44.65135" lon="3.8363">
        <ele>1177.225</ele>
        <time>2016-05-03T12:53:34Z</time>
      </trkpt>
      <trkpt lat="44.65018" lon="3.83686">
        <ele>1189.485</ele>
        <time>2016-05-03T12:55:48Z</time>
      </trkpt>
      <trkpt lat="44.64873" lon="3.83777">
        <ele>1201.632</ele>
        <time>2016-05-03T12:57:35Z</time>
      </trkpt>
      <trkpt lat="44.64834" lon="3.8387">
        <ele>1209.009</ele>
        <time>2016-05-03T12:58:26Z</time>
      </trkpt>
      <trkpt lat="44.64822" lon="3.83918">
        <ele>1211.143</ele>
        <time>2016-05-03T12:58:43Z</time>
      </trkpt>
      <trkpt lat="44.64816" lon="3.83971">
        <ele>1211.939</ele>
        <time>2016-05-03T12:58:59Z</time>
      </trkpt>
      <trkpt lat="44.64806" lon="3.84036">
        <ele>1210.635</ele>
        <time>2016-05-03T12:59:12Z</time>
      </trkpt>
      <trkpt lat="44.64804" lon="3.84062">
        <ele>1209.048</ele>
        <time>2016-05-03T12:59:16Z</time>
      </trkpt>
      <trkpt lat="44.64803" lon="3.84098">
        <ele>1206.686</ele>
        <time>2016-05-03T12:59:21Z</time>
      </trkpt>
      <trkpt lat="44.64798" lon="3.84136">
        <ele>1203.253</ele>
        <time>2016-05-03T12:59:26Z</time>
      </trkpt>
      <trkpt lat="44.64794" lon="3.84151">
        <ele>1202.101</ele>
        <time>2016-05-03T12:59:28Z</time>
      </trkpt>
      <trkpt lat="44.64791" lon="3.84168">
        <ele>1201.055</ele>
        <time>2016-05-03T12:59:30Z</time>
      </trkpt>
      <trkpt lat="44.64789" lon="3.84215">
        <ele>1197.803</ele>
        <time>2016-05-03T12:59:35Z</time>
      </trkpt>
      <trkpt lat="44.64773" lon="3.84393">
        <ele>1188.25</ele>
        <time>2016-05-03T12:59:57Z</time>
      </trkpt>
      <trkpt lat="44.64686" lon="3.84618">
        <ele>1189.83</ele>
        <time>2016-05-03T13:01:57Z</time>
      </trkpt>
      <trkpt lat="44.64676" lon="3.84675">
        <ele>1190.421</ele>
        <time>2016-05-03T13:02:24Z</time>
      </trkpt>
      <trkpt lat="44.64683" lon="3.84679">
        <ele>1189.848</ele>
        <time>2016-05-03T13:19:00Z</time>
      </trkpt>
      <trkpt lat="44.64686" lon="3.8467">
        <ele>1189.701</ele>
        <time>2016-05-03T13:24:23Z</time>
      </trkpt>
      <trkpt lat="44.64687" lon="3.8468">
        <ele>1189.552</ele>
        <time>2016-05-03T13:24:32Z</time>
      </trkpt>
      <trkpt lat="44.6468" lon="3.84714">
        <ele>1189.663</ele>
        <time>2016-05-03T13:24:41Z</time>
      </trkpt>
      <trkpt lat="44.64666" lon="3.84793">
        <ele>1191.279</ele>
        <time>2016-05-03T13:25:02Z</time>
      </trkpt>
      <trkpt lat="44.64659" lon="3.84873">
        <ele>1192.623</ele>
        <time>2016-05-03T13:25:20Z</time>
      </trkpt>
      <trkpt lat="44.64621" lon="3.85169">
        <ele>1197.192</ele>
        <time>2016-05-03T13:26:32Z</time>
      </trkpt>
      <trkpt lat="44.64616" lon="3.85299">
        <ele>1197.117</ele>
        <time>2016-05-03T13:27:03Z</time>
      </trkpt>
      <trkpt lat="44.64613" lon="3.85337">
        <ele>1197.232</ele>
        <time>2016-05-03T13:27:13Z</time>
      </trkpt>
      <trkpt lat="44.64579" lon="3.85445">
        <ele>1197.838</ele>
        <time>2016-05-03T13:28:37Z</time>
      </trkpt>
      <trkpt lat="44.64523" lon="3.85541">
        <ele>1200.031</ele>
        <time>2016-05-03T13:29:09Z</time>
      </trkpt>
      <trkpt lat="44.64457" lon="3.85578">
        <ele>1202.664</ele>
        <time>2016-05-03T13:29:38Z</time>
      </trkpt>
      <trkpt lat="44.64427" lon="3.856">
        <ele>1203.612</ele>
        <time>2016-05-03T13:29:55Z</time>
      </trkpt>
      <trkpt lat="44.64319" lon="3.85666">
        <ele>1208.911</ele>
        <time>2016-05-03T13:30:55Z</time>
      </trkpt>
      <trkpt lat="44.64255" lon="3.85677">
        <ele>1210.955</ele>
        <time>2016-05-03T13:31:28Z</time>
      </trkpt>
      <trkpt lat="44.6423" lon="3.85695">
        <ele>1211.525</ele>
        <time>2016-05-03T13:31:45Z</time>
      </trkpt>
      <trkpt lat="44.64225" lon="3.85706">
        <ele>1211.625</ele>
        <time>2016-05-03T13:31:57Z</time>
      </trkpt>
      <trkpt lat="44.64218" lon="3.85706">
        <ele>1211.775</ele>
        <time>2016-05-03T13:33:14Z</time>
      </trkpt>
      <trkpt lat="44.64248" lon="3.85776">
        <ele>1211.09</ele>
        <time>2016-05-03T13:35:28Z</time>
      </trkpt>
      <trkpt lat="44.64273" lon="3.85854">
        <ele>1211.02</ele>
        <time>2016-05-03T13:35:45Z</time>
      </trkpt>
      <trkpt lat="44.64329" lon="3.85866">
        <ele>1209.051</ele>
        <time>2016-05-03T13:36:06Z</time>
      </trkpt>
      <trkpt lat="44.64412" lon="3.85952">
        <ele>1219.734</ele>
        <time>2016-05-03T13:37:12Z</time>
      </trkpt>
      <trkpt lat="44.64501" lon="3.85991">
        <ele>1223.988</ele>
        <time>2016-05-03T13:37:59Z</time>
      </trkpt>
      <trkpt lat="44.64565" lon="3.86069">
        <ele>1228.188</ele>
        <time>2016-05-03T13:38:35Z</time>
      </trkpt>
      <trkpt lat="44.64772" lon="3.86162">
        <ele>1227.32</ele>
        <time>2016-05-03T13:40:36Z</time>
      </trkpt>
      <trkpt lat="44.6481" lon="3.86177">
        <ele>1226.343</ele>
        <time>2016-05-03T13:40:42Z</time>
      </trkpt>
      <trkpt lat="44.64843" lon="3.86204">
        <ele>1225.372</ele>
        <time>2016-05-03T13:40:47Z</time>
      </trkpt>
      <trkpt lat="44.64891" lon="3.86262">
        <ele>1222.957</ele>
        <time>2016-05-03T13:40:56Z</time>
      </trkpt>
      <trkpt lat="44.64946" lon="3.86376">
        <ele>1222.853</ele>
        <time>2016-05-03T13:41:19Z</time>
      </trkpt>
      <trkpt lat="44.64963" lon="3.8669">
        <ele>1230.495</ele>
        <time>2016-05-03T13:42:42Z</time>
      </trkpt>
      <trkpt lat="44.64949" lon="3.86774">
        <ele>1229.078</ele>
        <time>2016-05-03T13:43:06Z</time>
      </trkpt>
      <trkpt lat="44.64939" lon="3.86804">
        <ele>1228.394</ele>
        <time>2016-05-03T13:43:15Z</time>
      </trkpt>
      <trkpt lat="44.64921" lon="3.86955">
        <ele>1229.906</ele>
        <time>2016-05-03T13:43:54Z</time>
      </trkpt>
      <trkpt lat="44.64922" lon="3.8711">
        <ele>1231.44</ele>
        <time>2016-05-03T13:44:22Z</time>
      </trkpt>
      <trkpt lat="44.64909" lon="3.8727">
        <ele>1226.417</ele>
        <time>2016-05-03T13:44:42Z</time>
      </trkpt>
      <trkpt lat="44.64897" lon="3.8731">
        <ele>1225.465</ele>
        <time>2016-05-03T13:44:46Z</time>
      </trkpt>
      <trkpt lat="44.64915" lon="3.87455">
        <ele>1220.186</ele>
        <time>2016-05-03T13:44:59Z</time>
      </trkpt>
      <trkpt lat="44.64929" lon="3.8756">
        <ele>1215.632</ele>
        <time>2016-05-03T13:45:08Z</time>
      </trkpt>
      <trkpt lat="44.64943" lon="3.87579">
        <ele>1214.035</ele>
        <time>2016-05-03T13:45:12Z</time>
      </trkpt>
      <trkpt lat="44.64981" lon="3.87573">
        <ele>1211.537</ele>
        <time>2016-05-03T13:45:21Z</time>
      </trkpt>
      <trkpt lat="44.65" lon="3.87588">
        <ele>1210.295</ele>
        <time>2016-05-03T13:45:30Z</time>
      </trkpt>
      <trkpt lat="44.6503" lon="3.87639">
        <ele>1208.616</ele>
        <time>2016-05-03T13:45:42Z</time>
      </trkpt>
      <trkpt lat="44.65053" lon="3.87659">
        <ele>1206.735</ele>
        <time>2016-05-03T13:45:50Z</time>
      </trkpt>
      <trkpt lat="44.65116" lon="3.87762">
        <ele>1192.574</ele>
        <time>2016-05-03T13:46:52Z</time>
      </trkpt>
      <trkpt lat="44.65138" lon="3.87768">
        <ele>1190.177</ele>
        <time>2016-05-03T13:47:01Z</time>
      </trkpt>
      <trkpt lat="44.65158" lon="3.87768">
        <ele>1188.183</ele>
        <time>2016-05-03T13:47:05Z</time>
      </trkpt>
      <trkpt lat="44.65174" lon="3.87761">
        <ele>1187.032</ele>
        <time>2016-05-03T13:47:08Z</time>
      </trkpt>
      <trkpt lat="44.65219" lon="3.87719">
        <ele>1181.475</ele>
        <time>2016-05-03T13:47:21Z</time>
      </trkpt>
      <trkpt lat="44.65186" lon="3.87864">
        <ele>1165.135</ele>
        <time>2016-05-03T13:48:00Z</time>
      </trkpt>
      <trkpt lat="44.65114" lon="3.87983">
        <ele>1150.134</ele>
        <time>2016-05-03T13:48:40Z</time>
      </trkpt>
      <trkpt lat="44.65104" lon="3.88004">
        <ele>1149.628</ele>
        <time>2016-05-03T13:48:57Z</time>
      </trkpt>
      <trkpt lat="44.65097" lon="3.88039">
        <ele>1145.746</ele>
        <time>2016-05-03T13:49:17Z</time>
      </trkpt>
      <trkpt lat="44.65117" lon="3.88344">
        <ele>1108.404</ele>
        <time>2016-05-03T13:50:51Z</time>
      </trkpt>
      <trkpt lat="44.65103" lon="3.88451">
        <ele>1101.232</ele>
        <time>2016-05-03T13:51:07Z</time>
      </trkpt>
      <trkpt lat="44.65087" lon="3.88542">
        <ele>1093.481</ele>
        <time>2016-05-03T13:51:19Z</time>
      </trkpt>
      <trkpt lat="44.65049" lon="3.88659">
        <ele>1082.319</ele>
        <time>2016-05-03T13:53:35Z</time>
      </trkpt>
      <trkpt lat="44.65022" lon="3.88691">
        <ele>1080.12</ele>
        <time>2016-05-03T13:53:49Z</time>
      </trkpt>
      <trkpt lat="44.65172" lon="3.88824">
        <ele>1051.844</ele>
        <time>2016-05-03T13:55:22Z</time>
      </trkpt>
      <trkpt lat="44.65175" lon="3.88906">
        <ele>1047.731</ele>
        <time>2016-05-03T13:59:11Z</time>
      </trkpt>
      <trkpt lat="44.65166" lon="3.88955">
        <ele>1041.185</ele>
        <time>2016-05-03T13:59:26Z</time>
      </trkpt>
      <trkpt lat="44.6505" lon="3.88975">
        <ele>1026.577</ele>
        <time>2016-05-03T14:00:13Z</time>
      </trkpt>
      <trkpt lat="44.65038" lon="3.88989">
        <ele>1023.726</ele>
        <time>2016-05-03T14:00:16Z</time>
      </trkpt>
      <trkpt lat="44.64929" lon="3.89018">
        <ele>1010.198</ele>
        <time>2016-05-03T14:00:48Z</time>
      </trkpt>
      <trkpt lat="44.64924" lon="3.89029">
        <ele>1007.992</ele>
        <time>2016-05-03T14:00:53Z</time>
      </trkpt>
      <trkpt lat="44.64944" lon="3.89066">
        <ele>1005.542</ele>
        <time>2016-05-03T14:01:03Z</time>
      </trkpt>
      <trkpt lat="44.65001" lon="3.89093">
        <ele>1007.106</ele>
        <time>2016-05-03T14:01:25Z</time>
      </trkpt>
      <trkpt lat="44.65076" lon="3.89072">
        <ele>1010.695</ele>
        <time>2016-05-03T14:01:57Z</time>
      </trkpt>
      <trkpt lat="44.65086" lon="3.89066">
        <ele>1011.392</ele>
        <time>2016-05-04T06:19:45Z</time>
      </trkpt>
      <trkpt lat="44.65148" lon="3.89069">
        <ele>1006.566</ele>
        <time>2016-05-04T06:20:26Z</time>
      </trkpt>
      <trkpt lat="44.65161" lon="3.89101">
        <ele>997.472</ele>
        <time>2016-05-04T06:20:40Z</time>
      </trkpt>
      <trkpt lat="44.65185" lon="3.89106">
        <ele>994.917</ele>
        <time>2016-05-04T06:20:45Z</time>
      </trkpt>
      <trkpt lat="44.65244" lon="3.89156">
        <ele>980.774</ele>
        <time>2016-05-04T06:21:04Z</time>
      </trkpt>
      <trkpt lat="44.65312" lon="3.89163">
        <ele>975.35</ele>
        <time>2016-05-04T06:21:25Z</time>
      </trkpt>
      <trkpt lat="44.65438" lon="3.89077">
        <ele>976.108</ele>
        <time>2016-05-04T06:21:49Z</time>
      </trkpt>
      <trkpt lat="44.65533" lon="3.88922">
        <ele>976.171</ele>
        <time>2016-05-04T06:22:18Z</time>
      </trkpt>
      <trkpt lat="44.65545" lon="3.8887">
        <ele>976.901</ele>
        <time>2016-05-04T06:22:25Z</time>
      </trkpt>
      <trkpt lat="44.6555" lon="3.88853">
        <ele>976.849</ele>
        <time>2016-05-04T06:22:27Z</time>
      </trkpt>
      <trkpt lat="44.65566" lon="3.88836">
        <ele>974.995</ele>
        <time>2016-05-04T06:22:30Z</time>
      </trkpt>
      <trkpt lat="44.65605" lon="3.88809">
        <ele>969.912</ele>
        <time>2016-05-04T06:22:36Z</time>
      </trkpt>
      <trkpt lat="44.6563" lon="3.88772">
        <ele>966.874</ele>
        <time>2016-05-04T06:22:41Z</time>
      </trkpt>
      <trkpt lat="44.65669" lon="3.88672">
        <ele>962.761</ele>
        <time>2016-05-04T06:22:56Z</time>
      </trkpt>
      <trkpt lat="44.65681" lon="3.88652">
        <ele>966.161</ele>
        <time>2016-05-04T06:23:02Z</time>
      </trkpt>
      <trkpt lat="44.65647" lon="3.88562">
        <ele>962.06</ele>
        <time>2016-05-04T06:24:58Z</time>
      </trkpt>
      <trkpt lat="44.65648" lon="3.88534">
        <ele>961.73</ele>
        <time>2016-05-04T06:25:05Z</time>
      </trkpt>
      <trkpt lat="44.65681" lon="3.88486">
        <ele>968.707</ele>
        <time>2016-05-04T06:25:23Z</time>
      </trkpt>
      <trkpt lat="44.65768" lon="3.88418">
        <ele>974.437</ele>
        <time>2016-05-04T06:26:07Z</time>
      </trkpt>
      <trkpt lat="44.65801" lon="3.8841">
        <ele>977.133</ele>
        <time>2016-05-04T06:26:25Z</time>
      </trkpt>
      <trkpt lat="44.65877" lon="3.884">
        <ele>981.146</ele>
        <time>2016-05-04T06:27:06Z</time>
      </trkpt>
      <trkpt lat="44.65928" lon="3.88414">
        <ele>984.275</ele>
        <time>2016-05-04T06:27:35Z</time>
      </trkpt>
      <trkpt lat="44.65939" lon="3.88421">
        <ele>985.612</ele>
        <time>2016-05-04T06:27:42Z</time>
      </trkpt>
      <trkpt lat="44.65942" lon="3.88437">
        <ele>988.739</ele>
        <time>2016-05-04T06:27:55Z</time>
      </trkpt>
      <trkpt lat="44.65915" lon="3.88436">
        <ele>989.003</ele>
        <time>2016-05-04T06:28:14Z</time>
      </trkpt>
      <trkpt lat="44.6594" lon="3.88494">
        <ele>998.284</ele>
        <time>2016-05-04T06:28:58Z</time>
      </trkpt>
      <trkpt lat="44.65948" lon="3.88525">
        <ele>1001.3</ele>
        <time>2016-05-04T06:29:25Z</time>
      </trkpt>
      <trkpt lat="44.65923" lon="3.88536">
        <ele>1004.06</ele>
        <time>2016-05-04T06:29:54Z</time>
      </trkpt>
      <trkpt lat="44.65873" lon="3.88544">
        <ele>1006.875</ele>
        <time>2016-05-04T06:30:48Z</time>
      </trkpt>
      <trkpt lat="44.65832" lon="3.88577">
        <ele>1009.885</ele>
        <time>2016-05-04T06:31:40Z</time>
      </trkpt>
      <trkpt lat="44.65831" lon="3.88615">
        <ele>1010.252</ele>
        <time>2016-05-04T06:32:06Z</time>
      </trkpt>
      <trkpt lat="44.65835" lon="3.88629">
        <ele>1009.912</ele>
        <time>2016-05-04T06:32:18Z</time>
      </trkpt>
      <trkpt lat="44.6584" lon="3.8864">
        <ele>1009.636</ele>
        <time>2016-05-04T06:32:22Z</time>
      </trkpt>
      <trkpt lat="44.65857" lon="3.88672">
        <ele>1009.349</ele>
        <time>2016-05-04T06:32:33Z</time>
      </trkpt>
      <trkpt lat="44.65859" lon="3.88682">
        <ele>1009.412</ele>
        <time>2016-05-04T06:32:36Z</time>
      </trkpt>
      <trkpt lat="44.65887" lon="3.88901">
        <ele>1020.023</ele>
        <time>2016-05-04T06:35:36Z</time>
      </trkpt>
      <trkpt lat="44.65872" lon="3.89181">
        <ele>1033.91</ele>
        <time>2016-05-04T06:37:14Z</time>
      </trkpt>
      <trkpt lat="44.6596" lon="3.89407">
        <ele>1044.376</ele>
        <time>2016-05-04T06:38:47Z</time>
      </trkpt>
      <trkpt lat="44.65951" lon="3.89459">
        <ele>1047.725</ele>
        <time>2016-05-04T06:39:09Z</time>
      </trkpt>
      <trkpt lat="44.65952" lon="3.89486">
        <ele>1049.313</ele>
        <time>2016-05-04T06:39:16Z</time>
      </trkpt>
      <trkpt lat="44.65956" lon="3.89536">
        <ele>1051.748</ele>
        <time>2016-05-04T06:39:30Z</time>
      </trkpt>
      <trkpt lat="44.65992" lon="3.89583">
        <ele>1055.506</ele>
        <time>2016-05-04T06:40:24Z</time>
      </trkpt>
      <trkpt lat="44.66023" lon="3.89605">
        <ele>1058.02</ele>
        <time>2016-05-04T06:41:03Z</time>
      </trkpt>
      <trkpt lat="44.66044" lon="3.89641">
        <ele>1062.24</ele>
        <time>2016-05-04T06:41:35Z</time>
      </trkpt>
      <trkpt lat="44.66112" lon="3.89847">
        <ele>1080.533</ele>
        <time>2016-05-04T06:46:09Z</time>
      </trkpt>
      <trkpt lat="44.66124" lon="3.89979">
        <ele>1095.064</ele>
        <time>2016-05-04T06:47:41Z</time>
      </trkpt>
      <trkpt lat="44.66096" lon="3.90089">
        <ele>1101.17</ele>
        <time>2016-05-04T06:50:48Z</time>
      </trkpt>
      <trkpt lat="44.66084" lon="3.90141">
        <ele>1101.212</ele>
        <time>2016-05-04T06:51:08Z</time>
      </trkpt>
      <trkpt lat="44.66018" lon="3.9034">
        <ele>1093.748</ele>
        <time>2016-05-04T06:51:42Z</time>
      </trkpt>
      <trkpt lat="44.65924" lon="3.90396">
        <ele>1088.625</ele>
        <time>2016-05-04T06:52:10Z</time>
      </trkpt>
      <trkpt lat="44.65786" lon="3.90369">
        <ele>1082.661</ele>
        <time>2016-05-04T06:52:30Z</time>
      </trkpt>
      <trkpt lat="44.6571" lon="3.90282">
        <ele>1081.367</ele>
        <time>2016-05-04T06:52:45Z</time>
      </trkpt>
      <trkpt lat="44.65643" lon="3.90247">
        <ele>1080.794</ele>
        <time>2016-05-04T06:52:57Z</time>
      </trkpt>
      <trkpt lat="44.65606" lon="3.9023">
        <ele>1079.247</ele>
        <time>2016-05-04T06:53:04Z</time>
      </trkpt>
      <trkpt lat="44.65585" lon="3.90224">
        <ele>1078.182</ele>
        <time>2016-05-04T06:53:07Z</time>
      </trkpt>
      <trkpt lat="44.65514" lon="3.90216">
        <ele>1071.662</ele>
        <time>2016-05-04T06:53:16Z</time>
      </trkpt>
      <trkpt lat="44.65404" lon="3.902">
        <ele>1057.235</ele>
        <time>2016-05-04T06:53:31Z</time>
      </trkpt>
      <trkpt lat="44.65375" lon="3.9018">
        <ele>1052.388</ele>
        <time>2016-05-04T06:53:37Z</time>
      </trkpt>
      <trkpt lat="44.65333" lon="3.90195">
        <ele>1046.338</ele>
        <time>2016-05-04T06:53:44Z</time>
      </trkpt>
      <trkpt lat="44.65237" lon="3.90156">
        <ele>1036.398</ele>
        <time>2016-05-04T06:54:04Z</time>
      </trkpt>
      <trkpt lat="44.65165" lon="3.90179">
        <ele>1026.443</ele>
        <time>2016-05-04T06:54:18Z</time>
      </trkpt>
      <trkpt lat="44.6511" lon="3.90208">
        <ele>1015.924</ele>
        <time>2016-05-04T06:54:26Z</time>
      </trkpt>
      <trkpt lat="44.65094" lon="3.90218">
        <ele>1012.921</ele>
        <time>2016-05-04T06:54:29Z</time>
      </trkpt>
      <trkpt lat="44.65071" lon="3.90228">
        <ele>1008.445</ele>
        <time>2016-05-04T06:54:33Z</time>
      </trkpt>
      <trkpt lat="44.65052" lon="3.90244">
        <ele>1005.327</ele>
        <time>2016-05-04T06:54:37Z</time>
      </trkpt>
      <trkpt lat="44.65024" lon="3.90308">
        <ele>997.449</ele>
        <time>2016-05-04T06:54:46Z</time>
      </trkpt>
      <trkpt lat="44.64986" lon="3.90351">
        <ele>987.821</ele>
        <time>2016-05-04T06:54:56Z</time>
      </trkpt>
      <trkpt lat="44.6498" lon="3.90356">
        <ele>986.542</ele>
        <time>2016-05-04T06:54:58Z</time>
      </trkpt>
      <trkpt lat="44.64929" lon="3.90319">
        <ele>980.268</ele>
        <time>2016-05-04T06:55:20Z</time>
      </trkpt>
      <trkpt lat="44.64886" lon="3.90365">
        <ele>978.58</ele>
        <time>2016-05-04T06:55:35Z</time>
      </trkpt>
      <trkpt lat="44.64856" lon="3.90374">
        <ele>978.95</ele>
        <time>2016-05-04T06:55:43Z</time>
      </trkpt>
      <trkpt lat="44.64826" lon="3.90349">
        <ele>978.259</ele>
        <time>2016-05-04T07:00:07Z</time>
      </trkpt>
      <trkpt lat="44.64792" lon="3.90294">
        <ele>976.76</ele>
        <time>2016-05-04T07:01:05Z</time>
      </trkpt>
      <trkpt lat="44.64776" lon="3.90256">
        <ele>976.95</ele>
        <time>2016-05-04T07:01:12Z</time>
      </trkpt>
      <trkpt lat="44.64779" lon="3.90232">
        <ele>976.9</ele>
        <time>2016-05-04T07:01:15Z</time>
      </trkpt>
      <trkpt lat="44.64819" lon="3.90189">
        <ele>976.019</ele>
        <time>2016-05-04T07:01:59Z</time>
      </trkpt>
      <trkpt lat="44.64736" lon="3.90045">
        <ele>977.96</ele>
        <time>2016-05-04T07:02:43Z</time>
      </trkpt>
      <trkpt lat="44.64695" lon="3.90033">
        <ele>979.086</ele>
        <time>2016-05-04T07:03:03Z</time>
      </trkpt>
      <trkpt lat="44.64671" lon="3.89986">
        <ele>979.607</ele>
        <time>2016-05-04T07:03:24Z</time>
      </trkpt>
      <trkpt lat="44.64635" lon="3.89965">
        <ele>980.553</ele>
        <time>2016-05-04T07:03:46Z</time>
      </trkpt>
      <trkpt lat="44.64569" lon="3.89998">
        <ele>984.551</ele>
        <time>2016-05-04T07:04:24Z</time>
      </trkpt>
      <trkpt lat="44.64549" lon="3.89995">
        <ele>985.116</ele>
        <time>2016-05-04T07:04:35Z</time>
      </trkpt>
      <trkpt lat="44.64543" lon="3.89992">
        <ele>985.152</ele>
        <time>2016-05-04T07:04:39Z</time>
      </trkpt>
      <trkpt lat="44.64375" lon="3.89886">
        <ele>978.756</ele>
        <time>2016-05-04T07:05:18Z</time>
      </trkpt>
      <trkpt lat="44.64312" lon="3.89741">
        <ele>978.945</ele>
        <time>2016-05-04T07:06:00Z</time>
      </trkpt>
      <trkpt lat="44.6425" lon="3.89662">
        <ele>978</ele>
        <time>2016-05-04T07:06:14Z</time>
      </trkpt>
      <trkpt lat="44.64237" lon="3.89621">
        <ele>977.999</ele>
        <time>2016-05-04T07:06:20Z</time>
      </trkpt>
      <trkpt lat="44.64235" lon="3.89619">
        <ele>977.974</ele>
        <time>2016-05-04T07:10:33Z</time>
      </trkpt>
      <trkpt lat="44.64169" lon="3.89679">
        <ele>978.601</ele>
        <time>2016-05-04T07:11:35Z</time>
      </trkpt>
      <trkpt lat="44.64067" lon="3.8973">
        <ele>988.46</ele>
        <time>2016-05-04T07:13:23Z</time>
      </trkpt>
      <trkpt lat="44.63997" lon="3.89779">
        <ele>999.99</ele>
        <time>2016-05-04T07:15:01Z</time>
      </trkpt>
      <trkpt lat="44.63824" lon="3.89866">
        <ele>1011.73</ele>
        <time>2016-05-04T07:17:08Z</time>
      </trkpt>
      <trkpt lat="44.63795" lon="3.8975">
        <ele>1009.993</ele>
        <time>2016-05-04T07:18:07Z</time>
      </trkpt>
      <trkpt lat="44.6374" lon="3.89752">
        <ele>1015.662</ele>
        <time>2016-05-04T07:18:30Z</time>
      </trkpt>
      <trkpt lat="44.63729" lon="3.89741">
        <ele>1017.045</ele>
        <time>2016-05-04T07:18:35Z</time>
      </trkpt>
      <trkpt lat="44.63716" lon="3.89682">
        <ele>1009.531</ele>
        <time>2016-05-04T07:18:45Z</time>
      </trkpt>
      <trkpt lat="44.63698" lon="3.89671">
        <ele>1010.235</ele>
        <time>2016-05-04T07:18:50Z</time>
      </trkpt>
      <trkpt lat="44.6365" lon="3.89656">
        <ele>1011.955</ele>
        <time>2016-05-04T07:19:01Z</time>
      </trkpt>
      <trkpt lat="44.6362" lon="3.89636">
        <ele>1004.557</ele>
        <time>2016-05-04T07:19:07Z</time>
      </trkpt>
      <trkpt lat="44.63529" lon="3.89594">
        <ele>996.145</ele>
        <time>2016-05-04T07:19:24Z</time>
      </trkpt>
      <trkpt lat="44.63506" lon="3.89583">
        <ele>994.068</ele>
        <time>2016-05-04T07:19:29Z</time>
      </trkpt>
      <trkpt lat="44.63451" lon="3.89542">
        <ele>984.199</ele>
        <time>2016-05-04T07:20:26Z</time>
      </trkpt>
      <trkpt lat="44.63453" lon="3.89527">
        <ele>981.788</ele>
        <time>2016-05-04T07:20:33Z</time>
      </trkpt>
      <trkpt lat="44.6347" lon="3.89525">
        <ele>981.123</ele>
        <time>2016-05-04T07:20:39Z</time>
      </trkpt>
      <trkpt lat="44.63475" lon="3.89492">
        <ele>977.948</ele>
        <time>2016-05-04T07:20:49Z</time>
      </trkpt>
      <trkpt lat="44.63316" lon="3.89443">
        <ele>978.14</ele>
        <time>2016-05-04T07:22:35Z</time>
      </trkpt>
      <trkpt lat="44.63156" lon="3.89487">
        <ele>977.994</ele>
        <time>2016-05-04T07:23:44Z</time>
      </trkpt>
      <trkpt lat="44.63037" lon="3.89497">
        <ele>977.356</ele>
        <time>2016-05-04T07:33:12Z</time>
      </trkpt>
      <trkpt lat="44.62998" lon="3.89557">
        <ele>979.68</ele>
        <time>2016-05-04T07:33:34Z</time>
      </trkpt>
      <trkpt lat="44.62982" lon="3.89612">
        <ele>980.07</ele>
        <time>2016-05-04T07:33:50Z</time>
      </trkpt>
      <trkpt lat="44.6297" lon="3.89643">
        <ele>980.556</ele>
        <time>2016-05-04T07:34:04Z</time>
      </trkpt>
      <trkpt lat="44.62942" lon="3.89706">
        <ele>982.745</ele>
        <time>2016-05-04T07:34:37Z</time>
      </trkpt>
      <trkpt lat="44.62907" lon="3.89742">
        <ele>990.904</ele>
        <time>2016-05-04T07:35:09Z</time>
      </trkpt>
      <trkpt lat="44.62855" lon="3.89838">
        <ele>1000.782</ele>
        <time>2016-05-04T07:36:07Z</time>
      </trkpt>
      <trkpt lat="44.62801" lon="3.89893">
        <ele>1001.87</ele>
        <time>2016-05-04T07:36:39Z</time>
      </trkpt>
      <trkpt lat="44.6278" lon="3.89895">
        <ele>1001.992</ele>
        <time>2016-05-04T07:36:47Z</time>
      </trkpt>
      <trkpt lat="44.62741" lon="3.89919">
        <ele>1001.997</ele>
        <time>2016-05-04T07:37:01Z</time>
      </trkpt>
      <trkpt lat="44.62717" lon="3.8994">
        <ele>1002.273</ele>
        <time>2016-05-04T07:37:09Z</time>
      </trkpt>
      <trkpt lat="44.62629" lon="3.90061">
        <ele>1000.563</ele>
        <time>2016-05-04T07:37:32Z</time>
      </trkpt>
      <trkpt lat="44.62598" lon="3.90128">
        <ele>999.666</ele>
        <time>2016-05-04T07:37:40Z</time>
      </trkpt>
      <trkpt lat="44.62595" lon="3.90152">
        <ele>999.681</ele>
        <time>2016-05-04T07:37:42Z</time>
      </trkpt>
      <trkpt lat="44.62575" lon="3.90243">
        <ele>997.95</ele>
        <time>2016-05-04T07:37:50Z</time>
      </trkpt>
      <trkpt lat="44.6256" lon="3.90482">
        <ele>995.356</ele>
        <time>2016-05-04T07:38:26Z</time>
      </trkpt>
      <trkpt lat="44.6256" lon="3.90505">
        <ele>995.666</ele>
        <time>2016-05-04T07:38:33Z</time>
      </trkpt>
      <trkpt lat="44.6228" lon="3.90706">
        <ele>1028.12</ele>
        <time>2016-05-04T07:44:28Z</time>
      </trkpt>
      <trkpt lat="44.62148" lon="3.90863">
        <ele>1049.581</ele>
        <time>2016-05-04T07:46:16Z</time>
      </trkpt>
      <trkpt lat="44.6209" lon="3.91047">
        <ele>1061.63</ele>
        <time>2016-05-04T07:47:51Z</time>
      </trkpt>
      <trkpt lat="44.62065" lon="3.91134">
        <ele>1067.414</ele>
        <time>2016-05-04T07:48:34Z</time>
      </trkpt>
      <trkpt lat="44.62046" lon="3.91161">
        <ele>1073.712</ele>
        <time>2016-05-04T07:48:51Z</time>
      </trkpt>
      <trkpt lat="44.62056" lon="3.91336">
        <ele>1087.218</ele>
        <time>2016-05-04T07:52:38Z</time>
      </trkpt>
      <trkpt lat="44.62051" lon="3.91369">
        <ele>1087.416</ele>
        <time>2016-05-04T07:53:31Z</time>
      </trkpt>
      <trkpt lat="44.6205" lon="3.91441">
        <ele>1082.557</ele>
        <time>2016-05-04T07:53:45Z</time>
      </trkpt>
      <trkpt lat="44.62034" lon="3.9146">
        <ele>1080.268</ele>
        <time>2016-05-04T07:53:50Z</time>
      </trkpt>
      <trkpt lat="44.62035" lon="3.91492">
        <ele>1077.11</ele>
        <time>2016-05-04T07:53:55Z</time>
      </trkpt>
      <trkpt lat="44.6203" lon="3.91575">
        <ele>1068.82</ele>
        <time>2016-05-04T07:54:07Z</time>
      </trkpt>
      <trkpt lat="44.61988" lon="3.91647">
        <ele>1058.2</ele>
        <time>2016-05-04T07:54:19Z</time>
      </trkpt>
      <trkpt lat="44.61979" lon="3.91728">
        <ele>1052.397</ele>
        <time>2016-05-04T07:54:34Z</time>
      </trkpt>
      <trkpt lat="44.61962" lon="3.91738">
        <ele>1047.124</ele>
        <time>2016-05-04T07:54:44Z</time>
      </trkpt>
      <trkpt lat="44.61935" lon="3.91719">
        <ele>1042.616</ele>
        <time>2016-05-04T07:54:55Z</time>
      </trkpt>
      <trkpt lat="44.61915" lon="3.91668">
        <ele>1043.167</ele>
        <time>2016-05-04T07:55:05Z</time>
      </trkpt>
      <trkpt lat="44.61902" lon="3.91644">
        <ele>1041.783</ele>
        <time>2016-05-04T07:55:09Z</time>
      </trkpt>
      <trkpt lat="44.61871" lon="3.91563">
        <ele>1043.494</ele>
        <time>2016-05-04T07:55:18Z</time>
      </trkpt>
      <trkpt lat="44.61851" lon="3.91536">
        <ele>1041.186</ele>
        <time>2016-05-04T07:55:21Z</time>
      </trkpt>
      <trkpt lat="44.61789" lon="3.9148">
        <ele>1033.909</ele>
        <time>2016-05-04T07:55:29Z</time>
      </trkpt>
      <trkpt lat="44.61742" lon="3.91399">
        <ele>1033.807</ele>
        <time>2016-05-04T07:55:38Z</time>
      </trkpt>
      <trkpt lat="44.6173" lon="3.91385">
        <ele>1032.559</ele>
        <time>2016-05-04T07:55:42Z</time>
      </trkpt>
      <trkpt lat="44.61715" lon="3.91378">
        <ele>1027.759</ele>
        <time>2016-05-04T07:55:47Z</time>
      </trkpt>
      <trkpt lat="44.61705" lon="3.91317">
        <ele>1026.255</ele>
        <time>2016-05-04T07:55:59Z</time>
      </trkpt>
      <trkpt lat="44.6169" lon="3.91366">
        <ele>1022.307</ele>
        <time>2016-05-04T07:56:17Z</time>
      </trkpt>
      <trkpt lat="44.61671" lon="3.91357">
        <ele>1022.408</ele>
        <time>2016-05-04T07:58:26Z</time>
      </trkpt>
      <trkpt lat="44.61628" lon="3.91255">
        <ele>1025.845</ele>
        <time>2016-05-04T07:59:37Z</time>
      </trkpt>
      <trkpt lat="44.61617" lon="3.91235">
        <ele>1027.362</ele>
        <time>2016-05-04T08:00:55Z</time>
      </trkpt>
      <trkpt lat="44.61594" lon="3.91178">
        <ele>1028.21</ele>
        <time>2016-05-04T08:01:13Z</time>
      </trkpt>
      <trkpt lat="44.61577" lon="3.91094">
        <ele>1023.607</ele>
        <time>2016-05-04T08:01:59Z</time>
      </trkpt>
      <trkpt lat="44.61554" lon="3.91068">
        <ele>1027.135</ele>
        <time>2016-05-04T08:02:13Z</time>
      </trkpt>
      <trkpt lat="44.61558" lon="3.91005">
        <ele>1026.795</ele>
        <time>2016-05-04T08:02:32Z</time>
      </trkpt>
      <trkpt lat="44.61535" lon="3.90924">
        <ele>1028.741</ele>
        <time>2016-05-04T08:02:51Z</time>
      </trkpt>
      <trkpt lat="44.61573" lon="3.90796">
        <ele>1025.692</ele>
        <time>2016-05-04T08:03:18Z</time>
      </trkpt>
      <trkpt lat="44.6158" lon="3.90717">
        <ele>1027.525</ele>
        <time>2016-05-04T08:03:34Z</time>
      </trkpt>
      <trkpt lat="44.61546" lon="3.9061">
        <ele>1027.036</ele>
        <time>2016-05-04T08:03:56Z</time>
      </trkpt>
      <trkpt lat="44.61554" lon="3.90723">
        <ele>1035.498</ele>
        <time>2016-05-04T08:05:09Z</time>
      </trkpt>
      <trkpt lat="44.61519" lon="3.90799">
        <ele>1042.145</ele>
        <time>2016-05-04T08:06:44Z</time>
      </trkpt>
      <trkpt lat="44.61498" lon="3.90818">
        <ele>1043.765</ele>
        <time>2016-05-04T08:07:19Z</time>
      </trkpt>
      <trkpt lat="44.61493" lon="3.90819">
        <ele>1044.69</ele>
        <time>2016-05-04T08:07:25Z</time>
      </trkpt>
      <trkpt lat="44.61473" lon="3.90814">
        <ele>1049.143</ele>
        <time>2016-05-04T08:07:47Z</time>
      </trkpt>
      <trkpt lat="44.61478" lon="3.90797">
        <ele>1050.602</ele>
        <time>2016-05-04T08:08:06Z</time>
      </trkpt>
      <trkpt lat="44.61482" lon="3.90791">
        <ele>1050.656</ele>
        <time>2016-05-04T08:08:12Z</time>
      </trkpt>
      <trkpt lat="44.6148" lon="3.90771">
        <ele>1053.497</ele>
        <time>2016-05-04T08:08:37Z</time>
      </trkpt>
      <trkpt lat="44.61439" lon="3.90614">
        <ele>1069.277</ele>
        <time>2016-05-04T08:10:26Z</time>
      </trkpt>
      <trkpt lat="44.61434" lon="3.90614">
        <ele>1070.56</ele>
        <time>2016-05-04T08:10:31Z</time>
      </trkpt>
      <trkpt lat="44.61417" lon="3.90719">
        <ele>1075.271</ele>
        <time>2016-05-04T08:11:28Z</time>
      </trkpt>
      <trkpt lat="44.61387" lon="3.9075">
        <ele>1078.728</ele>
        <time>2016-05-04T08:11:53Z</time>
      </trkpt>
      <trkpt lat="44.61322" lon="3.9081">
        <ele>1083.273</ele>
        <time>2016-05-04T08:13:03Z</time>
      </trkpt>
      <trkpt lat="44.61316" lon="3.90825">
        <ele>1084.087</ele>
        <time>2016-05-04T08:14:04Z</time>
      </trkpt>
      <trkpt lat="44.61293" lon="3.91015">
        <ele>1100.086</ele>
        <time>2016-05-04T08:19:00Z</time>
      </trkpt>
      <trkpt lat="44.61291" lon="3.91021">
        <ele>1100.739</ele>
        <time>2016-05-04T08:19:09Z</time>
      </trkpt>
      <trkpt lat="44.61224" lon="3.91104">
        <ele>1117.71</ele>
        <time>2016-05-04T08:20:29Z</time>
      </trkpt>
      <trkpt lat="44.61194" lon="3.91164">
        <ele>1121.812</ele>
        <time>2016-05-04T08:21:43Z</time>
      </trkpt>
      <trkpt lat="44.61179" lon="3.91209">
        <ele>1124.2</ele>
        <time>2016-05-04T08:21:59Z</time>
      </trkpt>
      <trkpt lat="44.61163" lon="3.91283">
        <ele>1129.086</ele>
        <time>2016-05-04T08:22:30Z</time>
      </trkpt>
      <trkpt lat="44.61157" lon="3.91297">
        <ele>1129.338</ele>
        <time>2016-05-04T08:22:37Z</time>
      </trkpt>
      <trkpt lat="44.61157" lon="3.91409">
        <ele>1138.511</ele>
        <time>2016-05-04T08:23:33Z</time>
      </trkpt>
      <trkpt lat="44.61149" lon="3.91432">
        <ele>1140.207</ele>
        <time>2016-05-04T08:23:47Z</time>
      </trkpt>
      <trkpt lat="44.61056" lon="3.91541">
        <ele>1155.793</ele>
        <time>2016-05-04T08:26:37Z</time>
      </trkpt>
      <trkpt lat="44.61015" lon="3.91595">
        <ele>1162.313</ele>
        <time>2016-05-04T08:28:09Z</time>
      </trkpt>
      <trkpt lat="44.60961" lon="3.91744">
        <ele>1174.35</ele>
        <time>2016-05-04T08:31:08Z</time>
      </trkpt>
      <trkpt lat="44.60928" lon="3.91937">
        <ele>1194.043</ele>
        <time>2016-05-04T08:36:23Z</time>
      </trkpt>
      <trkpt lat="44.60872" lon="3.92057">
        <ele>1204.844</ele>
        <time>2016-05-04T08:39:39Z</time>
      </trkpt>
      <trkpt lat="44.60855" lon="3.92106">
        <ele>1204.974</ele>
        <time>2016-05-04T08:42:33Z</time>
      </trkpt>
      <trkpt lat="44.6087" lon="3.92351">
        <ele>1204.481</ele>
        <time>2016-05-04T08:43:49Z</time>
      </trkpt>
      <trkpt lat="44.60775" lon="3.92737">
        <ele>1204.882</ele>
        <time>2016-05-04T08:45:24Z</time>
      </trkpt>
      <trkpt lat="44.60765" lon="3.92849">
        <ele>1205.268</ele>
        <time>2016-05-04T08:45:49Z</time>
      </trkpt>
      <trkpt lat="44.60763" lon="3.9291">
        <ele>1205.596</ele>
        <time>2016-05-04T08:45:58Z</time>
      </trkpt>
      <trkpt lat="44.60771" lon="3.92997">
        <ele>1205</ele>
        <time>2016-05-04T08:46:10Z</time>
      </trkpt>
      <trkpt lat="44.60826" lon="3.93128">
        <ele>1206.896</ele>
        <time>2016-05-04T08:49:10Z</time>
      </trkpt>
      <trkpt lat="44.60828" lon="3.93157">
        <ele>1208.049</ele>
        <time>2016-05-04T08:49:17Z</time>
      </trkpt>
      <trkpt lat="44.60795" lon="3.93302">
        <ele>1208.956</ele>
        <time>2016-05-04T08:49:42Z</time>
      </trkpt>
      <trkpt lat="44.60749" lon="3.93395">
        <ele>1205.09</ele>
        <time>2016-05-04T08:49:58Z</time>
      </trkpt>
      <trkpt lat="44.60726" lon="3.93487">
        <ele>1200.555</ele>
        <time>2016-05-04T08:50:15Z</time>
      </trkpt>
      <trkpt lat="44.60755" lon="3.93593">
        <ele>1196.778</ele>
        <time>2016-05-04T08:52:04Z</time>
      </trkpt>
      <trkpt lat="44.60789" lon="3.93679">
        <ele>1194.666</ele>
        <time>2016-05-04T08:52:15Z</time>
      </trkpt>
      <trkpt lat="44.60796" lon="3.93708">
        <ele>1194.378</ele>
        <time>2016-05-04T08:52:18Z</time>
      </trkpt>
      <trkpt lat="44.60798" lon="3.93729">
        <ele>1193.453</ele>
        <time>2016-05-04T08:52:20Z</time>
      </trkpt>
      <trkpt lat="44.60798" lon="3.93752">
        <ele>1191.826</ele>
        <time>2016-05-04T08:52:22Z</time>
      </trkpt>
      <trkpt lat="44.60803" lon="3.93878">
        <ele>1185.715</ele>
        <time>2016-05-04T08:52:40Z</time>
      </trkpt>
      <trkpt lat="44.60826" lon="3.93895">
        <ele>1189.573</ele>
        <time>2016-05-04T08:53:18Z</time>
      </trkpt>
      <trkpt lat="44.60858" lon="3.93939">
        <ele>1191.333</ele>
        <time>2016-05-04T08:53:37Z</time>
      </trkpt>
      <trkpt lat="44.60931" lon="3.94018">
        <ele>1197.559</ele>
        <time>2016-05-04T08:54:15Z</time>
      </trkpt>
      <trkpt lat="44.60942" lon="3.94037">
        <ele>1199.473</ele>
        <time>2016-05-04T08:54:23Z</time>
      </trkpt>
      <trkpt lat="44.60932" lon="3.94065">
        <ele>1196.905</ele>
        <time>2016-05-04T08:54:35Z</time>
      </trkpt>
      <trkpt lat="44.60924" lon="3.94068">
        <ele>1194.841</ele>
        <time>2016-05-04T08:54:40Z</time>
      </trkpt>
      <trkpt lat="44.60903" lon="3.94086">
        <ele>1189.503</ele>
        <time>2016-05-04T08:54:55Z</time>
      </trkpt>
      <trkpt lat="44.60889" lon="3.94083">
        <ele>1185.92</ele>
        <time>2016-05-04T08:54:58Z</time>
      </trkpt>
      <trkpt lat="44.60838" lon="3.94041">
        <ele>1175.437</ele>
        <time>2016-05-04T08:55:36Z</time>
      </trkpt>
      <trkpt lat="44.60833" lon="3.94084">
        <ele>1172.383</ele>
        <time>2016-05-04T08:55:45Z</time>
      </trkpt>
      <trkpt lat="44.60803" lon="3.94268">
        <ele>1163.747</ele>
        <time>2016-05-04T08:56:08Z</time>
      </trkpt>
      <trkpt lat="44.60791" lon="3.94308">
        <ele>1159.974</ele>
        <time>2016-05-04T08:56:13Z</time>
      </trkpt>
      <trkpt lat="44.60782" lon="3.94325">
        <ele>1158.005</ele>
        <time>2016-05-04T08:56:15Z</time>
      </trkpt>
      <trkpt lat="44.60765" lon="3.94444">
        <ele>1155.54</ele>
        <time>2016-05-04T08:56:35Z</time>
      </trkpt>
      <trkpt lat="44.60727" lon="3.94574">
        <ele>1156.406</ele>
        <time>2016-05-04T08:58:51Z</time>
      </trkpt>
      <trkpt lat="44.60711" lon="3.94606">
        <ele>1156.764</ele>
        <time>2016-05-04T08:58:57Z</time>
      </trkpt>
      <trkpt lat="44.60687" lon="3.94631">
        <ele>1156.555</ele>
        <time>2016-05-04T08:59:02Z</time>
      </trkpt>
      <trkpt lat="44.60655" lon="3.94623">
        <ele>1150.065</ele>
        <time>2016-05-04T08:59:10Z</time>
      </trkpt>
      <trkpt lat="44.60585" lon="3.94663">
        <ele>1147.581</ele>
        <time>2016-05-04T08:59:23Z</time>
      </trkpt>
      <trkpt lat="44.60553" lon="3.94668">
        <ele>1143.911</ele>
        <time>2016-05-04T08:59:27Z</time>
      </trkpt>
      <trkpt lat="44.60458" lon="3.94659">
        <ele>1137.942</ele>
        <time>2016-05-04T08:59:40Z</time>
      </trkpt>
      <trkpt lat="44.60453" lon="3.94645">
        <ele>1138.35</ele>
        <time>2016-05-04T08:59:42Z</time>
      </trkpt>
      <trkpt lat="44.60464" lon="3.94614">
        <ele>1137.06</ele>
        <time>2016-05-04T08:59:47Z</time>
      </trkpt>
      <trkpt lat="44.60514" lon="3.94567">
        <ele>1134.802</ele>
        <time>2016-05-04T08:59:57Z</time>
      </trkpt>
      <trkpt lat="44.60523" lon="3.94554">
        <ele>1133.795</ele>
        <time>2016-05-04T08:59:59Z</time>
      </trkpt>
      <trkpt lat="44.60558" lon="3.94478">
        <ele>1132.971</ele>
        <time>2016-05-04T09:00:10Z</time>
      </trkpt>
      <trkpt lat="44.60561" lon="3.94461">
        <ele>1132.467</ele>
        <time>2016-05-04T09:00:12Z</time>
      </trkpt>
      <trkpt lat="44.60568" lon="3.94332">
        <ele>1129.115</ele>
        <time>2016-05-04T09:00:27Z</time>
      </trkpt>
      <trkpt lat="44.60568" lon="3.94309">
        <ele>1128.934</ele>
        <time>2016-05-04T09:00:30Z</time>
      </trkpt>
      <trkpt lat="44.60551" lon="3.94219">
        <ele>1125.264</ele>
        <time>2016-05-04T09:00:41Z</time>
      </trkpt>
      <trkpt lat="44.60529" lon="3.94014">
        <ele>1116.313</ele>
        <time>2016-05-04T09:01:05Z</time>
      </trkpt>
      <trkpt lat="44.60491" lon="3.93809">
        <ele>1107.125</ele>
        <time>2016-05-04T09:01:26Z</time>
      </trkpt>
      <trkpt lat="44.60461" lon="3.9374">
        <ele>1103.895</ele>
        <time>2016-05-04T09:01:35Z</time>
      </trkpt>
      <trkpt lat="44.60397" lon="3.93677">
        <ele>1099.103</ele>
        <time>2016-05-04T09:01:45Z</time>
      </trkpt>
      <trkpt lat="44.60282" lon="3.93625">
        <ele>1088.513</ele>
        <time>2016-05-04T09:02:41Z</time>
      </trkpt>
      <trkpt lat="44.60088" lon="3.93602">
        <ele>1075.053</ele>
        <time>2016-05-04T09:05:31Z</time>
      </trkpt>
      <trkpt lat="44.60008" lon="3.93484">
        <ele>1079.955</ele>
        <time>2016-05-04T09:06:25Z</time>
      </trkpt>
      <trkpt lat="44.6" lon="3.93447">
        <ele>1083.123</ele>
        <time>2016-05-04T09:16:54Z</time>
      </trkpt>
      <trkpt lat="44.59983" lon="3.93413">
        <ele>1084.511</ele>
        <time>2016-05-04T09:17:09Z</time>
      </trkpt>
      <trkpt lat="44.59962" lon="3.93355">
        <ele>1083.016</ele>
        <time>2016-05-04T09:17:25Z</time>
      </trkpt>
      <trkpt lat="44.59955" lon="3.9332">
        <ele>1081.961</ele>
        <time>2016-05-04T09:17:31Z</time>
      </trkpt>
      <trkpt lat="44.59966" lon="3.93226">
        <ele>1084.53</ele>
        <time>2016-05-04T09:18:26Z</time>
      </trkpt>
      <trkpt lat="44.59952" lon="3.93123">
        <ele>1086.334</ele>
        <time>2016-05-04T09:18:57Z</time>
      </trkpt>
      <trkpt lat="44.59938" lon="3.92987">
        <ele>1085.644</ele>
        <time>2016-05-04T09:19:22Z</time>
      </trkpt>
      <trkpt lat="44.59858" lon="3.92929">
        <ele>1082.577</ele>
        <time>2016-05-04T09:19:45Z</time>
      </trkpt>
      <trkpt lat="44.59822" lon="3.92877">
        <ele>1082.142</ele>
        <time>2016-05-04T09:19:57Z</time>
      </trkpt>
      <trkpt lat="44.59818" lon="3.92814">
        <ele>1082.943</ele>
        <time>2016-05-04T09:20:07Z</time>
      </trkpt>
      <trkpt lat="44.59822" lon="3.92746">
        <ele>1081.838</ele>
        <time>2016-05-04T09:20:17Z</time>
      </trkpt>
      <trkpt lat="44.59843" lon="3.92664">
        <ele>1082.309</ele>
        <time>2016-05-04T09:20:28Z</time>
      </trkpt>
      <trkpt lat="44.59839" lon="3.92632">
        <ele>1081.642</ele>
        <time>2016-05-04T09:20:32Z</time>
      </trkpt>
      <trkpt lat="44.59814" lon="3.92614">
        <ele>1080.156</ele>
        <time>2016-05-04T09:20:37Z</time>
      </trkpt>
      <trkpt lat="44.5975" lon="3.92552">
        <ele>1070.668</ele>
        <time>2016-05-04T09:20:51Z</time>
      </trkpt>
      <trkpt lat="44.59741" lon="3.92527">
        <ele>1069.562</ele>
        <time>2016-05-04T09:20:54Z</time>
      </trkpt>
      <trkpt lat="44.59723" lon="3.92428">
        <ele>1065.385</ele>
        <time>2016-05-04T09:21:03Z</time>
      </trkpt>
      <trkpt lat="44.59694" lon="3.92364">
        <ele>1061.669</ele>
        <time>2016-05-04T09:21:09Z</time>
      </trkpt>
      <trkpt lat="44.5966" lon="3.92274">
        <ele>1057.202</ele>
        <time>2016-05-04T09:21:17Z</time>
      </trkpt>
      <trkpt lat="44.59662" lon="3.92221">
        <ele>1054.386</ele>
        <time>2016-05-04T09:21:22Z</time>
      </trkpt>
      <trkpt lat="44.59698" lon="3.92187">
        <ele>1054.968</ele>
        <time>2016-05-04T09:21:28Z</time>
      </trkpt>
      <trkpt lat="44.59711" lon="3.92184">
        <ele>1055.733</ele>
        <time>2016-05-04T09:21:30Z</time>
      </trkpt>
      <trkpt lat="44.59723" lon="3.92183">
        <ele>1056.062</ele>
        <time>2016-05-04T09:21:32Z</time>
      </trkpt>
      <trkpt lat="44.59744" lon="3.92176">
        <ele>1055.825</ele>
        <time>2016-05-04T09:21:37Z</time>
      </trkpt>
      <trkpt lat="44.59746" lon="3.92166">
        <ele>1054.385</ele>
        <time>2016-05-04T09:21:39Z</time>
      </trkpt>
      <trkpt lat="44.59622" lon="3.92165">
        <ele>1044.076</ele>
        <time>2016-05-04T09:22:00Z</time>
      </trkpt>
      <trkpt lat="44.59602" lon="3.9215">
        <ele>1041.821</ele>
        <time>2016-05-04T09:22:05Z</time>
      </trkpt>
      <trkpt lat="44.59599" lon="3.92144">
        <ele>1041.433</ele>
        <time>2016-05-04T09:22:06Z</time>
      </trkpt>
      <trkpt lat="44.5959" lon="3.92046">
        <ele>1044.205</ele>
        <time>2016-05-04T09:22:32Z</time>
      </trkpt>
      <trkpt lat="44.59594" lon="3.92025">
        <ele>1045.361</ele>
        <time>2016-05-04T09:22:41Z</time>
      </trkpt>
      <trkpt lat="44.59625" lon="3.91916">
        <ele>1051.42</ele>
        <time>2016-05-04T09:23:27Z</time>
      </trkpt>
      <trkpt lat="44.59662" lon="3.91873">
        <ele>1057.187</ele>
        <time>2016-05-04T09:23:54Z</time>
      </trkpt>
      <trkpt lat="44.59692" lon="3.91773">
        <ele>1056.6</ele>
        <time>2016-05-04T09:24:25Z</time>
      </trkpt>
      <trkpt lat="44.59729" lon="3.91724">
        <ele>1057.413</ele>
        <time>2016-05-04T09:24:43Z</time>
      </trkpt>
      <trkpt lat="44.59916" lon="3.9171">
        <ele>1068.125</ele>
        <time>2016-05-04T09:25:57Z</time>
      </trkpt>
      <trkpt lat="44.59932" lon="3.91682">
        <ele>1070.019</ele>
        <time>2016-05-04T09:26:13Z</time>
      </trkpt>
      <trkpt lat="44.59922" lon="3.91606">
        <ele>1069.018</ele>
        <time>2016-05-04T09:26:36Z</time>
      </trkpt>
      <trkpt lat="44.59892" lon="3.91549">
        <ele>1071.276</ele>
        <time>2016-05-04T09:26:56Z</time>
      </trkpt>
      <trkpt lat="44.59889" lon="3.91546">
        <ele>1071.565</ele>
        <time>2016-05-04T09:26:58Z</time>
      </trkpt>
      <trkpt lat="44.59869" lon="3.91508">
        <ele>1074.887</ele>
        <time>2016-05-04T09:27:41Z</time>
      </trkpt>
      <trkpt lat="44.59815" lon="3.91393">
        <ele>1079.247</ele>
        <time>2016-05-04T09:28:23Z</time>
      </trkpt>
      <trkpt lat="44.59809" lon="3.91368">
        <ele>1079.998</ele>
        <time>2016-05-04T09:28:30Z</time>
      </trkpt>
      <trkpt lat="44.59801" lon="3.91347">
        <ele>1080.379</ele>
        <time>2016-05-04T09:28:36Z</time>
      </trkpt>
      <trkpt lat="44.59776" lon="3.91327">
        <ele>1078.729</ele>
        <time>2016-05-04T09:28:42Z</time>
      </trkpt>
      <trkpt lat="44.59706" lon="3.91302">
        <ele>1074.229</ele>
        <time>2016-05-04T09:28:57Z</time>
      </trkpt>
      <trkpt lat="44.5968" lon="3.91279">
        <ele>1074.886</ele>
        <time>2016-05-04T09:29:03Z</time>
      </trkpt>
      <trkpt lat="44.59464" lon="3.91015">
        <ele>1065.035</ele>
        <time>2016-05-04T09:29:54Z</time>
      </trkpt>
      <trkpt lat="44.59429" lon="3.90967">
        <ele>1061.703</ele>
        <time>2016-05-04T09:30:01Z</time>
      </trkpt>
      <trkpt lat="44.59381" lon="3.90914">
        <ele>1056.95</ele>
        <time>2016-05-04T09:30:14Z</time>
      </trkpt>
      <trkpt lat="44.59349" lon="3.90862">
        <ele>1050.204</ele>
        <time>2016-05-04T09:31:06Z</time>
      </trkpt>
      <trkpt lat="44.59325" lon="3.9083">
        <ele>1045.067</ele>
        <time>2016-05-04T09:31:13Z</time>
      </trkpt>
      <trkpt lat="44.59293" lon="3.9068">
        <ele>1024.718</ele>
        <time>2016-05-04T09:31:44Z</time>
      </trkpt>
      <trkpt lat="44.59262" lon="3.90637">
        <ele>1020.451</ele>
        <time>2016-05-04T09:31:52Z</time>
      </trkpt>
      <trkpt lat="44.5923" lon="3.90603">
        <ele>1018.842</ele>
        <time>2016-05-04T09:32:02Z</time>
      </trkpt>
      <trkpt lat="44.5923" lon="3.9059">
        <ele>1018.659</ele>
        <time>2016-05-04T09:34:52Z</time>
      </trkpt>
      <trkpt lat="44.59182" lon="3.90564">
        <ele>1019.763</ele>
        <time>2016-05-04T09:35:53Z</time>
      </trkpt>
      <trkpt lat="44.592" lon="3.90468">
        <ele>1020.74</ele>
        <time>2016-05-04T09:44:39Z</time>
      </trkpt>
      <trkpt lat="44.59232" lon="3.90445">
        <ele>1022.585</ele>
        <time>2016-05-04T09:44:56Z</time>
      </trkpt>
      <trkpt lat="44.59318" lon="3.90466">
        <ele>1023.107</ele>
        <time>2016-05-04T09:45:31Z</time>
      </trkpt>
      <trkpt lat="44.59403" lon="3.9043">
        <ele>1026.503</ele>
        <time>2016-05-04T09:46:02Z</time>
      </trkpt>
      <trkpt lat="44.59438" lon="3.90424">
        <ele>1025.651</ele>
        <time>2016-05-04T09:46:13Z</time>
      </trkpt>
      <trkpt lat="44.59435" lon="3.90391">
        <ele>1029.322</ele>
        <time>2016-05-04T09:46:22Z</time>
      </trkpt>
      <trkpt lat="44.59396" lon="3.9037">
        <ele>1033.371</ele>
        <time>2016-05-04T09:46:48Z</time>
      </trkpt>
      <trkpt lat="44.59408" lon="3.9024">
        <ele>1049.248</ele>
        <time>2016-05-04T09:48:24Z</time>
      </trkpt>
      <trkpt lat="44.59363" lon="3.90274">
        <ele>1046.606</ele>
        <time>2016-05-04T09:49:06Z</time>
      </trkpt>
      <trkpt lat="44.59328" lon="3.90276">
        <ele>1049.354</ele>
        <time>2016-05-04T09:49:29Z</time>
      </trkpt>
      <trkpt lat="44.59154" lon="3.90149">
        <ele>1069.632</ele>
        <time>2016-05-04T09:51:46Z</time>
      </trkpt>
      <trkpt lat="44.59025" lon="3.90065">
        <ele>1079.64</ele>
        <time>2016-05-04T09:53:07Z</time>
      </trkpt>
      <trkpt lat="44.58953" lon="3.89998">
        <ele>1084.035</ele>
        <time>2016-05-04T09:54:04Z</time>
      </trkpt>
      <trkpt lat="44.58948" lon="3.89981">
        <ele>1085.547</ele>
        <time>2016-05-04T09:54:13Z</time>
      </trkpt>
      <trkpt lat="44.58969" lon="3.89938">
        <ele>1087.699</ele>
        <time>2016-05-04T10:03:51Z</time>
      </trkpt>
      <trkpt lat="44.59061" lon="3.89883">
        <ele>1100.762</ele>
        <time>2016-05-04T10:28:02Z</time>
      </trkpt>
      <trkpt lat="44.59112" lon="3.89863">
        <ele>1105.253</ele>
        <time>2016-05-04T10:31:32Z</time>
      </trkpt>
      <trkpt lat="44.59202" lon="3.89847">
        <ele>1112.684</ele>
        <time>2016-05-04T10:32:31Z</time>
      </trkpt>
      <trkpt lat="44.59296" lon="3.89786">
        <ele>1122.981</ele>
        <time>2016-05-04T10:33:40Z</time>
      </trkpt>
      <trkpt lat="44.59366" lon="3.8971">
        <ele>1126.065</ele>
        <time>2016-05-04T10:34:55Z</time>
      </trkpt>
      <trkpt lat="44.59351" lon="3.89646">
        <ele>1129.639</ele>
        <time>2016-05-04T10:40:18Z</time>
      </trkpt>
      <trkpt lat="44.59278" lon="3.89492">
        <ele>1147.612</ele>
        <time>2016-05-04T10:41:54Z</time>
      </trkpt>
      <trkpt lat="44.59267" lon="3.89391">
        <ele>1157.463</ele>
        <time>2016-05-04T10:42:52Z</time>
      </trkpt>
      <trkpt lat="44.59266" lon="3.89377">
        <ele>1158.572</ele>
        <time>2016-05-04T10:43:00Z</time>
      </trkpt>
      <trkpt lat="44.59257" lon="3.89353">
        <ele>1157.209</ele>
        <time>2016-05-04T10:43:12Z</time>
      </trkpt>
      <trkpt lat="44.59255" lon="3.89291">
        <ele>1159.841</ele>
        <time>2016-05-04T10:44:02Z</time>
      </trkpt>
      <trkpt lat="44.59256" lon="3.89164">
        <ele>1171.252</ele>
        <time>2016-05-04T10:45:28Z</time>
      </trkpt>
      <trkpt lat="44.59249" lon="3.89148">
        <ele>1172.522</ele>
        <time>2016-05-04T10:45:39Z</time>
      </trkpt>
      <trkpt lat="44.59214" lon="3.89089">
        <ele>1176.433</ele>
        <time>2016-05-04T10:46:21Z</time>
      </trkpt>
      <trkpt lat="44.59215" lon="3.89088">
        <ele>1176.965</ele>
        <time>2016-05-04T10:46:49Z</time>
      </trkpt>
      <trkpt lat="44.59196" lon="3.89064">
        <ele>1179.807</ele>
        <time>2016-05-04T10:47:17Z</time>
      </trkpt>
      <trkpt lat="44.59185" lon="3.89041">
        <ele>1183.925</ele>
        <time>2016-05-04T10:47:37Z</time>
      </trkpt>
      <trkpt lat="44.59124" lon="3.88978">
        <ele>1190.34</ele>
        <time>2016-05-04T10:50:14Z</time>
      </trkpt>
      <trkpt lat="44.59104" lon="3.88963">
        <ele>1193.072</ele>
        <time>2016-05-04T10:51:52Z</time>
      </trkpt>
      <trkpt lat="44.59086" lon="3.88955">
        <ele>1193.904</ele>
        <time>2016-05-04T10:52:05Z</time>
      </trkpt>
      <trkpt lat="44.59014" lon="3.88895">
        <ele>1200.939</ele>
        <time>2016-05-04T10:53:04Z</time>
      </trkpt>
      <trkpt lat="44.58995" lon="3.88825">
        <ele>1206.227</ele>
        <time>2016-05-04T10:54:15Z</time>
      </trkpt>
      <trkpt lat="44.58975" lon="3.88628">
        <ele>1227.586</ele>
        <time>2016-05-04T10:58:11Z</time>
      </trkpt>
      <trkpt lat="44.58964" lon="3.88596">
        <ele>1232.126</ele>
        <time>2016-05-04T10:58:59Z</time>
      </trkpt>
      <trkpt lat="44.58943" lon="3.88566">
        <ele>1239.484</ele>
        <time>2016-05-04T10:59:17Z</time>
      </trkpt>
      <trkpt lat="44.58788" lon="3.88615">
        <ele>1239.104</ele>
        <time>2016-05-04T11:01:14Z</time>
      </trkpt>
      <trkpt lat="44.58773" lon="3.88603">
        <ele>1241.851</ele>
        <time>2016-05-04T11:01:27Z</time>
      </trkpt>
      <trkpt lat="44.58739" lon="3.88549">
        <ele>1250.59</ele>
        <time>2016-05-04T11:02:40Z</time>
      </trkpt>
      <trkpt lat="44.58688" lon="3.88484">
        <ele>1264.875</ele>
        <time>2016-05-04T11:03:51Z</time>
      </trkpt>
      <trkpt lat="44.58621" lon="3.88497">
        <ele>1262.172</ele>
        <time>2016-05-04T11:04:54Z</time>
      </trkpt>
      <trkpt lat="44.58606" lon="3.88489">
        <ele>1264.666</ele>
        <time>2016-05-04T11:05:09Z</time>
      </trkpt>
      <trkpt lat="44.5854" lon="3.88438">
        <ele>1271.191</ele>
        <time>2016-05-04T11:08:25Z</time>
      </trkpt>
      <trkpt lat="44.5854" lon="3.88418">
        <ele>1273.33</ele>
        <time>2016-05-04T11:09:43Z</time>
      </trkpt>
      <trkpt lat="44.58537" lon="3.88353">
        <ele>1277.463</ele>
        <time>2016-05-04T11:10:18Z</time>
      </trkpt>
      <trkpt lat="44.58534" lon="3.88322">
        <ele>1278.828</ele>
        <time>2016-05-04T11:10:32Z</time>
      </trkpt>
      <trkpt lat="44.58525" lon="3.88261">
        <ele>1281.506</ele>
        <time>2016-05-04T11:11:01Z</time>
      </trkpt>
      <trkpt lat="44.58498" lon="3.88202">
        <ele>1284.468</ele>
        <time>2016-05-04T11:11:33Z</time>
      </trkpt>
      <trkpt lat="44.58403" lon="3.88117">
        <ele>1289.154</ele>
        <time>2016-05-04T11:12:41Z</time>
      </trkpt>
      <trkpt lat="44.58377" lon="3.88092">
        <ele>1290.442</ele>
        <time>2016-05-04T11:12:59Z</time>
      </trkpt>
      <trkpt lat="44.58348" lon="3.88043">
        <ele>1295.162</ele>
        <time>2016-05-04T11:13:28Z</time>
      </trkpt>
      <trkpt lat="44.58345" lon="3.88019">
        <ele>1297.726</ele>
        <time>2016-05-04T11:13:41Z</time>
      </trkpt>
      <trkpt lat="44.58343" lon="3.87982">
        <ele>1299.679</ele>
        <time>2016-05-04T11:15:09Z</time>
      </trkpt>
      <trkpt lat="44.58355" lon="3.87977">
        <ele>1300.133</ele>
        <time>2016-05-04T11:15:31Z</time>
      </trkpt>
      <trkpt lat="44.58365" lon="3.87976">
        <ele>1300.363</ele>
        <time>2016-05-04T11:22:10Z</time>
      </trkpt>
      <trkpt lat="44.58386" lon="3.87971">
        <ele>1300.636</ele>
        <time>2016-05-04T11:22:21Z</time>
      </trkpt>
      <trkpt lat="44.58465" lon="3.8792">
        <ele>1301</ele>
        <time>2016-05-04T11:23:03Z</time>
      </trkpt>
      <trkpt lat="44.58548" lon="3.87828">
        <ele>1302.821</ele>
        <time>2016-05-04T11:23:57Z</time>
      </trkpt>
      <trkpt lat="44.58562" lon="3.87755">
        <ele>1303.141</ele>
        <time>2016-05-04T11:24:28Z</time>
      </trkpt>
      <trkpt lat="44.58562" lon="3.87757">
        <ele>1303.119</ele>
        <time>2016-05-04T11:25:07Z</time>
      </trkpt>
      <trkpt lat="44.58621" lon="3.87446">
        <ele>1306.687</ele>
        <time>2016-05-04T11:26:42Z</time>
      </trkpt>
      <trkpt lat="44.58627" lon="3.87418">
        <ele>1307.18</ele>
        <time>2016-05-04T11:26:49Z</time>
      </trkpt>
      <trkpt lat="44.58635" lon="3.87254">
        <ele>1309.353</ele>
        <time>2016-05-04T11:28:04Z</time>
      </trkpt>
      <trkpt lat="44.58619" lon="3.8711">
        <ele>1309.361</ele>
        <time>2016-05-04T11:28:25Z</time>
      </trkpt>
      <trkpt lat="44.58505" lon="3.86714">
        <ele>1303.52</ele>
        <time>2016-05-04T11:30:54Z</time>
      </trkpt>
      <trkpt lat="44.58487" lon="3.86653">
        <ele>1303.088</ele>
        <time>2016-05-04T11:31:04Z</time>
      </trkpt>
      <trkpt lat="44.58541" lon="3.86423">
        <ele>1302.16</ele>
        <time>2016-05-04T11:31:43Z</time>
      </trkpt>
      <trkpt lat="44.58538" lon="3.86198">
        <ele>1302.19</ele>
        <time>2016-05-04T11:33:02Z</time>
      </trkpt>
      <trkpt lat="44.58529" lon="3.8616">
        <ele>1302</ele>
        <time>2016-05-04T11:33:11Z</time>
      </trkpt>
      <trkpt lat="44.58449" lon="3.85988">
        <ele>1295.245</ele>
        <time>2016-05-04T11:33:41Z</time>
      </trkpt>
      <trkpt lat="44.58417" lon="3.85863">
        <ele>1284.753</ele>
        <time>2016-05-04T11:33:55Z</time>
      </trkpt>
      <trkpt lat="44.58357" lon="3.8572">
        <ele>1286.02</ele>
        <time>2016-05-04T11:34:33Z</time>
      </trkpt>
      <trkpt lat="44.58249" lon="3.85646">
        <ele>1291.215</ele>
        <time>2016-05-04T11:36:23Z</time>
      </trkpt>
      <trkpt lat="44.58085" lon="3.85278">
        <ele>1290.375</ele>
        <time>2016-05-04T11:39:18Z</time>
      </trkpt>
      <trkpt lat="44.58047" lon="3.85179">
        <ele>1292.555</ele>
        <time>2016-05-04T11:39:44Z</time>
      </trkpt>
      <trkpt lat="44.58008" lon="3.8498">
        <ele>1291</ele>
        <time>2016-05-04T11:40:25Z</time>
      </trkpt>
      <trkpt lat="44.58004" lon="3.84879">
        <ele>1296.124</ele>
        <time>2016-05-04T11:40:44Z</time>
      </trkpt>
      <trkpt lat="44.57948" lon="3.84793">
        <ele>1301.4</ele>
        <time>2016-05-04T11:41:08Z</time>
      </trkpt>
      <trkpt lat="44.57939" lon="3.84781">
        <ele>1301.543</ele>
        <time>2016-05-04T11:41:12Z</time>
      </trkpt>
      <trkpt lat="44.57873" lon="3.84828">
        <ele>1296.673</ele>
        <time>2016-05-04T11:43:14Z</time>
      </trkpt>
      <trkpt lat="44.57854" lon="3.84839">
        <ele>1294.836</ele>
        <time>2016-05-04T11:43:18Z</time>
      </trkpt>
      <trkpt lat="44.57804" lon="3.84856">
        <ele>1290.432</ele>
        <time>2016-05-04T11:43:27Z</time>
      </trkpt>
      <trkpt lat="44.57773" lon="3.84863">
        <ele>1287.573</ele>
        <time>2016-05-04T11:43:31Z</time>
      </trkpt>
      <trkpt lat="44.57712" lon="3.84882">
        <ele>1282.758</ele>
        <time>2016-05-04T11:43:39Z</time>
      </trkpt>
      <trkpt lat="44.57637" lon="3.849">
        <ele>1277.111</ele>
        <time>2016-05-04T11:43:48Z</time>
      </trkpt>
      <trkpt lat="44.57611" lon="3.84887">
        <ele>1272.144</ele>
        <time>2016-05-04T11:44:37Z</time>
      </trkpt>
      <trkpt lat="44.57529" lon="3.84925">
        <ele>1263.243</ele>
        <time>2016-05-04T11:46:49Z</time>
      </trkpt>
      <trkpt lat="44.57503" lon="3.84934">
        <ele>1259.792</ele>
        <time>2016-05-04T11:46:52Z</time>
      </trkpt>
      <trkpt lat="44.57368" lon="3.84973">
        <ele>1245.149</ele>
        <time>2016-05-04T11:47:11Z</time>
      </trkpt>
      <trkpt lat="44.57296" lon="3.84957">
        <ele>1238.345</ele>
        <time>2016-05-04T11:47:20Z</time>
      </trkpt>
      <trkpt lat="44.57254" lon="3.84923">
        <ele>1231.844</ele>
        <time>2016-05-04T11:47:25Z</time>
      </trkpt>
      <trkpt lat="44.57133" lon="3.84778">
        <ele>1214.554</ele>
        <time>2016-05-04T11:47:44Z</time>
      </trkpt>
      <trkpt lat="44.57095" lon="3.84754">
        <ele>1209.482</ele>
        <time>2016-05-04T11:47:49Z</time>
      </trkpt>
      <trkpt lat="44.57009" lon="3.84744">
        <ele>1205.558</ele>
        <time>2016-05-04T11:48:00Z</time>
      </trkpt>
      <trkpt lat="44.56892" lon="3.84677">
        <ele>1190.965</ele>
        <time>2016-05-04T11:48:15Z</time>
      </trkpt>
      <trkpt lat="44.56776" lon="3.84645">
        <ele>1177.028</ele>
        <time>2016-05-04T11:48:31Z</time>
      </trkpt>
      <trkpt lat="44.56747" lon="3.84655">
        <ele>1176.086</ele>
        <time>2016-05-04T11:48:35Z</time>
      </trkpt>
      <trkpt lat="44.56698" lon="3.84682">
        <ele>1171.405</ele>
        <time>2016-05-04T11:48:43Z</time>
      </trkpt>
      <trkpt lat="44.56594" lon="3.84826">
        <ele>1158.116</ele>
        <time>2016-05-04T11:49:02Z</time>
      </trkpt>
      <trkpt lat="44.56561" lon="3.84849">
        <ele>1151.103</ele>
        <time>2016-05-04T11:49:07Z</time>
      </trkpt>
      <trkpt lat="44.56528" lon="3.84907">
        <ele>1148.932</ele>
        <time>2016-05-04T11:49:14Z</time>
      </trkpt>
      <trkpt lat="44.56517" lon="3.84989">
        <ele>1144.121</ele>
        <time>2016-05-04T11:49:28Z</time>
      </trkpt>
      <trkpt lat="44.56557" lon="3.85101">
        <ele>1144.042</ele>
        <time>2016-05-04T11:49:44Z</time>
      </trkpt>
      <trkpt lat="44.56573" lon="3.85226">
        <ele>1138.304</ele>
        <time>2016-05-04T11:50:00Z</time>
      </trkpt>
      <trkpt lat="44.56564" lon="3.8531">
        <ele>1131.684</ele>
        <time>2016-05-04T11:52:02Z</time>
      </trkpt>
      <trkpt lat="44.56547" lon="3.85293">
        <ele>1128.804</ele>
        <time>2016-05-04T11:52:07Z</time>
      </trkpt>
      <trkpt lat="44.56546" lon="3.85286">
        <ele>1128.567</ele>
        <time>2016-05-04T11:52:08Z</time>
      </trkpt>
      <trkpt lat="44.56539" lon="3.85202">
        <ele>1130.014</ele>
        <time>2016-05-04T11:52:16Z</time>
      </trkpt>
      <trkpt lat="44.56533" lon="3.85177">
        <ele>1129.65</ele>
        <time>2016-05-04T11:52:18Z</time>
      </trkpt>
      <trkpt lat="44.56499" lon="3.85106">
        <ele>1125.866</ele>
        <time>2016-05-04T11:52:24Z</time>
      </trkpt>
      <trkpt lat="44.56474" lon="3.85077">
        <ele>1122.863</ele>
        <time>2016-05-04T11:52:27Z</time>
      </trkpt>
      <trkpt lat="44.56454" lon="3.85064">
        <ele>1120.742</ele>
        <time>2016-05-04T11:52:29Z</time>
      </trkpt>
      <trkpt lat="44.56324" lon="3.85037">
        <ele>1123.327</ele>
        <time>2016-05-04T11:56:44Z</time>
      </trkpt>
      <trkpt lat="44.56269" lon="3.84965">
        <ele>1124.972</ele>
        <time>2016-05-04T11:57:57Z</time>
      </trkpt>
      <trkpt lat="44.56182" lon="3.84928">
        <ele>1130.276</ele>
        <time>2016-05-04T11:58:40Z</time>
      </trkpt>
      <trkpt lat="44.56077" lon="3.84838">
        <ele>1133.645</ele>
        <time>2016-05-04T11:59:33Z</time>
      </trkpt>
      <trkpt lat="44.56033" lon="3.84756">
        <ele>1139.482</ele>
        <time>2016-05-04T12:00:21Z</time>
      </trkpt>
      <trkpt lat="44.56011" lon="3.84736">
        <ele>1141.698</ele>
        <time>2016-05-04T12:00:41Z</time>
      </trkpt>
      <trkpt lat="44.55949" lon="3.84704">
        <ele>1146.738</ele>
        <time>2016-05-04T12:01:26Z</time>
      </trkpt>
      <trkpt lat="44.55862" lon="3.84703">
        <ele>1146.835</ele>
        <time>2016-05-04T12:09:01Z</time>
      </trkpt>
      <trkpt lat="44.55829" lon="3.84691">
        <ele>1148.695</ele>
        <time>2016-05-04T12:09:25Z</time>
      </trkpt>
      <trkpt lat="44.55754" lon="3.84623">
        <ele>1160.055</ele>
        <time>2016-05-04T12:10:33Z</time>
      </trkpt>
      <trkpt lat="44.55726" lon="3.84577">
        <ele>1161.497</ele>
        <time>2016-05-04T12:11:04Z</time>
      </trkpt>
      <trkpt lat="44.55706" lon="3.84513">
        <ele>1161.613</ele>
        <time>2016-05-04T12:11:21Z</time>
      </trkpt>
      <trkpt lat="44.55666" lon="3.84192">
        <ele>1163.954</ele>
        <time>2016-05-04T12:12:18Z</time>
      </trkpt>
      <trkpt lat="44.55667" lon="3.84015">
        <ele>1168.32</ele>
        <time>2016-05-04T12:13:10Z</time>
      </trkpt>
      <trkpt lat="44.55606" lon="3.8379">
        <ele>1169.203</ele>
        <time>2016-05-04T12:13:58Z</time>
      </trkpt>
      <trkpt lat="44.55452" lon="3.83934">
        <ele>1170.411</ele>
        <time>2016-05-04T12:14:42Z</time>
      </trkpt>
      <trkpt lat="44.55374" lon="3.83745">
        <ele>1164.512</ele>
        <time>2016-05-04T12:15:20Z</time>
      </trkpt>
      <trkpt lat="44.55295" lon="3.83549">
        <ele>1161.034</ele>
        <time>2016-05-04T12:15:51Z</time>
      </trkpt>
      <trkpt lat="44.55272" lon="3.8351">
        <ele>1159.81</ele>
        <time>2016-05-04T12:15:57Z</time>
      </trkpt>
      <trkpt lat="44.55261" lon="3.83502">
        <ele>1159.541</ele>
        <time>2016-05-04T12:15:59Z</time>
      </trkpt>
      <trkpt lat="44.55222" lon="3.83487">
        <ele>1159.047</ele>
        <time>2016-05-04T12:16:05Z</time>
      </trkpt>
      <trkpt lat="44.55203" lon="3.83474">
        <ele>1158.696</ele>
        <time>2016-05-04T12:16:08Z</time>
      </trkpt>
      <trkpt lat="44.55192" lon="3.8346">
        <ele>1158.233</ele>
        <time>2016-05-04T12:16:10Z</time>
      </trkpt>
      <trkpt lat="44.55185" lon="3.8344">
        <ele>1157.688</ele>
        <time>2016-05-04T12:16:12Z</time>
      </trkpt>
      <trkpt lat="44.55181" lon="3.83352">
        <ele>1156</ele>
        <time>2016-05-04T12:16:21Z</time>
      </trkpt>
      <trkpt lat="44.55158" lon="3.83303">
        <ele>1156.89</ele>
        <time>2016-05-04T12:16:29Z</time>
      </trkpt>
      <trkpt lat="44.55033" lon="3.83256">
        <ele>1156.582</ele>
        <time>2016-05-04T12:17:35Z</time>
      </trkpt>
      <trkpt lat="44.55004" lon="3.8321">
        <ele>1156.927</ele>
        <time>2016-05-04T12:17:48Z</time>
      </trkpt>
      <trkpt lat="44.54982" lon="3.82983">
        <ele>1159.09</ele>
        <time>2016-05-04T12:18:27Z</time>
      </trkpt>
      <trkpt lat="44.54997" lon="3.82862">
        <ele>1156.277</ele>
        <time>2016-05-04T12:18:45Z</time>
      </trkpt>
      <trkpt lat="44.54999" lon="3.82817">
        <ele>1155.176</ele>
        <time>2016-05-04T12:18:50Z</time>
      </trkpt>
      <trkpt lat="44.55045" lon="3.82747">
        <ele>1158.867</ele>
        <time>2016-05-04T12:19:07Z</time>
      </trkpt>
      <trkpt lat="44.55082" lon="3.82649">
        <ele>1157.904</ele>
        <time>2016-05-04T12:19:32Z</time>
      </trkpt>
      <trkpt lat="44.55087" lon="3.8259">
        <ele>1159.087</ele>
        <time>2016-05-04T12:19:46Z</time>
      </trkpt>
      <trkpt lat="44.55071" lon="3.82566">
        <ele>1159.772</ele>
        <time>2016-05-04T12:19:55Z</time>
      </trkpt>
      <trkpt lat="44.55087" lon="3.82562">
        <ele>1160.733</ele>
        <time>2016-05-04T12:20:02Z</time>
      </trkpt>
      <trkpt lat="44.55104" lon="3.82562">
        <ele>1161.455</ele>
        <time>2016-05-04T12:20:11Z</time>
      </trkpt>
      <trkpt lat="44.55124" lon="3.82463">
        <ele>1171.809</ele>
        <time>2016-05-04T12:21:03Z</time>
      </trkpt>
      <trkpt lat="44.55116" lon="3.82439">
        <ele>1172.907</ele>
        <time>2016-05-04T12:21:47Z</time>
      </trkpt>
      <trkpt lat="44.55104" lon="3.8238">
        <ele>1173.644</ele>
        <time>2016-05-04T12:22:05Z</time>
      </trkpt>
      <trkpt lat="44.55096" lon="3.82286">
        <ele>1171.248</ele>
        <time>2016-05-04T12:22:26Z</time>
      </trkpt>
      <trkpt lat="44.55091" lon="3.82234">
        <ele>1168.759</ele>
        <time>2016-05-04T12:22:33Z</time>
      </trkpt>
      <trkpt lat="44.55091" lon="3.82175">
        <ele>1166.061</ele>
        <time>2016-05-04T12:22:38Z</time>
      </trkpt>
      <trkpt lat="44.55099" lon="3.82037">
        <ele>1156.868</ele>
        <time>2016-05-04T12:22:52Z</time>
      </trkpt>
      <trkpt lat="44.55077" lon="3.81919">
        <ele>1147.578</ele>
        <time>2016-05-04T12:23:48Z</time>
      </trkpt>
      <trkpt lat="44.55017" lon="3.81836">
        <ele>1138.683</ele>
        <time>2016-05-04T12:24:16Z</time>
      </trkpt>
      <trkpt lat="44.54944" lon="3.81741">
        <ele>1125.564</ele>
        <time>2016-05-04T12:24:35Z</time>
      </trkpt>
      <trkpt lat="44.54945" lon="3.81635">
        <ele>1121.932</ele>
        <time>2016-05-04T12:25:21Z</time>
      </trkpt>
      <trkpt lat="44.5495" lon="3.81616">
        <ele>1121.034</ele>
        <time>2016-05-04T12:25:25Z</time>
      </trkpt>
      <trkpt lat="44.54937" lon="3.81608">
        <ele>1116.847</ele>
        <time>2016-05-04T12:25:29Z</time>
      </trkpt>
      <trkpt lat="44.54923" lon="3.81605">
        <ele>1113.633</ele>
        <time>2016-05-04T12:25:33Z</time>
      </trkpt>
      <trkpt lat="44.54919" lon="3.81595">
        <ele>1111.721</ele>
        <time>2016-05-04T12:25:36Z</time>
      </trkpt>
      <trkpt lat="44.54942" lon="3.81567">
        <ele>1111.28</ele>
        <time>2016-05-04T12:25:44Z</time>
      </trkpt>
      <trkpt lat="44.5497" lon="3.81563">
        <ele>1111.581</ele>
        <time>2016-05-04T12:25:49Z</time>
      </trkpt>
      <trkpt lat="44.54981" lon="3.8156">
        <ele>1111.092</ele>
        <time>2016-05-04T12:25:53Z</time>
      </trkpt>
      <trkpt lat="44.54983" lon="3.81552">
        <ele>1109.998</ele>
        <time>2016-05-04T12:25:56Z</time>
      </trkpt>
      <trkpt lat="44.54919" lon="3.81536">
        <ele>1103.747</ele>
        <time>2016-05-04T12:26:11Z</time>
      </trkpt>
      <trkpt lat="44.54853" lon="3.81458">
        <ele>1096.074</ele>
        <time>2016-05-04T12:29:05Z</time>
      </trkpt>
      <trkpt lat="44.54759" lon="3.81538">
        <ele>1092.578</ele>
        <time>2016-05-04T12:30:14Z</time>
      </trkpt>
      <trkpt lat="44.54677" lon="3.8152">
        <ele>1100.75</ele>
        <time>2016-05-04T12:31:00Z</time>
      </trkpt>
      <trkpt lat="44.54609" lon="3.8154">
        <ele>1102.16</ele>
        <time>2016-05-04T12:31:55Z</time>
      </trkpt>
      <trkpt lat="44.54617" lon="3.81525">
        <ele>1102.945</ele>
        <time>2016-05-04T12:32:45Z</time>
      </trkpt>
      <trkpt lat="44.54605" lon="3.81511">
        <ele>1104.647</ele>
        <time>2016-05-04T12:34:20Z</time>
      </trkpt>
      <trkpt lat="44.54511" lon="3.81432">
        <ele>1116.441</ele>
        <time>2016-05-04T12:36:08Z</time>
      </trkpt>
      <trkpt lat="44.54484" lon="3.81387">
        <ele>1123.749</ele>
        <time>2016-05-04T12:37:37Z</time>
      </trkpt>
      <trkpt lat="44.5449" lon="3.81344">
        <ele>1127.213</ele>
        <time>2016-05-04T12:39:25Z</time>
      </trkpt>
      <trkpt lat="44.54509" lon="3.81281">
        <ele>1125.341</ele>
        <time>2016-05-04T12:39:40Z</time>
      </trkpt>
      <trkpt lat="44.54493" lon="3.8123">
        <ele>1121.527</ele>
        <time>2016-05-04T12:39:47Z</time>
      </trkpt>
      <trkpt lat="44.54457" lon="3.81175">
        <ele>1115.269</ele>
        <time>2016-05-04T12:39:56Z</time>
      </trkpt>
      <trkpt lat="44.54406" lon="3.81153">
        <ele>1114.926</ele>
        <time>2016-05-04T12:40:05Z</time>
      </trkpt>
      <trkpt lat="44.54373" lon="3.81135">
        <ele>1114.478</ele>
        <time>2016-05-04T12:40:11Z</time>
      </trkpt>
      <trkpt lat="44.54373" lon="3.81108">
        <ele>1112.03</ele>
        <time>2016-05-04T12:40:19Z</time>
      </trkpt>
      <trkpt lat="44.54463" lon="3.81021">
        <ele>1116.41</ele>
        <time>2016-05-04T12:41:52Z</time>
      </trkpt>
      <trkpt lat="44.54506" lon="3.8098">
        <ele>1120.692</ele>
        <time>2016-05-04T12:43:29Z</time>
      </trkpt>
      <trkpt lat="44.54514" lon="3.80912">
        <ele>1124.492</ele>
        <time>2016-05-04T12:47:41Z</time>
      </trkpt>
      <trkpt lat="44.54514" lon="3.80898">
        <ele>1125.254</ele>
        <time>2016-05-04T12:47:50Z</time>
      </trkpt>
      <trkpt lat="44.54533" lon="3.80659">
        <ele>1129.15</ele>
        <time>2016-05-04T12:50:21Z</time>
      </trkpt>
      <trkpt lat="44.54532" lon="3.80587">
        <ele>1127.887</ele>
        <time>2016-05-04T12:50:42Z</time>
      </trkpt>
      <trkpt lat="44.54495" lon="3.8048">
        <ele>1128.502</ele>
        <time>2016-05-04T12:51:13Z</time>
      </trkpt>
      <trkpt lat="44.54457" lon="3.80412">
        <ele>1130.193</ele>
        <time>2016-05-04T12:51:37Z</time>
      </trkpt>
      <trkpt lat="44.54405" lon="3.80371">
        <ele>1135.661</ele>
        <time>2016-05-04T12:52:15Z</time>
      </trkpt>
      <trkpt lat="44.54305" lon="3.80336">
        <ele>1144.479</ele>
        <time>2016-05-04T12:54:07Z</time>
      </trkpt>
      <trkpt lat="44.543" lon="3.80336">
        <ele>1145.222</ele>
        <time>2016-05-04T12:55:14Z</time>
      </trkpt>
      <trkpt lat="44.54281" lon="3.80316">
        <ele>1142.647</ele>
        <time>2016-05-04T12:55:29Z</time>
      </trkpt>
      <trkpt lat="44.54263" lon="3.80307">
        <ele>1142.219</ele>
        <time>2016-05-04T12:55:33Z</time>
      </trkpt>
      <trkpt lat="44.541" lon="3.80282">
        <ele>1145.063</ele>
        <time>2016-05-04T12:56:32Z</time>
      </trkpt>
      <trkpt lat="44.54049" lon="3.80214">
        <ele>1149.858</ele>
        <time>2016-05-04T12:57:15Z</time>
      </trkpt>
      <trkpt lat="44.53998" lon="3.80046">
        <ele>1156.507</ele>
        <time>2016-05-04T12:58:33Z</time>
      </trkpt>
      <trkpt lat="44.54" lon="3.80001">
        <ele>1158.49</ele>
        <time>2016-05-04T12:58:51Z</time>
      </trkpt>
      <trkpt lat="44.54027" lon="3.79996">
        <ele>1159.461</ele>
        <time>2016-05-04T12:59:07Z</time>
      </trkpt>
      <trkpt lat="44.54031" lon="3.79997">
        <ele>1159.415</ele>
        <time>2016-05-04T12:59:09Z</time>
      </trkpt>
      <trkpt lat="44.54035" lon="3.8">
        <ele>1159.565</ele>
        <time>2016-05-04T12:59:11Z</time>
      </trkpt>
      <trkpt lat="44.54096" lon="3.80064">
        <ele>1156.474</ele>
        <time>2016-05-04T12:59:57Z</time>
      </trkpt>
      <trkpt lat="44.54109" lon="3.80057">
        <ele>1159.939</ele>
        <time>2016-05-04T13:00:08Z</time>
      </trkpt>
      <trkpt lat="44.54111" lon="3.80057">
        <ele>1160.006</ele>
        <time>2016-05-04T13:00:34Z</time>
      </trkpt>
      <trkpt lat="44.54146" lon="3.79958">
        <ele>1168.951</ele>
        <time>2016-05-04T13:04:01Z</time>
      </trkpt>
      <trkpt lat="44.54135" lon="3.79889">
        <ele>1170.314</ele>
        <time>2016-05-04T13:04:32Z</time>
      </trkpt>
      <trkpt lat="44.5409" lon="3.79806">
        <ele>1176.787</ele>
        <time>2016-05-04T13:05:16Z</time>
      </trkpt>
      <trkpt lat="44.54054" lon="3.79706">
        <ele>1185.469</ele>
        <time>2016-05-04T13:06:03Z</time>
      </trkpt>
      <trkpt lat="44.54011" lon="3.79714">
        <ele>1191.18</ele>
        <time>2016-05-04T13:06:30Z</time>
      </trkpt>
      <trkpt lat="44.53955" lon="3.79767">
        <ele>1194.685</ele>
        <time>2016-05-04T13:07:06Z</time>
      </trkpt>
      <trkpt lat="44.53944" lon="3.7978">
        <ele>1194.755</ele>
        <time>2016-05-04T13:07:14Z</time>
      </trkpt>
      <trkpt lat="44.53941" lon="3.79779">
        <ele>1195.171</ele>
        <time>2016-05-04T13:07:39Z</time>
      </trkpt>
      <trkpt lat="44.53923" lon="3.79767">
        <ele>1199.07</ele>
        <time>2016-05-04T13:08:22Z</time>
      </trkpt>
      <trkpt lat="44.53922" lon="3.79761">
        <ele>1199.654</ele>
        <time>2016-05-04T13:08:24Z</time>
      </trkpt>
      <trkpt lat="44.53892" lon="3.79677">
        <ele>1208.179</ele>
        <time>2016-05-04T13:09:01Z</time>
      </trkpt>
      <trkpt lat="44.53878" lon="3.79657">
        <ele>1211.104</ele>
        <time>2016-05-04T13:09:16Z</time>
      </trkpt>
      <trkpt lat="44.53827" lon="3.79616">
        <ele>1221.416</ele>
        <time>2016-05-04T13:10:02Z</time>
      </trkpt>
      <trkpt lat="44.5377" lon="3.79544">
        <ele>1230.805</ele>
        <time>2016-05-04T13:11:45Z</time>
      </trkpt>
      <trkpt lat="44.53771" lon="3.79544">
        <ele>1230.511</ele>
        <time>2016-05-04T13:11:52Z</time>
      </trkpt>
      <trkpt lat="44.53744" lon="3.79521">
        <ele>1234.721</ele>
        <time>2016-05-04T13:12:41Z</time>
      </trkpt>
      <trkpt lat="44.53723" lon="3.79506">
        <ele>1238.13</ele>
        <time>2016-05-04T13:13:32Z</time>
      </trkpt>
      <trkpt lat="44.5371" lon="3.7949">
        <ele>1240.211</ele>
        <time>2016-05-04T13:15:02Z</time>
      </trkpt>
      <trkpt lat="44.53691" lon="3.79477">
        <ele>1244.126</ele>
        <time>2016-05-04T13:15:43Z</time>
      </trkpt>
      <trkpt lat="44.53668" lon="3.79474">
        <ele>1251.2</ele>
        <time>2016-05-04T13:16:17Z</time>
      </trkpt>
      <trkpt lat="44.53635" lon="3.79453">
        <ele>1260.137</ele>
        <time>2016-05-04T13:17:55Z</time>
      </trkpt>
      <trkpt lat="44.53618" lon="3.79439">
        <ele>1263.418</ele>
        <time>2016-05-04T13:18:51Z</time>
      </trkpt>
      <trkpt lat="44.53576" lon="3.79435">
        <ele>1275.461</ele>
        <time>2016-05-04T13:20:25Z</time>
      </trkpt>
      <trkpt lat="44.5357" lon="3.79426">
        <ele>1274.632</ele>
        <time>2016-05-04T13:22:00Z</time>
      </trkpt>
      <trkpt lat="44.53552" lon="3.79443">
        <ele>1283.247</ele>
        <time>2016-05-04T13:23:26Z</time>
      </trkpt>
      <trkpt lat="44.53553" lon="3.79444">
        <ele>1283.407</ele>
        <time>2016-05-04T13:23:37Z</time>
      </trkpt>
      <trkpt lat="44.53522" lon="3.79466">
        <ele>1291.251</ele>
        <time>2016-05-04T13:27:05Z</time>
      </trkpt>
      <trkpt lat="44.53481" lon="3.79481">
        <ele>1298.514</ele>
        <time>2016-05-04T13:28:57Z</time>
      </trkpt>
      <trkpt lat="44.53447" lon="3.79482">
        <ele>1302.929</ele>
        <time>2016-05-04T13:29:40Z</time>
      </trkpt>
      <trkpt lat="44.53419" lon="3.79479">
        <ele>1308.091</ele>
        <time>2016-05-04T13:30:28Z</time>
      </trkpt>
      <trkpt lat="44.53388" lon="3.79469">
        <ele>1314.715</ele>
        <time>2016-05-04T13:32:15Z</time>
      </trkpt>
      <trkpt lat="44.53373" lon="3.79444">
        <ele>1316.402</ele>
        <time>2016-05-04T13:33:03Z</time>
      </trkpt>
      <trkpt lat="44.53367" lon="3.79425">
        <ele>1317.48</ele>
        <time>2016-05-04T13:33:32Z</time>
      </trkpt>
      <trkpt lat="44.53351" lon="3.79407">
        <ele>1322.031</ele>
        <time>2016-05-04T13:33:55Z</time>
      </trkpt>
      <trkpt lat="44.53349" lon="3.79457">
        <ele>1327.319</ele>
        <time>2016-05-04T13:34:42Z</time>
      </trkpt>
      <trkpt lat="44.53347" lon="3.79477">
        <ele>1330.589</ele>
        <time>2016-05-04T13:35:33Z</time>
      </trkpt>
      <trkpt lat="44.53353" lon="3.79495">
        <ele>1331.132</ele>
        <time>2016-05-04T13:42:05Z</time>
      </trkpt>
      <trkpt lat="44.53371" lon="3.79534">
        <ele>1334.667</ele>
        <time>2016-05-04T13:42:41Z</time>
      </trkpt>
      <trkpt lat="44.53391" lon="3.79557">
        <ele>1336.542</ele>
        <time>2016-05-04T13:43:07Z</time>
      </trkpt>
      <trkpt lat="44.53439" lon="3.79618">
        <ele>1339.63</ele>
        <time>2016-05-04T13:44:13Z</time>
      </trkpt>
      <trkpt lat="44.53445" lon="3.79622">
        <ele>1339.081</ele>
        <time>2016-05-04T13:44:17Z</time>
      </trkpt>
      <trkpt lat="44.53451" lon="3.7965">
        <ele>1340.492</ele>
        <time>2016-05-04T13:46:03Z</time>
      </trkpt>
      <trkpt lat="44.53327" lon="3.79562">
        <ele>1353.354</ele>
        <time>2016-05-04T13:47:11Z</time>
      </trkpt>
      <trkpt lat="44.53301" lon="3.79525">
        <ele>1353.407</ele>
        <time>2016-05-04T13:47:31Z</time>
      </trkpt>
      <trkpt lat="44.53212" lon="3.79353">
        <ele>1366.367</ele>
        <time>2016-05-04T13:48:36Z</time>
      </trkpt>
      <trkpt lat="44.53251" lon="3.79203">
        <ele>1368.975</ele>
        <time>2016-05-04T13:49:32Z</time>
      </trkpt>
      <trkpt lat="44.53243" lon="3.78998">
        <ele>1383.288</ele>
        <time>2016-05-04T13:51:04Z</time>
      </trkpt>
      <trkpt lat="44.53223" lon="3.78746">
        <ele>1394.016</ele>
        <time>2016-05-04T13:52:51Z</time>
      </trkpt>
      <trkpt lat="44.53176" lon="3.78682">
        <ele>1399.654</ele>
        <time>2016-05-04T13:53:29Z</time>
      </trkpt>
      <trkpt lat="44.53057" lon="3.78578">
        <ele>1409.755</ele>
        <time>2016-05-04T13:54:54Z</time>
      </trkpt>
      <trkpt lat="44.5301" lon="3.78523">
        <ele>1411.373</ele>
        <time>2016-05-04T13:57:23Z</time>
      </trkpt>
      <trkpt lat="44.52868" lon="3.7871">
        <ele>1402.876</ele>
        <time>2016-05-04T13:58:02Z</time>
      </trkpt>
      <trkpt lat="44.52832" lon="3.78815">
        <ele>1399.99</ele>
        <time>2016-05-04T13:58:15Z</time>
      </trkpt>
      <trkpt lat="44.52821" lon="3.78856">
        <ele>1397.13</ele>
        <time>2016-05-04T13:58:19Z</time>
      </trkpt>
      <trkpt lat="44.52779" lon="3.78937">
        <ele>1390.276</ele>
        <time>2016-05-04T13:58:27Z</time>
      </trkpt>
      <trkpt lat="44.52766" lon="3.78954">
        <ele>1389.969</ele>
        <time>2016-05-04T13:58:29Z</time>
      </trkpt>
      <trkpt lat="44.52706" lon="3.78997">
        <ele>1392.997</ele>
        <time>2016-05-04T13:58:37Z</time>
      </trkpt>
      <trkpt lat="44.52601" lon="3.79011">
        <ele>1392.323</ele>
        <time>2016-05-04T13:58:57Z</time>
      </trkpt>
      <trkpt lat="44.52493" lon="3.79082">
        <ele>1390.833</ele>
        <time>2016-05-04T13:59:24Z</time>
      </trkpt>
      <trkpt lat="44.52463" lon="3.79121">
        <ele>1389.747</ele>
        <time>2016-05-04T13:59:32Z</time>
      </trkpt>
      <trkpt lat="44.52369" lon="3.79365">
        <ele>1383.9</ele>
        <time>2016-05-04T14:00:05Z</time>
      </trkpt>
      <trkpt lat="44.52369" lon="3.79385">
        <ele>1384.171</ele>
        <time>2016-05-04T14:00:08Z</time>
      </trkpt>
      <trkpt lat="44.52338" lon="3.79516">
        <ele>1377.225</ele>
        <time>2016-05-04T14:00:22Z</time>
      </trkpt>
      <trkpt lat="44.52274" lon="3.79633">
        <ele>1366.586</ele>
        <time>2016-05-04T14:00:34Z</time>
      </trkpt>
      <trkpt lat="44.52137" lon="3.79612">
        <ele>1344.42</ele>
        <time>2016-05-04T14:00:53Z</time>
      </trkpt>
      <trkpt lat="44.52058" lon="3.79585">
        <ele>1330.659</ele>
        <time>2016-05-04T14:01:07Z</time>
      </trkpt>
      <trkpt lat="44.52002" lon="3.79593">
        <ele>1322.646</ele>
        <time>2016-05-04T14:01:18Z</time>
      </trkpt>
      <trkpt lat="44.51954" lon="3.79615">
        <ele>1312.204</ele>
        <time>2016-05-04T14:01:27Z</time>
      </trkpt>
      <trkpt lat="44.51878" lon="3.7969">
        <ele>1300.093</ele>
        <time>2016-05-04T14:01:39Z</time>
      </trkpt>
      <trkpt lat="44.51773" lon="3.79769">
        <ele>1280.217</ele>
        <time>2016-05-04T14:01:52Z</time>
      </trkpt>
      <trkpt lat="44.51627" lon="3.79839">
        <ele>1258.149</ele>
        <time>2016-05-04T14:02:56Z</time>
      </trkpt>
      <trkpt lat="44.51604" lon="3.79846">
        <ele>1253.602</ele>
        <time>2016-05-04T14:10:28Z</time>
      </trkpt>
      <trkpt lat="44.51644" lon="3.79804">
        <ele>1255.947</ele>
        <time>2016-05-04T14:10:59Z</time>
      </trkpt>
      <trkpt lat="44.51676" lon="3.79747">
        <ele>1253.027</ele>
        <time>2016-05-04T14:11:22Z</time>
      </trkpt>
      <trkpt lat="44.51747" lon="3.79636">
        <ele>1255.249</ele>
        <time>2016-05-04T14:11:58Z</time>
      </trkpt>
      <trkpt lat="44.51766" lon="3.79563">
        <ele>1251.67</ele>
        <time>2016-05-04T14:12:13Z</time>
      </trkpt>
      <trkpt lat="44.51783" lon="3.79517">
        <ele>1249.584</ele>
        <time>2016-05-04T14:12:18Z</time>
      </trkpt>
      <trkpt lat="44.51802" lon="3.79487">
        <ele>1250.047</ele>
        <time>2016-05-04T14:12:22Z</time>
      </trkpt>
      <trkpt lat="44.51817" lon="3.79363">
        <ele>1252.433</ele>
        <time>2016-05-04T14:15:36Z</time>
      </trkpt>
      <trkpt lat="44.51779" lon="3.79391">
        <ele>1255.511</ele>
        <time>2016-05-04T14:16:32Z</time>
      </trkpt>
      <trkpt lat="44.51729" lon="3.79449">
        <ele>1257.196</ele>
        <time>2016-05-04T14:17:08Z</time>
      </trkpt>
      <trkpt lat="44.51732" lon="3.7943">
        <ele>1261.472</ele>
        <time>2016-05-04T14:17:24Z</time>
      </trkpt>
      <trkpt lat="44.51745" lon="3.79407">
        <ele>1262.972</ele>
        <time>2016-05-04T14:17:38Z</time>
      </trkpt>
      <trkpt lat="44.51811" lon="3.79254">
        <ele>1271.21</ele>
        <time>2016-05-04T14:19:50Z</time>
      </trkpt>
      <trkpt lat="44.51876" lon="3.79049">
        <ele>1281.825</ele>
        <time>2016-05-04T14:26:47Z</time>
      </trkpt>
      <trkpt lat="44.51869" lon="3.78961">
        <ele>1293.193</ele>
        <time>2016-05-04T14:27:30Z</time>
      </trkpt>
      <trkpt lat="44.51939" lon="3.78941">
        <ele>1288.964</ele>
        <time>2016-05-04T14:28:29Z</time>
      </trkpt>
      <trkpt lat="44.52014" lon="3.78809">
        <ele>1292.334</ele>
        <time>2016-05-04T14:29:36Z</time>
      </trkpt>
      <trkpt lat="44.52054" lon="3.78697">
        <ele>1296.465</ele>
        <time>2016-05-04T14:30:34Z</time>
      </trkpt>
      <trkpt lat="44.52146" lon="3.78409">
        <ele>1305.114</ele>
        <time>2016-05-04T14:34:28Z</time>
      </trkpt>
      <trkpt lat="44.52135" lon="3.78411">
        <ele>1309.332</ele>
        <time>2016-05-04T14:34:56Z</time>
      </trkpt>
      <trkpt lat="44.5212" lon="3.78427">
        <ele>1312.583</ele>
        <time>2016-05-04T14:36:05Z</time>
      </trkpt>
      <trkpt lat="44.5211" lon="3.78439">
        <ele>1313.884</ele>
        <time>2016-05-04T14:36:22Z</time>
      </trkpt>
      <trkpt lat="44.52078" lon="3.78505">
        <ele>1316.007</ele>
        <time>2016-05-04T14:37:18Z</time>
      </trkpt>
      <trkpt lat="44.51982" lon="3.78603">
        <ele>1333.365</ele>
        <time>2016-05-04T14:40:53Z</time>
      </trkpt>
      <trkpt lat="44.51954" lon="3.78623">
        <ele>1339.086</ele>
        <time>2016-05-04T14:42:05Z</time>
      </trkpt>
      <trkpt lat="44.51895" lon="3.78668">
        <ele>1345.91</ele>
        <time>2016-05-04T14:43:09Z</time>
      </trkpt>
      <trkpt lat="44.51869" lon="3.78684">
        <ele>1347.315</ele>
        <time>2016-05-04T14:43:32Z</time>
      </trkpt>
      <trkpt lat="44.51787" lon="3.78686">
        <ele>1352.38</ele>
        <time>2016-05-04T14:44:33Z</time>
      </trkpt>
      <trkpt lat="44.51758" lon="3.78674">
        <ele>1353.65</ele>
        <time>2016-05-04T14:44:53Z</time>
      </trkpt>
      <trkpt lat="44.51583" lon="3.78632">
        <ele>1362.956</ele>
        <time>2016-05-04T14:47:45Z</time>
      </trkpt>
      <trkpt lat="44.51533" lon="3.78618">
        <ele>1364.085</ele>
        <time>2016-05-04T14:48:09Z</time>
      </trkpt>
      <trkpt lat="44.51508" lon="3.786">
        <ele>1363.288</ele>
        <time>2016-05-04T14:48:22Z</time>
      </trkpt>
      <trkpt lat="44.51515" lon="3.78557">
        <ele>1360.897</ele>
        <time>2016-05-04T14:48:46Z</time>
      </trkpt>
      <trkpt lat="44.51501" lon="3.78535">
        <ele>1358.517</ele>
        <time>2016-05-04T14:48:58Z</time>
      </trkpt>
      <trkpt lat="44.51495" lon="3.78509">
        <ele>1355.559</ele>
        <time>2016-05-04T14:49:02Z</time>
      </trkpt>
      <trkpt lat="44.51489" lon="3.78462">
        <ele>1349.738</ele>
        <time>2016-05-04T14:49:09Z</time>
      </trkpt>
      <trkpt lat="44.51479" lon="3.78404">
        <ele>1341.167</ele>
        <time>2016-05-04T14:49:18Z</time>
      </trkpt>
      <trkpt lat="44.51457" lon="3.78296">
        <ele>1326.242</ele>
        <time>2016-05-04T14:49:35Z</time>
      </trkpt>
      <trkpt lat="44.51443" lon="3.78239">
        <ele>1317.287</ele>
        <time>2016-05-04T14:49:52Z</time>
      </trkpt>
      <trkpt lat="44.51393" lon="3.78228">
        <ele>1315.787</ele>
        <time>2016-05-04T14:50:39Z</time>
      </trkpt>
      <trkpt lat="44.51252" lon="3.78124">
        <ele>1313.373</ele>
        <time>2016-05-04T14:51:32Z</time>
      </trkpt>
      <trkpt lat="44.51233" lon="3.78099">
        <ele>1312.412</ele>
        <time>2016-05-04T14:51:39Z</time>
      </trkpt>
      <trkpt lat="44.51189" lon="3.78052">
        <ele>1311.878</ele>
        <time>2016-05-04T14:51:49Z</time>
      </trkpt>
      <trkpt lat="44.51126" lon="3.77971">
        <ele>1304.815</ele>
        <time>2016-05-04T14:52:03Z</time>
      </trkpt>
      <trkpt lat="44.51091" lon="3.77948">
        <ele>1302.223</ele>
        <time>2016-05-04T14:52:53Z</time>
      </trkpt>
      <trkpt lat="44.51067" lon="3.77918">
        <ele>1297.036</ele>
        <time>2016-05-04T14:53:10Z</time>
      </trkpt>
      <trkpt lat="44.51052" lon="3.77909">
        <ele>1294.921</ele>
        <time>2016-05-04T14:53:18Z</time>
      </trkpt>
      <trkpt lat="44.51022" lon="3.77846">
        <ele>1287.699</ele>
        <time>2016-05-04T14:53:39Z</time>
      </trkpt>
      <trkpt lat="44.50999" lon="3.77776">
        <ele>1280.627</ele>
        <time>2016-05-04T14:53:54Z</time>
      </trkpt>
      <trkpt lat="44.51082" lon="3.7776">
        <ele>1271.233</ele>
        <time>2016-05-04T14:54:16Z</time>
      </trkpt>
      <trkpt lat="44.51164" lon="3.77767">
        <ele>1268.261</ele>
        <time>2016-05-04T14:54:35Z</time>
      </trkpt>
      <trkpt lat="44.51186" lon="3.77771">
        <ele>1266.015</ele>
        <time>2016-05-04T14:54:41Z</time>
      </trkpt>
      <trkpt lat="44.51207" lon="3.77791">
        <ele>1266.129</ele>
        <time>2016-05-04T15:01:55Z</time>
      </trkpt>
      <trkpt lat="44.51276" lon="3.77794">
        <ele>1255.355</ele>
        <time>2016-05-04T15:02:15Z</time>
      </trkpt>
      <trkpt lat="44.51251" lon="3.77693">
        <ele>1242.589</ele>
        <time>2016-05-04T15:03:24Z</time>
      </trkpt>
      <trkpt lat="44.5113" lon="3.77553">
        <ele>1226.637</ele>
        <time>2016-05-04T15:04:01Z</time>
      </trkpt>
      <trkpt lat="44.51008" lon="3.7749">
        <ele>1226.084</ele>
        <time>2016-05-04T15:04:36Z</time>
      </trkpt>
      <trkpt lat="44.50968" lon="3.77448">
        <ele>1227.222</ele>
        <time>2016-05-04T15:05:13Z</time>
      </trkpt>
      <trkpt lat="44.50955" lon="3.77409">
        <ele>1224.678</ele>
        <time>2016-05-04T15:05:18Z</time>
      </trkpt>
      <trkpt lat="44.50921" lon="3.77192">
        <ele>1206.594</ele>
        <time>2016-05-04T15:05:44Z</time>
      </trkpt>
      <trkpt lat="44.50865" lon="3.77049">
        <ele>1199.408</ele>
        <time>2016-05-04T15:06:34Z</time>
      </trkpt>
      <trkpt lat="44.50839" lon="3.77008">
        <ele>1196.08</ele>
        <time>2016-05-04T15:07:03Z</time>
      </trkpt>
      <trkpt lat="44.50796" lon="3.76981">
        <ele>1196.754</ele>
        <time>2016-05-04T15:07:16Z</time>
      </trkpt>
      <trkpt lat="44.50704" lon="3.76925">
        <ele>1187.429</ele>
        <time>2016-05-04T15:07:29Z</time>
      </trkpt>
      <trkpt lat="44.50599" lon="3.76878">
        <ele>1171.27</ele>
        <time>2016-05-04T15:07:46Z</time>
      </trkpt>
      <trkpt lat="44.50472" lon="3.76853">
        <ele>1165.964</ele>
        <time>2016-05-04T15:09:17Z</time>
      </trkpt>
      <trkpt lat="44.50352" lon="3.76764">
        <ele>1159.844</ele>
        <time>2016-05-04T15:09:45Z</time>
      </trkpt>
      <trkpt lat="44.50242" lon="3.76744">
        <ele>1161.096</ele>
        <time>2016-05-04T15:10:05Z</time>
      </trkpt>
      <trkpt lat="44.50201" lon="3.7673">
        <ele>1158.548</ele>
        <time>2016-05-04T15:10:13Z</time>
      </trkpt>
      <trkpt lat="44.50126" lon="3.76661">
        <ele>1157.059</ele>
        <time>2016-05-04T15:10:53Z</time>
      </trkpt>
      <trkpt lat="44.50055" lon="3.76648">
        <ele>1158</ele>
        <time>2016-05-04T15:13:07Z</time>
      </trkpt>
      <trkpt lat="44.5002" lon="3.76646">
        <ele>1159.011</ele>
        <time>2016-05-04T15:13:58Z</time>
      </trkpt>
      <trkpt lat="44.49959" lon="3.76633">
        <ele>1165.331</ele>
        <time>2016-05-04T15:15:28Z</time>
      </trkpt>
      <trkpt lat="44.49757" lon="3.76662">
        <ele>1176.196</ele>
        <time>2016-05-04T15:20:11Z</time>
      </trkpt>
      <trkpt lat="44.49693" lon="3.76645">
        <ele>1182.326</ele>
        <time>2016-05-04T15:21:22Z</time>
      </trkpt>
      <trkpt lat="44.49697" lon="3.76634">
        <ele>1183.008</ele>
        <time>2016-05-04T15:22:36Z</time>
      </trkpt>
      <trkpt lat="44.49722" lon="3.76608">
        <ele>1184.557</ele>
        <time>2016-05-04T15:22:53Z</time>
      </trkpt>
      <trkpt lat="44.49771" lon="3.76545">
        <ele>1188.213</ele>
        <time>2016-05-04T15:23:27Z</time>
      </trkpt>
      <trkpt lat="44.49781" lon="3.7653">
        <ele>1189.316</ele>
        <time>2016-05-04T15:23:34Z</time>
      </trkpt>
      <trkpt lat="44.49798" lon="3.76472">
        <ele>1190.492</ele>
        <time>2016-05-04T15:24:00Z</time>
      </trkpt>
      <trkpt lat="44.49817" lon="3.76449">
        <ele>1190.877</ele>
        <time>2016-05-04T15:24:15Z</time>
      </trkpt>
      <trkpt lat="44.49878" lon="3.7635">
        <ele>1193.626</ele>
        <time>2016-05-04T15:24:56Z</time>
      </trkpt>
      <trkpt lat="44.49898" lon="3.76235">
        <ele>1197.651</ele>
        <time>2016-05-04T15:25:31Z</time>
      </trkpt>
      <trkpt lat="44.49884" lon="3.76159">
        <ele>1196.485</ele>
        <time>2016-05-04T15:25:54Z</time>
      </trkpt>
      <trkpt lat="44.49886" lon="3.76146">
        <ele>1197.165</ele>
        <time>2016-05-04T15:25:57Z</time>
      </trkpt>
      <trkpt lat="44.49887" lon="3.7611">
        <ele>1198.118</ele>
        <time>2016-05-04T15:26:07Z</time>
      </trkpt>
      <trkpt lat="44.49897" lon="3.75976">
        <ele>1198.754</ele>
        <time>2016-05-04T15:27:14Z</time>
      </trkpt>
      <trkpt lat="44.49938" lon="3.75896">
        <ele>1195.671</ele>
        <time>2016-05-04T15:27:29Z</time>
      </trkpt>
      <trkpt lat="44.49972" lon="3.75869">
        <ele>1192.244</ele>
        <time>2016-05-04T15:27:35Z</time>
      </trkpt>
      <trkpt lat="44.50002" lon="3.75872">
        <ele>1192.234</ele>
        <time>2016-05-04T15:27:39Z</time>
      </trkpt>
      <trkpt lat="44.50018" lon="3.7587">
        <ele>1191.757</ele>
        <time>2016-05-04T15:27:41Z</time>
      </trkpt>
      <trkpt lat="44.50039" lon="3.75857">
        <ele>1189.941</ele>
        <time>2016-05-04T15:27:44Z</time>
      </trkpt>
      <trkpt lat="44.5006" lon="3.75822">
        <ele>1188.079</ele>
        <time>2016-05-04T15:27:48Z</time>
      </trkpt>
      <trkpt lat="44.5009" lon="3.75692">
        <ele>1181.733</ele>
        <time>2016-05-04T15:28:13Z</time>
      </trkpt>
      <trkpt lat="44.50098" lon="3.75672">
        <ele>1181.359</ele>
        <time>2016-05-05T06:35:49Z</time>
      </trkpt>
      <trkpt lat="44.50075" lon="3.75657">
        <ele>1175.756</ele>
        <time>2016-05-05T06:35:55Z</time>
      </trkpt>
      <trkpt lat="44.50068" lon="3.75636">
        <ele>1173.364</ele>
        <time>2016-05-05T06:35:58Z</time>
      </trkpt>
      <trkpt lat="44.50067" lon="3.75627">
        <ele>1172.894</ele>
        <time>2016-05-05T06:35:59Z</time>
      </trkpt>
      <trkpt lat="44.50062" lon="3.75606">
        <ele>1171.229</ele>
        <time>2016-05-05T06:36:01Z</time>
      </trkpt>
      <trkpt lat="44.50049" lon="3.7559">
        <ele>1168.507</ele>
        <time>2016-05-05T06:36:03Z</time>
      </trkpt>
      <trkpt lat="44.49988" lon="3.75534">
        <ele>1163.291</ele>
        <time>2016-05-05T06:36:12Z</time>
      </trkpt>
      <trkpt lat="44.49986" lon="3.75404">
        <ele>1163.13</ele>
        <time>2016-05-05T06:37:01Z</time>
      </trkpt>
      <trkpt lat="44.49998" lon="3.7532">
        <ele>1161.1</ele>
        <time>2016-05-05T06:37:12Z</time>
      </trkpt>
      <trkpt lat="44.49929" lon="3.75247">
        <ele>1162.608</ele>
        <time>2016-05-05T06:37:33Z</time>
      </trkpt>
      <trkpt lat="44.49838" lon="3.7525">
        <ele>1163.349</ele>
        <time>2016-05-05T06:38:00Z</time>
      </trkpt>
      <trkpt lat="44.49808" lon="3.75224">
        <ele>1166.287</ele>
        <time>2016-05-05T06:38:15Z</time>
      </trkpt>
      <trkpt lat="44.49764" lon="3.75156">
        <ele>1167.52</ele>
        <time>2016-05-05T06:38:40Z</time>
      </trkpt>
      <trkpt lat="44.49731" lon="3.75116">
        <ele>1164.867</ele>
        <time>2016-05-05T06:38:50Z</time>
      </trkpt>
      <trkpt lat="44.49722" lon="3.75049">
        <ele>1162.677</ele>
        <time>2016-05-05T06:38:59Z</time>
      </trkpt>
      <trkpt lat="44.49702" lon="3.75015">
        <ele>1159.523</ele>
        <time>2016-05-05T06:39:03Z</time>
      </trkpt>
      <trkpt lat="44.49582" lon="3.74888">
        <ele>1146.781</ele>
        <time>2016-05-05T06:39:20Z</time>
      </trkpt>
      <trkpt lat="44.49519" lon="3.74802">
        <ele>1144.217</ele>
        <time>2016-05-05T06:39:30Z</time>
      </trkpt>
      <trkpt lat="44.49506" lon="3.74776">
        <ele>1142.643</ele>
        <time>2016-05-05T06:39:35Z</time>
      </trkpt>
      <trkpt lat="44.4946" lon="3.74714">
        <ele>1137.574</ele>
        <time>2016-05-05T06:39:47Z</time>
      </trkpt>
      <trkpt lat="44.49434" lon="3.74695">
        <ele>1134.925</ele>
        <time>2016-05-05T06:39:51Z</time>
      </trkpt>
      <trkpt lat="44.49422" lon="3.7468">
        <ele>1133.408</ele>
        <time>2016-05-05T06:39:53Z</time>
      </trkpt>
      <trkpt lat="44.49367" lon="3.74507">
        <ele>1124.856</ele>
        <time>2016-05-05T06:40:36Z</time>
      </trkpt>
      <trkpt lat="44.493" lon="3.74373">
        <ele>1112.037</ele>
        <time>2016-05-05T06:41:19Z</time>
      </trkpt>
      <trkpt lat="44.49228" lon="3.74279">
        <ele>1106.465</ele>
        <time>2016-05-05T06:41:45Z</time>
      </trkpt>
      <trkpt lat="44.49184" lon="3.74197">
        <ele>1096.699</ele>
        <time>2016-05-05T06:42:15Z</time>
      </trkpt>
      <trkpt lat="44.49175" lon="3.74187">
        <ele>1094.041</ele>
        <time>2016-05-05T06:42:34Z</time>
      </trkpt>
      <trkpt lat="44.49168" lon="3.74175">
        <ele>1091.059</ele>
        <time>2016-05-05T06:42:41Z</time>
      </trkpt>
      <trkpt lat="44.49158" lon="3.74133">
        <ele>1086.197</ele>
        <time>2016-05-05T06:42:53Z</time>
      </trkpt>
      <trkpt lat="44.49142" lon="3.74161">
        <ele>1084.842</ele>
        <time>2016-05-05T06:43:13Z</time>
      </trkpt>
      <trkpt lat="44.49143" lon="3.74232">
        <ele>1086.425</ele>
        <time>2016-05-05T06:44:04Z</time>
      </trkpt>
      <trkpt lat="44.49128" lon="3.74184">
        <ele>1082.882</ele>
        <time>2016-05-05T06:45:02Z</time>
      </trkpt>
      <trkpt lat="44.49118" lon="3.74108">
        <ele>1078.796</ele>
        <time>2016-05-05T06:45:19Z</time>
      </trkpt>
      <trkpt lat="44.49099" lon="3.74073">
        <ele>1076.615</ele>
        <time>2016-05-05T06:45:27Z</time>
      </trkpt>
      <trkpt lat="44.49029" lon="3.73986">
        <ele>1073.246</ele>
        <time>2016-05-05T06:45:48Z</time>
      </trkpt>
      <trkpt lat="44.49021" lon="3.7395">
        <ele>1073.21</ele>
        <time>2016-05-05T06:45:56Z</time>
      </trkpt>
      <trkpt lat="44.48927" lon="3.73919">
        <ele>1072.767</ele>
        <time>2016-05-05T06:46:16Z</time>
      </trkpt>
      <trkpt lat="44.48894" lon="3.73821">
        <ele>1072.946</ele>
        <time>2016-05-05T06:46:39Z</time>
      </trkpt>
      <trkpt lat="44.48833" lon="3.73753">
        <ele>1080.441</ele>
        <time>2016-05-05T06:47:23Z</time>
      </trkpt>
      <trkpt lat="44.48792" lon="3.73683">
        <ele>1084.782</ele>
        <time>2016-05-05T06:47:58Z</time>
      </trkpt>
      <trkpt lat="44.4877" lon="3.73653">
        <ele>1086.195</ele>
        <time>2016-05-05T06:48:14Z</time>
      </trkpt>
      <trkpt lat="44.48747" lon="3.73623">
        <ele>1085.854</ele>
        <time>2016-05-05T06:48:32Z</time>
      </trkpt>
      <trkpt lat="44.48713" lon="3.73585">
        <ele>1084.694</ele>
        <time>2016-05-05T06:48:43Z</time>
      </trkpt>
      <trkpt lat="44.48671" lon="3.73553">
        <ele>1082.818</ele>
        <time>2016-05-05T06:48:59Z</time>
      </trkpt>
      <trkpt lat="44.48652" lon="3.73564">
        <ele>1083.845</ele>
        <time>2016-05-05T06:49:49Z</time>
      </trkpt>
      <trkpt lat="44.48634" lon="3.7358">
        <ele>1085.67</ele>
        <time>2016-05-05T06:50:08Z</time>
      </trkpt>
      <trkpt lat="44.4866" lon="3.73596">
        <ele>1089.285</ele>
        <time>2016-05-05T06:50:38Z</time>
      </trkpt>
      <trkpt lat="44.48663" lon="3.7364">
        <ele>1097.245</ele>
        <time>2016-05-05T06:51:11Z</time>
      </trkpt>
      <trkpt lat="44.48685" lon="3.73651">
        <ele>1098</ele>
        <time>2016-05-05T06:51:33Z</time>
      </trkpt>
      <trkpt lat="44.48689" lon="3.73659">
        <ele>1099.034</ele>
        <time>2016-05-05T06:51:46Z</time>
      </trkpt>
      <trkpt lat="44.48665" lon="3.73674">
        <ele>1103.295</ele>
        <time>2016-05-05T06:52:07Z</time>
      </trkpt>
      <trkpt lat="44.4862" lon="3.73727">
        <ele>1110.444</ele>
        <time>2016-05-05T06:52:47Z</time>
      </trkpt>
      <trkpt lat="44.48615" lon="3.73777">
        <ele>1117.099</ele>
        <time>2016-05-05T06:53:20Z</time>
      </trkpt>
      <trkpt lat="44.486" lon="3.73788">
        <ele>1118.227</ele>
        <time>2016-05-05T06:53:33Z</time>
      </trkpt>
      <trkpt lat="44.4859" lon="3.7379">
        <ele>1118.264</ele>
        <time>2016-05-05T06:53:41Z</time>
      </trkpt>
      <trkpt lat="44.48559" lon="3.73814">
        <ele>1119.155</ele>
        <time>2016-05-05T06:54:23Z</time>
      </trkpt>
      <trkpt lat="44.48352" lon="3.74019">
        <ele>1142.213</ele>
        <time>2016-05-05T06:56:29Z</time>
      </trkpt>
      <trkpt lat="44.48329" lon="3.74016">
        <ele>1146.603</ele>
        <time>2016-05-05T06:57:01Z</time>
      </trkpt>
      <trkpt lat="44.48311" lon="3.73974">
        <ele>1148.102</ele>
        <time>2016-05-05T06:57:46Z</time>
      </trkpt>
      <trkpt lat="44.48295" lon="3.73921">
        <ele>1148.84</ele>
        <time>2016-05-05T06:58:32Z</time>
      </trkpt>
      <trkpt lat="44.48284" lon="3.73902">
        <ele>1148.613</ele>
        <time>2016-05-05T06:58:49Z</time>
      </trkpt>
      <trkpt lat="44.48273" lon="3.73893">
        <ele>1148.855</ele>
        <time>2016-05-05T06:59:02Z</time>
      </trkpt>
      <trkpt lat="44.48218" lon="3.73901">
        <ele>1153.937</ele>
        <time>2016-05-05T06:59:40Z</time>
      </trkpt>
      <trkpt lat="44.48144" lon="3.73949">
        <ele>1162.606</ele>
        <time>2016-05-05T07:00:58Z</time>
      </trkpt>
      <trkpt lat="44.48051" lon="3.73981">
        <ele>1171.677</ele>
        <time>2016-05-05T07:02:51Z</time>
      </trkpt>
      <trkpt lat="44.47939" lon="3.74039">
        <ele>1182.956</ele>
        <time>2016-05-05T07:04:06Z</time>
      </trkpt>
      <trkpt lat="44.47845" lon="3.74049">
        <ele>1188.667</ele>
        <time>2016-05-05T07:05:01Z</time>
      </trkpt>
      <trkpt lat="44.47842" lon="3.74048">
        <ele>1188.888</ele>
        <time>2016-05-05T07:05:31Z</time>
      </trkpt>
      <trkpt lat="44.47832" lon="3.74049">
        <ele>1189.754</ele>
        <time>2016-05-05T07:05:35Z</time>
      </trkpt>
      <trkpt lat="44.47814" lon="3.74049">
        <ele>1191.204</ele>
        <time>2016-05-05T07:05:41Z</time>
      </trkpt>
      <trkpt lat="44.4759" lon="3.73997">
        <ele>1191.504</ele>
        <time>2016-05-05T07:07:02Z</time>
      </trkpt>
      <trkpt lat="44.47519" lon="3.73956">
        <ele>1193.873</ele>
        <time>2016-05-05T07:07:43Z</time>
      </trkpt>
      <trkpt lat="44.47485" lon="3.73906">
        <ele>1192.871</ele>
        <time>2016-05-05T07:08:00Z</time>
      </trkpt>
      <trkpt lat="44.47447" lon="3.73863">
        <ele>1190.95</ele>
        <time>2016-05-05T07:08:11Z</time>
      </trkpt>
      <trkpt lat="44.47401" lon="3.73847">
        <ele>1192.67</ele>
        <time>2016-05-05T07:08:25Z</time>
      </trkpt>
      <trkpt lat="44.47396" lon="3.73841">
        <ele>1193.47</ele>
        <time>2016-05-05T07:09:57Z</time>
      </trkpt>
      <trkpt lat="44.47294" lon="3.73837">
        <ele>1208.647</ele>
        <time>2016-05-05T07:11:48Z</time>
      </trkpt>
      <trkpt lat="44.47239" lon="3.73809">
        <ele>1220.602</ele>
        <time>2016-05-05T07:13:10Z</time>
      </trkpt>
      <trkpt lat="44.4724" lon="3.73809">
        <ele>1220.442</ele>
        <time>2016-05-05T07:13:18Z</time>
      </trkpt>
      <trkpt lat="44.47168" lon="3.7382">
        <ele>1230.025</ele>
        <time>2016-05-05T07:14:48Z</time>
      </trkpt>
      <trkpt lat="44.47104" lon="3.73856">
        <ele>1239.377</ele>
        <time>2016-05-05T07:15:39Z</time>
      </trkpt>
      <trkpt lat="44.47082" lon="3.73908">
        <ele>1243.465</ele>
        <time>2016-05-05T07:16:19Z</time>
      </trkpt>
      <trkpt lat="44.47011" lon="3.74021">
        <ele>1253.074</ele>
        <time>2016-05-05T07:17:27Z</time>
      </trkpt>
      <trkpt lat="44.46952" lon="3.74074">
        <ele>1258.473</ele>
        <time>2016-05-05T07:18:14Z</time>
      </trkpt>
      <trkpt lat="44.46899" lon="3.74139">
        <ele>1261.985</ele>
        <time>2016-05-05T07:19:01Z</time>
      </trkpt>
      <trkpt lat="44.46875" lon="3.74166">
        <ele>1265.71</ele>
        <time>2016-05-05T07:19:49Z</time>
      </trkpt>
      <trkpt lat="44.46873" lon="3.74167">
        <ele>1266.205</ele>
        <time>2016-05-05T07:20:57Z</time>
      </trkpt>
      <trkpt lat="44.46849" lon="3.74268">
        <ele>1271.073</ele>
        <time>2016-05-05T07:22:44Z</time>
      </trkpt>
      <trkpt lat="44.46855" lon="3.74287">
        <ele>1270.257</ele>
        <time>2016-05-05T07:22:56Z</time>
      </trkpt>
      <trkpt lat="44.46856" lon="3.74297">
        <ele>1270.471</ele>
        <time>2016-05-05T07:23:03Z</time>
      </trkpt>
      <trkpt lat="44.46862" lon="3.74312">
        <ele>1268.672</ele>
        <time>2016-05-05T07:23:10Z</time>
      </trkpt>
      <trkpt lat="44.46866" lon="3.74334">
        <ele>1269.171</ele>
        <time>2016-05-05T07:23:17Z</time>
      </trkpt>
      <trkpt lat="44.46866" lon="3.7442">
        <ele>1275.979</ele>
        <time>2016-05-05T07:23:47Z</time>
      </trkpt>
      <trkpt lat="44.46809" lon="3.74524">
        <ele>1293.797</ele>
        <time>2016-05-05T07:27:12Z</time>
      </trkpt>
      <trkpt lat="44.4679" lon="3.74545">
        <ele>1297.425</ele>
        <time>2016-05-05T07:27:39Z</time>
      </trkpt>
      <trkpt lat="44.4677" lon="3.74559">
        <ele>1303.094</ele>
        <time>2016-05-05T07:28:27Z</time>
      </trkpt>
      <trkpt lat="44.46711" lon="3.74614">
        <ele>1311.892</ele>
        <time>2016-05-05T07:29:50Z</time>
      </trkpt>
      <trkpt lat="44.46652" lon="3.7465">
        <ele>1322.215</ele>
        <time>2016-05-05T07:31:42Z</time>
      </trkpt>
      <trkpt lat="44.46645" lon="3.7465">
        <ele>1324.176</ele>
        <time>2016-05-05T07:31:50Z</time>
      </trkpt>
      <trkpt lat="44.46581" lon="3.74667">
        <ele>1337.992</ele>
        <time>2016-05-05T07:33:17Z</time>
      </trkpt>
      <trkpt lat="44.46551" lon="3.74707">
        <ele>1335.065</ele>
        <time>2016-05-05T07:34:01Z</time>
      </trkpt>
      <trkpt lat="44.46532" lon="3.74731">
        <ele>1334.364</ele>
        <time>2016-05-05T07:34:44Z</time>
      </trkpt>
      <trkpt lat="44.46513" lon="3.74743">
        <ele>1337.702</ele>
        <time>2016-05-05T07:35:56Z</time>
      </trkpt>
      <trkpt lat="44.46513" lon="3.7475">
        <ele>1336.193</ele>
        <time>2016-05-05T07:37:00Z</time>
      </trkpt>
      <trkpt lat="44.46403" lon="3.74827">
        <ele>1362.133</ele>
        <time>2016-05-05T07:42:09Z</time>
      </trkpt>
      <trkpt lat="44.46358" lon="3.74832">
        <ele>1372.401</ele>
        <time>2016-05-05T07:43:51Z</time>
      </trkpt>
      <trkpt lat="44.46332" lon="3.74833">
        <ele>1377.062</ele>
        <time>2016-05-05T07:44:31Z</time>
      </trkpt>
      <trkpt lat="44.46313" lon="3.74832">
        <ele>1380.304</ele>
        <time>2016-05-05T07:45:12Z</time>
      </trkpt>
      <trkpt lat="44.46261" lon="3.74818">
        <ele>1387.096</ele>
        <time>2016-05-05T07:46:49Z</time>
      </trkpt>
      <trkpt lat="44.46215" lon="3.74802">
        <ele>1394.225</ele>
        <time>2016-05-05T07:47:22Z</time>
      </trkpt>
      <trkpt lat="44.46172" lon="3.74792">
        <ele>1401.529</ele>
        <time>2016-05-05T07:47:55Z</time>
      </trkpt>
      <trkpt lat="44.4608" lon="3.74806">
        <ele>1410.517</ele>
        <time>2016-05-05T07:49:32Z</time>
      </trkpt>
      <trkpt lat="44.45978" lon="3.74841">
        <ele>1409.5</ele>
        <time>2016-05-05T07:50:31Z</time>
      </trkpt>
      <trkpt lat="44.45956" lon="3.74841">
        <ele>1408.242</ele>
        <time>2016-05-05T07:50:40Z</time>
      </trkpt>
      <trkpt lat="44.45871" lon="3.74869">
        <ele>1403.524</ele>
        <time>2016-05-05T07:53:37Z</time>
      </trkpt>
      <trkpt lat="44.45773" lon="3.74911">
        <ele>1403.358</ele>
        <time>2016-05-05T07:53:59Z</time>
      </trkpt>
      <trkpt lat="44.45697" lon="3.7495">
        <ele>1401.862</ele>
        <time>2016-05-05T07:54:14Z</time>
      </trkpt>
      <trkpt lat="44.45397" lon="3.74923">
        <ele>1408.92</ele>
        <time>2016-05-05T07:56:08Z</time>
      </trkpt>
      <trkpt lat="44.45307" lon="3.74876">
        <ele>1413.449</ele>
        <time>2016-05-05T07:56:55Z</time>
      </trkpt>
      <trkpt lat="44.45239" lon="3.74834">
        <ele>1417.128</ele>
        <time>2016-05-05T07:57:20Z</time>
      </trkpt>
      <trkpt lat="44.45208" lon="3.74822">
        <ele>1419.373</ele>
        <time>2016-05-05T07:58:44Z</time>
      </trkpt>
      <trkpt lat="44.45191" lon="3.74779">
        <ele>1421.147</ele>
        <time>2016-05-05T07:59:02Z</time>
      </trkpt>
      <trkpt lat="44.45048" lon="3.74763">
        <ele>1427.843</ele>
        <time>2016-05-05T08:05:33Z</time>
      </trkpt>
      <trkpt lat="44.44994" lon="3.74714">
        <ele>1428.568</ele>
        <time>2016-05-05T08:07:39Z</time>
      </trkpt>
      <trkpt lat="44.44842" lon="3.74673">
        <ele>1435.521</ele>
        <time>2016-05-05T08:09:31Z</time>
      </trkpt>
      <trkpt lat="44.44715" lon="3.74693">
        <ele>1447.164</ele>
        <time>2016-05-05T08:12:15Z</time>
      </trkpt>
      <trkpt lat="44.44533" lon="3.74779">
        <ele>1473.266</ele>
        <time>2016-05-05T08:17:45Z</time>
      </trkpt>
      <trkpt lat="44.44493" lon="3.74813">
        <ele>1478.598</ele>
        <time>2016-05-05T08:19:01Z</time>
      </trkpt>
      <trkpt lat="44.44408" lon="3.74832">
        <ele>1491.229</ele>
        <time>2016-05-05T08:21:10Z</time>
      </trkpt>
      <trkpt lat="44.4433" lon="3.74902">
        <ele>1501.574</ele>
        <time>2016-05-05T08:23:36Z</time>
      </trkpt>
      <trkpt lat="44.44203" lon="3.74954">
        <ele>1514.915</ele>
        <time>2016-05-05T08:27:25Z</time>
      </trkpt>
      <trkpt lat="44.44137" lon="3.74951">
        <ele>1521.33</ele>
        <time>2016-05-05T08:28:51Z</time>
      </trkpt>
      <trkpt lat="44.44085" lon="3.74946">
        <ele>1525.156</ele>
        <time>2016-05-05T08:29:22Z</time>
      </trkpt>
      <trkpt lat="44.4352" lon="3.74919">
        <ele>1563.742</ele>
        <time>2016-05-05T08:39:43Z</time>
      </trkpt>
      <trkpt lat="44.43495" lon="3.74912">
        <ele>1565.169</ele>
        <time>2016-05-05T08:40:36Z</time>
      </trkpt>
      <trkpt lat="44.43325" lon="3.74885">
        <ele>1568.874</ele>
        <time>2016-05-05T08:42:41Z</time>
      </trkpt>
      <trkpt lat="44.4308" lon="3.74946">
        <ele>1594.359</ele>
        <time>2016-05-05T08:49:02Z</time>
      </trkpt>
      <trkpt lat="44.42943" lon="3.75008">
        <ele>1609.83</ele>
        <time>2016-05-05T08:54:25Z</time>
      </trkpt>
      <trkpt lat="44.42853" lon="3.75023">
        <ele>1622.705</ele>
        <time>2016-05-05T08:56:50Z</time>
      </trkpt>
      <trkpt lat="44.42844" lon="3.75028">
        <ele>1623.62</ele>
        <time>2016-05-05T08:57:00Z</time>
      </trkpt>
      <trkpt lat="44.42647" lon="3.75139">
        <ele>1632.64</ele>
        <time>2016-05-05T09:01:08Z</time>
      </trkpt>
      <trkpt lat="44.42644" lon="3.75075">
        <ele>1637.596</ele>
        <time>2016-05-05T09:06:44Z</time>
      </trkpt>
      <trkpt lat="44.42653" lon="3.74928">
        <ele>1654.74</ele>
        <time>2016-05-05T09:08:35Z</time>
      </trkpt>
      <trkpt lat="44.42659" lon="3.74845">
        <ele>1662.695</ele>
        <time>2016-05-05T09:09:35Z</time>
      </trkpt>
      <trkpt lat="44.42676" lon="3.74654">
        <ele>1675.856</ele>
        <time>2016-05-05T09:11:56Z</time>
      </trkpt>
      <trkpt lat="44.42702" lon="3.74577">
        <ele>1680.064</ele>
        <time>2016-05-05T09:12:55Z</time>
      </trkpt>
      <trkpt lat="44.42725" lon="3.7455">
        <ele>1681.545</ele>
        <time>2016-05-05T09:13:23Z</time>
      </trkpt>
      <trkpt lat="44.42742" lon="3.74515">
        <ele>1681.641</ele>
        <time>2016-05-05T09:14:08Z</time>
      </trkpt>
      <trkpt lat="44.42717" lon="3.74468">
        <ele>1680.512</ele>
        <time>2016-05-05T09:15:15Z</time>
      </trkpt>
      <trkpt lat="44.42682" lon="3.74357">
        <ele>1674.287</ele>
        <time>2016-05-05T09:16:36Z</time>
      </trkpt>
      <trkpt lat="44.42616" lon="3.73999">
        <ele>1690.957</ele>
        <time>2016-05-05T09:21:26Z</time>
      </trkpt>
      <trkpt lat="44.42594" lon="3.73916">
        <ele>1692.453</ele>
        <time>2016-05-05T09:25:06Z</time>
      </trkpt>
      <trkpt lat="44.42645" lon="3.73916">
        <ele>1694.368</ele>
        <time>2016-05-05T09:26:38Z</time>
      </trkpt>
      <trkpt lat="44.42637" lon="3.73932">
        <ele>1693.764</ele>
        <time>2016-05-05T09:27:08Z</time>
      </trkpt>
      <trkpt lat="44.42617" lon="3.73961">
        <ele>1692.449</ele>
        <time>2016-05-05T09:27:38Z</time>
      </trkpt>
      <trkpt lat="44.42588" lon="3.7396">
        <ele>1691.396</ele>
        <time>2016-05-05T09:30:21Z</time>
      </trkpt>
      <trkpt lat="44.4261" lon="3.73988">
        <ele>1691.327</ele>
        <time>2016-05-05T09:31:04Z</time>
      </trkpt>
      <trkpt lat="44.42621" lon="3.74032">
        <ele>1689.561</ele>
        <time>2016-05-05T09:34:10Z</time>
      </trkpt>
      <trkpt lat="44.42625" lon="3.74066">
        <ele>1687.583</ele>
        <time>2016-05-05T09:34:36Z</time>
      </trkpt>
      <trkpt lat="44.42635" lon="3.74101">
        <ele>1685.22</ele>
        <time>2016-05-05T09:35:01Z</time>
      </trkpt>
      <trkpt lat="44.42662" lon="3.74266">
        <ele>1675.49</ele>
        <time>2016-05-05T09:36:46Z</time>
      </trkpt>
      <trkpt lat="44.42745" lon="3.74517">
        <ele>1681.516</ele>
        <time>2016-05-05T09:39:55Z</time>
      </trkpt>
      <trkpt lat="44.42688" lon="3.74606">
        <ele>1678.737</ele>
        <time>2016-05-05T09:41:16Z</time>
      </trkpt>
      <trkpt lat="44.4268" lon="3.74637">
        <ele>1676.907</ele>
        <time>2016-05-05T09:41:38Z</time>
      </trkpt>
      <trkpt lat="44.42667" lon="3.74763">
        <ele>1668.193</ele>
        <time>2016-05-05T09:43:02Z</time>
      </trkpt>
      <trkpt lat="44.42654" lon="3.74926">
        <ele>1655</ele>
        <time>2016-05-05T09:44:52Z</time>
      </trkpt>
      <trkpt lat="44.42653" lon="3.74928">
        <ele>1654.83</ele>
        <time>2016-05-05T09:45:16Z</time>
      </trkpt>
      <trkpt lat="44.42652" lon="3.7506">
        <ele>1638.757</ele>
        <time>2016-05-05T09:47:08Z</time>
      </trkpt>
      <trkpt lat="44.4264" lon="3.75128">
        <ele>1633.84</ele>
        <time>2016-05-05T09:54:55Z</time>
      </trkpt>
      <trkpt lat="44.42619" lon="3.75159">
        <ele>1633.422</ele>
        <time>2016-05-05T09:55:05Z</time>
      </trkpt>
      <trkpt lat="44.42576" lon="3.75169">
        <ele>1635.387</ele>
        <time>2016-05-05T09:55:20Z</time>
      </trkpt>
      <trkpt lat="44.42535" lon="3.75159">
        <ele>1634.804</ele>
        <time>2016-05-05T09:55:36Z</time>
      </trkpt>
      <trkpt lat="44.42502" lon="3.75153">
        <ele>1632.684</ele>
        <time>2016-05-05T09:55:46Z</time>
      </trkpt>
      <trkpt lat="44.42481" lon="3.75178">
        <ele>1631.349</ele>
        <time>2016-05-05T09:55:59Z</time>
      </trkpt>
      <trkpt lat="44.42451" lon="3.75152">
        <ele>1626.689</ele>
        <time>2016-05-05T09:56:59Z</time>
      </trkpt>
      <trkpt lat="44.42423" lon="3.75153">
        <ele>1623.154</ele>
        <time>2016-05-05T09:57:11Z</time>
      </trkpt>
      <trkpt lat="44.42367" lon="3.75142">
        <ele>1614.758</ele>
        <time>2016-05-05T09:57:53Z</time>
      </trkpt>
      <trkpt lat="44.42324" lon="3.75144">
        <ele>1608.44</ele>
        <time>2016-05-05T09:58:18Z</time>
      </trkpt>
      <trkpt lat="44.42291" lon="3.75133">
        <ele>1602.335</ele>
        <time>2016-05-05T09:58:43Z</time>
      </trkpt>
      <trkpt lat="44.42179" lon="3.75092">
        <ele>1577.802</ele>
        <time>2016-05-05T09:59:57Z</time>
      </trkpt>
      <trkpt lat="44.42123" lon="3.75084">
        <ele>1565.694</ele>
        <time>2016-05-05T10:01:29Z</time>
      </trkpt>
      <trkpt lat="44.42146" lon="3.75049">
        <ele>1564.785</ele>
        <time>2016-05-05T10:01:55Z</time>
      </trkpt>
      <trkpt lat="44.42155" lon="3.75032">
        <ele>1564.289</ele>
        <time>2016-05-05T10:01:59Z</time>
      </trkpt>
      <trkpt lat="44.42138" lon="3.74988">
        <ele>1559.79</ele>
        <time>2016-05-05T10:02:08Z</time>
      </trkpt>
      <trkpt lat="44.42123" lon="3.74904">
        <ele>1553.726</ele>
        <time>2016-05-05T10:02:58Z</time>
      </trkpt>
      <trkpt lat="44.42144" lon="3.74834">
        <ele>1552.384</ele>
        <time>2016-05-05T10:03:15Z</time>
      </trkpt>
      <trkpt lat="44.42158" lon="3.74743">
        <ele>1553.548</ele>
        <time>2016-05-05T10:03:30Z</time>
      </trkpt>
      <trkpt lat="44.42064" lon="3.74726">
        <ele>1542.329</ele>
        <time>2016-05-05T10:03:54Z</time>
      </trkpt>
      <trkpt lat="44.42054" lon="3.7472">
        <ele>1543.115</ele>
        <time>2016-05-05T10:03:56Z</time>
      </trkpt>
      <trkpt lat="44.42036" lon="3.74716">
        <ele>1542.743</ele>
        <time>2016-05-05T10:03:59Z</time>
      </trkpt>
      <trkpt lat="44.41994" lon="3.74716">
        <ele>1537.921</ele>
        <time>2016-05-05T10:04:05Z</time>
      </trkpt>
      <trkpt lat="44.41923" lon="3.74687">
        <ele>1533.733</ele>
        <time>2016-05-05T10:04:15Z</time>
      </trkpt>
      <trkpt lat="44.41852" lon="3.74674">
        <ele>1528.049</ele>
        <time>2016-05-05T10:04:24Z</time>
      </trkpt>
      <trkpt lat="44.41766" lon="3.74667">
        <ele>1522.418</ele>
        <time>2016-05-05T10:04:34Z</time>
      </trkpt>
      <trkpt lat="44.41652" lon="3.74634">
        <ele>1513.239</ele>
        <time>2016-05-05T10:04:47Z</time>
      </trkpt>
      <trkpt lat="44.41613" lon="3.74624">
        <ele>1509.039</ele>
        <time>2016-05-05T10:04:51Z</time>
      </trkpt>
      <trkpt lat="44.41497" lon="3.74553">
        <ele>1500.378</ele>
        <time>2016-05-05T10:05:05Z</time>
      </trkpt>
      <trkpt lat="44.4144" lon="3.74457">
        <ele>1497.118</ele>
        <time>2016-05-05T10:05:15Z</time>
      </trkpt>
      <trkpt lat="44.41416" lon="3.74378">
        <ele>1492.484</ele>
        <time>2016-05-05T10:05:22Z</time>
      </trkpt>
      <trkpt lat="44.41407" lon="3.74044">
        <ele>1482.893</ele>
        <time>2016-05-05T10:05:51Z</time>
      </trkpt>
      <trkpt lat="44.41432" lon="3.73896">
        <ele>1480.342</ele>
        <time>2016-05-05T10:07:02Z</time>
      </trkpt>
      <trkpt lat="44.41479" lon="3.73781">
        <ele>1476.74</ele>
        <time>2016-05-05T10:07:20Z</time>
      </trkpt>
      <trkpt lat="44.41515" lon="3.737">
        <ele>1472.848</ele>
        <time>2016-05-05T10:07:37Z</time>
      </trkpt>
      <trkpt lat="44.41381" lon="3.7377">
        <ele>1463.218</ele>
        <time>2016-05-05T10:38:39Z</time>
      </trkpt>
      <trkpt lat="44.41309" lon="3.73811">
        <ele>1459.61</ele>
        <time>2016-05-05T10:38:49Z</time>
      </trkpt>
      <trkpt lat="44.41272" lon="3.73878">
        <ele>1453.955</ele>
        <time>2016-05-05T10:39:00Z</time>
      </trkpt>
      <trkpt lat="44.41132" lon="3.73568">
        <ele>1443.423</ele>
        <time>2016-05-05T10:40:46Z</time>
      </trkpt>
      <trkpt lat="44.41071" lon="3.73462">
        <ele>1438.219</ele>
        <time>2016-05-05T10:42:17Z</time>
      </trkpt>
      <trkpt lat="44.41036" lon="3.73411">
        <ele>1433.237</ele>
        <time>2016-05-05T10:42:24Z</time>
      </trkpt>
      <trkpt lat="44.40989" lon="3.73383">
        <ele>1430.165</ele>
        <time>2016-05-05T10:42:30Z</time>
      </trkpt>
      <trkpt lat="44.40861" lon="3.73307">
        <ele>1424.317</ele>
        <time>2016-05-05T10:42:47Z</time>
      </trkpt>
      <trkpt lat="44.40793" lon="3.7321">
        <ele>1420.43</ele>
        <time>2016-05-05T10:43:01Z</time>
      </trkpt>
      <trkpt lat="44.40741" lon="3.73157">
        <ele>1417.908</ele>
        <time>2016-05-05T10:43:10Z</time>
      </trkpt>
      <trkpt lat="44.40631" lon="3.73131">
        <ele>1412.15</ele>
        <time>2016-05-05T10:43:26Z</time>
      </trkpt>
      <trkpt lat="44.40554" lon="3.73133">
        <ele>1406.541</ele>
        <time>2016-05-05T10:43:39Z</time>
      </trkpt>
      <trkpt lat="44.40546" lon="3.72954">
        <ele>1402.155</ele>
        <time>2016-05-05T10:44:13Z</time>
      </trkpt>
      <trkpt lat="44.40499" lon="3.72928">
        <ele>1396.255</ele>
        <time>2016-05-05T10:45:11Z</time>
      </trkpt>
      <trkpt lat="44.40329" lon="3.72881">
        <ele>1367.95</ele>
        <time>2016-05-05T10:48:51Z</time>
      </trkpt>
      <trkpt lat="44.40223" lon="3.72893">
        <ele>1352.855</ele>
        <time>2016-05-05T10:49:41Z</time>
      </trkpt>
      <trkpt lat="44.40213" lon="3.72897">
        <ele>1351.754</ele>
        <time>2016-05-05T10:49:43Z</time>
      </trkpt>
      <trkpt lat="44.40197" lon="3.72909">
        <ele>1349.477</ele>
        <time>2016-05-05T10:49:47Z</time>
      </trkpt>
      <trkpt lat="44.40198" lon="3.73002">
        <ele>1341.514</ele>
        <time>2016-05-05T10:50:03Z</time>
      </trkpt>
      <trkpt lat="44.40209" lon="3.73081">
        <ele>1332.274</ele>
        <time>2016-05-05T10:50:21Z</time>
      </trkpt>
      <trkpt lat="44.40201" lon="3.73114">
        <ele>1329.056</ele>
        <time>2016-05-05T10:50:26Z</time>
      </trkpt>
      <trkpt lat="44.40177" lon="3.73231">
        <ele>1327.156</ele>
        <time>2016-05-05T10:50:41Z</time>
      </trkpt>
      <trkpt lat="44.40149" lon="3.73305">
        <ele>1318.993</ele>
        <time>2016-05-05T10:50:49Z</time>
      </trkpt>
      <trkpt lat="44.40133" lon="3.73441">
        <ele>1305.657</ele>
        <time>2016-05-05T10:51:04Z</time>
      </trkpt>
      <trkpt lat="44.40157" lon="3.73542">
        <ele>1301.454</ele>
        <time>2016-05-05T10:51:16Z</time>
      </trkpt>
      <trkpt lat="44.40155" lon="3.73627">
        <ele>1295.279</ele>
        <time>2016-05-05T10:51:23Z</time>
      </trkpt>
      <trkpt lat="44.40157" lon="3.73758">
        <ele>1288.633</ele>
        <time>2016-05-05T10:51:34Z</time>
      </trkpt>
      <trkpt lat="44.4019" lon="3.73947">
        <ele>1270.15</ele>
        <time>2016-05-05T10:51:55Z</time>
      </trkpt>
      <trkpt lat="44.40216" lon="3.74051">
        <ele>1260.542</ele>
        <time>2016-05-05T10:52:04Z</time>
      </trkpt>
      <trkpt lat="44.40262" lon="3.74091">
        <ele>1258.338</ele>
        <time>2016-05-05T10:53:19Z</time>
      </trkpt>
      <trkpt lat="44.40299" lon="3.7416">
        <ele>1251.158</ele>
        <time>2016-05-05T10:53:28Z</time>
      </trkpt>
      <trkpt lat="44.40366" lon="3.74263">
        <ele>1244.761</ele>
        <time>2016-05-05T10:53:40Z</time>
      </trkpt>
      <trkpt lat="44.40405" lon="3.74294">
        <ele>1247.965</ele>
        <time>2016-05-05T10:54:18Z</time>
      </trkpt>
      <trkpt lat="44.40412" lon="3.74302">
        <ele>1248.447</ele>
        <time>2016-05-05T10:54:20Z</time>
      </trkpt>
      <trkpt lat="44.40419" lon="3.74312">
        <ele>1248.492</ele>
        <time>2016-05-05T10:54:22Z</time>
      </trkpt>
      <trkpt lat="44.40427" lon="3.74333">
        <ele>1247.558</ele>
        <time>2016-05-05T10:54:25Z</time>
      </trkpt>
      <trkpt lat="44.40424" lon="3.7441">
        <ele>1240.024</ele>
        <time>2016-05-05T10:54:35Z</time>
      </trkpt>
      <trkpt lat="44.40408" lon="3.74428">
        <ele>1237.154</ele>
        <time>2016-05-05T10:54:40Z</time>
      </trkpt>
      <trkpt lat="44.40418" lon="3.74481">
        <ele>1235.724</ele>
        <time>2016-05-05T10:54:49Z</time>
      </trkpt>
      <trkpt lat="44.40408" lon="3.74507">
        <ele>1233.236</ele>
        <time>2016-05-05T10:54:55Z</time>
      </trkpt>
      <trkpt lat="44.40365" lon="3.74532">
        <ele>1225.225</ele>
        <time>2016-05-05T10:55:16Z</time>
      </trkpt>
      <trkpt lat="44.40197" lon="3.74433">
        <ele>1212.425</ele>
        <time>2016-05-05T10:57:17Z</time>
      </trkpt>
      <trkpt lat="44.40132" lon="3.74434">
        <ele>1204.679</ele>
        <time>2016-05-05T10:57:25Z</time>
      </trkpt>
      <trkpt lat="44.401" lon="3.74426">
        <ele>1201.529</ele>
        <time>2016-05-05T10:57:29Z</time>
      </trkpt>
      <trkpt lat="44.40079" lon="3.74383">
        <ele>1202.238</ele>
        <time>2016-05-05T10:57:36Z</time>
      </trkpt>
      <trkpt lat="44.40024" lon="3.74366">
        <ele>1200.005</ele>
        <time>2016-05-05T10:57:46Z</time>
      </trkpt>
      <trkpt lat="44.40011" lon="3.7442">
        <ele>1195.213</ele>
        <time>2016-05-05T10:57:59Z</time>
      </trkpt>
      <trkpt lat="44.39991" lon="3.74439">
        <ele>1193.547</ele>
        <time>2016-05-05T10:58:03Z</time>
      </trkpt>
      <trkpt lat="44.39876" lon="3.74453">
        <ele>1190.934</ele>
        <time>2016-05-05T10:58:22Z</time>
      </trkpt>
      <trkpt lat="44.39851" lon="3.74444">
        <ele>1191.124</ele>
        <time>2016-05-05T10:58:28Z</time>
      </trkpt>
      <trkpt lat="44.3979" lon="3.74451">
        <ele>1190.108</ele>
        <time>2016-05-05T10:58:40Z</time>
      </trkpt>
      <trkpt lat="44.39746" lon="3.74513">
        <ele>1184.081</ele>
        <time>2016-05-05T10:58:53Z</time>
      </trkpt>
      <trkpt lat="44.39628" lon="3.7451">
        <ele>1181.049</ele>
        <time>2016-05-05T10:59:17Z</time>
      </trkpt>
      <trkpt lat="44.39495" lon="3.74538">
        <ele>1169.697</ele>
        <time>2016-05-05T10:59:46Z</time>
      </trkpt>
      <trkpt lat="44.39412" lon="3.74591">
        <ele>1165.988</ele>
        <time>2016-05-05T11:00:26Z</time>
      </trkpt>
      <trkpt lat="44.39378" lon="3.7462">
        <ele>1163.715</ele>
        <time>2016-05-05T11:00:33Z</time>
      </trkpt>
      <trkpt lat="44.39356" lon="3.74577">
        <ele>1161.762</ele>
        <time>2016-05-05T11:00:40Z</time>
      </trkpt>
      <trkpt lat="44.39357" lon="3.74548">
        <ele>1158.517</ele>
        <time>2016-05-05T11:00:44Z</time>
      </trkpt>
      <trkpt lat="44.39363" lon="3.7453">
        <ele>1157.15</ele>
        <time>2016-05-05T11:00:47Z</time>
      </trkpt>
      <trkpt lat="44.39372" lon="3.745">
        <ele>1154.902</ele>
        <time>2016-05-05T11:00:52Z</time>
      </trkpt>
      <trkpt lat="44.39391" lon="3.7443">
        <ele>1150.804</ele>
        <time>2016-05-05T11:01:00Z</time>
      </trkpt>
      <trkpt lat="44.39348" lon="3.74357">
        <ele>1149.153</ele>
        <time>2016-05-05T11:01:16Z</time>
      </trkpt>
      <trkpt lat="44.39311" lon="3.74347">
        <ele>1147.902</ele>
        <time>2016-05-05T11:01:30Z</time>
      </trkpt>
      <trkpt lat="44.3925" lon="3.74353">
        <ele>1144.369</ele>
        <time>2016-05-05T11:01:42Z</time>
      </trkpt>
      <trkpt lat="44.39225" lon="3.74357">
        <ele>1142.714</ele>
        <time>2016-05-05T11:01:46Z</time>
      </trkpt>
      <trkpt lat="44.39219" lon="3.74356">
        <ele>1142.284</ele>
        <time>2016-05-05T11:01:47Z</time>
      </trkpt>
      <trkpt lat="44.39191" lon="3.74312">
        <ele>1141.413</ele>
        <time>2016-05-05T11:01:57Z</time>
      </trkpt>
      <trkpt lat="44.3916" lon="3.74301">
        <ele>1142.537</ele>
        <time>2016-05-05T11:02:05Z</time>
      </trkpt>
      <trkpt lat="44.39055" lon="3.74371">
        <ele>1134.729</ele>
        <time>2016-05-05T11:02:25Z</time>
      </trkpt>
      <trkpt lat="44.38985" lon="3.74441">
        <ele>1135.765</ele>
        <time>2016-05-05T11:02:42Z</time>
      </trkpt>
      <trkpt lat="44.38909" lon="3.74478">
        <ele>1139.307</ele>
        <time>2016-05-05T11:03:12Z</time>
      </trkpt>
      <trkpt lat="44.38882" lon="3.74476">
        <ele>1138.291</ele>
        <time>2016-05-05T11:03:20Z</time>
      </trkpt>
      <trkpt lat="44.38752" lon="3.74498">
        <ele>1132.983</ele>
        <time>2016-05-05T11:03:45Z</time>
      </trkpt>
      <trkpt lat="44.38673" lon="3.74547">
        <ele>1131.216</ele>
        <time>2016-05-05T11:04:00Z</time>
      </trkpt>
      <trkpt lat="44.38668" lon="3.74547">
        <ele>1131.079</ele>
        <time>2016-05-05T11:04:01Z</time>
      </trkpt>
      <trkpt lat="44.38598" lon="3.7452">
        <ele>1129.229</ele>
        <time>2016-05-05T11:04:14Z</time>
      </trkpt>
      <trkpt lat="44.38551" lon="3.74472">
        <ele>1125.933</ele>
        <time>2016-05-05T11:04:24Z</time>
      </trkpt>
      <trkpt lat="44.38542" lon="3.74468">
        <ele>1125.392</ele>
        <time>2016-05-05T11:04:26Z</time>
      </trkpt>
      <trkpt lat="44.38435" lon="3.74475">
        <ele>1119.705</ele>
        <time>2016-05-05T11:04:46Z</time>
      </trkpt>
      <trkpt lat="44.38429" lon="3.74469">
        <ele>1120.127</ele>
        <time>2016-05-05T11:04:49Z</time>
      </trkpt>
      <trkpt lat="44.38422" lon="3.74465">
        <ele>1120.284</ele>
        <time>2016-05-05T11:05:06Z</time>
      </trkpt>
      <trkpt lat="44.38323" lon="3.74444">
        <ele>1117.179</ele>
        <time>2016-05-05T11:05:27Z</time>
      </trkpt>
      <trkpt lat="44.38228" lon="3.7452">
        <ele>1108.769</ele>
        <time>2016-05-05T11:05:47Z</time>
      </trkpt>
      <trkpt lat="44.38197" lon="3.74513">
        <ele>1107.839</ele>
        <time>2016-05-05T11:05:53Z</time>
      </trkpt>
      <trkpt lat="44.38082" lon="3.74466">
        <ele>1103.289</ele>
        <time>2016-05-05T11:06:16Z</time>
      </trkpt>
      <trkpt lat="44.38063" lon="3.74487">
        <ele>1101.405</ele>
        <time>2016-05-05T11:06:23Z</time>
      </trkpt>
      <trkpt lat="44.38044" lon="3.74447">
        <ele>1100.142</ele>
        <time>2016-05-05T11:06:34Z</time>
      </trkpt>
      <trkpt lat="44.37908" lon="3.74449">
        <ele>1094.518</ele>
        <time>2016-05-05T11:08:11Z</time>
      </trkpt>
      <trkpt lat="44.37869" lon="3.7441">
        <ele>1098.723</ele>
        <time>2016-05-05T11:09:35Z</time>
      </trkpt>
      <trkpt lat="44.37838" lon="3.74322">
        <ele>1107.52</ele>
        <time>2016-05-05T11:11:54Z</time>
      </trkpt>
      <trkpt lat="44.37833" lon="3.7432">
        <ele>1107.508</ele>
        <time>2016-05-05T11:12:25Z</time>
      </trkpt>
      <trkpt lat="44.37794" lon="3.74324">
        <ele>1107.311</ele>
        <time>2016-05-05T11:12:40Z</time>
      </trkpt>
      <trkpt lat="44.37773" lon="3.74347">
        <ele>1106.098</ele>
        <time>2016-05-05T11:12:47Z</time>
      </trkpt>
      <trkpt lat="44.37749" lon="3.74381">
        <ele>1105.489</ele>
        <time>2016-05-05T11:12:55Z</time>
      </trkpt>
      <trkpt lat="44.37708" lon="3.74369">
        <ele>1106.4</ele>
        <time>2016-05-05T11:13:39Z</time>
      </trkpt>
      <trkpt lat="44.37629" lon="3.74362">
        <ele>1100.386</ele>
        <time>2016-05-05T11:13:59Z</time>
      </trkpt>
      <trkpt lat="44.37584" lon="3.74276">
        <ele>1089.698</ele>
        <time>2016-05-05T11:15:25Z</time>
      </trkpt>
      <trkpt lat="44.37576" lon="3.74255">
        <ele>1090.431</ele>
        <time>2016-05-05T11:15:53Z</time>
      </trkpt>
      <trkpt lat="44.37515" lon="3.74295">
        <ele>1086.583</ele>
        <time>2016-05-05T11:17:21Z</time>
      </trkpt>
      <trkpt lat="44.37431" lon="3.74365">
        <ele>1084.761</ele>
        <time>2016-05-05T11:18:09Z</time>
      </trkpt>
      <trkpt lat="44.37401" lon="3.74446">
        <ele>1079.363</ele>
        <time>2016-05-05T11:18:57Z</time>
      </trkpt>
      <trkpt lat="44.37393" lon="3.74465">
        <ele>1078.301</ele>
        <time>2016-05-05T11:19:02Z</time>
      </trkpt>
      <trkpt lat="44.37358" lon="3.7451">
        <ele>1077.116</ele>
        <time>2016-05-05T11:19:14Z</time>
      </trkpt>
      <trkpt lat="44.37314" lon="3.74529">
        <ele>1074.636</ele>
        <time>2016-05-05T11:20:51Z</time>
      </trkpt>
      <trkpt lat="44.37257" lon="3.74526">
        <ele>1064.215</ele>
        <time>2016-05-05T11:23:34Z</time>
      </trkpt>
      <trkpt lat="44.37235" lon="3.74555">
        <ele>1058.142</ele>
        <time>2016-05-05T11:24:27Z</time>
      </trkpt>
      <trkpt lat="44.37233" lon="3.74561">
        <ele>1057.522</ele>
        <time>2016-05-05T11:24:29Z</time>
      </trkpt>
      <trkpt lat="44.37228" lon="3.74569">
        <ele>1056.501</ele>
        <time>2016-05-05T11:24:31Z</time>
      </trkpt>
      <trkpt lat="44.37191" lon="3.74608">
        <ele>1046.843</ele>
        <time>2016-05-05T11:24:54Z</time>
      </trkpt>
      <trkpt lat="44.37138" lon="3.7461">
        <ele>1035.666</ele>
        <time>2016-05-05T11:26:40Z</time>
      </trkpt>
      <trkpt lat="44.37129" lon="3.74623">
        <ele>1032.584</ele>
        <time>2016-05-05T11:27:04Z</time>
      </trkpt>
      <trkpt lat="44.37121" lon="3.74607">
        <ele>1031.093</ele>
        <time>2016-05-05T11:27:34Z</time>
      </trkpt>
      <trkpt lat="44.37109" lon="3.74614">
        <ele>1027.182</ele>
        <time>2016-05-05T11:27:56Z</time>
      </trkpt>
      <trkpt lat="44.37099" lon="3.74617">
        <ele>1024.29</ele>
        <time>2016-05-05T11:28:09Z</time>
      </trkpt>
      <trkpt lat="44.37087" lon="3.74616">
        <ele>1021.323</ele>
        <time>2016-05-05T11:28:14Z</time>
      </trkpt>
      <trkpt lat="44.37106" lon="3.74551">
        <ele>1025.169</ele>
        <time>2016-05-05T11:28:46Z</time>
      </trkpt>
      <trkpt lat="44.3711" lon="3.74507">
        <ele>1022.235</ele>
        <time>2016-05-05T11:29:08Z</time>
      </trkpt>
      <trkpt lat="44.37004" lon="3.74487">
        <ele>996.076</ele>
        <time>2016-05-05T11:30:11Z</time>
      </trkpt>
      <trkpt lat="44.36976" lon="3.74494">
        <ele>985.615</ele>
        <time>2016-05-05T11:30:30Z</time>
      </trkpt>
      <trkpt lat="44.36976" lon="3.74508">
        <ele>980.344</ele>
        <time>2016-05-05T11:30:56Z</time>
      </trkpt>
      <trkpt lat="44.3697" lon="3.74512">
        <ele>977.609</ele>
        <time>2016-05-05T11:31:01Z</time>
      </trkpt>
      <trkpt lat="44.36937" lon="3.745">
        <ele>973.762</ele>
        <time>2016-05-05T11:31:36Z</time>
      </trkpt>
      <trkpt lat="44.36925" lon="3.74499">
        <ele>971.468</ele>
        <time>2016-05-05T11:31:41Z</time>
      </trkpt>
      <trkpt lat="44.36834" lon="3.74449">
        <ele>957.099</ele>
        <time>2016-05-05T11:33:13Z</time>
      </trkpt>
      <trkpt lat="44.36779" lon="3.74434">
        <ele>942.171</ele>
        <time>2016-05-05T11:34:24Z</time>
      </trkpt>
      <trkpt lat="44.36771" lon="3.7443">
        <ele>940.5</ele>
        <time>2016-05-05T11:34:27Z</time>
      </trkpt>
      <trkpt lat="44.36753" lon="3.74401">
        <ele>944.412</ele>
        <time>2016-05-05T11:34:58Z</time>
      </trkpt>
      <trkpt lat="44.36663" lon="3.74438">
        <ele>922.022</ele>
        <time>2016-05-05T11:36:54Z</time>
      </trkpt>
      <trkpt lat="44.36624" lon="3.74431">
        <ele>921.177</ele>
        <time>2016-05-05T11:37:11Z</time>
      </trkpt>
      <trkpt lat="44.36603" lon="3.74439">
        <ele>916.665</ele>
        <time>2016-05-05T11:37:55Z</time>
      </trkpt>
      <trkpt lat="44.36574" lon="3.74439">
        <ele>911.36</ele>
        <time>2016-05-05T11:38:33Z</time>
      </trkpt>
      <trkpt lat="44.36497" lon="3.74405">
        <ele>904.472</ele>
        <time>2016-05-05T11:40:32Z</time>
      </trkpt>
      <trkpt lat="44.36459" lon="3.74412">
        <ele>893.558</ele>
        <time>2016-05-05T11:40:46Z</time>
      </trkpt>
      <trkpt lat="44.3643" lon="3.74371">
        <ele>894.015</ele>
        <time>2016-05-05T11:41:02Z</time>
      </trkpt>
      <trkpt lat="44.364" lon="3.74384">
        <ele>884.948</ele>
        <time>2016-05-05T11:41:15Z</time>
      </trkpt>
      <trkpt lat="44.36381" lon="3.74331">
        <ele>883.223</ele>
        <time>2016-05-05T11:41:33Z</time>
      </trkpt>
      <trkpt lat="44.36372" lon="3.74334">
        <ele>882.226</ele>
        <time>2016-05-05T11:41:36Z</time>
      </trkpt>
      <trkpt lat="44.36336" lon="3.74359">
        <ele>879.512</ele>
        <time>2016-05-05T11:42:13Z</time>
      </trkpt>
      <trkpt lat="44.36286" lon="3.74348">
        <ele>879.871</ele>
        <time>2016-05-05T11:59:44Z</time>
      </trkpt>
      <trkpt lat="44.36277" lon="3.74362">
        <ele>880.476</ele>
        <time>2016-05-05T12:01:14Z</time>
      </trkpt>
      <trkpt lat="44.36256" lon="3.74338">
        <ele>885.438</ele>
        <time>2016-05-05T12:01:49Z</time>
      </trkpt>
      <trkpt lat="44.36236" lon="3.74357">
        <ele>888.625</ele>
        <time>2016-05-05T12:03:32Z</time>
      </trkpt>
      <trkpt lat="44.36241" lon="3.74284">
        <ele>898.615</ele>
        <time>2016-05-05T12:05:31Z</time>
      </trkpt>
      <trkpt lat="44.36207" lon="3.74326">
        <ele>903.887</ele>
        <time>2016-05-05T12:06:33Z</time>
      </trkpt>
      <trkpt lat="44.36192" lon="3.7435">
        <ele>904.232</ele>
        <time>2016-05-05T12:07:15Z</time>
      </trkpt>
      <trkpt lat="44.36167" lon="3.74372">
        <ele>906.356</ele>
        <time>2016-05-05T12:08:32Z</time>
      </trkpt>
      <trkpt lat="44.3609" lon="3.74383">
        <ele>918.648</ele>
        <time>2016-05-05T12:10:16Z</time>
      </trkpt>
      <trkpt lat="44.36073" lon="3.74364">
        <ele>927.193</ele>
        <time>2016-05-05T12:10:50Z</time>
      </trkpt>
      <trkpt lat="44.36088" lon="3.74368">
        <ele>924.186</ele>
        <time>2016-05-05T12:11:24Z</time>
      </trkpt>
      <trkpt lat="44.36098" lon="3.74333">
        <ele>934.698</ele>
        <time>2016-05-05T12:12:01Z</time>
      </trkpt>
      <trkpt lat="44.36093" lon="3.74331">
        <ele>935.976</ele>
        <time>2016-05-05T12:12:10Z</time>
      </trkpt>
      <trkpt lat="44.3609" lon="3.74325">
        <ele>938.335</ele>
        <time>2016-05-05T12:12:27Z</time>
      </trkpt>
      <trkpt lat="44.36105" lon="3.74302">
        <ele>943.339</ele>
        <time>2016-05-05T12:13:39Z</time>
      </trkpt>
      <trkpt lat="44.36089" lon="3.74297">
        <ele>947.269</ele>
        <time>2016-05-05T12:14:11Z</time>
      </trkpt>
      <trkpt lat="44.3609" lon="3.74291">
        <ele>949.108</ele>
        <time>2016-05-05T12:14:18Z</time>
      </trkpt>
      <trkpt lat="44.36111" lon="3.74257">
        <ele>956.034</ele>
        <time>2016-05-05T12:15:37Z</time>
      </trkpt>
      <trkpt lat="44.36174" lon="3.74101">
        <ele>978.025</ele>
        <time>2016-05-05T12:21:51Z</time>
      </trkpt>
      <trkpt lat="44.36051" lon="3.74153">
        <ele>997.754</ele>
        <time>2016-05-05T12:26:07Z</time>
      </trkpt>
      <trkpt lat="44.35957" lon="3.74135">
        <ele>1010.367</ele>
        <time>2016-05-05T12:28:52Z</time>
      </trkpt>
      <trkpt lat="44.35902" lon="3.74094">
        <ele>1028.219</ele>
        <time>2016-05-05T12:31:33Z</time>
      </trkpt>
      <trkpt lat="44.35792" lon="3.74031">
        <ele>1049.298</ele>
        <time>2016-05-05T12:35:29Z</time>
      </trkpt>
      <trkpt lat="44.35747" lon="3.74053">
        <ele>1053.396</ele>
        <time>2016-05-05T12:37:19Z</time>
      </trkpt>
      <trkpt lat="44.35706" lon="3.7406">
        <ele>1061.75</ele>
        <time>2016-05-05T12:38:42Z</time>
      </trkpt>
      <trkpt lat="44.35704" lon="3.74059">
        <ele>1062.418</ele>
        <time>2016-05-05T12:39:00Z</time>
      </trkpt>
      <trkpt lat="44.35704" lon="3.74059">
        <ele>1062.636</ele>
        <time>2016-05-05T12:39:19Z</time>
      </trkpt>
      <trkpt lat="44.35686" lon="3.7406">
        <ele>1065.677</ele>
        <time>2016-05-05T12:40:00Z</time>
      </trkpt>
      <trkpt lat="44.35686" lon="3.74055">
        <ele>1067.548</ele>
        <time>2016-05-05T12:40:06Z</time>
      </trkpt>
      <trkpt lat="44.35705" lon="3.74036">
        <ele>1070.923</ele>
        <time>2016-05-05T12:40:57Z</time>
      </trkpt>
      <trkpt lat="44.35549" lon="3.74059">
        <ele>1093.475</ele>
        <time>2016-05-05T12:48:50Z</time>
      </trkpt>
      <trkpt lat="44.35481" lon="3.74045">
        <ele>1100.837</ele>
        <time>2016-05-05T12:51:16Z</time>
      </trkpt>
      <trkpt lat="44.35405" lon="3.74043">
        <ele>1100.871</ele>
        <time>2016-05-05T12:51:48Z</time>
      </trkpt>
      <trkpt lat="44.35381" lon="3.74027">
        <ele>1100.966</ele>
        <time>2016-05-05T12:51:58Z</time>
      </trkpt>
      <trkpt lat="44.35188" lon="3.73911">
        <ele>1107.176</ele>
        <time>2016-05-05T12:56:30Z</time>
      </trkpt>
      <trkpt lat="44.3502" lon="3.73765">
        <ele>1105.175</ele>
        <time>2016-05-05T12:58:50Z</time>
      </trkpt>
      <trkpt lat="44.34963" lon="3.73734">
        <ele>1104.384</ele>
        <time>2016-05-05T12:59:36Z</time>
      </trkpt>
      <trkpt lat="44.34839" lon="3.73685">
        <ele>1101.325</ele>
        <time>2016-05-05T13:00:15Z</time>
      </trkpt>
      <trkpt lat="44.34788" lon="3.73688">
        <ele>1101.254</ele>
        <time>2016-05-05T13:00:30Z</time>
      </trkpt>
      <trkpt lat="44.34723" lon="3.7368">
        <ele>1101.471</ele>
        <time>2016-05-05T13:00:50Z</time>
      </trkpt>
      <trkpt lat="44.34629" lon="3.73771">
        <ele>1100.595</ele>
        <time>2016-05-05T13:01:21Z</time>
      </trkpt>
      <trkpt lat="44.34619" lon="3.73776">
        <ele>1100.355</ele>
        <time>2016-05-05T13:01:23Z</time>
      </trkpt>
      <trkpt lat="44.34486" lon="3.73753">
        <ele>1101.96</ele>
        <time>2016-05-05T13:02:16Z</time>
      </trkpt>
      <trkpt lat="44.34399" lon="3.73787">
        <ele>1101.478</ele>
        <time>2016-05-05T13:02:54Z</time>
      </trkpt>
      <trkpt lat="44.3428" lon="3.73783">
        <ele>1100.381</ele>
        <time>2016-05-05T13:03:19Z</time>
      </trkpt>
      <trkpt lat="44.34239" lon="3.73743">
        <ele>1096.457</ele>
        <time>2016-05-05T13:04:17Z</time>
      </trkpt>
      <trkpt lat="44.34198" lon="3.7379">
        <ele>1095.232</ele>
        <time>2016-05-05T13:05:02Z</time>
      </trkpt>
      <trkpt lat="44.34196" lon="3.73861">
        <ele>1095.234</ele>
        <time>2016-05-05T13:05:19Z</time>
      </trkpt>
      <trkpt lat="44.34168" lon="3.73934">
        <ele>1089.917</ele>
        <time>2016-05-05T13:05:38Z</time>
      </trkpt>
      <trkpt lat="44.34154" lon="3.73967">
        <ele>1087.675</ele>
        <time>2016-05-05T13:05:44Z</time>
      </trkpt>
      <trkpt lat="44.34095" lon="3.74038">
        <ele>1075.603</ele>
        <time>2016-05-05T13:07:46Z</time>
      </trkpt>
      <trkpt lat="44.34058" lon="3.74113">
        <ele>1070.495</ele>
        <time>2016-05-05T13:08:04Z</time>
      </trkpt>
      <trkpt lat="44.34054" lon="3.74118">
        <ele>1069.648</ele>
        <time>2016-05-05T13:08:09Z</time>
      </trkpt>
      <trkpt lat="44.34028" lon="3.74221">
        <ele>1055.854</ele>
        <time>2016-05-05T13:08:40Z</time>
      </trkpt>
      <trkpt lat="44.34002" lon="3.74178">
        <ele>1051.588</ele>
        <time>2016-05-05T13:08:53Z</time>
      </trkpt>
      <trkpt lat="44.33974" lon="3.74144">
        <ele>1045.088</ele>
        <time>2016-05-05T13:09:56Z</time>
      </trkpt>
      <trkpt lat="44.33936" lon="3.74186">
        <ele>1039.263</ele>
        <time>2016-05-05T13:10:15Z</time>
      </trkpt>
      <trkpt lat="44.33883" lon="3.74302">
        <ele>1020.784</ele>
        <time>2016-05-05T13:10:56Z</time>
      </trkpt>
      <trkpt lat="44.33884" lon="3.74309">
        <ele>1018.7</ele>
        <time>2016-05-05T13:14:06Z</time>
      </trkpt>
      <trkpt lat="44.33847" lon="3.74323">
        <ele>1017.906</ele>
        <time>2016-05-05T13:14:32Z</time>
      </trkpt>
      <trkpt lat="44.33817" lon="3.7432">
        <ele>1019.536</ele>
        <time>2016-05-05T13:14:42Z</time>
      </trkpt>
      <trkpt lat="44.33809" lon="3.74341">
        <ele>1016.547</ele>
        <time>2016-05-05T13:14:50Z</time>
      </trkpt>
      <trkpt lat="44.33806" lon="3.74361">
        <ele>1013.484</ele>
        <time>2016-05-05T13:14:54Z</time>
      </trkpt>
      <trkpt lat="44.338" lon="3.74383">
        <ele>1011.34</ele>
        <time>2016-05-05T13:14:57Z</time>
      </trkpt>
      <trkpt lat="44.33771" lon="3.74462">
        <ele>1006.324</ele>
        <time>2016-05-05T13:15:13Z</time>
      </trkpt>
      <trkpt lat="44.33799" lon="3.74466">
        <ele>1006.921</ele>
        <time>2016-05-05T13:15:20Z</time>
      </trkpt>
      <trkpt lat="44.33827" lon="3.74449">
        <ele>1004.555</ele>
        <time>2016-05-05T13:15:25Z</time>
      </trkpt>
      <trkpt lat="44.33922" lon="3.74422">
        <ele>1003.249</ele>
        <time>2016-05-05T13:15:42Z</time>
      </trkpt>
      <trkpt lat="44.33943" lon="3.74445">
        <ele>1002.438</ele>
        <time>2016-05-05T13:15:47Z</time>
      </trkpt>
      <trkpt lat="44.33948" lon="3.74456">
        <ele>1002.472</ele>
        <time>2016-05-05T13:15:49Z</time>
      </trkpt>
      <trkpt lat="44.33952" lon="3.74523">
        <ele>1002.782</ele>
        <time>2016-05-05T13:16:00Z</time>
      </trkpt>
      <trkpt lat="44.33929" lon="3.74676">
        <ele>1000.293</ele>
        <time>2016-05-05T13:16:23Z</time>
      </trkpt>
      <trkpt lat="44.33931" lon="3.74707">
        <ele>998.188</ele>
        <time>2016-05-05T13:16:27Z</time>
      </trkpt>
      <trkpt lat="44.33903" lon="3.74924">
        <ele>1004.009</ele>
        <time>2016-05-05T13:17:42Z</time>
      </trkpt>
      <trkpt lat="44.33858" lon="3.74961">
        <ele>1011.833</ele>
        <time>2016-05-05T13:21:43Z</time>
      </trkpt>
      <trkpt lat="44.3383" lon="3.7496">
        <ele>1015.281</ele>
        <time>2016-05-05T13:22:08Z</time>
      </trkpt>
      <trkpt lat="44.33795" lon="3.74957">
        <ele>1021.513</ele>
        <time>2016-05-05T13:23:14Z</time>
      </trkpt>
      <trkpt lat="44.33785" lon="3.74965">
        <ele>1021.702</ele>
        <time>2016-05-05T13:23:22Z</time>
      </trkpt>
      <trkpt lat="44.33757" lon="3.74983">
        <ele>1024.52</ele>
        <time>2016-05-05T13:24:22Z</time>
      </trkpt>
      <trkpt lat="44.33671" lon="3.75007">
        <ele>1043.042</ele>
        <time>2016-05-05T13:26:43Z</time>
      </trkpt>
      <trkpt lat="44.33508" lon="3.75122">
        <ele>1066.576</ele>
        <time>2016-05-05T13:30:25Z</time>
      </trkpt>
      <trkpt lat="44.33437" lon="3.75183">
        <ele>1077.255</ele>
        <time>2016-05-05T13:32:19Z</time>
      </trkpt>
      <trkpt lat="44.33407" lon="3.75223">
        <ele>1081.145</ele>
        <time>2016-05-05T13:32:48Z</time>
      </trkpt>
      <trkpt lat="44.33366" lon="3.75272">
        <ele>1083.37</ele>
        <time>2016-05-05T13:33:25Z</time>
      </trkpt>
      <trkpt lat="44.33334" lon="3.75303">
        <ele>1083.166</ele>
        <time>2016-05-05T13:35:48Z</time>
      </trkpt>
      <trkpt lat="44.33294" lon="3.75337">
        <ele>1082.652</ele>
        <time>2016-05-05T13:36:12Z</time>
      </trkpt>
      <trkpt lat="44.3319" lon="3.75371">
        <ele>1089.669</ele>
        <time>2016-05-05T13:37:07Z</time>
      </trkpt>
      <trkpt lat="44.33101" lon="3.75434">
        <ele>1102.97</ele>
        <time>2016-05-05T13:40:31Z</time>
      </trkpt>
      <trkpt lat="44.33045" lon="3.7543">
        <ele>1110.207</ele>
        <time>2016-05-05T13:42:33Z</time>
      </trkpt>
      <trkpt lat="44.33026" lon="3.75427">
        <ele>1113.471</ele>
        <time>2016-05-05T13:43:25Z</time>
      </trkpt>
      <trkpt lat="44.32965" lon="3.75399">
        <ele>1127.008</ele>
        <time>2016-05-05T13:44:47Z</time>
      </trkpt>
      <trkpt lat="44.32933" lon="3.75341">
        <ele>1136.057</ele>
        <time>2016-05-05T13:45:49Z</time>
      </trkpt>
      <trkpt lat="44.32895" lon="3.75267">
        <ele>1138.106</ele>
        <time>2016-05-05T13:46:54Z</time>
      </trkpt>
      <trkpt lat="44.32879" lon="3.75255">
        <ele>1138.733</ele>
        <time>2016-05-05T13:47:13Z</time>
      </trkpt>
      <trkpt lat="44.32853" lon="3.75241">
        <ele>1139.147</ele>
        <time>2016-05-05T13:47:23Z</time>
      </trkpt>
      <trkpt lat="44.32781" lon="3.7522">
        <ele>1141.735</ele>
        <time>2016-05-05T13:47:54Z</time>
      </trkpt>
      <trkpt lat="44.32723" lon="3.75179">
        <ele>1142.85</ele>
        <time>2016-05-05T13:48:22Z</time>
      </trkpt>
      <trkpt lat="44.32671" lon="3.75089">
        <ele>1149.661</ele>
        <time>2016-05-05T13:50:11Z</time>
      </trkpt>
      <trkpt lat="44.32674" lon="3.75081">
        <ele>1147.959</ele>
        <time>2016-05-05T13:52:44Z</time>
      </trkpt>
      <trkpt lat="44.32591" lon="3.74992">
        <ele>1161.291</ele>
        <time>2016-05-05T13:53:52Z</time>
      </trkpt>
      <trkpt lat="44.32528" lon="3.74877">
        <ele>1162.739</ele>
        <time>2016-05-05T13:55:27Z</time>
      </trkpt>
      <trkpt lat="44.32522" lon="3.74875">
        <ele>1164.077</ele>
        <time>2016-05-05T13:55:58Z</time>
      </trkpt>
      <trkpt lat="44.32492" lon="3.74837">
        <ele>1166.316</ele>
        <time>2016-05-05T13:56:44Z</time>
      </trkpt>
      <trkpt lat="44.32475" lon="3.74824">
        <ele>1169.07</ele>
        <time>2016-05-05T13:57:00Z</time>
      </trkpt>
      <trkpt lat="44.32459" lon="3.74793">
        <ele>1168.097</ele>
        <time>2016-05-05T13:57:50Z</time>
      </trkpt>
      <trkpt lat="44.32414" lon="3.74787">
        <ele>1182.81</ele>
        <time>2016-05-05T14:02:51Z</time>
      </trkpt>
      <trkpt lat="44.32407" lon="3.74791">
        <ele>1186.165</ele>
        <time>2016-05-05T14:04:53Z</time>
      </trkpt>
      <trkpt lat="44.32325" lon="3.74718">
        <ele>1196.278</ele>
        <time>2016-05-05T14:07:26Z</time>
      </trkpt>
      <trkpt lat="44.32297" lon="3.74725">
        <ele>1203.175</ele>
        <time>2016-05-05T14:08:00Z</time>
      </trkpt>
      <trkpt lat="44.32273" lon="3.74725">
        <ele>1205.186</ele>
        <time>2016-05-05T14:08:16Z</time>
      </trkpt>
      <trkpt lat="44.32187" lon="3.74773">
        <ele>1217.833</ele>
        <time>2016-05-05T14:10:20Z</time>
      </trkpt>
      <trkpt lat="44.32166" lon="3.74789">
        <ele>1220.471</ele>
        <time>2016-05-05T14:11:30Z</time>
      </trkpt>
      <trkpt lat="44.32108" lon="3.74859">
        <ele>1232.693</ele>
        <time>2016-05-05T14:22:02Z</time>
      </trkpt>
      <trkpt lat="44.32047" lon="3.7493">
        <ele>1247.64</ele>
        <time>2016-05-05T14:24:48Z</time>
      </trkpt>
      <trkpt lat="44.31988" lon="3.7492">
        <ele>1255.579</ele>
        <time>2016-05-05T14:26:14Z</time>
      </trkpt>
      <trkpt lat="44.31975" lon="3.74894">
        <ele>1252.09</ele>
        <time>2016-05-05T14:26:45Z</time>
      </trkpt>
      <trkpt lat="44.31949" lon="3.74877">
        <ele>1255.643</ele>
        <time>2016-05-05T14:27:01Z</time>
      </trkpt>
      <trkpt lat="44.31918" lon="3.74848">
        <ele>1260.188</ele>
        <time>2016-05-05T14:27:19Z</time>
      </trkpt>
      <trkpt lat="44.31917" lon="3.74816">
        <ele>1255.605</ele>
        <time>2016-05-05T14:28:11Z</time>
      </trkpt>
      <trkpt lat="44.31912" lon="3.74807">
        <ele>1256.438</ele>
        <time>2016-05-05T14:28:19Z</time>
      </trkpt>
      <trkpt lat="44.31862" lon="3.74769">
        <ele>1270.765</ele>
        <time>2016-05-05T14:29:30Z</time>
      </trkpt>
      <trkpt lat="44.31825" lon="3.74708">
        <ele>1274.4</ele>
        <time>2016-05-05T14:31:38Z</time>
      </trkpt>
      <trkpt lat="44.31823" lon="3.74699">
        <ele>1273.614</ele>
        <time>2016-05-05T14:31:56Z</time>
      </trkpt>
      <trkpt lat="44.31746" lon="3.74658">
        <ele>1292.979</ele>
        <time>2016-05-05T14:40:37Z</time>
      </trkpt>
      <trkpt lat="44.31684" lon="3.74592">
        <ele>1302.185</ele>
        <time>2016-05-05T14:43:19Z</time>
      </trkpt>
      <trkpt lat="44.3162" lon="3.74375">
        <ele>1311.918</ele>
        <time>2016-05-05T14:46:22Z</time>
      </trkpt>
      <trkpt lat="44.31584" lon="3.74209">
        <ele>1323.817</ele>
        <time>2016-05-05T14:48:56Z</time>
      </trkpt>
      <trkpt lat="44.31582" lon="3.74185">
        <ele>1324.55</ele>
        <time>2016-05-05T14:49:14Z</time>
      </trkpt>
      <trkpt lat="44.31557" lon="3.74111">
        <ele>1329.973</ele>
        <time>2016-05-05T15:02:27Z</time>
      </trkpt>
      <trkpt lat="44.31541" lon="3.73992">
        <ele>1352.676</ele>
        <time>2016-05-05T15:10:16Z</time>
      </trkpt>
      <trkpt lat="44.31532" lon="3.73934">
        <ele>1364.185</ele>
        <time>2016-05-05T15:11:40Z</time>
      </trkpt>
      <trkpt lat="44.31529" lon="3.73922">
        <ele>1365.901</ele>
        <time>2016-05-05T15:12:01Z</time>
      </trkpt>
      <trkpt lat="44.31513" lon="3.73832">
        <ele>1378.24</ele>
        <time>2016-05-05T15:14:24Z</time>
      </trkpt>
      <trkpt lat="44.31514" lon="3.73795">
        <ele>1382.336</ele>
        <time>2016-05-05T15:14:56Z</time>
      </trkpt>
      <trkpt lat="44.31489" lon="3.73674">
        <ele>1389.45</ele>
        <time>2016-05-05T15:19:06Z</time>
      </trkpt>
      <trkpt lat="44.31489" lon="3.73672">
        <ele>1389.417</ele>
        <time>2016-05-05T15:20:38Z</time>
      </trkpt>
      <trkpt lat="44.31489" lon="3.73673">
        <ele>1389.47</ele>
        <time>2016-05-05T15:21:18Z</time>
      </trkpt>
      <trkpt lat="44.31514" lon="3.73651">
        <ele>1388.7</ele>
        <time>2016-05-05T15:22:11Z</time>
      </trkpt>
      <trkpt lat="44.31534" lon="3.73634">
        <ele>1388.2</ele>
        <time>2016-05-05T15:22:26Z</time>
      </trkpt>
      <trkpt lat="44.31565" lon="3.73596">
        <ele>1384.711</ele>
        <time>2016-05-05T15:22:59Z</time>
      </trkpt>
      <trkpt lat="44.31607" lon="3.73541">
        <ele>1378.115</ele>
        <time>2016-05-05T15:23:19Z</time>
      </trkpt>
      <trkpt lat="44.31641" lon="3.73475">
        <ele>1371.556</ele>
        <time>2016-05-05T15:23:33Z</time>
      </trkpt>
      <trkpt lat="44.31686" lon="3.73192">
        <ele>1369.12</ele>
        <time>2016-05-05T15:26:19Z</time>
      </trkpt>
      <trkpt lat="44.31702" lon="3.72992">
        <ele>1386.685</ele>
        <time>2016-05-05T15:29:32Z</time>
      </trkpt>
      <trkpt lat="44.31755" lon="3.72835">
        <ele>1404.224</ele>
        <time>2016-05-05T15:32:37Z</time>
      </trkpt>
      <trkpt lat="44.31764" lon="3.72804">
        <ele>1405.672</ele>
        <time>2016-05-05T15:33:04Z</time>
      </trkpt>
      <trkpt lat="44.31738" lon="3.726">
        <ele>1411.098</ele>
        <time>2016-05-05T15:35:56Z</time>
      </trkpt>
      <trkpt lat="44.31735" lon="3.72562">
        <ele>1410.681</ele>
        <time>2016-05-05T15:37:58Z</time>
      </trkpt>
      <trkpt lat="44.31717" lon="3.72473">
        <ele>1406.489</ele>
        <time>2016-05-05T15:38:12Z</time>
      </trkpt>
      <trkpt lat="44.31703" lon="3.72408">
        <ele>1403.719</ele>
        <time>2016-05-05T15:38:19Z</time>
      </trkpt>
      <trkpt lat="44.31672" lon="3.72287">
        <ele>1401.239</ele>
        <time>2016-05-05T15:38:33Z</time>
      </trkpt>
      <trkpt lat="44.31669" lon="3.72142">
        <ele>1390.598</ele>
        <time>2016-05-05T15:38:55Z</time>
      </trkpt>
      <trkpt lat="44.31689" lon="3.72014">
        <ele>1381.381</ele>
        <time>2016-05-05T15:39:15Z</time>
      </trkpt>
      <trkpt lat="44.31717" lon="3.7196">
        <ele>1373.068</ele>
        <time>2016-05-05T15:39:27Z</time>
      </trkpt>
      <trkpt lat="44.31819" lon="3.71788">
        <ele>1344.34</ele>
        <time>2016-05-05T15:40:26Z</time>
      </trkpt>
      <trkpt lat="44.31971" lon="3.71649">
        <ele>1303.822</ele>
        <time>2016-05-05T15:42:29Z</time>
      </trkpt>
      <trkpt lat="44.32" lon="3.7162">
        <ele>1296.918</ele>
        <time>2016-05-05T15:42:44Z</time>
      </trkpt>
      <trkpt lat="44.31979" lon="3.71582">
        <ele>1296.208</ele>
        <time>2016-05-05T15:43:12Z</time>
      </trkpt>
      <trkpt lat="44.31938" lon="3.71311">
        <ele>1238.99</ele>
        <time>2016-05-05T15:44:02Z</time>
      </trkpt>
      <trkpt lat="44.31875" lon="3.71222">
        <ele>1246.152</ele>
        <time>2016-05-05T15:44:11Z</time>
      </trkpt>
      <trkpt lat="44.31855" lon="3.7117">
        <ele>1241.537</ele>
        <time>2016-05-05T15:44:20Z</time>
      </trkpt>
      <trkpt lat="44.31841" lon="3.71146">
        <ele>1238.225</ele>
        <time>2016-05-05T15:44:29Z</time>
      </trkpt>
      <trkpt lat="44.31966" lon="3.70866">
        <ele>1196.171</ele>
        <time>2016-05-05T15:45:08Z</time>
      </trkpt>
      <trkpt lat="44.32045" lon="3.70798">
        <ele>1180.763</ele>
        <time>2016-05-05T15:45:55Z</time>
      </trkpt>
      <trkpt lat="44.32071" lon="3.70732">
        <ele>1179.503</ele>
        <time>2016-05-05T15:46:12Z</time>
      </trkpt>
      <trkpt lat="44.32111" lon="3.70664">
        <ele>1176.792</ele>
        <time>2016-05-05T15:48:04Z</time>
      </trkpt>
      <trkpt lat="44.32146" lon="3.70587">
        <ele>1169.582</ele>
        <time>2016-05-05T15:49:52Z</time>
      </trkpt>
      <trkpt lat="44.32162" lon="3.70564">
        <ele>1169.55</ele>
        <time>2016-05-05T15:50:04Z</time>
      </trkpt>
      <trkpt lat="44.32178" lon="3.70534">
        <ele>1166.661</ele>
        <time>2016-05-05T15:50:37Z</time>
      </trkpt>
      <trkpt lat="44.32222" lon="3.7038">
        <ele>1166.691</ele>
        <time>2016-05-05T15:52:42Z</time>
      </trkpt>
      <trkpt lat="44.32306" lon="3.70217">
        <ele>1162.531</ele>
        <time>2016-05-05T15:55:22Z</time>
      </trkpt>
      <trkpt lat="44.32322" lon="3.70171">
        <ele>1157.445</ele>
        <time>2016-05-05T15:56:10Z</time>
      </trkpt>
      <trkpt lat="44.32319" lon="3.70099">
        <ele>1161.153</ele>
        <time>2016-05-05T15:56:36Z</time>
      </trkpt>
      <trkpt lat="44.32347" lon="3.70055">
        <ele>1153.511</ele>
        <time>2016-05-05T16:03:04Z</time>
      </trkpt>
      <trkpt lat="44.32352" lon="3.69989">
        <ele>1157.546</ele>
        <time>2016-05-05T16:03:46Z</time>
      </trkpt>
      <trkpt lat="44.32381" lon="3.69941">
        <ele>1152.608</ele>
        <time>2016-05-05T16:04:32Z</time>
      </trkpt>
      <trkpt lat="44.32389" lon="3.69933">
        <ele>1152.339</ele>
        <time>2016-05-05T16:04:57Z</time>
      </trkpt>
      <trkpt lat="44.324" lon="3.69911">
        <ele>1152.025</ele>
        <time>2016-05-05T16:05:02Z</time>
      </trkpt>
      <trkpt lat="44.32436" lon="3.69816">
        <ele>1148.675</ele>
        <time>2016-05-05T16:05:44Z</time>
      </trkpt>
      <trkpt lat="44.32483" lon="3.69761">
        <ele>1137.896</ele>
        <time>2016-05-05T16:06:37Z</time>
      </trkpt>
      <trkpt lat="44.3249" lon="3.69738">
        <ele>1136.103</ele>
        <time>2016-05-05T16:06:58Z</time>
      </trkpt>
      <trkpt lat="44.3249" lon="3.69723">
        <ele>1135.6</ele>
        <time>2016-05-05T16:07:31Z</time>
      </trkpt>
      <trkpt lat="44.32475" lon="3.69739">
        <ele>1135.212</ele>
        <time>2016-05-05T16:08:14Z</time>
      </trkpt>
      <trkpt lat="44.32469" lon="3.69749">
        <ele>1135.917</ele>
        <time>2016-05-05T16:08:33Z</time>
      </trkpt>
      <trkpt lat="44.32461" lon="3.69751">
        <ele>1135.856</ele>
        <time>2016-05-05T16:08:59Z</time>
      </trkpt>
      <trkpt lat="44.32438" lon="3.69756">
        <ele>1135.418</ele>
        <time>2016-05-05T16:10:32Z</time>
      </trkpt>
      <trkpt lat="44.32442" lon="3.69747">
        <ele>1133.459</ele>
        <time>2016-05-05T16:11:07Z</time>
      </trkpt>
      <trkpt lat="44.32475" lon="3.6963">
        <ele>1118.19</ele>
        <time>2016-05-05T16:11:53Z</time>
      </trkpt>
      <trkpt lat="44.32491" lon="3.69589">
        <ele>1118.895</ele>
        <time>2016-05-05T16:12:08Z</time>
      </trkpt>
      <trkpt lat="44.32502" lon="3.69508">
        <ele>1111.741</ele>
        <time>2016-05-05T16:12:26Z</time>
      </trkpt>
      <trkpt lat="44.32545" lon="3.69099">
        <ele>1099.673</ele>
        <time>2016-05-05T16:13:59Z</time>
      </trkpt>
      <trkpt lat="44.32524" lon="3.69022">
        <ele>1088.777</ele>
        <time>2016-05-05T16:14:21Z</time>
      </trkpt>
      <trkpt lat="44.32523" lon="3.69009">
        <ele>1088.899</ele>
        <time>2016-05-05T16:14:35Z</time>
      </trkpt>
      <trkpt lat="44.32492" lon="3.68862">
        <ele>1081.972</ele>
        <time>2016-05-05T16:15:30Z</time>
      </trkpt>
      <trkpt lat="44.32495" lon="3.68802">
        <ele>1082.399</ele>
        <time>2016-05-05T16:15:42Z</time>
      </trkpt>
      <trkpt lat="44.32498" lon="3.68721">
        <ele>1080.796</ele>
        <time>2016-05-05T16:16:33Z</time>
      </trkpt>
      <trkpt lat="44.3255" lon="3.68534">
        <ele>1078.711</ele>
        <time>2016-05-05T16:18:35Z</time>
      </trkpt>
      <trkpt lat="44.32567" lon="3.68464">
        <ele>1076.953</ele>
        <time>2016-05-05T16:18:46Z</time>
      </trkpt>
      <trkpt lat="44.32577" lon="3.68408">
        <ele>1076.275</ele>
        <time>2016-05-05T16:18:54Z</time>
      </trkpt>
      <trkpt lat="44.32585" lon="3.6838">
        <ele>1075.756</ele>
        <time>2016-05-05T16:18:58Z</time>
      </trkpt>
      <trkpt lat="44.32618" lon="3.68279">
        <ele>1072.836</ele>
        <time>2016-05-05T16:19:13Z</time>
      </trkpt>
      <trkpt lat="44.32623" lon="3.68258">
        <ele>1072.185</ele>
        <time>2016-05-05T16:19:16Z</time>
      </trkpt>
      <trkpt lat="44.32627" lon="3.68147">
        <ele>1071.985</ele>
        <time>2016-05-05T16:19:29Z</time>
      </trkpt>
      <trkpt lat="44.326" lon="3.67912">
        <ele>1078.013</ele>
        <time>2016-05-05T16:19:59Z</time>
      </trkpt>
      <trkpt lat="44.32648" lon="3.67646">
        <ele>1070.612</ele>
        <time>2016-05-05T16:20:33Z</time>
      </trkpt>
      <trkpt lat="44.32648" lon="3.67605">
        <ele>1069.086</ele>
        <time>2016-05-05T16:20:39Z</time>
      </trkpt>
      <trkpt lat="44.32618" lon="3.67437">
        <ele>1066.05</ele>
        <time>2016-05-05T16:20:59Z</time>
      </trkpt>
      <trkpt lat="44.32509" lon="3.6724">
        <ele>1048.417</ele>
        <time>2016-05-05T16:21:29Z</time>
      </trkpt>
      <trkpt lat="44.32485" lon="3.67134">
        <ele>1044.826</ele>
        <time>2016-05-05T16:21:43Z</time>
      </trkpt>
      <trkpt lat="44.32496" lon="3.67055">
        <ele>1041.128</ele>
        <time>2016-05-05T16:21:53Z</time>
      </trkpt>
      <trkpt lat="44.32469" lon="3.67005">
        <ele>1042.405</ele>
        <time>2016-05-05T16:22:01Z</time>
      </trkpt>
      <trkpt lat="44.32461" lon="3.66944">
        <ele>1041.74</ele>
        <time>2016-05-05T16:22:08Z</time>
      </trkpt>
      <trkpt lat="44.32494" lon="3.6669">
        <ele>1044.119</ele>
        <time>2016-05-05T16:22:42Z</time>
      </trkpt>
      <trkpt lat="44.32508" lon="3.66664">
        <ele>1043.046</ele>
        <time>2016-05-05T16:22:46Z</time>
      </trkpt>
      <trkpt lat="44.32532" lon="3.66603">
        <ele>1044.337</ele>
        <time>2016-05-05T16:22:55Z</time>
      </trkpt>
      <trkpt lat="44.32581" lon="3.66504">
        <ele>1046.423</ele>
        <time>2016-05-05T16:23:11Z</time>
      </trkpt>
      <trkpt lat="44.32637" lon="3.66395">
        <ele>1045.922</ele>
        <time>2016-05-05T16:23:32Z</time>
      </trkpt>
      <trkpt lat="44.32698" lon="3.66354">
        <ele>1037.915</ele>
        <time>2016-05-05T16:23:44Z</time>
      </trkpt>
      <trkpt lat="44.32763" lon="3.6633">
        <ele>1036.092</ele>
        <time>2016-05-05T16:23:56Z</time>
      </trkpt>
      <trkpt lat="44.32794" lon="3.6624">
        <ele>1043.847</ele>
        <time>2016-05-05T16:24:08Z</time>
      </trkpt>
      <trkpt lat="44.32819" lon="3.66218">
        <ele>1028.599</ele>
        <time>2016-05-05T16:24:47Z</time>
      </trkpt>
      <trkpt lat="44.32787" lon="3.66115">
        <ele>1050.827</ele>
        <time>2016-05-05T16:25:14Z</time>
      </trkpt>
      <trkpt lat="44.32797" lon="3.66093">
        <ele>1047.559</ele>
        <time>2016-05-05T16:25:20Z</time>
      </trkpt>
      <trkpt lat="44.32848" lon="3.66005">
        <ele>1043.874</ele>
        <time>2016-05-05T16:25:37Z</time>
      </trkpt>
      <trkpt lat="44.32881" lon="3.65923">
        <ele>1038.24</ele>
        <time>2016-05-05T16:25:51Z</time>
      </trkpt>
      <trkpt lat="44.3289" lon="3.6581">
        <ele>1036.855</ele>
        <time>2016-05-05T16:26:09Z</time>
      </trkpt>
      <trkpt lat="44.32906" lon="3.65789">
        <ele>1032.644</ele>
        <time>2016-05-05T16:26:14Z</time>
      </trkpt>
      <trkpt lat="44.32926" lon="3.65709">
        <ele>1025.091</ele>
        <time>2016-05-05T16:26:26Z</time>
      </trkpt>
      <trkpt lat="44.32916" lon="3.65624">
        <ele>1025.325</ele>
        <time>2016-05-05T16:26:44Z</time>
      </trkpt>
      <trkpt lat="44.32865" lon="3.65517">
        <ele>1021.062</ele>
        <time>2016-05-05T16:27:05Z</time>
      </trkpt>
      <trkpt lat="44.32832" lon="3.65358">
        <ele>1013.235</ele>
        <time>2016-05-05T16:27:23Z</time>
      </trkpt>
      <trkpt lat="44.32847" lon="3.65327">
        <ele>1014.621</ele>
        <time>2016-05-05T16:27:27Z</time>
      </trkpt>
      <trkpt lat="44.32901" lon="3.6528">
        <ele>1013.643</ele>
        <time>2016-05-05T16:27:36Z</time>
      </trkpt>
      <trkpt lat="44.3292" lon="3.6526">
        <ele>1013.006</ele>
        <time>2016-05-05T16:27:39Z</time>
      </trkpt>
      <trkpt lat="44.3294" lon="3.65243">
        <ele>1014.341</ele>
        <time>2016-05-05T16:27:42Z</time>
      </trkpt>
      <trkpt lat="44.32963" lon="3.65206">
        <ele>1010.562</ele>
        <time>2016-05-05T16:27:46Z</time>
      </trkpt>
      <trkpt lat="44.32994" lon="3.65133">
        <ele>1005.284</ele>
        <time>2016-05-05T16:27:53Z</time>
      </trkpt>
      <trkpt lat="44.32986" lon="3.65062">
        <ele>1002.34</ele>
        <time>2016-05-05T16:27:59Z</time>
      </trkpt>
      <trkpt lat="44.32972" lon="3.65046">
        <ele>998.536</ele>
        <time>2016-05-05T16:28:01Z</time>
      </trkpt>
      <trkpt lat="44.32956" lon="3.65032">
        <ele>993.209</ele>
        <time>2016-05-05T16:28:03Z</time>
      </trkpt>
      <trkpt lat="44.32874" lon="3.64927">
        <ele>986.376</ele>
        <time>2016-05-05T16:28:15Z</time>
      </trkpt>
      <trkpt lat="44.32871" lon="3.64916">
        <ele>986.15</ele>
        <time>2016-05-05T16:28:16Z</time>
      </trkpt>
      <trkpt lat="44.32867" lon="3.64785">
        <ele>981.007</ele>
        <time>2016-05-05T16:28:27Z</time>
      </trkpt>
      <trkpt lat="44.32876" lon="3.64747">
        <ele>979.472</ele>
        <time>2016-05-05T16:28:30Z</time>
      </trkpt>
      <trkpt lat="44.32885" lon="3.64724">
        <ele>978.369</ele>
        <time>2016-05-05T16:28:32Z</time>
      </trkpt>
      <trkpt lat="44.32898" lon="3.64702">
        <ele>979.2</ele>
        <time>2016-05-05T16:28:34Z</time>
      </trkpt>
      <trkpt lat="44.32947" lon="3.64643">
        <ele>973.811</ele>
        <time>2016-05-05T16:28:41Z</time>
      </trkpt>
      <trkpt lat="44.32982" lon="3.64574">
        <ele>968.587</ele>
        <time>2016-05-05T16:28:49Z</time>
      </trkpt>
      <trkpt lat="44.32987" lon="3.64492">
        <ele>967.1</ele>
        <time>2016-05-05T16:28:56Z</time>
      </trkpt>
      <trkpt lat="44.32967" lon="3.64364">
        <ele>954.123</ele>
        <time>2016-05-05T16:29:06Z</time>
      </trkpt>
      <trkpt lat="44.32926" lon="3.64252">
        <ele>944.911</ele>
        <time>2016-05-05T16:29:20Z</time>
      </trkpt>
      <trkpt lat="44.32904" lon="3.64188">
        <ele>946.751</ele>
        <time>2016-05-05T16:29:30Z</time>
      </trkpt>
      <trkpt lat="44.32908" lon="3.64116">
        <ele>945.009</ele>
        <time>2016-05-05T16:29:37Z</time>
      </trkpt>
      <trkpt lat="44.32913" lon="3.63885">
        <ele>931.093</ele>
        <time>2016-05-05T16:29:57Z</time>
      </trkpt>
      <trkpt lat="44.32936" lon="3.63751">
        <ele>924.868</ele>
        <time>2016-05-05T16:30:08Z</time>
      </trkpt>
      <trkpt lat="44.32972" lon="3.63649">
        <ele>912.4</ele>
        <time>2016-05-05T16:30:17Z</time>
      </trkpt>
      <trkpt lat="44.32968" lon="3.63631">
        <ele>911.911</ele>
        <time>2016-05-05T16:30:19Z</time>
      </trkpt>
      <trkpt lat="44.32915" lon="3.63595">
        <ele>915.555</ele>
        <time>2016-05-05T16:30:28Z</time>
      </trkpt>
      <trkpt lat="44.32874" lon="3.63504">
        <ele>907.244</ele>
        <time>2016-05-05T16:30:36Z</time>
      </trkpt>
      <trkpt lat="44.32875" lon="3.63456">
        <ele>903.746</ele>
        <time>2016-05-05T16:30:40Z</time>
      </trkpt>
      <trkpt lat="44.32906" lon="3.63288">
        <ele>895.045</ele>
        <time>2016-05-05T16:30:53Z</time>
      </trkpt>
      <trkpt lat="44.3297" lon="3.6314">
        <ele>886.438</ele>
        <time>2016-05-05T16:31:06Z</time>
      </trkpt>
      <trkpt lat="44.32982" lon="3.6307">
        <ele>888</ele>
        <time>2016-05-05T16:31:12Z</time>
      </trkpt>
      <trkpt lat="44.32988" lon="3.63049">
        <ele>889.455</ele>
        <time>2016-05-05T16:31:14Z</time>
      </trkpt>
      <trkpt lat="44.32997" lon="3.6303">
        <ele>889.723</ele>
        <time>2016-05-05T16:31:16Z</time>
      </trkpt>
      <trkpt lat="44.33013" lon="3.63007">
        <ele>888.878</ele>
        <time>2016-05-05T16:31:19Z</time>
      </trkpt>
      <trkpt lat="44.33026" lon="3.62996">
        <ele>887.428</ele>
        <time>2016-05-05T16:31:21Z</time>
      </trkpt>
      <trkpt lat="44.33097" lon="3.62984">
        <ele>872.54</ele>
        <time>2016-05-05T16:31:30Z</time>
      </trkpt>
      <trkpt lat="44.33123" lon="3.62945">
        <ele>873.685</ele>
        <time>2016-05-05T16:31:35Z</time>
      </trkpt>
      <trkpt lat="44.3312" lon="3.62879">
        <ele>874.85</ele>
        <time>2016-05-05T16:31:41Z</time>
      </trkpt>
      <trkpt lat="44.33073" lon="3.62689">
        <ele>873.105</ele>
        <time>2016-05-05T16:31:58Z</time>
      </trkpt>
      <trkpt lat="44.33078" lon="3.6267">
        <ele>871.575</ele>
        <time>2016-05-05T16:32:00Z</time>
      </trkpt>
      <trkpt lat="44.33087" lon="3.62653">
        <ele>867.62</ele>
        <time>2016-05-05T16:32:02Z</time>
      </trkpt>
      <trkpt lat="44.33094" lon="3.62637">
        <ele>864.61</ele>
        <time>2016-05-05T16:32:04Z</time>
      </trkpt>
      <trkpt lat="44.33102" lon="3.62597">
        <ele>863.981</ele>
        <time>2016-05-05T16:32:09Z</time>
      </trkpt>
      <trkpt lat="44.33116" lon="3.62543">
        <ele>865.309</ele>
        <time>2016-05-05T16:32:17Z</time>
      </trkpt>
      <trkpt lat="44.33169" lon="3.62466">
        <ele>865.814</ele>
        <time>2016-05-05T16:32:31Z</time>
      </trkpt>
      <trkpt lat="44.33188" lon="3.62441">
        <ele>869.336</ele>
        <time>2016-05-05T16:32:37Z</time>
      </trkpt>
      <trkpt lat="44.3336" lon="3.62472">
        <ele>857.466</ele>
        <time>2016-05-05T16:33:06Z</time>
      </trkpt>
      <trkpt lat="44.33489" lon="3.62375">
        <ele>848.316</ele>
        <time>2016-05-05T16:33:27Z</time>
      </trkpt>
      <trkpt lat="44.33494" lon="3.62367">
        <ele>848.073</ele>
        <time>2016-05-05T16:33:29Z</time>
      </trkpt>
      <trkpt lat="44.33508" lon="3.62371">
        <ele>844.821</ele>
        <time>2016-05-05T16:33:34Z</time>
      </trkpt>
      <trkpt lat="44.33434" lon="3.62485">
        <ele>838.386</ele>
        <time>2016-05-05T16:33:52Z</time>
      </trkpt>
      <trkpt lat="44.33384" lon="3.62534">
        <ele>830.766</ele>
        <time>2016-05-05T16:34:04Z</time>
      </trkpt>
      <trkpt lat="44.33288" lon="3.62554">
        <ele>818.837</ele>
        <time>2016-05-05T16:34:17Z</time>
      </trkpt>
      <trkpt lat="44.33235" lon="3.62537">
        <ele>824.702</ele>
        <time>2016-05-05T16:34:23Z</time>
      </trkpt>
      <trkpt lat="44.33199" lon="3.62581">
        <ele>817.772</ele>
        <time>2016-05-05T16:34:29Z</time>
      </trkpt>
      <trkpt lat="44.33183" lon="3.62606">
        <ele>821.218</ele>
        <time>2016-05-05T16:34:33Z</time>
      </trkpt>
      <trkpt lat="44.33196" lon="3.62665">
        <ele>804.126</ele>
        <time>2016-05-05T16:34:39Z</time>
      </trkpt>
      <trkpt lat="44.33185" lon="3.62723">
        <ele>808.413</ele>
        <time>2016-05-05T16:34:45Z</time>
      </trkpt>
      <trkpt lat="44.33186" lon="3.62738">
        <ele>809.965</ele>
        <time>2016-05-05T16:34:47Z</time>
      </trkpt>
      <trkpt lat="44.33192" lon="3.62749">
        <ele>808.638</ele>
        <time>2016-05-05T16:34:49Z</time>
      </trkpt>
      <trkpt lat="44.33239" lon="3.62788">
        <ele>798.074</ele>
        <time>2016-05-05T16:34:56Z</time>
      </trkpt>
      <trkpt lat="44.33286" lon="3.62862">
        <ele>792.895</ele>
        <time>2016-05-05T16:35:04Z</time>
      </trkpt>
      <trkpt lat="44.33359" lon="3.62971">
        <ele>782.759</ele>
        <time>2016-05-05T16:35:16Z</time>
      </trkpt>
      <trkpt lat="44.3334" lon="3.63108">
        <ele>777.246</ele>
        <time>2016-05-05T16:35:27Z</time>
      </trkpt>
      <trkpt lat="44.333" lon="3.6324">
        <ele>762.092</ele>
        <time>2016-05-05T16:35:37Z</time>
      </trkpt>
      <trkpt lat="44.33231" lon="3.63265">
        <ele>762.57</ele>
        <time>2016-05-05T16:35:45Z</time>
      </trkpt>
      <trkpt lat="44.33214" lon="3.63274">
        <ele>765.706</ele>
        <time>2016-05-05T16:35:48Z</time>
      </trkpt>
      <trkpt lat="44.33211" lon="3.6329">
        <ele>765.695</ele>
        <time>2016-05-05T16:35:50Z</time>
      </trkpt>
      <trkpt lat="44.33222" lon="3.63323">
        <ele>760.472</ele>
        <time>2016-05-05T16:35:54Z</time>
      </trkpt>
      <trkpt lat="44.33307" lon="3.63433">
        <ele>748.564</ele>
        <time>2016-05-05T16:36:08Z</time>
      </trkpt>
      <trkpt lat="44.3335" lon="3.63596">
        <ele>752.974</ele>
        <time>2016-05-05T16:36:23Z</time>
      </trkpt>
      <trkpt lat="44.33375" lon="3.63627">
        <ele>751.36</ele>
        <time>2016-05-05T16:37:30Z</time>
      </trkpt>
      <trkpt lat="44.33417" lon="3.63553">
        <ele>736.695</ele>
        <time>2016-05-05T16:37:56Z</time>
      </trkpt>
      <trkpt lat="44.334" lon="3.63512">
        <ele>733.49</ele>
        <time>2016-05-05T16:38:04Z</time>
      </trkpt>
      <trkpt lat="44.33461" lon="3.63481">
        <ele>727.126</ele>
        <time>2016-05-05T16:38:16Z</time>
      </trkpt>
      <trkpt lat="44.33497" lon="3.63353">
        <ele>711.159</ele>
        <time>2016-05-05T16:38:29Z</time>
      </trkpt>
      <trkpt lat="44.33523" lon="3.6331">
        <ele>704.886</ele>
        <time>2016-05-05T16:38:33Z</time>
      </trkpt>
      <trkpt lat="44.3369" lon="3.63133">
        <ele>678.529</ele>
        <time>2016-05-05T16:38:57Z</time>
      </trkpt>
      <trkpt lat="44.33722" lon="3.63089">
        <ele>670.64</ele>
        <time>2016-05-05T16:39:01Z</time>
      </trkpt>
      <trkpt lat="44.33754" lon="3.63068">
        <ele>667.892</ele>
        <time>2016-05-05T16:39:04Z</time>
      </trkpt>
      <trkpt lat="44.33899" lon="3.63036">
        <ele>659.584</ele>
        <time>2016-05-05T16:39:18Z</time>
      </trkpt>
      <trkpt lat="44.33925" lon="3.62994">
        <ele>649.467</ele>
        <time>2016-05-05T16:39:23Z</time>
      </trkpt>
      <trkpt lat="44.3397" lon="3.6298">
        <ele>643.138</ele>
        <time>2016-05-05T16:39:28Z</time>
      </trkpt>
      <trkpt lat="44.34105" lon="3.62985">
        <ele>628.059</ele>
        <time>2016-05-05T16:39:41Z</time>
      </trkpt>
      <trkpt lat="44.34184" lon="3.62978">
        <ele>617.939</ele>
        <time>2016-05-05T16:39:48Z</time>
      </trkpt>
      <trkpt lat="44.34201" lon="3.62973">
        <ele>616.724</ele>
        <time>2016-05-05T16:39:50Z</time>
      </trkpt>
      <trkpt lat="44.34346" lon="3.62902">
        <ele>610.388</ele>
        <time>2016-05-05T16:40:06Z</time>
      </trkpt>
      <trkpt lat="44.3441" lon="3.62788">
        <ele>598.779</ele>
        <time>2016-05-05T16:40:19Z</time>
      </trkpt>
      <trkpt lat="44.3447" lon="3.62759">
        <ele>600.077</ele>
        <time>2016-05-05T16:40:28Z</time>
      </trkpt>
      <trkpt lat="44.34466" lon="3.62767">
        <ele>600.682</ele>
        <time>2016-05-05T16:40:46Z</time>
      </trkpt>
      <trkpt lat="44.34521" lon="3.62712">
        <ele>598.882</ele>
        <time>2016-05-05T16:41:07Z</time>
      </trkpt>
      <trkpt lat="44.34537" lon="3.62605">
        <ele>590.83</ele>
        <time>2016-05-05T16:41:26Z</time>
      </trkpt>
      <trkpt lat="44.34568" lon="3.62545">
        <ele>586.678</ele>
        <time>2016-05-05T16:41:34Z</time>
      </trkpt>
      <trkpt lat="44.34574" lon="3.62525">
        <ele>585.817</ele>
        <time>2016-05-05T16:41:36Z</time>
      </trkpt>
      <trkpt lat="44.34574" lon="3.62433">
        <ele>590.204</ele>
        <time>2016-05-05T16:41:50Z</time>
      </trkpt>
      <trkpt lat="44.34595" lon="3.62348">
        <ele>585.671</ele>
        <time>2016-05-05T16:43:41Z</time>
      </trkpt>
      <trkpt lat="44.34582" lon="3.6224">
        <ele>588.124</ele>
        <time>2016-05-05T16:44:41Z</time>
      </trkpt>
      <trkpt lat="44.34561" lon="3.62154">
        <ele>587.884</ele>
        <time>2016-05-05T16:45:00Z</time>
      </trkpt>
      <trkpt lat="44.34532" lon="3.62048">
        <ele>583.095</ele>
        <time>2016-05-05T16:45:10Z</time>
      </trkpt>
      <trkpt lat="44.34429" lon="3.61843">
        <ele>580.791</ele>
        <time>2016-05-05T16:45:34Z</time>
      </trkpt>
      <trkpt lat="44.34396" lon="3.61768">
        <ele>576.998</ele>
        <time>2016-05-05T16:45:43Z</time>
      </trkpt>
      <trkpt lat="44.34404" lon="3.61701">
        <ele>573.287</ele>
        <time>2016-05-05T16:45:50Z</time>
      </trkpt>
      <trkpt lat="44.344" lon="3.61676">
        <ele>572.922</ele>
        <time>2016-05-05T16:45:53Z</time>
      </trkpt>
      <trkpt lat="44.34386" lon="3.61633">
        <ele>574.209</ele>
        <time>2016-05-05T16:45:59Z</time>
      </trkpt>
      <trkpt lat="44.3435" lon="3.61549">
        <ele>582.782</ele>
        <time>2016-05-05T16:46:13Z</time>
      </trkpt>
      <trkpt lat="44.34341" lon="3.61483">
        <ele>582.186</ele>
        <time>2016-05-05T16:46:23Z</time>
      </trkpt>
      <trkpt lat="44.34333" lon="3.61441">
        <ele>583.764</ele>
        <time>2016-05-05T16:46:30Z</time>
      </trkpt>
      <trkpt lat="44.34329" lon="3.61418">
        <ele>584.16</ele>
        <time>2016-05-05T16:46:34Z</time>
      </trkpt>
      <trkpt lat="44.34353" lon="3.6115">
        <ele>584.684</ele>
        <time>2016-05-05T16:47:45Z</time>
      </trkpt>
      <trkpt lat="44.34402" lon="3.61031">
        <ele>589.188</ele>
        <time>2016-05-05T16:50:21Z</time>
      </trkpt>
      <trkpt lat="44.34426" lon="3.60894">
        <ele>582.427</ele>
        <time>2016-05-05T16:50:57Z</time>
      </trkpt>
      <trkpt lat="44.34427" lon="3.6087">
        <ele>580.442</ele>
        <time>2016-05-05T16:51:01Z</time>
      </trkpt>
      <trkpt lat="44.34335" lon="3.60844">
        <ele>578.385</ele>
        <time>2016-05-05T16:51:20Z</time>
      </trkpt>
      <trkpt lat="44.3421" lon="3.60722">
        <ele>582.207</ele>
        <time>2016-05-05T16:51:51Z</time>
      </trkpt>
      <trkpt lat="44.34165" lon="3.60633">
        <ele>579.532</ele>
        <time>2016-05-05T16:52:07Z</time>
      </trkpt>
      <trkpt lat="44.34086" lon="3.60534">
        <ele>582.703</ele>
        <time>2016-05-05T16:52:43Z</time>
      </trkpt>
      <trkpt lat="44.34072" lon="3.6053">
        <ele>583.915</ele>
        <time>2016-05-05T16:52:52Z</time>
      </trkpt>
      <trkpt lat="44.34065" lon="3.60461">
        <ele>584.223</ele>
        <time>2016-05-05T16:53:17Z</time>
      </trkpt>
      <trkpt lat="44.34072" lon="3.60398">
        <ele>584.558</ele>
        <time>2016-05-05T16:53:40Z</time>
      </trkpt>
      <trkpt lat="44.3409" lon="3.60399">
        <ele>582.583</ele>
        <time>2016-05-05T16:53:48Z</time>
      </trkpt>
      <trkpt lat="44.34113" lon="3.60409">
        <ele>580.33</ele>
        <time>2016-05-05T16:53:54Z</time>
      </trkpt>
      <trkpt lat="44.34128" lon="3.60409">
        <ele>579</ele>
        <time>2016-05-05T16:53:57Z</time>
      </trkpt>
      <trkpt lat="44.34216" lon="3.60391">
        <ele>573.09</ele>
        <time>2016-05-05T16:54:10Z</time>
      </trkpt>
      <trkpt lat="44.34305" lon="3.60374">
        <ele>569.041</ele>
        <time>2016-05-05T16:54:23Z</time>
      </trkpt>
      <trkpt lat="44.34349" lon="3.60392">
        <ele>567.64</ele>
        <time>2016-05-05T16:54:35Z</time>
      </trkpt>
      <trkpt lat="44.34326" lon="3.60274">
        <ele>565.918</ele>
        <time>2016-05-05T16:56:11Z</time>
      </trkpt>
      <trkpt lat="44.34339" lon="3.60218">
        <ele>564.994</ele>
        <time>2016-05-05T16:56:30Z</time>
      </trkpt>
      <trkpt lat="44.34375" lon="3.60194">
        <ele>562.139</ele>
        <time>2016-05-05T16:56:40Z</time>
      </trkpt>
      <trkpt lat="44.3438" lon="3.60177">
        <ele>562.138</ele>
        <time>2016-05-05T16:56:42Z</time>
      </trkpt>
      <trkpt lat="44.34392" lon="3.60151">
        <ele>561.382</ele>
        <time>2016-05-05T16:56:45Z</time>
      </trkpt>
      <trkpt lat="44.34406" lon="3.60136">
        <ele>559.721</ele>
        <time>2016-05-05T16:56:48Z</time>
      </trkpt>
      <trkpt lat="44.34483" lon="3.60124">
        <ele>555.274</ele>
        <time>2016-05-05T16:57:04Z</time>
      </trkpt>
      <trkpt lat="44.345" lon="3.60118">
        <ele>557.907</ele>
        <time>2016-05-05T16:57:09Z</time>
      </trkpt>
      <trkpt lat="44.34465" lon="3.59939">
        <ele>553.382</ele>
        <time>2016-05-05T16:57:48Z</time>
      </trkpt>
      <trkpt lat="44.34481" lon="3.59757">
        <ele>547.87</ele>
        <time>2016-05-05T16:58:19Z</time>
      </trkpt>
      <trkpt lat="44.34466" lon="3.59606">
        <ele>544.044</ele>
        <time>2016-05-05T16:58:42Z</time>
      </trkpt>
      <trkpt lat="44.34538" lon="3.593">
        <ele>553.286</ele>
        <time>2016-05-05T16:59:31Z</time>
      </trkpt>
      <trkpt lat="44.34569" lon="3.59209">
        <ele>552.277</ele>
        <time>2016-05-05T16:59:48Z</time>
      </trkpt>
      <trkpt lat="44.34613" lon="3.59156">
        <ele>552.633</ele>
        <time>2016-05-05T17:00:04Z</time>
      </trkpt>
      <trkpt lat="44.34622" lon="3.59149">
        <ele>553.662</ele>
        <time>2016-05-05T17:00:11Z</time>
      </trkpt>
      <trkpt lat="44.34625" lon="3.59141">
        <ele>554.378</ele>
        <time>2016-05-05T17:00:29Z</time>
      </trkpt>
      <trkpt lat="44.3465" lon="3.59128">
        <ele>561.346</ele>
        <time>2016-05-05T17:01:21Z</time>
      </trkpt>
      <trkpt lat="44.34651" lon="3.59129">
        <ele>561.582</ele>
        <time>2016-05-05T17:01:28Z</time>
      </trkpt>
      <trkpt lat="44.34651" lon="3.59124">
        <ele>562.268</ele>
        <time>2016-05-05T17:01:39Z</time>
      </trkpt>
      <trkpt lat="44.34593" lon="3.58922">
        <ele>582.43</ele>
        <time>2016-05-05T17:04:33Z</time>
      </trkpt>
      <trkpt lat="44.34568" lon="3.58925">
        <ele>576.444</ele>
        <time>2016-05-05T17:05:02Z</time>
      </trkpt>
      <trkpt lat="44.34553" lon="3.58918">
        <ele>576.017</ele>
        <time>2016-05-05T17:05:07Z</time>
      </trkpt>
      <trkpt lat="44.34343" lon="3.58858">
        <ele>583.82</ele>
        <time>2016-05-05T17:06:28Z</time>
      </trkpt>
      <trkpt lat="44.34301" lon="3.58881">
        <ele>575.542</ele>
        <time>2016-05-05T17:06:37Z</time>
      </trkpt>
      <trkpt lat="44.34288" lon="3.58883">
        <ele>575.358</ele>
        <time>2016-05-05T17:06:39Z</time>
      </trkpt>
      <trkpt lat="44.34276" lon="3.58888">
        <ele>574.245</ele>
        <time>2016-05-05T17:06:41Z</time>
      </trkpt>
      <trkpt lat="44.34209" lon="3.58905">
        <ele>578.228</ele>
        <time>2016-05-05T17:06:52Z</time>
      </trkpt>
      <trkpt lat="44.34092" lon="3.58979">
        <ele>578.334</ele>
        <time>2016-05-05T17:07:36Z</time>
      </trkpt>
      <trkpt lat="44.34018" lon="3.58954">
        <ele>582.863</ele>
        <time>2016-05-05T17:07:58Z</time>
      </trkpt>
      <trkpt lat="44.33962" lon="3.58878">
        <ele>571.23</ele>
        <time>2016-05-05T17:08:06Z</time>
      </trkpt>
      <trkpt lat="44.33785" lon="3.58714">
        <ele>544.004</ele>
        <time>2016-05-05T17:08:30Z</time>
      </trkpt>
      <trkpt lat="44.33682" lon="3.5874">
        <ele>539.467</ele>
        <time>2016-05-05T17:08:57Z</time>
      </trkpt>
      <trkpt lat="44.33653" lon="3.58741">
        <ele>539.627</ele>
        <time>2016-05-05T17:09:03Z</time>
      </trkpt>
      <trkpt lat="44.33599" lon="3.58691">
        <ele>546.439</ele>
        <time>2016-05-05T17:09:14Z</time>
      </trkpt>
      <trkpt lat="44.33607" lon="3.58621">
        <ele>541.726</ele>
        <time>2016-05-05T17:09:35Z</time>
      </trkpt>
      <trkpt lat="44.33601" lon="3.586">
        <ele>541.802</ele>
        <time>2016-05-05T17:09:42Z</time>
      </trkpt>
      <trkpt lat="44.33581" lon="3.58586">
        <ele>543.075</ele>
        <time>2016-05-05T17:09:49Z</time>
      </trkpt>
      <trkpt lat="44.33574" lon="3.58594">
        <ele>544.617</ele>
        <time>2016-05-05T17:09:51Z</time>
      </trkpt>
      <trkpt lat="44.33535" lon="3.58585">
        <ele>545.728</ele>
        <time>2016-05-05T17:10:29Z</time>
      </trkpt>
      <trkpt lat="44.33536" lon="3.58595">
        <ele>547.598</ele>
        <time>2016-05-05T17:10:33Z</time>
      </trkpt>
      <trkpt lat="44.33514" lon="3.58606">
        <ele>550.557</ele>
        <time>2016-05-05T17:10:43Z</time>
      </trkpt>
      <trkpt lat="44.33424" lon="3.58636">
        <ele>546.732</ele>
        <time>2016-05-05T17:11:10Z</time>
      </trkpt>
      <trkpt lat="44.33345" lon="3.58706">
        <ele>545.103</ele>
        <time>2016-05-05T17:11:35Z</time>
      </trkpt>
      <trkpt lat="44.33297" lon="3.58778">
        <ele>544.862</ele>
        <time>2016-05-05T17:11:53Z</time>
      </trkpt>
      <trkpt lat="44.33198" lon="3.59032">
        <ele>547.979</ele>
        <time>2016-05-05T17:12:45Z</time>
      </trkpt>
      <trkpt lat="44.33185" lon="3.59064">
        <ele>550.805</ele>
        <time>2016-05-05T17:12:52Z</time>
      </trkpt>
      <trkpt lat="44.3316" lon="3.59106">
        <ele>552.726</ele>
        <time>2016-05-05T17:13:03Z</time>
      </trkpt>
      <trkpt lat="44.33139" lon="3.59099">
        <ele>545.743</ele>
        <time>2016-05-05T17:13:10Z</time>
      </trkpt>
      <trkpt lat="44.33095" lon="3.59048">
        <ele>541.167</ele>
        <time>2016-05-05T17:13:25Z</time>
      </trkpt>
      <trkpt lat="44.33069" lon="3.59043">
        <ele>542.48</ele>
        <time>2016-05-05T17:13:31Z</time>
      </trkpt>
      <trkpt lat="44.33046" lon="3.59053">
        <ele>543.157</ele>
        <time>2016-05-05T17:13:36Z</time>
      </trkpt>
      <trkpt lat="44.32914" lon="3.59157">
        <ele>544.429</ele>
        <time>2016-05-05T17:14:10Z</time>
      </trkpt>
      <trkpt lat="44.3288" lon="3.59149">
        <ele>545.705</ele>
        <time>2016-05-05T17:14:23Z</time>
      </trkpt>
      <trkpt lat="44.32876" lon="3.59147">
        <ele>545.882</ele>
        <time>2016-05-05T17:14:25Z</time>
      </trkpt>
      <trkpt lat="44.32866" lon="3.59195">
        <ele>545.05</ele>
        <time>2016-05-05T17:19:07Z</time>
      </trkpt>
      <trkpt lat="44.32796" lon="3.59252">
        <ele>545.66</ele>
        <time>2016-05-05T17:19:29Z</time>
      </trkpt>
      <trkpt lat="44.32699" lon="3.59328">
        <ele>546.422</ele>
        <time>2016-05-05T17:19:59Z</time>
      </trkpt>
      <trkpt lat="44.3266" lon="3.5936">
        <ele>546.29</ele>
        <time>2016-05-05T17:20:11Z</time>
      </trkpt>
      <trkpt lat="44.32375" lon="3.59585">
        <ele>546.75</ele>
        <time>2016-05-05T17:22:15Z</time>
      </trkpt>
      <trkpt lat="44.32295" lon="3.59626">
        <ele>549.2</ele>
        <time>2016-05-05T17:22:38Z</time>
      </trkpt>
      <trkpt lat="44.32101" lon="3.59667">
        <ele>550.952</ele>
        <time>2016-05-06T05:13:29Z</time>
      </trkpt>
      <trkpt lat="44.31976" lon="3.59745">
        <ele>555.985</ele>
        <time>2016-05-06T05:14:04Z</time>
      </trkpt>
      <trkpt lat="44.31817" lon="3.59792">
        <ele>557.026</ele>
        <time>2016-05-06T05:14:44Z</time>
      </trkpt>
      <trkpt lat="44.31627" lon="3.59802">
        <ele>558.362</ele>
        <time>2016-05-06T05:15:30Z</time>
      </trkpt>
      <trkpt lat="44.31516" lon="3.59766">
        <ele>562.992</ele>
        <time>2016-05-06T05:15:57Z</time>
      </trkpt>
      <trkpt lat="44.3132" lon="3.59794">
        <ele>555.363</ele>
        <time>2016-05-06T05:16:45Z</time>
      </trkpt>
      <trkpt lat="44.31282" lon="3.59818">
        <ele>555.052</ele>
        <time>2016-05-06T05:16:56Z</time>
      </trkpt>
      <trkpt lat="44.31269" lon="3.59823">
        <ele>554.483</ele>
        <time>2016-05-06T05:17:00Z</time>
      </trkpt>
      <trkpt lat="44.31267" lon="3.59847">
        <ele>554.819</ele>
        <time>2016-05-06T05:17:07Z</time>
      </trkpt>
      <trkpt lat="44.31272" lon="3.59868">
        <ele>558.244</ele>
        <time>2016-05-06T05:17:15Z</time>
      </trkpt>
      <trkpt lat="44.31297" lon="3.59877">
        <ele>561.301</ele>
        <time>2016-05-06T05:17:50Z</time>
      </trkpt>
      <trkpt lat="44.31347" lon="3.59879">
        <ele>566.345</ele>
        <time>2016-05-06T05:18:56Z</time>
      </trkpt>
      <trkpt lat="44.31408" lon="3.59884">
        <ele>570.8</ele>
        <time>2016-05-06T05:20:27Z</time>
      </trkpt>
      <trkpt lat="44.31438" lon="3.599">
        <ele>574.495</ele>
        <time>2016-05-06T05:20:36Z</time>
      </trkpt>
      <trkpt lat="44.31509" lon="3.59951">
        <ele>571.534</ele>
        <time>2016-05-06T05:20:58Z</time>
      </trkpt>
      <trkpt lat="44.31554" lon="3.60009">
        <ele>561.353</ele>
        <time>2016-05-06T05:21:13Z</time>
      </trkpt>
      <trkpt lat="44.31558" lon="3.60033">
        <ele>559.965</ele>
        <time>2016-05-06T05:21:18Z</time>
      </trkpt>
      <trkpt lat="44.31523" lon="3.60289">
        <ele>563.662</ele>
        <time>2016-05-06T05:22:14Z</time>
      </trkpt>
      <trkpt lat="44.31519" lon="3.60313">
        <ele>564.998</ele>
        <time>2016-05-06T05:22:19Z</time>
      </trkpt>
      <trkpt lat="44.31525" lon="3.60397">
        <ele>565.464</ele>
        <time>2016-05-06T05:22:37Z</time>
      </trkpt>
      <trkpt lat="44.31571" lon="3.60551">
        <ele>560.6</ele>
        <time>2016-05-06T05:23:12Z</time>
      </trkpt>
      <trkpt lat="44.31565" lon="3.60571">
        <ele>561.443</ele>
        <time>2016-05-06T05:23:17Z</time>
      </trkpt>
      <trkpt lat="44.31548" lon="3.60601">
        <ele>565.607</ele>
        <time>2016-05-06T05:23:27Z</time>
      </trkpt>
      <trkpt lat="44.31547" lon="3.60626">
        <ele>567.854</ele>
        <time>2016-05-06T05:23:31Z</time>
      </trkpt>
      <trkpt lat="44.31563" lon="3.60642">
        <ele>568.551</ele>
        <time>2016-05-06T05:23:37Z</time>
      </trkpt>
      <trkpt lat="44.31617" lon="3.60627">
        <ele>565.891</ele>
        <time>2016-05-06T05:23:59Z</time>
      </trkpt>
      <trkpt lat="44.31643" lon="3.60648">
        <ele>567.448</ele>
        <time>2016-05-06T05:24:10Z</time>
      </trkpt>
      <trkpt lat="44.31768" lon="3.60779">
        <ele>571.593</ele>
        <time>2016-05-06T05:25:50Z</time>
      </trkpt>
      <trkpt lat="44.31787" lon="3.60859">
        <ele>572.593</ele>
        <time>2016-05-06T05:26:45Z</time>
      </trkpt>
      <trkpt lat="44.31787" lon="3.60911">
        <ele>573.994</ele>
        <time>2016-05-06T05:27:06Z</time>
      </trkpt>
      <trkpt lat="44.3169" lon="3.61077">
        <ele>589.516</ele>
        <time>2016-05-06T05:28:34Z</time>
      </trkpt>
      <trkpt lat="44.31661" lon="3.61107">
        <ele>591.561</ele>
        <time>2016-05-06T05:28:57Z</time>
      </trkpt>
      <trkpt lat="44.31635" lon="3.61119">
        <ele>594.241</ele>
        <time>2016-05-06T05:29:14Z</time>
      </trkpt>
      <trkpt lat="44.31516" lon="3.61152">
        <ele>610.242</ele>
        <time>2016-05-06T05:30:30Z</time>
      </trkpt>
      <trkpt lat="44.31446" lon="3.61181">
        <ele>613.546</ele>
        <time>2016-05-06T05:31:19Z</time>
      </trkpt>
      <trkpt lat="44.31409" lon="3.61215">
        <ele>614.8</ele>
        <time>2016-05-06T05:31:46Z</time>
      </trkpt>
      <trkpt lat="44.31362" lon="3.61273">
        <ele>614.525</ele>
        <time>2016-05-06T05:34:28Z</time>
      </trkpt>
      <trkpt lat="44.31342" lon="3.61341">
        <ele>606.54</ele>
        <time>2016-05-06T05:34:40Z</time>
      </trkpt>
      <trkpt lat="44.31336" lon="3.61357">
        <ele>607.4</ele>
        <time>2016-05-06T05:34:42Z</time>
      </trkpt>
      <trkpt lat="44.31324" lon="3.61395">
        <ele>608.197</ele>
        <time>2016-05-06T05:34:46Z</time>
      </trkpt>
      <trkpt lat="44.31297" lon="3.61609">
        <ele>599.318</ele>
        <time>2016-05-06T05:35:06Z</time>
      </trkpt>
      <trkpt lat="44.3128" lon="3.61716">
        <ele>597.153</ele>
        <time>2016-05-06T05:35:16Z</time>
      </trkpt>
      <trkpt lat="44.31255" lon="3.61756">
        <ele>597.926</ele>
        <time>2016-05-06T05:35:21Z</time>
      </trkpt>
      <trkpt lat="44.31143" lon="3.61858">
        <ele>604.22</ele>
        <time>2016-05-06T05:35:38Z</time>
      </trkpt>
      <trkpt lat="44.31192" lon="3.61891">
        <ele>598.909</ele>
        <time>2016-05-06T05:35:50Z</time>
      </trkpt>
      <trkpt lat="44.31248" lon="3.61877">
        <ele>594.698</ele>
        <time>2016-05-06T05:36:04Z</time>
      </trkpt>
      <trkpt lat="44.313" lon="3.61897">
        <ele>586.927</ele>
        <time>2016-05-06T05:36:22Z</time>
      </trkpt>
      <trkpt lat="44.31246" lon="3.61962">
        <ele>604.207</ele>
        <time>2016-05-06T05:36:48Z</time>
      </trkpt>
      <trkpt lat="44.31249" lon="3.6211">
        <ele>615.088</ele>
        <time>2016-05-06T05:37:54Z</time>
      </trkpt>
      <trkpt lat="44.31354" lon="3.62347">
        <ele>636.194</ele>
        <time>2016-05-06T05:40:46Z</time>
      </trkpt>
      <trkpt lat="44.31435" lon="3.62517">
        <ele>653.865</ele>
        <time>2016-05-06T05:44:04Z</time>
      </trkpt>
      <trkpt lat="44.31432" lon="3.62536">
        <ele>655.345</ele>
        <time>2016-05-06T05:44:33Z</time>
      </trkpt>
      <trkpt lat="44.31402" lon="3.62567">
        <ele>656.632</ele>
        <time>2016-05-06T05:45:03Z</time>
      </trkpt>
      <trkpt lat="44.31366" lon="3.62584">
        <ele>665.499</ele>
        <time>2016-05-06T05:45:24Z</time>
      </trkpt>
      <trkpt lat="44.31333" lon="3.62628">
        <ele>663.465</ele>
        <time>2016-05-06T05:45:53Z</time>
      </trkpt>
      <trkpt lat="44.31328" lon="3.62634">
        <ele>663.271</ele>
        <time>2016-05-06T05:45:57Z</time>
      </trkpt>
      <trkpt lat="44.31269" lon="3.62738">
        <ele>655.307</ele>
        <time>2016-05-06T05:46:21Z</time>
      </trkpt>
      <trkpt lat="44.31213" lon="3.62809">
        <ele>664.646</ele>
        <time>2016-05-06T05:46:36Z</time>
      </trkpt>
      <trkpt lat="44.31208" lon="3.62839">
        <ele>659.49</ele>
        <time>2016-05-06T05:46:45Z</time>
      </trkpt>
      <trkpt lat="44.31195" lon="3.62873">
        <ele>658.137</ele>
        <time>2016-05-06T05:46:51Z</time>
      </trkpt>
      <trkpt lat="44.31165" lon="3.6293">
        <ele>662.062</ele>
        <time>2016-05-06T05:46:57Z</time>
      </trkpt>
      <trkpt lat="44.31152" lon="3.63053">
        <ele>652.866</ele>
        <time>2016-05-06T05:47:11Z</time>
      </trkpt>
      <trkpt lat="44.31105" lon="3.63148">
        <ele>659.714</ele>
        <time>2016-05-06T05:47:30Z</time>
      </trkpt>
      <trkpt lat="44.31003" lon="3.63161">
        <ele>661.413</ele>
        <time>2016-05-06T05:48:05Z</time>
      </trkpt>
      <trkpt lat="44.30966" lon="3.63133">
        <ele>670.676</ele>
        <time>2016-05-06T05:49:25Z</time>
      </trkpt>
      <trkpt lat="44.3092" lon="3.63097">
        <ele>673.128</ele>
        <time>2016-05-06T05:50:32Z</time>
      </trkpt>
      <trkpt lat="44.30879" lon="3.63068">
        <ele>680.909</ele>
        <time>2016-05-06T05:50:59Z</time>
      </trkpt>
      <trkpt lat="44.3085" lon="3.63059">
        <ele>685.837</ele>
        <time>2016-05-06T05:52:52Z</time>
      </trkpt>
      <trkpt lat="44.30878" lon="3.63102">
        <ele>682.053</ele>
        <time>2016-05-06T05:53:41Z</time>
      </trkpt>
      <trkpt lat="44.30893" lon="3.6312">
        <ele>681.597</ele>
        <time>2016-05-06T05:54:01Z</time>
      </trkpt>
      <trkpt lat="44.30912" lon="3.63162">
        <ele>684.322</ele>
        <time>2016-05-06T05:54:21Z</time>
      </trkpt>
      <trkpt lat="44.30946" lon="3.6333">
        <ele>696.862</ele>
        <time>2016-05-06T05:55:39Z</time>
      </trkpt>
      <trkpt lat="44.30959" lon="3.63366">
        <ele>694.289</ele>
        <time>2016-05-06T05:56:35Z</time>
      </trkpt>
      <trkpt lat="44.30985" lon="3.63362">
        <ele>687.765</ele>
        <time>2016-05-06T05:57:02Z</time>
      </trkpt>
      <trkpt lat="44.30973" lon="3.63379">
        <ele>691.314</ele>
        <time>2016-05-06T05:57:42Z</time>
      </trkpt>
      <trkpt lat="44.30948" lon="3.63427">
        <ele>692.732</ele>
        <time>2016-05-06T05:57:50Z</time>
      </trkpt>
      <trkpt lat="44.30933" lon="3.63465">
        <ele>690.529</ele>
        <time>2016-05-06T05:57:54Z</time>
      </trkpt>
      <trkpt lat="44.30909" lon="3.63547">
        <ele>679.745</ele>
        <time>2016-05-06T05:58:00Z</time>
      </trkpt>
      <trkpt lat="44.30894" lon="3.63575">
        <ele>678.129</ele>
        <time>2016-05-06T05:58:02Z</time>
      </trkpt>
      <trkpt lat="44.30804" lon="3.63691">
        <ele>675.088</ele>
        <time>2016-05-06T05:58:13Z</time>
      </trkpt>
      <trkpt lat="44.30732" lon="3.63849">
        <ele>663.72</ele>
        <time>2016-05-06T05:59:27Z</time>
      </trkpt>
      <trkpt lat="44.3064" lon="3.63999">
        <ele>661.056</ele>
        <time>2016-05-06T06:00:07Z</time>
      </trkpt>
      <trkpt lat="44.30652" lon="3.64114">
        <ele>645.67</ele>
        <time>2016-05-06T06:00:21Z</time>
      </trkpt>
      <trkpt lat="44.30619" lon="3.64146">
        <ele>654.861</ele>
        <time>2016-05-06T06:00:33Z</time>
      </trkpt>
      <trkpt lat="44.30611" lon="3.64184">
        <ele>658.226</ele>
        <time>2016-05-06T06:00:49Z</time>
      </trkpt>
      <trkpt lat="44.30622" lon="3.6425">
        <ele>660.294</ele>
        <time>2016-05-06T06:01:47Z</time>
      </trkpt>
      <trkpt lat="44.30621" lon="3.64267">
        <ele>662.472</ele>
        <time>2016-05-06T06:01:54Z</time>
      </trkpt>
      <trkpt lat="44.30644" lon="3.64377">
        <ele>661.892</ele>
        <time>2016-05-06T06:02:57Z</time>
      </trkpt>
      <trkpt lat="44.30641" lon="3.64414">
        <ele>662.976</ele>
        <time>2016-05-06T06:03:16Z</time>
      </trkpt>
      <trkpt lat="44.306" lon="3.64567">
        <ele>665.873</ele>
        <time>2016-05-06T06:03:55Z</time>
      </trkpt>
      <trkpt lat="44.30554" lon="3.64636">
        <ele>676.321</ele>
        <time>2016-05-06T06:04:27Z</time>
      </trkpt>
      <trkpt lat="44.30527" lon="3.64645">
        <ele>683.576</ele>
        <time>2016-05-06T06:04:52Z</time>
      </trkpt>
      <trkpt lat="44.30517" lon="3.64643">
        <ele>686.533</ele>
        <time>2016-05-06T06:05:03Z</time>
      </trkpt>
      <trkpt lat="44.30519" lon="3.64663">
        <ele>683.632</ele>
        <time>2016-05-06T06:05:15Z</time>
      </trkpt>
      <trkpt lat="44.30508" lon="3.64721">
        <ele>682.451</ele>
        <time>2016-05-06T06:05:35Z</time>
      </trkpt>
      <trkpt lat="44.30512" lon="3.64744">
        <ele>681.779</ele>
        <time>2016-05-06T06:05:51Z</time>
      </trkpt>
      <trkpt lat="44.30514" lon="3.64749">
        <ele>681.299</ele>
        <time>2016-05-06T06:05:55Z</time>
      </trkpt>
      <trkpt lat="44.30508" lon="3.64839">
        <ele>685.399</ele>
        <time>2016-05-06T06:06:38Z</time>
      </trkpt>
      <trkpt lat="44.30461" lon="3.64962">
        <ele>699.274</ele>
        <time>2016-05-06T06:10:40Z</time>
      </trkpt>
      <trkpt lat="44.3042" lon="3.6502">
        <ele>699.564</ele>
        <time>2016-05-06T06:10:56Z</time>
      </trkpt>
      <trkpt lat="44.30354" lon="3.65056">
        <ele>705.847</ele>
        <time>2016-05-06T06:11:16Z</time>
      </trkpt>
      <trkpt lat="44.3032" lon="3.65102">
        <ele>700.494</ele>
        <time>2016-05-06T06:11:33Z</time>
      </trkpt>
      <trkpt lat="44.30281" lon="3.65146">
        <ele>702.407</ele>
        <time>2016-05-06T06:11:52Z</time>
      </trkpt>
      <trkpt lat="44.30275" lon="3.65316">
        <ele>714.692</ele>
        <time>2016-05-06T06:14:36Z</time>
      </trkpt>
      <trkpt lat="44.30315" lon="3.65348">
        <ele>706.263</ele>
        <time>2016-05-06T06:14:49Z</time>
      </trkpt>
      <trkpt lat="44.30331" lon="3.65381">
        <ele>705.649</ele>
        <time>2016-05-06T06:14:56Z</time>
      </trkpt>
      <trkpt lat="44.30353" lon="3.65413">
        <ele>701.871</ele>
        <time>2016-05-06T06:15:05Z</time>
      </trkpt>
      <trkpt lat="44.30367" lon="3.65441">
        <ele>700.106</ele>
        <time>2016-05-06T06:15:09Z</time>
      </trkpt>
      <trkpt lat="44.30406" lon="3.65536">
        <ele>698.67</ele>
        <time>2016-05-06T06:15:26Z</time>
      </trkpt>
      <trkpt lat="44.3045" lon="3.65595">
        <ele>691.116</ele>
        <time>2016-05-06T06:15:44Z</time>
      </trkpt>
      <trkpt lat="44.30457" lon="3.65617">
        <ele>689.754</ele>
        <time>2016-05-06T06:15:48Z</time>
      </trkpt>
      <trkpt lat="44.30456" lon="3.65764">
        <ele>681.082</ele>
        <time>2016-05-06T06:16:16Z</time>
      </trkpt>
      <trkpt lat="44.30414" lon="3.65821">
        <ele>679.134</ele>
        <time>2016-05-06T06:16:40Z</time>
      </trkpt>
      <trkpt lat="44.30371" lon="3.65918">
        <ele>664.107</ele>
        <time>2016-05-06T06:17:01Z</time>
      </trkpt>
      <trkpt lat="44.3036" lon="3.65946">
        <ele>659.55</ele>
        <time>2016-05-06T06:17:04Z</time>
      </trkpt>
      <trkpt lat="44.30268" lon="3.66205">
        <ele>623.403</ele>
        <time>2016-05-06T06:17:38Z</time>
      </trkpt>
      <trkpt lat="44.30221" lon="3.66293">
        <ele>618.105</ele>
        <time>2016-05-06T06:17:52Z</time>
      </trkpt>
      <trkpt lat="44.30218" lon="3.66311">
        <ele>617.568</ele>
        <time>2016-05-06T06:17:57Z</time>
      </trkpt>
      <trkpt lat="44.30258" lon="3.66287">
        <ele>611.936</ele>
        <time>2016-05-06T06:18:18Z</time>
      </trkpt>
      <trkpt lat="44.3025" lon="3.66302">
        <ele>613.844</ele>
        <time>2016-05-06T06:18:25Z</time>
      </trkpt>
      <trkpt lat="44.30182" lon="3.66342">
        <ele>619.755</ele>
        <time>2016-05-06T06:18:45Z</time>
      </trkpt>
      <trkpt lat="44.30142" lon="3.66338">
        <ele>622.21</ele>
        <time>2016-05-06T06:18:54Z</time>
      </trkpt>
      <trkpt lat="44.3011" lon="3.66383">
        <ele>625.046</ele>
        <time>2016-05-06T06:20:32Z</time>
      </trkpt>
      <trkpt lat="44.30105" lon="3.66388">
        <ele>625.585</ele>
        <time>2016-05-06T06:20:56Z</time>
      </trkpt>
      <trkpt lat="44.30041" lon="3.66381">
        <ele>629.328</ele>
        <time>2016-05-06T06:22:39Z</time>
      </trkpt>
      <trkpt lat="44.30036" lon="3.66384">
        <ele>629.782</ele>
        <time>2016-05-06T06:22:43Z</time>
      </trkpt>
      <trkpt lat="44.30022" lon="3.66391">
        <ele>630.796</ele>
        <time>2016-05-06T06:22:52Z</time>
      </trkpt>
      <trkpt lat="44.29908" lon="3.66463">
        <ele>637.072</ele>
        <time>2016-05-06T06:23:31Z</time>
      </trkpt>
      <trkpt lat="44.29859" lon="3.66487">
        <ele>637.365</ele>
        <time>2016-05-06T06:23:49Z</time>
      </trkpt>
      <trkpt lat="44.29809" lon="3.66553">
        <ele>637.768</ele>
        <time>2016-05-06T06:24:43Z</time>
      </trkpt>
      <trkpt lat="44.29787" lon="3.6662">
        <ele>639.031</ele>
        <time>2016-05-06T06:24:56Z</time>
      </trkpt>
      <trkpt lat="44.29764" lon="3.66922">
        <ele>633.114</ele>
        <time>2016-05-06T06:25:52Z</time>
      </trkpt>
      <trkpt lat="44.29775" lon="3.67">
        <ele>632.265</ele>
        <time>2016-05-06T06:26:08Z</time>
      </trkpt>
      <trkpt lat="44.29817" lon="3.67122">
        <ele>634.353</ele>
        <time>2016-05-06T06:26:38Z</time>
      </trkpt>
      <trkpt lat="44.29836" lon="3.67148">
        <ele>635.178</ele>
        <time>2016-05-06T06:26:46Z</time>
      </trkpt>
      <trkpt lat="44.29874" lon="3.67183">
        <ele>635.191</ele>
        <time>2016-05-06T06:27:01Z</time>
      </trkpt>
      <trkpt lat="44.29925" lon="3.67241">
        <ele>639.421</ele>
        <time>2016-05-06T06:27:23Z</time>
      </trkpt>
      <trkpt lat="44.29942" lon="3.67304">
        <ele>638.177</ele>
        <time>2016-05-06T06:27:39Z</time>
      </trkpt>
      <trkpt lat="44.29942" lon="3.67382">
        <ele>636.572</ele>
        <time>2016-05-06T06:27:57Z</time>
      </trkpt>
      <trkpt lat="44.2995" lon="3.67558">
        <ele>635.137</ele>
        <time>2016-05-06T06:28:40Z</time>
      </trkpt>
      <trkpt lat="44.29983" lon="3.6765">
        <ele>641.438</ele>
        <time>2016-05-06T06:29:05Z</time>
      </trkpt>
      <trkpt lat="44.30027" lon="3.67726">
        <ele>643.813</ele>
        <time>2016-05-06T06:29:47Z</time>
      </trkpt>
      <trkpt lat="44.30036" lon="3.67764">
        <ele>646.436</ele>
        <time>2016-05-06T06:30:04Z</time>
      </trkpt>
      <trkpt lat="44.30034" lon="3.67827">
        <ele>640.383</ele>
        <time>2016-05-06T06:30:19Z</time>
      </trkpt>
      <trkpt lat="44.29986" lon="3.67916">
        <ele>639.146</ele>
        <time>2016-05-06T06:30:45Z</time>
      </trkpt>
      <trkpt lat="44.29922" lon="3.68027">
        <ele>645.714</ele>
        <time>2016-05-06T06:31:46Z</time>
      </trkpt>
      <trkpt lat="44.29868" lon="3.68226">
        <ele>645.929</ele>
        <time>2016-05-06T06:32:34Z</time>
      </trkpt>
      <trkpt lat="44.29841" lon="3.68291">
        <ele>647.416</ele>
        <time>2016-05-06T06:32:49Z</time>
      </trkpt>
      <trkpt lat="44.29779" lon="3.68369">
        <ele>649.608</ele>
        <time>2016-05-06T06:33:29Z</time>
      </trkpt>
      <trkpt lat="44.29751" lon="3.68378">
        <ele>650.924</ele>
        <time>2016-05-06T06:33:38Z</time>
      </trkpt>
      <trkpt lat="44.29602" lon="3.68406">
        <ele>658.287</ele>
        <time>2016-05-06T06:34:24Z</time>
      </trkpt>
      <trkpt lat="44.2953" lon="3.68369">
        <ele>661.035</ele>
        <time>2016-05-06T06:35:10Z</time>
      </trkpt>
      <trkpt lat="44.2952" lon="3.68366">
        <ele>663.071</ele>
        <time>2016-05-06T06:35:18Z</time>
      </trkpt>
      <trkpt lat="44.29438" lon="3.68377">
        <ele>649.754</ele>
        <time>2016-05-06T06:35:44Z</time>
      </trkpt>
      <trkpt lat="44.29433" lon="3.684">
        <ele>656.335</ele>
        <time>2016-05-06T06:35:48Z</time>
      </trkpt>
      <trkpt lat="44.29394" lon="3.68446">
        <ele>656.27</ele>
        <time>2016-05-06T06:36:03Z</time>
      </trkpt>
      <trkpt lat="44.29292" lon="3.68482">
        <ele>652.034</ele>
        <time>2016-05-06T06:36:36Z</time>
      </trkpt>
      <trkpt lat="44.29244" lon="3.68519">
        <ele>650.19</ele>
        <time>2016-05-06T06:37:11Z</time>
      </trkpt>
      <trkpt lat="44.29222" lon="3.68669">
        <ele>663.073</ele>
        <time>2016-05-06T06:37:41Z</time>
      </trkpt>
      <trkpt lat="44.2919" lon="3.68726">
        <ele>665.856</ele>
        <time>2016-05-06T06:37:56Z</time>
      </trkpt>
      <trkpt lat="44.29032" lon="3.68812">
        <ele>658.576</ele>
        <time>2016-05-06T06:38:50Z</time>
      </trkpt>
      <trkpt lat="44.28946" lon="3.68945">
        <ele>659.943</ele>
        <time>2016-05-06T06:40:06Z</time>
      </trkpt>
      <trkpt lat="44.28923" lon="3.68959">
        <ele>663.112</ele>
        <time>2016-05-06T06:40:12Z</time>
      </trkpt>
      <trkpt lat="44.28884" lon="3.68963">
        <ele>664.668</ele>
        <time>2016-05-06T06:40:21Z</time>
      </trkpt>
      <trkpt lat="44.28778" lon="3.68927">
        <ele>674.292</ele>
        <time>2016-05-06T06:40:42Z</time>
      </trkpt>
      <trkpt lat="44.28749" lon="3.68939">
        <ele>676.313</ele>
        <time>2016-05-06T06:40:49Z</time>
      </trkpt>
      <trkpt lat="44.28585" lon="3.69066">
        <ele>676.362</ele>
        <time>2016-05-06T06:41:25Z</time>
      </trkpt>
      <trkpt lat="44.2851" lon="3.69225">
        <ele>673.055</ele>
        <time>2016-05-06T06:42:01Z</time>
      </trkpt>
      <trkpt lat="44.28478" lon="3.69267">
        <ele>675.25</ele>
        <time>2016-05-06T06:42:15Z</time>
      </trkpt>
      <trkpt lat="44.28349" lon="3.69404">
        <ele>675.806</ele>
        <time>2016-05-06T06:42:54Z</time>
      </trkpt>
      <trkpt lat="44.28269" lon="3.69472">
        <ele>677.076</ele>
        <time>2016-05-06T06:43:20Z</time>
      </trkpt>
      <trkpt lat="44.28249" lon="3.69518">
        <ele>679.195</ele>
        <time>2016-05-06T06:43:33Z</time>
      </trkpt>
      <trkpt lat="44.28251" lon="3.69521">
        <ele>679.794</ele>
        <time>2016-05-06T06:44:20Z</time>
      </trkpt>
      <trkpt lat="44.2821" lon="3.69631">
        <ele>676.781</ele>
        <time>2016-05-06T06:46:53Z</time>
      </trkpt>
      <trkpt lat="44.28197" lon="3.69645">
        <ele>678.386</ele>
        <time>2016-05-06T06:46:57Z</time>
      </trkpt>
      <trkpt lat="44.28062" lon="3.69676">
        <ele>677.179</ele>
        <time>2016-05-06T06:47:33Z</time>
      </trkpt>
      <trkpt lat="44.2802" lon="3.69701">
        <ele>677.664</ele>
        <time>2016-05-06T06:47:45Z</time>
      </trkpt>
      <trkpt lat="44.28007" lon="3.6972">
        <ele>678.218</ele>
        <time>2016-05-06T06:47:49Z</time>
      </trkpt>
      <trkpt lat="44.2799" lon="3.69765">
        <ele>677.833</ele>
        <time>2016-05-06T06:47:57Z</time>
      </trkpt>
      <trkpt lat="44.27993" lon="3.70112">
        <ele>678.819</ele>
        <time>2016-05-06T06:49:01Z</time>
      </trkpt>
      <trkpt lat="44.2797" lon="3.70209">
        <ele>675.519</ele>
        <time>2016-05-06T06:49:26Z</time>
      </trkpt>
      <trkpt lat="44.27956" lon="3.70261">
        <ele>675.454</ele>
        <time>2016-05-06T06:49:40Z</time>
      </trkpt>
      <trkpt lat="44.27948" lon="3.70286">
        <ele>675.689</ele>
        <time>2016-05-06T06:49:48Z</time>
      </trkpt>
      <trkpt lat="44.27907" lon="3.70397">
        <ele>677.912</ele>
        <time>2016-05-06T06:50:43Z</time>
      </trkpt>
      <trkpt lat="44.27895" lon="3.70431">
        <ele>676.897</ele>
        <time>2016-05-06T06:51:20Z</time>
      </trkpt>
      <trkpt lat="44.27862" lon="3.70675">
        <ele>683.153</ele>
        <time>2016-05-06T06:52:29Z</time>
      </trkpt>
      <trkpt lat="44.27754" lon="3.70801">
        <ele>678.59</ele>
        <time>2016-05-06T06:53:14Z</time>
      </trkpt>
      <trkpt lat="44.27738" lon="3.7085">
        <ele>677.661</ele>
        <time>2016-05-06T06:53:27Z</time>
      </trkpt>
      <trkpt lat="44.27756" lon="3.70913">
        <ele>681.331</ele>
        <time>2016-05-06T06:53:41Z</time>
      </trkpt>
      <trkpt lat="44.2784" lon="3.7103">
        <ele>682.15</ele>
        <time>2016-05-06T06:54:14Z</time>
      </trkpt>
      <trkpt lat="44.27854" lon="3.71186">
        <ele>682.996</ele>
        <time>2016-05-06T06:54:44Z</time>
      </trkpt>
      <trkpt lat="44.2784" lon="3.71237">
        <ele>684.319</ele>
        <time>2016-05-06T06:54:52Z</time>
      </trkpt>
      <trkpt lat="44.2779" lon="3.71335">
        <ele>688.046</ele>
        <time>2016-05-06T06:58:29Z</time>
      </trkpt>
      <trkpt lat="44.27782" lon="3.71379">
        <ele>690.261</ele>
        <time>2016-05-06T06:58:42Z</time>
      </trkpt>
      <trkpt lat="44.27788" lon="3.71445">
        <ele>685.854</ele>
        <time>2016-05-06T06:58:56Z</time>
      </trkpt>
      <trkpt lat="44.27808" lon="3.71473">
        <ele>689.935</ele>
        <time>2016-05-06T06:59:03Z</time>
      </trkpt>
      <trkpt lat="44.27822" lon="3.71536">
        <ele>687.79</ele>
        <time>2016-05-06T06:59:18Z</time>
      </trkpt>
      <trkpt lat="44.27796" lon="3.7166">
        <ele>684.158</ele>
        <time>2016-05-06T06:59:45Z</time>
      </trkpt>
      <trkpt lat="44.27793" lon="3.71845">
        <ele>685.117</ele>
        <time>2016-05-06T07:00:23Z</time>
      </trkpt>
      <trkpt lat="44.27784" lon="3.71896">
        <ele>683.822</ele>
        <time>2016-05-06T07:00:33Z</time>
      </trkpt>
      <trkpt lat="44.2778" lon="3.72033">
        <ele>688.392</ele>
        <time>2016-05-06T07:00:59Z</time>
      </trkpt>
      <trkpt lat="44.27808" lon="3.72218">
        <ele>690.629</ele>
        <time>2016-05-06T07:01:34Z</time>
      </trkpt>
      <trkpt lat="44.27806" lon="3.72287">
        <ele>689.6</ele>
        <time>2016-05-06T07:01:47Z</time>
      </trkpt>
      <trkpt lat="44.27796" lon="3.72319">
        <ele>691.81</ele>
        <time>2016-05-06T07:01:52Z</time>
      </trkpt>
      <trkpt lat="44.2778" lon="3.72361">
        <ele>691.971</ele>
        <time>2016-05-06T07:02:00Z</time>
      </trkpt>
      <trkpt lat="44.2763" lon="3.72499">
        <ele>691.549</ele>
        <time>2016-05-06T07:02:51Z</time>
      </trkpt>
      <trkpt lat="44.27565" lon="3.72577">
        <ele>694.783</ele>
        <time>2016-05-06T07:03:19Z</time>
      </trkpt>
      <trkpt lat="44.27503" lon="3.72722">
        <ele>690.535</ele>
        <time>2016-05-06T07:04:00Z</time>
      </trkpt>
      <trkpt lat="44.27486" lon="3.72798">
        <ele>698.375</ele>
        <time>2016-05-06T07:04:17Z</time>
      </trkpt>
      <trkpt lat="44.27472" lon="3.72918">
        <ele>700.576</ele>
        <time>2016-05-06T07:04:42Z</time>
      </trkpt>
      <trkpt lat="44.27435" lon="3.72974">
        <ele>697.762</ele>
        <time>2016-05-06T07:04:55Z</time>
      </trkpt>
      <trkpt lat="44.27414" lon="3.72986">
        <ele>700.384</ele>
        <time>2016-05-06T07:05:01Z</time>
      </trkpt>
      <trkpt lat="44.27379" lon="3.7298">
        <ele>698.265</ele>
        <time>2016-05-06T07:05:10Z</time>
      </trkpt>
      <trkpt lat="44.27343" lon="3.72969">
        <ele>696.143</ele>
        <time>2016-05-06T07:05:15Z</time>
      </trkpt>
      <trkpt lat="44.27303" lon="3.72968">
        <ele>695.177</ele>
        <time>2016-05-06T07:05:20Z</time>
      </trkpt>
      <trkpt lat="44.27213" lon="3.72992">
        <ele>695.019</ele>
        <time>2016-05-06T07:05:36Z</time>
      </trkpt>
      <trkpt lat="44.27138" lon="3.73055">
        <ele>695.313</ele>
        <time>2016-05-06T07:05:58Z</time>
      </trkpt>
      <trkpt lat="44.2712" lon="3.73041">
        <ele>694.935</ele>
        <time>2016-05-06T07:22:00Z</time>
      </trkpt>
      <trkpt lat="44.27103" lon="3.73024">
        <ele>694.877</ele>
        <time>2016-05-06T07:22:08Z</time>
      </trkpt>
      <trkpt lat="44.27077" lon="3.73001">
        <ele>697.703</ele>
        <time>2016-05-06T07:22:19Z</time>
      </trkpt>
      <trkpt lat="44.27054" lon="3.73028">
        <ele>697.419</ele>
        <time>2016-05-06T07:22:32Z</time>
      </trkpt>
      <trkpt lat="44.27004" lon="3.73079">
        <ele>696.61</ele>
        <time>2016-05-06T07:22:54Z</time>
      </trkpt>
      <trkpt lat="44.26947" lon="3.73072">
        <ele>698.859</ele>
        <time>2016-05-06T07:23:21Z</time>
      </trkpt>
      <trkpt lat="44.26937" lon="3.73069">
        <ele>698.98</ele>
        <time>2016-05-06T07:23:26Z</time>
      </trkpt>
      <trkpt lat="44.26902" lon="3.7307">
        <ele>696.855</ele>
        <time>2016-05-06T07:23:38Z</time>
      </trkpt>
      <trkpt lat="44.26889" lon="3.73105">
        <ele>704.779</ele>
        <time>2016-05-06T07:23:45Z</time>
      </trkpt>
      <trkpt lat="44.26912" lon="3.73133">
        <ele>701.589</ele>
        <time>2016-05-06T07:23:59Z</time>
      </trkpt>
      <trkpt lat="44.2697" lon="3.73186">
        <ele>706.923</ele>
        <time>2016-05-06T07:24:26Z</time>
      </trkpt>
      <trkpt lat="44.26991" lon="3.73224">
        <ele>704.979</ele>
        <time>2016-05-06T07:24:39Z</time>
      </trkpt>
      <trkpt lat="44.27001" lon="3.73319">
        <ele>702.05</ele>
        <time>2016-05-06T07:25:06Z</time>
      </trkpt>
      <trkpt lat="44.2696" lon="3.73386">
        <ele>706.619</ele>
        <time>2016-05-06T07:25:27Z</time>
      </trkpt>
      <trkpt lat="44.26859" lon="3.73504">
        <ele>713.083</ele>
        <time>2016-05-06T07:26:42Z</time>
      </trkpt>
      <trkpt lat="44.26841" lon="3.73528">
        <ele>719.895</ele>
        <time>2016-05-06T07:27:01Z</time>
      </trkpt>
      <trkpt lat="44.26823" lon="3.73605">
        <ele>721.416</ele>
        <time>2016-05-06T07:27:50Z</time>
      </trkpt>
      <trkpt lat="44.26817" lon="3.7361">
        <ele>723.342</ele>
        <time>2016-05-06T07:27:55Z</time>
      </trkpt>
      <trkpt lat="44.26637" lon="3.73532">
        <ele>742.23</ele>
        <time>2016-05-06T07:30:32Z</time>
      </trkpt>
      <trkpt lat="44.26575" lon="3.73555">
        <ele>746.342</ele>
        <time>2016-05-06T07:31:39Z</time>
      </trkpt>
      <trkpt lat="44.26532" lon="3.73584">
        <ele>745.338</ele>
        <time>2016-05-06T07:32:32Z</time>
      </trkpt>
      <trkpt lat="44.26534" lon="3.73559">
        <ele>753.689</ele>
        <time>2016-05-06T07:33:23Z</time>
      </trkpt>
      <trkpt lat="44.2659" lon="3.73511">
        <ele>759.355</ele>
        <time>2016-05-06T07:35:57Z</time>
      </trkpt>
      <trkpt lat="44.26606" lon="3.73481">
        <ele>767.864</ele>
        <time>2016-05-06T07:36:34Z</time>
      </trkpt>
      <trkpt lat="44.26625" lon="3.73475">
        <ele>767.992</ele>
        <time>2016-05-06T07:36:40Z</time>
      </trkpt>
      <trkpt lat="44.26739" lon="3.7347">
        <ele>773.629</ele>
        <time>2016-05-06T07:37:53Z</time>
      </trkpt>
      <trkpt lat="44.26764" lon="3.73452">
        <ele>775.394</ele>
        <time>2016-05-06T07:38:12Z</time>
      </trkpt>
      <trkpt lat="44.26826" lon="3.73301">
        <ele>791.272</ele>
        <time>2016-05-06T07:39:40Z</time>
      </trkpt>
      <trkpt lat="44.26824" lon="3.73277">
        <ele>793.78</ele>
        <time>2016-05-06T07:39:54Z</time>
      </trkpt>
      <trkpt lat="44.26792" lon="3.73246">
        <ele>797.923</ele>
        <time>2016-05-06T07:40:26Z</time>
      </trkpt>
      <trkpt lat="44.26782" lon="3.73252">
        <ele>801.518</ele>
        <time>2016-05-06T07:40:46Z</time>
      </trkpt>
      <trkpt lat="44.26659" lon="3.73272">
        <ele>807.009</ele>
        <time>2016-05-06T07:43:12Z</time>
      </trkpt>
      <trkpt lat="44.26444" lon="3.73241">
        <ele>821.956</ele>
        <time>2016-05-06T07:46:54Z</time>
      </trkpt>
      <trkpt lat="44.26402" lon="3.73121">
        <ele>833.66</ele>
        <time>2016-05-06T07:47:55Z</time>
      </trkpt>
      <trkpt lat="44.26376" lon="3.73087">
        <ele>835.556</ele>
        <time>2016-05-06T07:48:11Z</time>
      </trkpt>
      <trkpt lat="44.26312" lon="3.72988">
        <ele>845.499</ele>
        <time>2016-05-06T07:48:40Z</time>
      </trkpt>
      <trkpt lat="44.26322" lon="3.72924">
        <ele>836.987</ele>
        <time>2016-05-06T07:48:54Z</time>
      </trkpt>
      <trkpt lat="44.2631" lon="3.72869">
        <ele>841.932</ele>
        <time>2016-05-06T07:49:08Z</time>
      </trkpt>
      <trkpt lat="44.26308" lon="3.72851">
        <ele>842.565</ele>
        <time>2016-05-06T07:49:15Z</time>
      </trkpt>
      <trkpt lat="44.26265" lon="3.72706">
        <ele>846.172</ele>
        <time>2016-05-06T07:50:06Z</time>
      </trkpt>
      <trkpt lat="44.26224" lon="3.72687">
        <ele>848.06</ele>
        <time>2016-05-06T07:50:24Z</time>
      </trkpt>
      <trkpt lat="44.26183" lon="3.72695">
        <ele>848.364</ele>
        <time>2016-05-06T07:50:37Z</time>
      </trkpt>
      <trkpt lat="44.26097" lon="3.72772">
        <ele>860.572</ele>
        <time>2016-05-06T07:52:02Z</time>
      </trkpt>
      <trkpt lat="44.26013" lon="3.72785">
        <ele>864.341</ele>
        <time>2016-05-06T07:53:09Z</time>
      </trkpt>
      <trkpt lat="44.25929" lon="3.72758">
        <ele>854.286</ele>
        <time>2016-05-06T07:53:36Z</time>
      </trkpt>
      <trkpt lat="44.25874" lon="3.72651">
        <ele>868.724</ele>
        <time>2016-05-06T07:55:32Z</time>
      </trkpt>
      <trkpt lat="44.25879" lon="3.72591">
        <ele>863.634</ele>
        <time>2016-05-06T07:56:04Z</time>
      </trkpt>
      <trkpt lat="44.25877" lon="3.72581">
        <ele>863.018</ele>
        <time>2016-05-06T07:56:09Z</time>
      </trkpt>
      <trkpt lat="44.25736" lon="3.7247">
        <ele>886.89</ele>
        <time>2016-05-06T07:59:16Z</time>
      </trkpt>
      <trkpt lat="44.257" lon="3.72449">
        <ele>889.577</ele>
        <time>2016-05-06T07:59:50Z</time>
      </trkpt>
      <trkpt lat="44.25623" lon="3.72451">
        <ele>901.246</ele>
        <time>2016-05-06T08:00:59Z</time>
      </trkpt>
      <trkpt lat="44.25515" lon="3.72393">
        <ele>899.389</ele>
        <time>2016-05-06T08:03:02Z</time>
      </trkpt>
      <trkpt lat="44.25457" lon="3.724">
        <ele>904.938</ele>
        <time>2016-05-06T08:04:02Z</time>
      </trkpt>
      <trkpt lat="44.25452" lon="3.72416">
        <ele>910.667</ele>
        <time>2016-05-06T08:05:06Z</time>
      </trkpt>
      <trkpt lat="44.25357" lon="3.72433">
        <ele>917.634</ele>
        <time>2016-05-06T08:07:00Z</time>
      </trkpt>
      <trkpt lat="44.25315" lon="3.72409">
        <ele>919.46</ele>
        <time>2016-05-06T08:07:22Z</time>
      </trkpt>
      <trkpt lat="44.25307" lon="3.724">
        <ele>919.006</ele>
        <time>2016-05-06T08:07:30Z</time>
      </trkpt>
      <trkpt lat="44.25273" lon="3.72371">
        <ele>915.177</ele>
        <time>2016-05-06T08:07:51Z</time>
      </trkpt>
      <trkpt lat="44.25223" lon="3.72414">
        <ele>928.764</ele>
        <time>2016-05-06T08:09:02Z</time>
      </trkpt>
      <trkpt lat="44.25162" lon="3.72414">
        <ele>934.711</ele>
        <time>2016-05-06T08:09:51Z</time>
      </trkpt>
      <trkpt lat="44.25071" lon="3.724">
        <ele>932.011</ele>
        <time>2016-05-06T08:11:03Z</time>
      </trkpt>
      <trkpt lat="44.25013" lon="3.72431">
        <ele>939.719</ele>
        <time>2016-05-06T08:11:25Z</time>
      </trkpt>
      <trkpt lat="44.24971" lon="3.72425">
        <ele>939.084</ele>
        <time>2016-05-06T08:11:39Z</time>
      </trkpt>
      <trkpt lat="44.24876" lon="3.72384">
        <ele>937.343</ele>
        <time>2016-05-06T08:12:54Z</time>
      </trkpt>
      <trkpt lat="44.248" lon="3.72434">
        <ele>943.93</ele>
        <time>2016-05-06T08:13:39Z</time>
      </trkpt>
      <trkpt lat="44.24773" lon="3.7247">
        <ele>945.731</ele>
        <time>2016-05-06T08:14:03Z</time>
      </trkpt>
      <trkpt lat="44.24732" lon="3.72506">
        <ele>947.844</ele>
        <time>2016-05-06T08:14:32Z</time>
      </trkpt>
      <trkpt lat="44.24729" lon="3.72508">
        <ele>947.946</ele>
        <time>2016-05-06T08:14:35Z</time>
      </trkpt>
      <trkpt lat="44.24702" lon="3.72515">
        <ele>947.815</ele>
        <time>2016-05-06T08:14:44Z</time>
      </trkpt>
      <trkpt lat="44.24591" lon="3.72559">
        <ele>952.395</ele>
        <time>2016-05-06T08:15:11Z</time>
      </trkpt>
      <trkpt lat="44.24446" lon="3.72558">
        <ele>948.068</ele>
        <time>2016-05-06T08:15:45Z</time>
      </trkpt>
      <trkpt lat="44.2443" lon="3.72567">
        <ele>947.565</ele>
        <time>2016-05-06T08:15:55Z</time>
      </trkpt>
      <trkpt lat="44.2442" lon="3.7259">
        <ele>948.221</ele>
        <time>2016-05-06T08:18:20Z</time>
      </trkpt>
      <trkpt lat="44.24417" lon="3.72603">
        <ele>948.553</ele>
        <time>2016-05-06T08:18:22Z</time>
      </trkpt>
      <trkpt lat="44.24409" lon="3.72623">
        <ele>948.14</ele>
        <time>2016-05-06T08:18:25Z</time>
      </trkpt>
      <trkpt lat="44.24396" lon="3.72632">
        <ele>945.932</ele>
        <time>2016-05-06T08:18:27Z</time>
      </trkpt>
      <trkpt lat="44.24363" lon="3.72644">
        <ele>938.011</ele>
        <time>2016-05-06T08:18:32Z</time>
      </trkpt>
      <trkpt lat="44.24341" lon="3.72622">
        <ele>935.497</ele>
        <time>2016-05-06T08:19:07Z</time>
      </trkpt>
      <trkpt lat="44.24363" lon="3.72691">
        <ele>933.346</ele>
        <time>2016-05-06T08:20:42Z</time>
      </trkpt>
      <trkpt lat="44.2438" lon="3.72723">
        <ele>934.151</ele>
        <time>2016-05-06T08:20:46Z</time>
      </trkpt>
      <trkpt lat="44.24384" lon="3.72751">
        <ele>932.188</ele>
        <time>2016-05-06T08:20:49Z</time>
      </trkpt>
      <trkpt lat="44.24375" lon="3.72976">
        <ele>917.832</ele>
        <time>2016-05-06T08:26:32Z</time>
      </trkpt>
      <trkpt lat="44.24358" lon="3.73034">
        <ele>918.653</ele>
        <time>2016-05-06T08:26:44Z</time>
      </trkpt>
      <trkpt lat="44.24275" lon="3.73176">
        <ele>928.357</ele>
        <time>2016-05-06T08:27:57Z</time>
      </trkpt>
      <trkpt lat="44.24211" lon="3.73301">
        <ele>928.918</ele>
        <time>2016-05-06T08:29:04Z</time>
      </trkpt>
      <trkpt lat="44.24255" lon="3.73464">
        <ele>939.686</ele>
        <time>2016-05-06T08:31:27Z</time>
      </trkpt>
      <trkpt lat="44.24293" lon="3.73533">
        <ele>953.311</ele>
        <time>2016-05-06T08:31:59Z</time>
      </trkpt>
      <trkpt lat="44.24268" lon="3.73591">
        <ele>945.928</ele>
        <time>2016-05-06T08:32:22Z</time>
      </trkpt>
      <trkpt lat="44.24268" lon="3.73632">
        <ele>951.577</ele>
        <time>2016-05-06T08:32:36Z</time>
      </trkpt>
      <trkpt lat="44.2429" lon="3.73686">
        <ele>958.707</ele>
        <time>2016-05-06T08:32:55Z</time>
      </trkpt>
      <trkpt lat="44.24268" lon="3.73759">
        <ele>957.265</ele>
        <time>2016-05-06T08:33:25Z</time>
      </trkpt>
      <trkpt lat="44.24289" lon="3.73859">
        <ele>966.196</ele>
        <time>2016-05-06T08:34:30Z</time>
      </trkpt>
      <trkpt lat="44.2427" lon="3.73947">
        <ele>969.32</ele>
        <time>2016-05-06T08:35:29Z</time>
      </trkpt>
      <trkpt lat="44.24257" lon="3.74024">
        <ele>975.379</ele>
        <time>2016-05-06T08:36:25Z</time>
      </trkpt>
      <trkpt lat="44.24235" lon="3.74232">
        <ele>973.355</ele>
        <time>2016-05-06T08:39:41Z</time>
      </trkpt>
      <trkpt lat="44.24253" lon="3.74285">
        <ele>986.696</ele>
        <time>2016-05-06T08:40:05Z</time>
      </trkpt>
      <trkpt lat="44.24253" lon="3.74288">
        <ele>987.209</ele>
        <time>2016-05-06T08:40:06Z</time>
      </trkpt>
      <trkpt lat="44.24229" lon="3.74342">
        <ele>989.544</ele>
        <time>2016-05-06T08:40:43Z</time>
      </trkpt>
      <trkpt lat="44.24204" lon="3.74391">
        <ele>989.51</ele>
        <time>2016-05-06T08:41:32Z</time>
      </trkpt>
      <trkpt lat="44.2424" lon="3.74504">
        <ele>1000.497</ele>
        <time>2016-05-06T08:42:56Z</time>
      </trkpt>
      <trkpt lat="44.2424" lon="3.74508">
        <ele>1000.619</ele>
        <time>2016-05-06T08:42:58Z</time>
      </trkpt>
      <trkpt lat="44.24181" lon="3.74742">
        <ele>1012.44</ele>
        <time>2016-05-06T08:47:09Z</time>
      </trkpt>
      <trkpt lat="44.24184" lon="3.74802">
        <ele>1010.275</ele>
        <time>2016-05-06T08:48:39Z</time>
      </trkpt>
      <trkpt lat="44.2422" lon="3.74839">
        <ele>1017.028</ele>
        <time>2016-05-06T08:49:12Z</time>
      </trkpt>
      <trkpt lat="44.24221" lon="3.74842">
        <ele>1016.966</ele>
        <time>2016-05-06T08:49:19Z</time>
      </trkpt>
      <trkpt lat="44.24245" lon="3.74874">
        <ele>1019.632</ele>
        <time>2016-05-06T08:51:00Z</time>
      </trkpt>
      <trkpt lat="44.24262" lon="3.7499">
        <ele>1010.12</ele>
        <time>2016-05-06T08:51:33Z</time>
      </trkpt>
      <trkpt lat="44.24267" lon="3.75003">
        <ele>1010.148</ele>
        <time>2016-05-06T08:51:35Z</time>
      </trkpt>
      <trkpt lat="44.24279" lon="3.75122">
        <ele>1010.825</ele>
        <time>2016-05-06T08:51:52Z</time>
      </trkpt>
      <trkpt lat="44.24273" lon="3.75202">
        <ele>1014.309</ele>
        <time>2016-05-06T08:52:03Z</time>
      </trkpt>
      <trkpt lat="44.24267" lon="3.75216">
        <ele>1014.313</ele>
        <time>2016-05-06T08:52:05Z</time>
      </trkpt>
      <trkpt lat="44.2419" lon="3.75326">
        <ele>1012.506</ele>
        <time>2016-05-06T08:52:25Z</time>
      </trkpt>
      <trkpt lat="44.24125" lon="3.75384">
        <ele>997.348</ele>
        <time>2016-05-06T08:54:06Z</time>
      </trkpt>
      <trkpt lat="44.24112" lon="3.75415">
        <ele>996.574</ele>
        <time>2016-05-06T08:54:10Z</time>
      </trkpt>
      <trkpt lat="44.24075" lon="3.75496">
        <ele>995.127</ele>
        <time>2016-05-06T08:54:20Z</time>
      </trkpt>
      <trkpt lat="44.23884" lon="3.75529">
        <ele>991.847</ele>
        <time>2016-05-06T08:54:47Z</time>
      </trkpt>
      <trkpt lat="44.23775" lon="3.75557">
        <ele>989.967</ele>
        <time>2016-05-06T08:55:02Z</time>
      </trkpt>
      <trkpt lat="44.2369" lon="3.75591">
        <ele>985.552</ele>
        <time>2016-05-06T08:55:15Z</time>
      </trkpt>
      <trkpt lat="44.23608" lon="3.75614">
        <ele>979.978</ele>
        <time>2016-05-06T08:55:27Z</time>
      </trkpt>
      <trkpt lat="44.23591" lon="3.75612">
        <ele>977.086</ele>
        <time>2016-05-06T08:55:30Z</time>
      </trkpt>
      <trkpt lat="44.23534" lon="3.7564">
        <ele>975.538</ele>
        <time>2016-05-06T08:55:39Z</time>
      </trkpt>
      <trkpt lat="44.23494" lon="3.75709">
        <ele>973.06</ele>
        <time>2016-05-06T08:55:47Z</time>
      </trkpt>
      <trkpt lat="44.23474" lon="3.75786">
        <ele>972.198</ele>
        <time>2016-05-06T08:55:55Z</time>
      </trkpt>
      <trkpt lat="44.23468" lon="3.75877">
        <ele>972.641</ele>
        <time>2016-05-06T08:56:05Z</time>
      </trkpt>
      <trkpt lat="44.23464" lon="3.7592">
        <ele>976.551</ele>
        <time>2016-05-06T08:56:11Z</time>
      </trkpt>
      <trkpt lat="44.23393" lon="3.75977">
        <ele>972.185</ele>
        <time>2016-05-06T08:56:24Z</time>
      </trkpt>
      <trkpt lat="44.23383" lon="3.76092">
        <ele>973.03</ele>
        <time>2016-05-06T08:56:41Z</time>
      </trkpt>
      <trkpt lat="44.2339" lon="3.76145">
        <ele>971.914</ele>
        <time>2016-05-06T08:56:50Z</time>
      </trkpt>
      <trkpt lat="44.23397" lon="3.76202">
        <ele>967.13</ele>
        <time>2016-05-06T08:56:58Z</time>
      </trkpt>
      <trkpt lat="44.23407" lon="3.76244">
        <ele>964.571</ele>
        <time>2016-05-06T08:57:03Z</time>
      </trkpt>
      <trkpt lat="44.2342" lon="3.7632">
        <ele>960.004</ele>
        <time>2016-05-06T08:57:11Z</time>
      </trkpt>
      <trkpt lat="44.23456" lon="3.76383">
        <ele>957.537</ele>
        <time>2016-05-06T08:57:20Z</time>
      </trkpt>
      <trkpt lat="44.23491" lon="3.76552">
        <ele>948.497</ele>
        <time>2016-05-06T08:57:39Z</time>
      </trkpt>
      <trkpt lat="44.23494" lon="3.76562">
        <ele>947.576</ele>
        <time>2016-05-06T08:57:41Z</time>
      </trkpt>
      <trkpt lat="44.23536" lon="3.76603">
        <ele>946.768</ele>
        <time>2016-05-06T08:57:58Z</time>
      </trkpt>
      <trkpt lat="44.23507" lon="3.76604">
        <ele>941.188</ele>
        <time>2016-05-06T08:58:13Z</time>
      </trkpt>
      <trkpt lat="44.2351" lon="3.76614">
        <ele>939.279</ele>
        <time>2016-05-06T08:58:18Z</time>
      </trkpt>
      <trkpt lat="44.23567" lon="3.76647">
        <ele>933.244</ele>
        <time>2016-05-06T08:58:41Z</time>
      </trkpt>
      <trkpt lat="44.23599" lon="3.76709">
        <ele>923.738</ele>
        <time>2016-05-06T08:58:51Z</time>
      </trkpt>
      <trkpt lat="44.23588" lon="3.76912">
        <ele>921.242</ele>
        <time>2016-05-06T08:59:11Z</time>
      </trkpt>
      <trkpt lat="44.23601" lon="3.76985">
        <ele>917.442</ele>
        <time>2016-05-06T08:59:17Z</time>
      </trkpt>
      <trkpt lat="44.23619" lon="3.77056">
        <ele>912.459</ele>
        <time>2016-05-06T08:59:23Z</time>
      </trkpt>
      <trkpt lat="44.23653" lon="3.77196">
        <ele>907.059</ele>
        <time>2016-05-06T08:59:38Z</time>
      </trkpt>
      <trkpt lat="44.23651" lon="3.77212">
        <ele>902.536</ele>
        <time>2016-05-06T08:59:42Z</time>
      </trkpt>
      <trkpt lat="44.2362" lon="3.7721">
        <ele>894.196</ele>
        <time>2016-05-06T08:59:52Z</time>
      </trkpt>
      <trkpt lat="44.2364" lon="3.77305">
        <ele>890.142</ele>
        <time>2016-05-06T09:00:12Z</time>
      </trkpt>
      <trkpt lat="44.23639" lon="3.77308">
        <ele>890.868</ele>
        <time>2016-05-06T09:00:13Z</time>
      </trkpt>
      <trkpt lat="44.23594" lon="3.77345">
        <ele>894.297</ele>
        <time>2016-05-06T09:00:25Z</time>
      </trkpt>
      <trkpt lat="44.23568" lon="3.77343">
        <ele>890.117</ele>
        <time>2016-05-06T09:00:30Z</time>
      </trkpt>
      <trkpt lat="44.23492" lon="3.77376">
        <ele>887.029</ele>
        <time>2016-05-06T09:00:44Z</time>
      </trkpt>
      <trkpt lat="44.23383" lon="3.77542">
        <ele>889.157</ele>
        <time>2016-05-06T09:01:16Z</time>
      </trkpt>
      <trkpt lat="44.23317" lon="3.77622">
        <ele>891.762</ele>
        <time>2016-05-06T09:01:52Z</time>
      </trkpt>
      <trkpt lat="44.23309" lon="3.77624">
        <ele>890.609</ele>
        <time>2016-05-06T09:03:15Z</time>
      </trkpt>
      <trkpt lat="44.23222" lon="3.77739">
        <ele>892.539</ele>
        <time>2016-05-06T09:04:46Z</time>
      </trkpt>
      <trkpt lat="44.23221" lon="3.77743">
        <ele>892.12</ele>
        <time>2016-05-06T09:04:57Z</time>
      </trkpt>
      <trkpt lat="44.23209" lon="3.77826">
        <ele>885.031</ele>
        <time>2016-05-06T09:05:14Z</time>
      </trkpt>
      <trkpt lat="44.23184" lon="3.77878">
        <ele>881.726</ele>
        <time>2016-05-06T09:05:24Z</time>
      </trkpt>
      <trkpt lat="44.23117" lon="3.78023">
        <ele>879.72</ele>
        <time>2016-05-06T09:05:56Z</time>
      </trkpt>
      <trkpt lat="44.23093" lon="3.78153">
        <ele>872.633</ele>
        <time>2016-05-06T09:06:13Z</time>
      </trkpt>
      <trkpt lat="44.23082" lon="3.78188">
        <ele>871.22</ele>
        <time>2016-05-06T09:06:17Z</time>
      </trkpt>
      <trkpt lat="44.23012" lon="3.78362">
        <ele>862.255</ele>
        <time>2016-05-06T09:06:36Z</time>
      </trkpt>
      <trkpt lat="44.22992" lon="3.78397">
        <ele>859.272</ele>
        <time>2016-05-06T09:06:40Z</time>
      </trkpt>
      <trkpt lat="44.22839" lon="3.78494">
        <ele>851.019</ele>
        <time>2016-05-06T09:07:01Z</time>
      </trkpt>
      <trkpt lat="44.22759" lon="3.78557">
        <ele>844.347</ele>
        <time>2016-05-06T09:07:11Z</time>
      </trkpt>
      <trkpt lat="44.22694" lon="3.78626">
        <ele>840.122</ele>
        <time>2016-05-06T09:07:20Z</time>
      </trkpt>
      <trkpt lat="44.22645" lon="3.78686">
        <ele>839.535</ele>
        <time>2016-05-06T09:07:28Z</time>
      </trkpt>
      <trkpt lat="44.22559" lon="3.78981">
        <ele>824.448</ele>
        <time>2016-05-06T09:08:44Z</time>
      </trkpt>
      <trkpt lat="44.22525" lon="3.78999">
        <ele>830.16</ele>
        <time>2016-05-06T09:08:52Z</time>
      </trkpt>
      <trkpt lat="44.2249" lon="3.7912">
        <ele>820.517</ele>
        <time>2016-05-06T09:09:05Z</time>
      </trkpt>
      <trkpt lat="44.22402" lon="3.79309">
        <ele>805.79</ele>
        <time>2016-05-06T09:09:24Z</time>
      </trkpt>
      <trkpt lat="44.22407" lon="3.7937">
        <ele>806.854</ele>
        <time>2016-05-06T09:09:30Z</time>
      </trkpt>
      <trkpt lat="44.22454" lon="3.79449">
        <ele>800.782</ele>
        <time>2016-05-06T09:09:40Z</time>
      </trkpt>
      <trkpt lat="44.22469" lon="3.79518">
        <ele>798.721</ele>
        <time>2016-05-06T09:09:47Z</time>
      </trkpt>
      <trkpt lat="44.22476" lon="3.79587">
        <ele>797.042</ele>
        <time>2016-05-06T09:09:54Z</time>
      </trkpt>
      <trkpt lat="44.22472" lon="3.79636">
        <ele>797.169</ele>
        <time>2016-05-06T09:09:59Z</time>
      </trkpt>
      <trkpt lat="44.22472" lon="3.79678">
        <ele>794.008</ele>
        <time>2016-05-06T09:10:10Z</time>
      </trkpt>
      <trkpt lat="44.22502" lon="3.79594">
        <ele>788.586</ele>
        <time>2016-05-06T09:10:51Z</time>
      </trkpt>
      <trkpt lat="44.2251" lon="3.79618">
        <ele>786.426</ele>
        <time>2016-05-06T09:11:29Z</time>
      </trkpt>
      <trkpt lat="44.22518" lon="3.79668">
        <ele>784.596</ele>
        <time>2016-05-06T09:11:36Z</time>
      </trkpt>
      <trkpt lat="44.22522" lon="3.79686">
        <ele>783.024</ele>
        <time>2016-05-06T09:11:38Z</time>
      </trkpt>
      <trkpt lat="44.22543" lon="3.79817">
        <ele>773.151</ele>
        <time>2016-05-06T09:11:55Z</time>
      </trkpt>
      <trkpt lat="44.22528" lon="3.79858">
        <ele>771.62</ele>
        <time>2016-05-06T09:12:02Z</time>
      </trkpt>
      <trkpt lat="44.22505" lon="3.79873">
        <ele>771.259</ele>
        <time>2016-05-06T09:12:09Z</time>
      </trkpt>
      <trkpt lat="44.22463" lon="3.79893">
        <ele>767.911</ele>
        <time>2016-05-06T09:12:20Z</time>
      </trkpt>
      <trkpt lat="44.22378" lon="3.79899">
        <ele>747.484</ele>
        <time>2016-05-06T09:14:40Z</time>
      </trkpt>
      <trkpt lat="44.22328" lon="3.79823">
        <ele>746.935</ele>
        <time>2016-05-06T09:15:15Z</time>
      </trkpt>
      <trkpt lat="44.22311" lon="3.79819">
        <ele>746.903</ele>
        <time>2016-05-06T09:15:21Z</time>
      </trkpt>
      <trkpt lat="44.22266" lon="3.79844">
        <ele>736.422</ele>
        <time>2016-05-06T09:16:04Z</time>
      </trkpt>
      <trkpt lat="44.22257" lon="3.79855">
        <ele>732.816</ele>
        <time>2016-05-06T09:16:34Z</time>
      </trkpt>
      <trkpt lat="44.22279" lon="3.79857">
        <ele>730.567</ele>
        <time>2016-05-06T09:16:42Z</time>
      </trkpt>
      <trkpt lat="44.2227" lon="3.79867">
        <ele>727.039</ele>
        <time>2016-05-06T09:16:47Z</time>
      </trkpt>
      <trkpt lat="44.22263" lon="3.79869">
        <ele>727.056</ele>
        <time>2016-05-06T09:16:49Z</time>
      </trkpt>
      <trkpt lat="44.2225" lon="3.79874">
        <ele>726.37</ele>
        <time>2016-05-06T09:16:52Z</time>
      </trkpt>
      <trkpt lat="44.22235" lon="3.79882">
        <ele>724.362</ele>
        <time>2016-05-06T09:16:55Z</time>
      </trkpt>
      <trkpt lat="44.22191" lon="3.79907">
        <ele>720.524</ele>
        <time>2016-05-06T09:17:03Z</time>
      </trkpt>
      <trkpt lat="44.22132" lon="3.79924">
        <ele>711.238</ele>
        <time>2016-05-06T09:17:13Z</time>
      </trkpt>
      <trkpt lat="44.22002" lon="3.79847">
        <ele>691.111</ele>
        <time>2016-05-06T09:17:52Z</time>
      </trkpt>
      <trkpt lat="44.21967" lon="3.79936">
        <ele>654.336</ele>
        <time>2016-05-06T09:22:56Z</time>
      </trkpt>
      <trkpt lat="44.21945" lon="3.79968">
        <ele>649.264</ele>
        <time>2016-05-06T09:27:28Z</time>
      </trkpt>
      <trkpt lat="44.21934" lon="3.80005">
        <ele>646.059</ele>
        <time>2016-05-06T09:27:45Z</time>
      </trkpt>
      <trkpt lat="44.21939" lon="3.80038">
        <ele>643.507</ele>
        <time>2016-05-06T09:27:52Z</time>
      </trkpt>
      <trkpt lat="44.21944" lon="3.80109">
        <ele>638.831</ele>
        <time>2016-05-06T09:28:10Z</time>
      </trkpt>
      <trkpt lat="44.21955" lon="3.80146">
        <ele>634.033</ele>
        <time>2016-05-06T09:28:17Z</time>
      </trkpt>
      <trkpt lat="44.21955" lon="3.80161">
        <ele>633.785</ele>
        <time>2016-05-06T09:28:19Z</time>
      </trkpt>
      <trkpt lat="44.2192" lon="3.80268">
        <ele>638.714</ele>
        <time>2016-05-06T09:28:36Z</time>
      </trkpt>
      <trkpt lat="44.21888" lon="3.80364">
        <ele>630.944</ele>
        <time>2016-05-06T09:28:50Z</time>
      </trkpt>
      <trkpt lat="44.21848" lon="3.80401">
        <ele>621.97</ele>
        <time>2016-05-06T09:29:01Z</time>
      </trkpt>
      <trkpt lat="44.21822" lon="3.80387">
        <ele>618.532</ele>
        <time>2016-05-06T09:29:33Z</time>
      </trkpt>
      <trkpt lat="44.21825" lon="3.80404">
        <ele>616.842</ele>
        <time>2016-05-06T09:30:59Z</time>
      </trkpt>
      <trkpt lat="44.21851" lon="3.80456">
        <ele>610.056</ele>
        <time>2016-05-06T09:31:52Z</time>
      </trkpt>
      <trkpt lat="44.21866" lon="3.80463">
        <ele>609.854</ele>
        <time>2016-05-06T09:31:59Z</time>
      </trkpt>
      <trkpt lat="44.21899" lon="3.80482">
        <ele>602.383</ele>
        <time>2016-05-06T09:32:14Z</time>
      </trkpt>
      <trkpt lat="44.2192" lon="3.80479">
        <ele>600.49</ele>
        <time>2016-05-06T09:32:22Z</time>
      </trkpt>
      <trkpt lat="44.21991" lon="3.80405">
        <ele>588.072</ele>
        <time>2016-05-06T09:32:44Z</time>
      </trkpt>
      <trkpt lat="44.21992" lon="3.80439">
        <ele>581.299</ele>
        <time>2016-05-06T09:33:26Z</time>
      </trkpt>
      <trkpt lat="44.22004" lon="3.80437">
        <ele>575.308</ele>
        <time>2016-05-06T09:33:35Z</time>
      </trkpt>
      <trkpt lat="44.22025" lon="3.80415">
        <ele>568.57</ele>
        <time>2016-05-06T09:33:45Z</time>
      </trkpt>
      <trkpt lat="44.22031" lon="3.80406">
        <ele>567.175</ele>
        <time>2016-05-06T09:33:48Z</time>
      </trkpt>
      <trkpt lat="44.22038" lon="3.80388">
        <ele>566.733</ele>
        <time>2016-05-06T09:34:02Z</time>
      </trkpt>
      <trkpt lat="44.22042" lon="3.80376">
        <ele>566.72</ele>
        <time>2016-05-06T09:34:35Z</time>
      </trkpt>
      <trkpt lat="44.22053" lon="3.80395">
        <ele>558.08</ele>
        <time>2016-05-06T09:34:45Z</time>
      </trkpt>
      <trkpt lat="44.22046" lon="3.80467">
        <ele>547.565</ele>
        <time>2016-05-06T09:35:02Z</time>
      </trkpt>
      <trkpt lat="44.22024" lon="3.80539">
        <ele>541.333</ele>
        <time>2016-05-06T09:35:17Z</time>
      </trkpt>
      <trkpt lat="44.22068" lon="3.80502">
        <ele>531.045</ele>
        <time>2016-05-06T09:35:41Z</time>
      </trkpt>
      <trkpt lat="44.22069" lon="3.80509">
        <ele>529.779</ele>
        <time>2016-05-06T09:35:44Z</time>
      </trkpt>
      <trkpt lat="44.22033" lon="3.80575">
        <ele>526.037</ele>
        <time>2016-05-06T09:37:01Z</time>
      </trkpt>
      <trkpt lat="44.2201" lon="3.80676">
        <ele>512.933</ele>
        <time>2016-05-06T09:37:52Z</time>
      </trkpt>
      <trkpt lat="44.22011" lon="3.80691">
        <ele>508.988</ele>
        <time>2016-05-06T09:37:55Z</time>
      </trkpt>
      <trkpt lat="44.2201" lon="3.80706">
        <ele>506.573</ele>
        <time>2016-05-06T09:37:57Z</time>
      </trkpt>
      <trkpt lat="44.21917" lon="3.80882">
        <ele>500.72</ele>
        <time>2016-05-06T09:38:44Z</time>
      </trkpt>
      <trkpt lat="44.21865" lon="3.80918">
        <ele>495.518</ele>
        <time>2016-05-06T09:39:00Z</time>
      </trkpt>
      <trkpt lat="44.21856" lon="3.80927">
        <ele>493.828</ele>
        <time>2016-05-06T10:06:09Z</time>
      </trkpt>
      <trkpt lat="44.21834" lon="3.80894">
        <ele>497.506</ele>
        <time>2016-05-06T10:07:32Z</time>
      </trkpt>
      <trkpt lat="44.21827" lon="3.80894">
        <ele>497.171</ele>
        <time>2016-05-06T10:07:34Z</time>
      </trkpt>
      <trkpt lat="44.21814" lon="3.8089">
        <ele>496.819</ele>
        <time>2016-05-06T10:07:37Z</time>
      </trkpt>
      <trkpt lat="44.21739" lon="3.80836">
        <ele>494.625</ele>
        <time>2016-05-06T10:08:06Z</time>
      </trkpt>
      <trkpt lat="44.21721" lon="3.80834">
        <ele>492.158</ele>
        <time>2016-05-06T10:08:10Z</time>
      </trkpt>
      <trkpt lat="44.21602" lon="3.80759">
        <ele>488.781</ele>
        <time>2016-05-06T10:08:57Z</time>
      </trkpt>
      <trkpt lat="44.21596" lon="3.80738">
        <ele>488.505</ele>
        <time>2016-05-06T10:09:07Z</time>
      </trkpt>
      <trkpt lat="44.2161" lon="3.80702">
        <ele>495.147</ele>
        <time>2016-05-06T10:09:25Z</time>
      </trkpt>
      <trkpt lat="44.21613" lon="3.80674">
        <ele>499.896</ele>
        <time>2016-05-06T10:09:36Z</time>
      </trkpt>
      <trkpt lat="44.21598" lon="3.80659">
        <ele>496.601</ele>
        <time>2016-05-06T10:09:49Z</time>
      </trkpt>
      <trkpt lat="44.21551" lon="3.80683">
        <ele>498.815</ele>
        <time>2016-05-06T10:10:18Z</time>
      </trkpt>
      <trkpt lat="44.21523" lon="3.80704">
        <ele>499.762</ele>
        <time>2016-05-06T10:10:32Z</time>
      </trkpt>
      <trkpt lat="44.21458" lon="3.80717">
        <ele>506.065</ele>
        <time>2016-05-06T10:10:51Z</time>
      </trkpt>
      <trkpt lat="44.21436" lon="3.80728">
        <ele>506.289</ele>
        <time>2016-05-06T10:10:56Z</time>
      </trkpt>
      <trkpt lat="44.21389" lon="3.80796">
        <ele>503.671</ele>
        <time>2016-05-06T10:11:28Z</time>
      </trkpt>
      <trkpt lat="44.21207" lon="3.80772">
        <ele>522.77</ele>
        <time>2016-05-06T10:14:45Z</time>
      </trkpt>
      <trkpt lat="44.21193" lon="3.80753">
        <ele>524.883</ele>
        <time>2016-05-06T10:14:59Z</time>
      </trkpt>
      <trkpt lat="44.21186" lon="3.80752">
        <ele>526.315</ele>
        <time>2016-05-06T10:15:04Z</time>
      </trkpt>
      <trkpt lat="44.21157" lon="3.80774">
        <ele>529.193</ele>
        <time>2016-05-06T10:15:26Z</time>
      </trkpt>
      <trkpt lat="44.21141" lon="3.8078">
        <ele>532.527</ele>
        <time>2016-05-06T10:15:36Z</time>
      </trkpt>
      <trkpt lat="44.21104" lon="3.8085">
        <ele>542.45</ele>
        <time>2016-05-06T10:19:57Z</time>
      </trkpt>
      <trkpt lat="44.21021" lon="3.80923">
        <ele>553.952</ele>
        <time>2016-05-06T10:24:06Z</time>
      </trkpt>
      <trkpt lat="44.20988" lon="3.80923">
        <ele>554.639</ele>
        <time>2016-05-06T10:24:28Z</time>
      </trkpt>
      <trkpt lat="44.20923" lon="3.80862">
        <ele>556.369</ele>
        <time>2016-05-06T10:24:53Z</time>
      </trkpt>
      <trkpt lat="44.20889" lon="3.80888">
        <ele>548.584</ele>
        <time>2016-05-06T10:25:05Z</time>
      </trkpt>
      <trkpt lat="44.20882" lon="3.80897">
        <ele>545.77</ele>
        <time>2016-05-06T10:25:07Z</time>
      </trkpt>
      <trkpt lat="44.2087" lon="3.80909">
        <ele>544.553</ele>
        <time>2016-05-06T10:25:10Z</time>
      </trkpt>
      <trkpt lat="44.20831" lon="3.8095">
        <ele>547.698</ele>
        <time>2016-05-06T10:25:19Z</time>
      </trkpt>
      <trkpt lat="44.20798" lon="3.81014">
        <ele>544.075</ele>
        <time>2016-05-06T10:25:28Z</time>
      </trkpt>
      <trkpt lat="44.20746" lon="3.81135">
        <ele>537.547</ele>
        <time>2016-05-06T10:25:48Z</time>
      </trkpt>
      <trkpt lat="44.20722" lon="3.81198">
        <ele>534.18</ele>
        <time>2016-05-06T10:25:56Z</time>
      </trkpt>
      <trkpt lat="44.20708" lon="3.81279">
        <ele>524.344</ele>
        <time>2016-05-06T10:26:05Z</time>
      </trkpt>
      <trkpt lat="44.2064" lon="3.81305">
        <ele>524.228</ele>
        <time>2016-05-06T10:26:18Z</time>
      </trkpt>
      <trkpt lat="44.20625" lon="3.81401">
        <ele>515.986</ele>
        <time>2016-05-06T10:26:29Z</time>
      </trkpt>
      <trkpt lat="44.20562" lon="3.81623">
        <ele>513.333</ele>
        <time>2016-05-06T10:27:12Z</time>
      </trkpt>
      <trkpt lat="44.20512" lon="3.81698">
        <ele>511.425</ele>
        <time>2016-05-06T10:27:28Z</time>
      </trkpt>
      <trkpt lat="44.20502" lon="3.81704">
        <ele>512.469</ele>
        <time>2016-05-06T10:27:30Z</time>
      </trkpt>
      <trkpt lat="44.20491" lon="3.81707">
        <ele>513.563</ele>
        <time>2016-05-06T10:27:32Z</time>
      </trkpt>
      <trkpt lat="44.2048" lon="3.81716">
        <ele>514.06</ele>
        <time>2016-05-06T10:27:34Z</time>
      </trkpt>
      <trkpt lat="44.20449" lon="3.81775">
        <ele>510.047</ele>
        <time>2016-05-06T10:27:44Z</time>
      </trkpt>
      <trkpt lat="44.20446" lon="3.81776">
        <ele>510.429</ele>
        <time>2016-05-06T10:27:59Z</time>
      </trkpt>
      <trkpt lat="44.2042" lon="3.81932">
        <ele>496.8</ele>
        <time>2016-05-06T10:29:40Z</time>
      </trkpt>
      <trkpt lat="44.20395" lon="3.81992">
        <ele>496.439</ele>
        <time>2016-05-06T10:29:49Z</time>
      </trkpt>
      <trkpt lat="44.20394" lon="3.82095">
        <ele>483.719</ele>
        <time>2016-05-06T10:30:01Z</time>
      </trkpt>
      <trkpt lat="44.20383" lon="3.82131">
        <ele>479.55</ele>
        <time>2016-05-06T10:30:05Z</time>
      </trkpt>
      <trkpt lat="44.20361" lon="3.82155">
        <ele>480.451</ele>
        <time>2016-05-06T10:30:09Z</time>
      </trkpt>
      <trkpt lat="44.20323" lon="3.82176">
        <ele>480.792</ele>
        <time>2016-05-06T10:30:16Z</time>
      </trkpt>
      <trkpt lat="44.20306" lon="3.82238">
        <ele>474.275</ele>
        <time>2016-05-06T10:30:24Z</time>
      </trkpt>
      <trkpt lat="44.20275" lon="3.82333">
        <ele>468.121</ele>
        <time>2016-05-06T10:30:34Z</time>
      </trkpt>
      <trkpt lat="44.20239" lon="3.82403">
        <ele>470.065</ele>
        <time>2016-05-06T10:30:41Z</time>
      </trkpt>
      <trkpt lat="44.2026" lon="3.82606">
        <ele>469.849</ele>
        <time>2016-05-06T10:31:26Z</time>
      </trkpt>
      <trkpt lat="44.20222" lon="3.82724">
        <ele>472.521</ele>
        <time>2016-05-06T10:31:45Z</time>
      </trkpt>
      <trkpt lat="44.20231" lon="3.82784">
        <ele>464.2</ele>
        <time>2016-05-06T10:31:57Z</time>
      </trkpt>
      <trkpt lat="44.20226" lon="3.82791">
        <ele>464.508</ele>
        <time>2016-05-06T10:31:59Z</time>
      </trkpt>
      <trkpt lat="44.20173" lon="3.82801">
        <ele>469.619</ele>
        <time>2016-05-06T10:32:11Z</time>
      </trkpt>
      <trkpt lat="44.2017" lon="3.8281">
        <ele>467.405</ele>
        <time>2016-05-06T10:32:13Z</time>
      </trkpt>
      <trkpt lat="44.20191" lon="3.82815">
        <ele>463.211</ele>
        <time>2016-05-06T10:32:19Z</time>
      </trkpt>
      <trkpt lat="44.20197" lon="3.82822">
        <ele>460.424</ele>
        <time>2016-05-06T10:32:23Z</time>
      </trkpt>
      <trkpt lat="44.20174" lon="3.82833">
        <ele>458.581</ele>
        <time>2016-05-06T10:32:29Z</time>
      </trkpt>
      <trkpt lat="44.20152" lon="3.82875">
        <ele>451.458</ele>
        <time>2016-05-06T10:32:34Z</time>
      </trkpt>
      <trkpt lat="44.20089" lon="3.82915">
        <ele>452.302</ele>
        <time>2016-05-06T10:32:46Z</time>
      </trkpt>
      <trkpt lat="44.20053" lon="3.82937">
        <ele>452.568</ele>
        <time>2016-05-06T10:32:53Z</time>
      </trkpt>
      <trkpt lat="44.20048" lon="3.82943">
        <ele>451.973</ele>
        <time>2016-05-06T10:32:54Z</time>
      </trkpt>
      <trkpt lat="44.20045" lon="3.83084">
        <ele>436.224</ele>
        <time>2016-05-06T10:33:10Z</time>
      </trkpt>
      <trkpt lat="44.19982" lon="3.83192">
        <ele>430.764</ele>
        <time>2016-05-06T10:33:27Z</time>
      </trkpt>
      <trkpt lat="44.19973" lon="3.83203">
        <ele>427.788</ele>
        <time>2016-05-06T10:33:29Z</time>
      </trkpt>
      <trkpt lat="44.19881" lon="3.83184">
        <ele>431.434</ele>
        <time>2016-05-06T10:33:43Z</time>
      </trkpt>
      <trkpt lat="44.19863" lon="3.83272">
        <ele>414.434</ele>
        <time>2016-05-06T10:33:56Z</time>
      </trkpt>
      <trkpt lat="44.19833" lon="3.8333">
        <ele>405.204</ele>
        <time>2016-05-06T10:34:06Z</time>
      </trkpt>
      <trkpt lat="44.19792" lon="3.83316">
        <ele>403.123</ele>
        <time>2016-05-06T10:34:18Z</time>
      </trkpt>
      <trkpt lat="44.19743" lon="3.83254">
        <ele>408.296</ele>
        <time>2016-05-06T10:34:30Z</time>
      </trkpt>
      <trkpt lat="44.19727" lon="3.83248">
        <ele>405.362</ele>
        <time>2016-05-06T10:34:33Z</time>
      </trkpt>
      <trkpt lat="44.19707" lon="3.83251">
        <ele>403.55</ele>
        <time>2016-05-06T10:34:37Z</time>
      </trkpt>
      <trkpt lat="44.19699" lon="3.83325">
        <ele>391.409</ele>
        <time>2016-05-06T10:34:49Z</time>
      </trkpt>
      <trkpt lat="44.1967" lon="3.83352">
        <ele>394.017</ele>
        <time>2016-05-06T10:34:57Z</time>
      </trkpt>
      <trkpt lat="44.19628" lon="3.83348">
        <ele>395.879</ele>
        <time>2016-05-06T10:35:07Z</time>
      </trkpt>
      <trkpt lat="44.19597" lon="3.83378">
        <ele>392.188</ele>
        <time>2016-05-06T10:35:15Z</time>
      </trkpt>
      <trkpt lat="44.19575" lon="3.83394">
        <ele>390.651</ele>
        <time>2016-05-06T10:35:19Z</time>
      </trkpt>
      <trkpt lat="44.19548" lon="3.83465">
        <ele>381.41</ele>
        <time>2016-05-06T10:35:31Z</time>
      </trkpt>
      <trkpt lat="44.19492" lon="3.83518">
        <ele>390.821</ele>
        <time>2016-05-06T10:35:47Z</time>
      </trkpt>
      <trkpt lat="44.1949" lon="3.83528">
        <ele>391.144</ele>
        <time>2016-05-06T10:35:49Z</time>
      </trkpt>
      <trkpt lat="44.19544" lon="3.83621">
        <ele>372.26</ele>
        <time>2016-05-06T10:36:04Z</time>
      </trkpt>
      <trkpt lat="44.19528" lon="3.83676">
        <ele>368.912</ele>
        <time>2016-05-06T10:36:10Z</time>
      </trkpt>
      <trkpt lat="44.19517" lon="3.83696">
        <ele>368.353</ele>
        <time>2016-05-06T10:36:12Z</time>
      </trkpt>
      <trkpt lat="44.19497" lon="3.83755">
        <ele>364.906</ele>
        <time>2016-05-06T10:36:17Z</time>
      </trkpt>
      <trkpt lat="44.19452" lon="3.83922">
        <ele>355.455</ele>
        <time>2016-05-06T10:36:33Z</time>
      </trkpt>
      <trkpt lat="44.19395" lon="3.83937">
        <ele>350.082</ele>
        <time>2016-05-06T10:36:43Z</time>
      </trkpt>
      <trkpt lat="44.19367" lon="3.83913">
        <ele>354.788</ele>
        <time>2016-05-06T10:36:49Z</time>
      </trkpt>
      <trkpt lat="44.19357" lon="3.83908">
        <ele>355.118</ele>
        <time>2016-05-06T10:36:51Z</time>
      </trkpt>
      <trkpt lat="44.19336" lon="3.83928">
        <ele>351.811</ele>
        <time>2016-05-06T10:36:55Z</time>
      </trkpt>
      <trkpt lat="44.19312" lon="3.83959">
        <ele>344.311</ele>
        <time>2016-05-06T10:37:01Z</time>
      </trkpt>
      <trkpt lat="44.19251" lon="3.83962">
        <ele>342.518</ele>
        <time>2016-05-06T10:37:12Z</time>
      </trkpt>
      <trkpt lat="44.19245" lon="3.83966">
        <ele>339.937</ele>
        <time>2016-05-06T10:37:14Z</time>
      </trkpt>
      <trkpt lat="44.19224" lon="3.83965">
        <ele>336.239</ele>
        <time>2016-05-06T10:37:20Z</time>
      </trkpt>
      <trkpt lat="44.19191" lon="3.8393">
        <ele>332.462</ele>
        <time>2016-05-06T10:37:33Z</time>
      </trkpt>
      <trkpt lat="44.19179" lon="3.83897">
        <ele>335.247</ele>
        <time>2016-05-06T10:37:40Z</time>
      </trkpt>
      <trkpt lat="44.19161" lon="3.83873">
        <ele>331.736</ele>
        <time>2016-05-06T10:37:44Z</time>
      </trkpt>
      <trkpt lat="44.19096" lon="3.83779">
        <ele>317.997</ele>
        <time>2016-05-06T10:38:08Z</time>
      </trkpt>
      <trkpt lat="44.19134" lon="3.83695">
        <ele>320.703</ele>
        <time>2016-05-06T10:38:29Z</time>
      </trkpt>
      <trkpt lat="44.19098" lon="3.83701">
        <ele>318.655</ele>
        <time>2016-05-06T10:38:39Z</time>
      </trkpt>
      <trkpt lat="44.19035" lon="3.83679">
        <ele>311.834</ele>
        <time>2016-05-06T10:39:45Z</time>
      </trkpt>
      <trkpt lat="44.19001" lon="3.83634">
        <ele>305.954</ele>
        <time>2016-05-06T10:39:54Z</time>
      </trkpt>
      <trkpt lat="44.18974" lon="3.83571">
        <ele>303.283</ele>
        <time>2016-05-06T10:40:01Z</time>
      </trkpt>
      <trkpt lat="44.18962" lon="3.83555">
        <ele>302.057</ele>
        <time>2016-05-06T10:40:03Z</time>
      </trkpt>
      <trkpt lat="44.18933" lon="3.83528">
        <ele>298.778</ele>
        <time>2016-05-06T10:40:07Z</time>
      </trkpt>
      <trkpt lat="44.18922" lon="3.8351">
        <ele>296.816</ele>
        <time>2016-05-06T10:40:09Z</time>
      </trkpt>
      <trkpt lat="44.18913" lon="3.83488">
        <ele>295.336</ele>
        <time>2016-05-06T10:40:11Z</time>
      </trkpt>
      <trkpt lat="44.18895" lon="3.83414">
        <ele>295.814</ele>
        <time>2016-05-06T10:40:17Z</time>
      </trkpt>
      <trkpt lat="44.18869" lon="3.83356">
        <ele>291.666</ele>
        <time>2016-05-06T10:40:22Z</time>
      </trkpt>
      <trkpt lat="44.18826" lon="3.83325">
        <ele>285.932</ele>
        <time>2016-05-06T10:40:27Z</time>
      </trkpt>
      <trkpt lat="44.18805" lon="3.83329">
        <ele>284.142</ele>
        <time>2016-05-06T10:40:29Z</time>
      </trkpt>
      <trkpt lat="44.187" lon="3.83403">
        <ele>274.869</ele>
        <time>2016-05-06T10:40:41Z</time>
      </trkpt>
      <trkpt lat="44.1868" lon="3.83357">
        <ele>270.718</ele>
        <time>2016-05-06T10:40:46Z</time>
      </trkpt>
      <trkpt lat="44.18686" lon="3.83331">
        <ele>269.537</ele>
        <time>2016-05-06T10:40:48Z</time>
      </trkpt>
      <trkpt lat="44.18707" lon="3.83269">
        <ele>273.625</ele>
        <time>2016-05-06T10:40:54Z</time>
      </trkpt>
      <trkpt lat="44.1869" lon="3.83242">
        <ele>268.881</ele>
        <time>2016-05-06T10:40:59Z</time>
      </trkpt>
      <trkpt lat="44.18654" lon="3.83229">
        <ele>268.437</ele>
        <time>2016-05-06T10:41:05Z</time>
      </trkpt>
      <trkpt lat="44.18595" lon="3.83302">
        <ele>273.855</ele>
        <time>2016-05-06T10:41:21Z</time>
      </trkpt>
      <trkpt lat="44.18549" lon="3.83393">
        <ele>271.225</ele>
        <time>2016-05-06T10:41:39Z</time>
      </trkpt>
      <trkpt lat="44.18492" lon="3.83461">
        <ele>270.689</ele>
        <time>2016-05-06T10:41:57Z</time>
      </trkpt>
      <trkpt lat="44.18384" lon="3.83516">
        <ele>272.699</ele>
        <time>2016-05-06T10:42:26Z</time>
      </trkpt>
      <trkpt lat="44.18178" lon="3.83515">
        <ele>280.728</ele>
        <time>2016-05-06T10:43:26Z</time>
      </trkpt>
      <trkpt lat="44.1811" lon="3.83519">
        <ele>279.93</ele>
        <time>2016-05-06T10:43:41Z</time>
      </trkpt>
      <trkpt lat="44.18099" lon="3.83587">
        <ele>273.693</ele>
        <time>2016-05-06T10:43:50Z</time>
      </trkpt>
      <trkpt lat="44.18074" lon="3.83643">
        <ele>269.347</ele>
        <time>2016-05-06T10:43:59Z</time>
      </trkpt>
      <trkpt lat="44.17948" lon="3.83655">
        <ele>271.749</ele>
        <time>2016-05-06T10:44:21Z</time>
      </trkpt>
      <trkpt lat="44.17863" lon="3.83744">
        <ele>266.711</ele>
        <time>2016-05-06T10:44:41Z</time>
      </trkpt>
      <trkpt lat="44.17856" lon="3.83762">
        <ele>266.093</ele>
        <time>2016-05-06T10:44:44Z</time>
      </trkpt>
      <trkpt lat="44.17849" lon="3.83778">
        <ele>265.902</ele>
        <time>2016-05-06T10:44:47Z</time>
      </trkpt>
      <trkpt lat="44.17835" lon="3.83791">
        <ele>267.332</ele>
        <time>2016-05-06T10:44:51Z</time>
      </trkpt>
      <trkpt lat="44.1776" lon="3.83818">
        <ele>273.152</ele>
        <time>2016-05-06T10:46:48Z</time>
      </trkpt>
      <trkpt lat="44.17648" lon="3.83898">
        <ele>280.978</ele>
        <time>2016-05-06T10:50:13Z</time>
      </trkpt>
      <trkpt lat="44.17598" lon="3.84017">
        <ele>285.356</ele>
        <time>2016-05-06T10:51:01Z</time>
      </trkpt>
      <trkpt lat="44.17542" lon="3.84224">
        <ele>296.775</ele>
        <time>2016-05-06T10:53:32Z</time>
      </trkpt>
      <trkpt lat="44.17524" lon="3.84247">
        <ele>300.027</ele>
        <time>2016-05-06T10:54:00Z</time>
      </trkpt>
      <trkpt lat="44.17504" lon="3.84269">
        <ele>304.039</ele>
        <time>2016-05-06T10:54:15Z</time>
      </trkpt>
      <trkpt lat="44.17493" lon="3.84272">
        <ele>303.285</ele>
        <time>2016-05-06T10:54:34Z</time>
      </trkpt>
      <trkpt lat="44.17427" lon="3.84261">
        <ele>291.107</ele>
        <time>2016-05-06T10:54:49Z</time>
      </trkpt>
      <trkpt lat="44.17352" lon="3.8422">
        <ele>283.287</ele>
        <time>2016-05-06T10:55:04Z</time>
      </trkpt>
      <trkpt lat="44.17272" lon="3.84213">
        <ele>279.803</ele>
        <time>2016-05-06T10:55:18Z</time>
      </trkpt>
      <trkpt lat="44.17225" lon="3.84149">
        <ele>274.49</ele>
        <time>2016-05-06T10:55:30Z</time>
      </trkpt>
      <trkpt lat="44.17199" lon="3.84131">
        <ele>268.212</ele>
        <time>2016-05-06T10:55:37Z</time>
      </trkpt>
      <trkpt lat="44.17233" lon="3.84088">
        <ele>268.378</ele>
        <time>2016-05-06T10:55:49Z</time>
      </trkpt>
      <trkpt lat="44.17193" lon="3.84028">
        <ele>259.048</ele>
        <time>2016-05-06T10:56:00Z</time>
      </trkpt>
      <trkpt lat="44.17121" lon="3.83909">
        <ele>256.16</ele>
        <time>2016-05-06T10:56:21Z</time>
      </trkpt>
      <trkpt lat="44.17063" lon="3.83888">
        <ele>253.079</ele>
        <time>2016-05-06T10:56:33Z</time>
      </trkpt>
      <trkpt lat="44.17026" lon="3.83889">
        <ele>255.456</ele>
        <time>2016-05-06T10:56:40Z</time>
      </trkpt>
      <trkpt lat="44.16927" lon="3.83969">
        <ele>255.079</ele>
        <time>2016-05-06T10:57:06Z</time>
      </trkpt>
      <trkpt lat="44.16788" lon="3.84199">
        <ele>261.507</ele>
        <time>2016-05-06T10:58:38Z</time>
      </trkpt>
      <trkpt lat="44.16755" lon="3.84225">
        <ele>261.771</ele>
        <time>2016-05-06T10:58:50Z</time>
      </trkpt>
      <trkpt lat="44.1644" lon="3.84205">
        <ele>248.288</ele>
        <time>2016-05-06T10:59:53Z</time>
      </trkpt>
      <trkpt lat="44.16328" lon="3.84195">
        <ele>253.118</ele>
        <time>2016-05-06T11:00:23Z</time>
      </trkpt>
      <trkpt lat="44.16331" lon="3.84136">
        <ele>254.029</ele>
        <time>2016-05-06T11:00:43Z</time>
      </trkpt>
      <trkpt lat="44.16321" lon="3.84124">
        <ele>257.644</ele>
        <time>2016-05-06T11:01:10Z</time>
      </trkpt>
      <trkpt lat="44.1628" lon="3.84229">
        <ele>268.561</ele>
        <time>2016-05-06T11:10:55Z</time>
      </trkpt>
      <trkpt lat="44.16275" lon="3.84144">
        <ele>273.928</ele>
        <time>2016-05-06T11:14:24Z</time>
      </trkpt>
      <trkpt lat="44.16261" lon="3.84107">
        <ele>278.396</ele>
        <time>2016-05-06T11:14:50Z</time>
      </trkpt>
      <trkpt lat="44.16241" lon="3.84098">
        <ele>285.43</ele>
        <time>2016-05-06T11:15:30Z</time>
      </trkpt>
      <trkpt lat="44.16192" lon="3.84112">
        <ele>297.205</ele>
        <time>2016-05-06T11:16:15Z</time>
      </trkpt>
      <trkpt lat="44.16175" lon="3.84112">
        <ele>297.616</ele>
        <time>2016-05-06T11:16:37Z</time>
      </trkpt>
      <trkpt lat="44.16009" lon="3.84152">
        <ele>273.218</ele>
        <time>2016-05-06T11:17:37Z</time>
      </trkpt>
      <trkpt lat="44.15955" lon="3.84212">
        <ele>259.376</ele>
        <time>2016-05-06T11:18:04Z</time>
      </trkpt>
      <trkpt lat="44.15956" lon="3.84164">
        <ele>256.393</ele>
        <time>2016-05-06T11:18:23Z</time>
      </trkpt>
      <trkpt lat="44.1593" lon="3.84141">
        <ele>249.697</ele>
        <time>2016-05-06T11:18:35Z</time>
      </trkpt>
      <trkpt lat="44.15914" lon="3.84121">
        <ele>247.411</ele>
        <time>2016-05-06T11:19:13Z</time>
      </trkpt>
      <trkpt lat="44.15899" lon="3.84119">
        <ele>243.279</ele>
        <time>2016-05-06T11:19:20Z</time>
      </trkpt>
      <trkpt lat="44.15891" lon="3.84149">
        <ele>239.89</ele>
        <time>2016-05-06T11:20:27Z</time>
      </trkpt>
      <trkpt lat="44.15879" lon="3.84127">
        <ele>238.639</ele>
        <time>2016-05-06T11:20:33Z</time>
      </trkpt>
      <trkpt lat="44.15866" lon="3.84097">
        <ele>237.643</ele>
        <time>2016-05-06T11:20:38Z</time>
      </trkpt>
      <trkpt lat="44.15855" lon="3.84077">
        <ele>236.523</ele>
        <time>2016-05-06T11:20:41Z</time>
      </trkpt>
      <trkpt lat="44.15839" lon="3.84062">
        <ele>235.81</ele>
        <time>2016-05-06T11:20:44Z</time>
      </trkpt>
      <trkpt lat="44.15827" lon="3.84055">
        <ele>236.655</ele>
        <time>2016-05-06T11:20:46Z</time>
      </trkpt>
      <trkpt lat="44.15688" lon="3.84057">
        <ele>238.42</ele>
        <time>2016-05-06T11:21:14Z</time>
      </trkpt>
      <trkpt lat="44.1568" lon="3.84131">
        <ele>239.92</ele>
        <time>2016-05-06T11:22:35Z</time>
      </trkpt>
      <trkpt lat="44.15656" lon="3.84137">
        <ele>241.782</ele>
        <time>2016-05-06T11:24:02Z</time>
      </trkpt>
      <trkpt lat="44.15675" lon="3.84164">
        <ele>242.288</ele>
        <time>2016-05-06T11:24:55Z</time>
      </trkpt>
      <trkpt lat="44.1568" lon="3.84264">
        <ele>258.91</ele>
        <time>2016-05-06T11:26:45Z</time>
      </trkpt>
      <trkpt lat="44.15635" lon="3.84196">
        <ele>257.199</ele>
        <time>2016-05-06T11:30:18Z</time>
      </trkpt>
      <trkpt lat="44.15628" lon="3.84203">
        <ele>261.08</ele>
        <time>2016-05-06T11:30:36Z</time>
      </trkpt>
      <trkpt lat="44.15632" lon="3.84222">
        <ele>264.717</ele>
        <time>2016-05-06T11:30:51Z</time>
      </trkpt>
      <trkpt lat="44.15635" lon="3.84245">
        <ele>270.832</ele>
        <time>2016-05-06T11:31:10Z</time>
      </trkpt>
      <trkpt lat="44.15627" lon="3.84237">
        <ele>271.404</ele>
        <time>2016-05-06T11:31:24Z</time>
      </trkpt>
      <trkpt lat="44.156" lon="3.84197">
        <ele>270.955</ele>
        <time>2016-05-06T11:32:29Z</time>
      </trkpt>
      <trkpt lat="44.15559" lon="3.84177">
        <ele>282.331</ele>
        <time>2016-05-06T11:33:29Z</time>
      </trkpt>
      <trkpt lat="44.15497" lon="3.84124">
        <ele>292.456</ele>
        <time>2016-05-06T11:34:55Z</time>
      </trkpt>
      <trkpt lat="44.15491" lon="3.84121">
        <ele>294.181</ele>
        <time>2016-05-06T11:34:59Z</time>
      </trkpt>
      <trkpt lat="44.1546" lon="3.84102">
        <ele>299.923</ele>
        <time>2016-05-06T11:35:12Z</time>
      </trkpt>
      <trkpt lat="44.15444" lon="3.84052">
        <ele>292.053</ele>
        <time>2016-05-06T11:37:11Z</time>
      </trkpt>
      <trkpt lat="44.15409" lon="3.84019">
        <ele>302.788</ele>
        <time>2016-05-06T11:38:00Z</time>
      </trkpt>
      <trkpt lat="44.1541" lon="3.83964">
        <ele>299.292</ele>
        <time>2016-05-06T11:38:35Z</time>
      </trkpt>
      <trkpt lat="44.15392" lon="3.83931">
        <ele>310.808</ele>
        <time>2016-05-06T11:39:05Z</time>
      </trkpt>
      <trkpt lat="44.15397" lon="3.83854">
        <ele>309.188</ele>
        <time>2016-05-06T11:42:14Z</time>
      </trkpt>
      <trkpt lat="44.1539" lon="3.8383">
        <ele>306.518</ele>
        <time>2016-05-06T11:42:45Z</time>
      </trkpt>
      <trkpt lat="44.15286" lon="3.83892">
        <ele>335.938</ele>
        <time>2016-05-06T11:44:43Z</time>
      </trkpt>
      <trkpt lat="44.15234" lon="3.83874">
        <ele>340.04</ele>
        <time>2016-05-06T11:46:06Z</time>
      </trkpt>
      <trkpt lat="44.15294" lon="3.83931">
        <ele>342.53</ele>
        <time>2016-05-06T11:47:36Z</time>
      </trkpt>
      <trkpt lat="44.15307" lon="3.83974">
        <ele>345.958</ele>
        <time>2016-05-06T11:48:12Z</time>
      </trkpt>
      <trkpt lat="44.15288" lon="3.83958">
        <ele>348.675</ele>
        <time>2016-05-06T11:59:33Z</time>
      </trkpt>
      <trkpt lat="44.15184" lon="3.83927">
        <ele>368.539</ele>
        <time>2016-05-06T12:03:29Z</time>
      </trkpt>
      <trkpt lat="44.15089" lon="3.83858">
        <ele>380.08</ele>
        <time>2016-05-06T12:08:41Z</time>
      </trkpt>
      <trkpt lat="44.14999" lon="3.83826">
        <ele>401.661</ele>
        <time>2016-05-06T12:11:51Z</time>
      </trkpt>
      <trkpt lat="44.14808" lon="3.83713">
        <ele>431.89</ele>
        <time>2016-05-06T12:19:59Z</time>
      </trkpt>
      <trkpt lat="44.14793" lon="3.83661">
        <ele>432.512</ele>
        <time>2016-05-06T12:20:48Z</time>
      </trkpt>
      <trkpt lat="44.14787" lon="3.83633">
        <ele>433.347</ele>
        <time>2016-05-06T12:21:12Z</time>
      </trkpt>
      <trkpt lat="44.14749" lon="3.83719">
        <ele>443.548</ele>
        <time>2016-05-06T12:24:21Z</time>
      </trkpt>
      <trkpt lat="44.14738" lon="3.83722">
        <ele>445.423</ele>
        <time>2016-05-06T12:25:02Z</time>
      </trkpt>
      <trkpt lat="44.14719" lon="3.83709">
        <ele>449.637</ele>
        <time>2016-05-06T12:26:07Z</time>
      </trkpt>
      <trkpt lat="44.14646" lon="3.83642">
        <ele>467.451</ele>
        <time>2016-05-06T12:27:56Z</time>
      </trkpt>
      <trkpt lat="44.14605" lon="3.83564">
        <ele>471.519</ele>
        <time>2016-05-06T12:29:17Z</time>
      </trkpt>
      <trkpt lat="44.14581" lon="3.83528">
        <ele>472.935</ele>
        <time>2016-05-06T12:30:35Z</time>
      </trkpt>
      <trkpt lat="44.14557" lon="3.83512">
        <ele>479.675</ele>
        <time>2016-05-06T12:31:39Z</time>
      </trkpt>
      <trkpt lat="44.14557" lon="3.83513">
        <ele>479.769</ele>
        <time>2016-05-06T12:31:46Z</time>
      </trkpt>
      <trkpt lat="44.14517" lon="3.8345">
        <ele>488.301</ele>
        <time>2016-05-06T12:39:56Z</time>
      </trkpt>
      <trkpt lat="44.14491" lon="3.83402">
        <ele>491.804</ele>
        <time>2016-05-06T12:40:41Z</time>
      </trkpt>
      <trkpt lat="44.14484" lon="3.83546">
        <ele>500.501</ele>
        <time>2016-05-06T12:42:44Z</time>
      </trkpt>
      <trkpt lat="44.14478" lon="3.83552">
        <ele>499.565</ele>
        <time>2016-05-06T12:42:53Z</time>
      </trkpt>
      <trkpt lat="44.14464" lon="3.83545">
        <ele>501.709</ele>
        <time>2016-05-06T12:43:36Z</time>
      </trkpt>
      <trkpt lat="44.14443" lon="3.83522">
        <ele>508.931</ele>
        <time>2016-05-06T12:43:47Z</time>
      </trkpt>
      <trkpt lat="44.14415" lon="3.83514">
        <ele>510.365</ele>
        <time>2016-05-06T12:43:53Z</time>
      </trkpt>
      <trkpt lat="44.14372" lon="3.83512">
        <ele>506.49</ele>
        <time>2016-05-06T12:44:07Z</time>
      </trkpt>
      <trkpt lat="44.14324" lon="3.83464">
        <ele>515.672</ele>
        <time>2016-05-06T12:44:30Z</time>
      </trkpt>
      <trkpt lat="44.14262" lon="3.8345">
        <ele>515.401</ele>
        <time>2016-05-06T12:45:22Z</time>
      </trkpt>
      <trkpt lat="44.14239" lon="3.83431">
        <ele>523.627</ele>
        <time>2016-05-06T12:45:57Z</time>
      </trkpt>
      <trkpt lat="44.14146" lon="3.83457">
        <ele>536.389</ele>
        <time>2016-05-06T12:48:08Z</time>
      </trkpt>
      <trkpt lat="44.14106" lon="3.83455">
        <ele>539.831</ele>
        <time>2016-05-06T12:49:16Z</time>
      </trkpt>
      <trkpt lat="44.13967" lon="3.83423">
        <ele>558.852</ele>
        <time>2016-05-06T12:53:57Z</time>
      </trkpt>
      <trkpt lat="44.13916" lon="3.83395">
        <ele>570.857</ele>
        <time>2016-05-06T12:55:49Z</time>
      </trkpt>
      <trkpt lat="44.13856" lon="3.83417">
        <ele>571.854</ele>
        <time>2016-05-06T12:56:58Z</time>
      </trkpt>
      <trkpt lat="44.13749" lon="3.83395">
        <ele>578.037</ele>
        <time>2016-05-06T12:59:13Z</time>
      </trkpt>
      <trkpt lat="44.13637" lon="3.83515">
        <ele>567.427</ele>
        <time>2016-05-06T12:59:42Z</time>
      </trkpt>
      <trkpt lat="44.13595" lon="3.83597">
        <ele>571.872</ele>
        <time>2016-05-06T13:00:07Z</time>
      </trkpt>
      <trkpt lat="44.13562" lon="3.83762">
        <ele>581.379</ele>
        <time>2016-05-06T13:01:12Z</time>
      </trkpt>
      <trkpt lat="44.13525" lon="3.83836">
        <ele>592.182</ele>
        <time>2016-05-06T13:01:49Z</time>
      </trkpt>
      <trkpt lat="44.13502" lon="3.8388">
        <ele>595.982</ele>
        <time>2016-05-06T13:02:33Z</time>
      </trkpt>
      <trkpt lat="44.13503" lon="3.83902">
        <ele>595.787</ele>
        <time>2016-05-06T13:03:48Z</time>
      </trkpt>
      <trkpt lat="44.13495" lon="3.83974">
        <ele>588.702</ele>
        <time>2016-05-06T13:05:03Z</time>
      </trkpt>
      <trkpt lat="44.13484" lon="3.83996">
        <ele>582.811</ele>
        <time>2016-05-06T13:05:45Z</time>
      </trkpt>
      <trkpt lat="44.13466" lon="3.83996">
        <ele>575.035</ele>
        <time>2016-05-06T13:07:43Z</time>
      </trkpt>
      <trkpt lat="44.13437" lon="3.84049">
        <ele>556.304</ele>
        <time>2016-05-06T13:13:34Z</time>
      </trkpt>
      <trkpt lat="44.13435" lon="3.84058">
        <ele>554.953</ele>
        <time>2016-05-06T13:13:47Z</time>
      </trkpt>
      <trkpt lat="44.13417" lon="3.84061">
        <ele>546.192</ele>
        <time>2016-05-06T13:15:00Z</time>
      </trkpt>
      <trkpt lat="44.13413" lon="3.84076">
        <ele>543.175</ele>
        <time>2016-05-06T13:15:13Z</time>
      </trkpt>
      <trkpt lat="44.13411" lon="3.84108">
        <ele>539.742</ele>
        <time>2016-05-06T13:15:38Z</time>
      </trkpt>
      <trkpt lat="44.13391" lon="3.84063">
        <ele>537.411</ele>
        <time>2016-05-06T13:16:38Z</time>
      </trkpt>
      <trkpt lat="44.13355" lon="3.84057">
        <ele>533.4</ele>
        <time>2016-05-06T13:19:12Z</time>
      </trkpt>
      <trkpt lat="44.13297" lon="3.84126">
        <ele>518.073</ele>
        <time>2016-05-06T13:22:45Z</time>
      </trkpt>
      <trkpt lat="44.13285" lon="3.84137">
        <ele>515.932</ele>
        <time>2016-05-06T13:22:53Z</time>
      </trkpt>
      <trkpt lat="44.13238" lon="3.84174">
        <ele>512.198</ele>
        <time>2016-05-06T13:23:45Z</time>
      </trkpt>
      <trkpt lat="44.13218" lon="3.84193">
        <ele>511.891</ele>
        <time>2016-05-06T13:23:54Z</time>
      </trkpt>
      <trkpt lat="44.13152" lon="3.84293">
        <ele>498.716</ele>
        <time>2016-05-06T13:25:09Z</time>
      </trkpt>
      <trkpt lat="44.13123" lon="3.84328">
        <ele>488.25</ele>
        <time>2016-05-06T13:25:32Z</time>
      </trkpt>
      <trkpt lat="44.13093" lon="3.8435">
        <ele>483.726</ele>
        <time>2016-05-06T13:26:26Z</time>
      </trkpt>
      <trkpt lat="44.13019" lon="3.84508">
        <ele>466.869</ele>
        <time>2016-05-06T13:29:30Z</time>
      </trkpt>
      <trkpt lat="44.1301" lon="3.84541">
        <ele>466.067</ele>
        <time>2016-05-06T13:30:04Z</time>
      </trkpt>
      <trkpt lat="44.12983" lon="3.84575">
        <ele>459.405</ele>
        <time>2016-05-06T13:30:28Z</time>
      </trkpt>
      <trkpt lat="44.12929" lon="3.84621">
        <ele>451.01</ele>
        <time>2016-05-06T13:31:07Z</time>
      </trkpt>
      <trkpt lat="44.12893" lon="3.84646">
        <ele>449.937</ele>
        <time>2016-05-06T13:31:30Z</time>
      </trkpt>
      <trkpt lat="44.12864" lon="3.84657">
        <ele>447.302</ele>
        <time>2016-05-06T13:31:50Z</time>
      </trkpt>
      <trkpt lat="44.12759" lon="3.84708">
        <ele>447.61</ele>
        <time>2016-05-06T13:33:24Z</time>
      </trkpt>
      <trkpt lat="44.12632" lon="3.8473">
        <ele>437.027</ele>
        <time>2016-05-06T13:37:22Z</time>
      </trkpt>
      <trkpt lat="44.1262" lon="3.84738">
        <ele>436.307</ele>
        <time>2016-05-06T13:37:46Z</time>
      </trkpt>
      <trkpt lat="44.12598" lon="3.84745">
        <ele>434.347</ele>
        <time>2016-05-06T13:37:55Z</time>
      </trkpt>
      <trkpt lat="44.12553" lon="3.84776">
        <ele>427.257</ele>
        <time>2016-05-06T13:38:14Z</time>
      </trkpt>
      <trkpt lat="44.12478" lon="3.84791">
        <ele>411.504</ele>
        <time>2016-05-06T13:39:24Z</time>
      </trkpt>
      <trkpt lat="44.12443" lon="3.84796">
        <ele>409.289</ele>
        <time>2016-05-06T13:39:32Z</time>
      </trkpt>
      <trkpt lat="44.12411" lon="3.8479">
        <ele>405.197</ele>
        <time>2016-05-06T13:39:38Z</time>
      </trkpt>
      <trkpt lat="44.12394" lon="3.84788">
        <ele>402.563</ele>
        <time>2016-05-06T13:39:41Z</time>
      </trkpt>
      <trkpt lat="44.12276" lon="3.84785">
        <ele>393.603</ele>
        <time>2016-05-06T13:40:06Z</time>
      </trkpt>
      <trkpt lat="44.12102" lon="3.84809">
        <ele>363.848</ele>
        <time>2016-05-06T13:40:59Z</time>
      </trkpt>
      <trkpt lat="44.12036" lon="3.84847">
        <ele>359.213</ele>
        <time>2016-05-06T13:41:22Z</time>
      </trkpt>
      <trkpt lat="44.12034" lon="3.84847">
        <ele>359.176</ele>
        <time>2016-05-06T13:41:28Z</time>
      </trkpt>
      <trkpt lat="44.12016" lon="3.8486">
        <ele>357.597</ele>
        <time>2016-05-06T13:41:52Z</time>
      </trkpt>
      <trkpt lat="44.11975" lon="3.84881">
        <ele>350.021</ele>
        <time>2016-05-06T13:42:04Z</time>
      </trkpt>
      <trkpt lat="44.11908" lon="3.84912">
        <ele>332.776</ele>
        <time>2016-05-06T13:42:24Z</time>
      </trkpt>
      <trkpt lat="44.11896" lon="3.84896">
        <ele>333.064</ele>
        <time>2016-05-06T13:42:32Z</time>
      </trkpt>
      <trkpt lat="44.11902" lon="3.84854">
        <ele>335.534</ele>
        <time>2016-05-06T13:42:38Z</time>
      </trkpt>
      <trkpt lat="44.11918" lon="3.84791">
        <ele>331.74</ele>
        <time>2016-05-06T13:42:44Z</time>
      </trkpt>
      <trkpt lat="44.11966" lon="3.84678">
        <ele>317.753</ele>
        <time>2016-05-06T13:42:54Z</time>
      </trkpt>
      <trkpt lat="44.1203" lon="3.84555">
        <ele>300.98</ele>
        <time>2016-05-06T13:43:06Z</time>
      </trkpt>
      <trkpt lat="44.12045" lon="3.84542">
        <ele>299.604</ele>
        <time>2016-05-06T13:43:09Z</time>
      </trkpt>
      <trkpt lat="44.12072" lon="3.84529">
        <ele>298.724</ele>
        <time>2016-05-06T13:43:14Z</time>
      </trkpt>
      <trkpt lat="44.12146" lon="3.8451">
        <ele>289.763</ele>
        <time>2016-05-06T13:45:19Z</time>
      </trkpt>
      <trkpt lat="44.12148" lon="3.84513">
        <ele>290.633</ele>
        <time>2016-05-06T13:47:43Z</time>
      </trkpt>
      <trkpt lat="44.12086" lon="3.84486">
        <ele>281.493</ele>
        <time>2016-05-06T13:49:37Z</time>
      </trkpt>
      <trkpt lat="44.12032" lon="3.84474">
        <ele>269.776</ele>
        <time>2016-05-06T13:49:44Z</time>
      </trkpt>
      <trkpt lat="44.12004" lon="3.84485">
        <ele>266.916</ele>
        <time>2016-05-06T13:49:48Z</time>
      </trkpt>
      <trkpt lat="44.11988" lon="3.84498">
        <ele>265.535</ele>
        <time>2016-05-06T13:49:50Z</time>
      </trkpt>
      <trkpt lat="44.11934" lon="3.8453">
        <ele>255.529</ele>
        <time>2016-05-06T13:49:57Z</time>
      </trkpt>
      <trkpt lat="44.119" lon="3.846">
        <ele>259.207</ele>
        <time>2016-05-06T13:50:49Z</time>
      </trkpt>
      <trkpt lat="44.1185" lon="3.84639">
        <ele>247.224</ele>
        <time>2016-05-06T13:50:58Z</time>
      </trkpt>
      <trkpt lat="44.11834" lon="3.84677">
        <ele>248.207</ele>
        <time>2016-05-06T13:51:02Z</time>
      </trkpt>
      <trkpt lat="44.11799" lon="3.84718">
        <ele>246.152</ele>
        <time>2016-05-06T13:51:07Z</time>
      </trkpt>
      <trkpt lat="44.11747" lon="3.84755">
        <ele>235.688</ele>
        <time>2016-05-06T13:51:14Z</time>
      </trkpt>
      <trkpt lat="44.11622" lon="3.8488">
        <ele>223.163</ele>
        <time>2016-05-06T13:51:36Z</time>
      </trkpt>
      <trkpt lat="44.11571" lon="3.84952">
        <ele>213.919</ele>
        <time>2016-05-06T13:51:44Z</time>
      </trkpt>
      <trkpt lat="44.11518" lon="3.85105">
        <ele>210.461</ele>
        <time>2016-05-06T13:52:15Z</time>
      </trkpt>
      <trkpt lat="44.11482" lon="3.85301">
        <ele>210.459</ele>
        <time>2016-05-06T13:52:54Z</time>
      </trkpt>
      <trkpt lat="44.11399" lon="3.85466">
        <ele>202.726</ele>
        <time>2016-05-06T13:53:29Z</time>
      </trkpt>
      <trkpt lat="44.11384" lon="3.85519">
        <ele>204.188</ele>
        <time>2016-05-06T13:53:38Z</time>
      </trkpt>
      <trkpt lat="44.11331" lon="3.85653">
        <ele>208.434</ele>
        <time>2016-05-06T13:54:02Z</time>
      </trkpt>
      <trkpt lat="44.11278" lon="3.85771">
        <ele>210.193</ele>
        <time>2016-05-06T13:54:23Z</time>
      </trkpt>
      <trkpt lat="44.11274" lon="3.85783">
        <ele>210.86</ele>
        <time>2016-05-06T13:54:25Z</time>
      </trkpt>
      <trkpt lat="44.11242" lon="3.86043">
        <ele>209.116</ele>
        <time>2016-05-06T13:54:58Z</time>
      </trkpt>
      <trkpt lat="44.11202" lon="3.86178">
        <ele>204.73</ele>
        <time>2016-05-06T13:55:15Z</time>
      </trkpt>
      <trkpt lat="44.11205" lon="3.86229">
        <ele>204.377</ele>
        <time>2016-05-06T13:55:21Z</time>
      </trkpt>
      <trkpt lat="44.11373" lon="3.86715">
        <ele>194.854</ele>
        <time>2016-05-06T13:57:19Z</time>
      </trkpt>
      <trkpt lat="44.11389" lon="3.86767">
        <ele>195.379</ele>
        <time>2016-05-06T13:57:30Z</time>
      </trkpt>
      <trkpt lat="44.11419" lon="3.86978">
        <ele>197.128</ele>
        <time>2016-05-06T13:58:21Z</time>
      </trkpt>
      <trkpt lat="44.11393" lon="3.87175">
        <ele>196.773</ele>
        <time>2016-05-06T14:01:02Z</time>
      </trkpt>
      <trkpt lat="44.11348" lon="3.87251">
        <ele>196.885</ele>
        <time>2016-05-06T14:02:57Z</time>
      </trkpt>
      <trkpt lat="44.1126" lon="3.87301">
        <ele>196.202</ele>
        <time>2016-05-06T14:05:10Z</time>
      </trkpt>
      <trkpt lat="44.11237" lon="3.87308">
        <ele>195.626</ele>
        <time>2016-05-06T14:05:48Z</time>
      </trkpt>
      <trkpt lat="44.11224" lon="3.87246">
        <ele>194.339</ele>
        <time>2016-05-06T14:06:06Z</time>
      </trkpt>
      <trkpt lat="44.11209" lon="3.87189">
        <ele>197.002</ele>
        <time>2016-05-06T14:06:23Z</time>
      </trkpt>
      <trkpt lat="44.11156" lon="3.87207">
        <ele>197.994</ele>
        <time>2016-05-06T14:06:47Z</time>
      </trkpt>
      <trkpt lat="44.11099" lon="3.87192">
        <ele>198.625</ele>
        <time>2016-05-06T14:07:04Z</time>
      </trkpt>
      <trkpt lat="44.11026" lon="3.87181">
        <ele>199.279</ele>
        <time>2016-05-06T14:07:24Z</time>
      </trkpt>
      <trkpt lat="44.11002" lon="3.87187">
        <ele>200.4</ele>
        <time>2016-05-06T14:07:31Z</time>
      </trkpt>
      <trkpt lat="44.10993" lon="3.87208">
        <ele>197.528</ele>
        <time>2016-05-06T14:07:36Z</time>
      </trkpt>
      <trkpt lat="44.10964" lon="3.87217">
        <ele>197.804</ele>
        <time>2016-05-06T14:07:46Z</time>
      </trkpt>
      <trkpt lat="44.10914" lon="3.87214">
        <ele>198.717</ele>
        <time>2016-05-06T14:08:00Z</time>
      </trkpt>
      <trkpt lat="44.10844" lon="3.87254">
        <ele>198.206</ele>
        <time>2016-05-06T14:08:17Z</time>
      </trkpt>
      <trkpt lat="44.10713" lon="3.87343">
        <ele>199.965</ele>
        <time>2016-05-06T14:08:50Z</time>
      </trkpt>
      <trkpt lat="44.10704" lon="3.87364">
        <ele>200.928</ele>
        <time>2016-05-06T14:08:53Z</time>
      </trkpt>
      <trkpt lat="44.10605" lon="3.87638">
        <ele>199.452</ele>
        <time>2016-05-06T14:09:35Z</time>
      </trkpt>
      <trkpt lat="44.10506" lon="3.87824">
        <ele>192.438</ele>
        <time>2016-05-06T14:10:16Z</time>
      </trkpt>
      <trkpt lat="44.10512" lon="3.87867">
        <ele>193.649</ele>
        <time>2016-05-06T14:10:23Z</time>
      </trkpt>
      <trkpt lat="44.10438" lon="3.88037">
        <ele>196.031</ele>
        <time>2016-05-06T14:10:53Z</time>
      </trkpt>
      <trkpt lat="44.10392" lon="3.88001">
        <ele>196.423</ele>
        <time>2016-05-06T14:11:18Z</time>
      </trkpt>
      <trkpt lat="44.1039" lon="3.87997">
        <ele>196.576</ele>
        <time>2016-05-06T14:11:23Z</time>
      </trkpt>
      <trkpt lat="44.10388" lon="3.87996">
        <ele>196.632</ele>
        <time>2016-05-06T14:11:30Z</time>
      </trkpt>
      <trkpt lat="44.10245" lon="3.88315">
        <ele>192.987</ele>
        <time>2016-05-06T14:13:01Z</time>
      </trkpt>
      <trkpt lat="44.10322" lon="3.88365">
        <ele>192.346</ele>
        <time>2016-05-06T14:13:25Z</time>
      </trkpt>
      <trkpt lat="44.1056" lon="3.88505">
        <ele>193.85</ele>
        <time>2016-05-06T14:14:54Z</time>
      </trkpt>
    </trkseg>
  </trk>
</gpx>